<?xml version="1.0" encoding="UTF-8" standalone="no" ?>
<gpx xmlns="http://www.topografix.com/GPX/1/1" xmlns:xsi="http://www.w3.org/2001/XMLSchema-instance" xsi:schemaLocation="http://www.topografix.com/GPX/1/1 http://www.topografix.com/GPX/1/1/gpx.xsd" version="1.1" creator="VisuGPX - https://www.visugpx.com">
  <metadata>
    <name>Rigol'hard 2017</name>
    <desc><![CDATA[Rigol'hard 2017 parcours 50km L'isle sur le doubs et environs]]></desc>
  </metadata>
  <trk>
    <name><![CDATA[Rigol'hard 2017 VTT]]></name>
    <trkseg>
      <trkpt lat="47.44997" lon="6.58041">
        <ele>293.399994</ele>
        <time>2017-06-11T06:26:59Z</time>
      </trkpt>
      <trkpt lat="47.44997" lon="6.58043">
        <ele>293.399994</ele>
        <time>2017-06-11T06:27:02Z</time>
      </trkpt>
      <trkpt lat="47.44996" lon="6.58045">
        <ele>293.600006</ele>
        <time>2017-06-11T06:27:03Z</time>
      </trkpt>
      <trkpt lat="47.44987" lon="6.58059">
        <ele>293.600006</ele>
        <time>2017-06-11T06:27:11Z</time>
      </trkpt>
      <trkpt lat="47.44972" lon="6.58075">
        <ele>293.600006</ele>
        <time>2017-06-11T06:27:18Z</time>
      </trkpt>
      <trkpt lat="47.44963" lon="6.58088">
        <ele>293.600006</ele>
        <time>2017-06-11T06:27:24Z</time>
      </trkpt>
      <trkpt lat="47.44958" lon="6.58102">
        <ele>293.600006</ele>
        <time>2017-06-11T06:27:32Z</time>
      </trkpt>
      <trkpt lat="47.44955" lon="6.58104">
        <ele>293.600006</ele>
        <time>2017-06-11T06:27:35Z</time>
      </trkpt>
      <trkpt lat="47.44953" lon="6.58124">
        <ele>293.600006</ele>
        <time>2017-06-11T06:27:41Z</time>
      </trkpt>
      <trkpt lat="47.44942" lon="6.58141">
        <ele>293.600006</ele>
        <time>2017-06-11T06:27:45Z</time>
      </trkpt>
      <trkpt lat="47.44926" lon="6.58151">
        <ele>293.600006</ele>
        <time>2017-06-11T06:27:49Z</time>
      </trkpt>
      <trkpt lat="47.44922" lon="6.58152">
        <ele>293.600006</ele>
        <time>2017-06-11T06:27:50Z</time>
      </trkpt>
      <trkpt lat="47.44913" lon="6.58164">
        <ele>293.600006</ele>
        <time>2017-06-11T06:27:53Z</time>
      </trkpt>
      <trkpt lat="47.44912" lon="6.58169">
        <ele>293.600006</ele>
        <time>2017-06-11T06:27:54Z</time>
      </trkpt>
      <trkpt lat="47.44911" lon="6.58193">
        <ele>293.600006</ele>
        <time>2017-06-11T06:27:58Z</time>
      </trkpt>
      <trkpt lat="47.44908" lon="6.58204">
        <ele>293.600006</ele>
        <time>2017-06-11T06:28:00Z</time>
      </trkpt>
      <trkpt lat="47.44894" lon="6.58227">
        <ele>293.600006</ele>
        <time>2017-06-11T06:28:05Z</time>
      </trkpt>
      <trkpt lat="47.44884" lon="6.58239">
        <ele>294.399994</ele>
        <time>2017-06-11T06:28:08Z</time>
      </trkpt>
      <trkpt lat="47.44873" lon="6.58254">
        <ele>295.600006</ele>
        <time>2017-06-11T06:28:11Z</time>
      </trkpt>
      <trkpt lat="47.44852" lon="6.58284">
        <ele>295.600006</ele>
        <time>2017-06-11T06:28:17Z</time>
      </trkpt>
      <trkpt lat="47.44823" lon="6.58334">
        <ele>295.200012</ele>
        <time>2017-06-11T06:28:26Z</time>
      </trkpt>
      <trkpt lat="47.44819" lon="6.58338">
        <ele>294.799988</ele>
        <time>2017-06-11T06:28:27Z</time>
      </trkpt>
      <trkpt lat="47.44814" lon="6.58342">
        <ele>294.399994</ele>
        <time>2017-06-11T06:28:28Z</time>
      </trkpt>
      <trkpt lat="47.44809" lon="6.58344">
        <ele>294</ele>
        <time>2017-06-11T06:28:29Z</time>
      </trkpt>
      <trkpt lat="47.44804" lon="6.58346">
        <ele>293.600006</ele>
        <time>2017-06-11T06:28:30Z</time>
      </trkpt>
      <trkpt lat="47.44794" lon="6.58345">
        <ele>293.600006</ele>
        <time>2017-06-11T06:28:32Z</time>
      </trkpt>
      <trkpt lat="47.44785" lon="6.58337">
        <ele>293.600006</ele>
        <time>2017-06-11T06:28:34Z</time>
      </trkpt>
      <trkpt lat="47.44742" lon="6.58289">
        <ele>293.600006</ele>
        <time>2017-06-11T06:28:44Z</time>
      </trkpt>
      <trkpt lat="47.44707" lon="6.58256">
        <ele>293.600006</ele>
        <time>2017-06-11T06:28:52Z</time>
      </trkpt>
      <trkpt lat="47.44673" lon="6.58228">
        <ele>293.600006</ele>
        <time>2017-06-11T06:29:00Z</time>
      </trkpt>
      <trkpt lat="47.44655" lon="6.58216">
        <ele>293.600006</ele>
        <time>2017-06-11T06:29:04Z</time>
      </trkpt>
      <trkpt lat="47.4465" lon="6.58214">
        <ele>293.600006</ele>
        <time>2017-06-11T06:29:05Z</time>
      </trkpt>
      <trkpt lat="47.44611" lon="6.58196">
        <ele>293.600006</ele>
        <time>2017-06-11T06:29:13Z</time>
      </trkpt>
      <trkpt lat="47.44535" lon="6.58153">
        <ele>293.600006</ele>
        <time>2017-06-11T06:29:29Z</time>
      </trkpt>
      <trkpt lat="47.4452" lon="6.58149">
        <ele>293.600006</ele>
        <time>2017-06-11T06:29:32Z</time>
      </trkpt>
      <trkpt lat="47.44516" lon="6.58152">
        <ele>293.600006</ele>
        <time>2017-06-11T06:29:33Z</time>
      </trkpt>
      <trkpt lat="47.44502" lon="6.58174">
        <ele>293.600006</ele>
        <time>2017-06-11T06:29:37Z</time>
      </trkpt>
      <trkpt lat="47.44485" lon="6.58203">
        <ele>293.600006</ele>
        <time>2017-06-11T06:29:43Z</time>
      </trkpt>
      <trkpt lat="47.4447" lon="6.58226">
        <ele>294.799988</ele>
        <time>2017-06-11T06:29:48Z</time>
      </trkpt>
      <trkpt lat="47.44467" lon="6.5823">
        <ele>295.200012</ele>
        <time>2017-06-11T06:29:49Z</time>
      </trkpt>
      <trkpt lat="47.44463" lon="6.5823">
        <ele>295.600006</ele>
        <time>2017-06-11T06:29:50Z</time>
      </trkpt>
      <trkpt lat="47.44456" lon="6.58227">
        <ele>295.600006</ele>
        <time>2017-06-11T06:29:52Z</time>
      </trkpt>
      <trkpt lat="47.44447" lon="6.58228">
        <ele>295.600006</ele>
        <time>2017-06-11T06:29:55Z</time>
      </trkpt>
      <trkpt lat="47.44444" lon="6.58229">
        <ele>295.600006</ele>
        <time>2017-06-11T06:29:56Z</time>
      </trkpt>
      <trkpt lat="47.44425" lon="6.58242">
        <ele>295.600006</ele>
        <time>2017-06-11T06:30:02Z</time>
      </trkpt>
      <trkpt lat="47.44422" lon="6.58244">
        <ele>296</ele>
        <time>2017-06-11T06:30:03Z</time>
      </trkpt>
      <trkpt lat="47.44419" lon="6.58245">
        <ele>296.799988</ele>
        <time>2017-06-11T06:30:04Z</time>
      </trkpt>
      <trkpt lat="47.44404" lon="6.58248">
        <ele>297.600006</ele>
        <time>2017-06-11T06:30:08Z</time>
      </trkpt>
      <trkpt lat="47.44385" lon="6.5825">
        <ele>297.600006</ele>
        <time>2017-06-11T06:30:13Z</time>
      </trkpt>
      <trkpt lat="47.44363" lon="6.58244">
        <ele>297.600006</ele>
        <time>2017-06-11T06:30:19Z</time>
      </trkpt>
      <trkpt lat="47.44337" lon="6.58248">
        <ele>297.600006</ele>
        <time>2017-06-11T06:30:26Z</time>
      </trkpt>
      <trkpt lat="47.44316" lon="6.58256">
        <ele>298</ele>
        <time>2017-06-11T06:30:32Z</time>
      </trkpt>
      <trkpt lat="47.44302" lon="6.58262">
        <ele>299.799988</ele>
        <time>2017-06-11T06:30:36Z</time>
      </trkpt>
      <trkpt lat="47.44251" lon="6.58275">
        <ele>299.799988</ele>
        <time>2017-06-11T06:30:50Z</time>
      </trkpt>
      <trkpt lat="47.4423" lon="6.58279">
        <ele>299.799988</ele>
        <time>2017-06-11T06:30:56Z</time>
      </trkpt>
      <trkpt lat="47.44219" lon="6.58266">
        <ele>299.799988</ele>
        <time>2017-06-11T06:31:00Z</time>
      </trkpt>
      <trkpt lat="47.4421" lon="6.58267">
        <ele>299.799988</ele>
        <time>2017-06-11T06:31:03Z</time>
      </trkpt>
      <trkpt lat="47.44203" lon="6.58278">
        <ele>300.200012</ele>
        <time>2017-06-11T06:31:06Z</time>
      </trkpt>
      <trkpt lat="47.44194" lon="6.58288">
        <ele>301.399994</ele>
        <time>2017-06-11T06:31:09Z</time>
      </trkpt>
      <trkpt lat="47.44191" lon="6.58291">
        <ele>301.799988</ele>
        <time>2017-06-11T06:31:10Z</time>
      </trkpt>
      <trkpt lat="47.44166" lon="6.58306">
        <ele>301.799988</ele>
        <time>2017-06-11T06:31:17Z</time>
      </trkpt>
      <trkpt lat="47.44147" lon="6.58311">
        <ele>302.200012</ele>
        <time>2017-06-11T06:31:22Z</time>
      </trkpt>
      <trkpt lat="47.44136" lon="6.58314">
        <ele>303.399994</ele>
        <time>2017-06-11T06:31:25Z</time>
      </trkpt>
      <trkpt lat="47.44114" lon="6.5832">
        <ele>303.799988</ele>
        <time>2017-06-11T06:31:31Z</time>
      </trkpt>
      <trkpt lat="47.44107" lon="6.58322">
        <ele>304.200012</ele>
        <time>2017-06-11T06:31:33Z</time>
      </trkpt>
      <trkpt lat="47.44093" lon="6.58328">
        <ele>306</ele>
        <time>2017-06-11T06:31:37Z</time>
      </trkpt>
      <trkpt lat="47.44067" lon="6.58337">
        <ele>307.200012</ele>
        <time>2017-06-11T06:31:45Z</time>
      </trkpt>
      <trkpt lat="47.4406" lon="6.58339">
        <ele>308</ele>
        <time>2017-06-11T06:31:47Z</time>
      </trkpt>
      <trkpt lat="47.44051" lon="6.58343">
        <ele>308</ele>
        <time>2017-06-11T06:31:50Z</time>
      </trkpt>
      <trkpt lat="47.44041" lon="6.58346">
        <ele>308.799988</ele>
        <time>2017-06-11T06:31:53Z</time>
      </trkpt>
      <trkpt lat="47.44031" lon="6.5835">
        <ele>310</ele>
        <time>2017-06-11T06:31:56Z</time>
      </trkpt>
      <trkpt lat="47.44022" lon="6.58354">
        <ele>310</ele>
        <time>2017-06-11T06:31:59Z</time>
      </trkpt>
      <trkpt lat="47.44019" lon="6.58355">
        <ele>310.399994</ele>
        <time>2017-06-11T06:32:00Z</time>
      </trkpt>
      <trkpt lat="47.4401" lon="6.58358">
        <ele>311.600006</ele>
        <time>2017-06-11T06:32:03Z</time>
      </trkpt>
      <trkpt lat="47.44" lon="6.58362">
        <ele>312</ele>
        <time>2017-06-11T06:32:06Z</time>
      </trkpt>
      <trkpt lat="47.43986" lon="6.58366">
        <ele>312.799988</ele>
        <time>2017-06-11T06:32:10Z</time>
      </trkpt>
      <trkpt lat="47.4398" lon="6.58369">
        <ele>313.799988</ele>
        <time>2017-06-11T06:32:12Z</time>
      </trkpt>
      <trkpt lat="47.43947" lon="6.58382">
        <ele>314.600006</ele>
        <time>2017-06-11T06:32:22Z</time>
      </trkpt>
      <trkpt lat="47.43933" lon="6.58386">
        <ele>316.399994</ele>
        <time>2017-06-11T06:32:26Z</time>
      </trkpt>
      <trkpt lat="47.43912" lon="6.58395">
        <ele>316.399994</ele>
        <time>2017-06-11T06:32:33Z</time>
      </trkpt>
      <trkpt lat="47.43906" lon="6.58397">
        <ele>317.200012</ele>
        <time>2017-06-11T06:32:35Z</time>
      </trkpt>
      <trkpt lat="47.43899" lon="6.58399">
        <ele>318</ele>
        <time>2017-06-11T06:32:37Z</time>
      </trkpt>
      <trkpt lat="47.43893" lon="6.58401">
        <ele>318.399994</ele>
        <time>2017-06-11T06:32:39Z</time>
      </trkpt>
      <trkpt lat="47.43873" lon="6.58412">
        <ele>318.399994</ele>
        <time>2017-06-11T06:32:46Z</time>
      </trkpt>
      <trkpt lat="47.43865" lon="6.58416">
        <ele>319.399994</ele>
        <time>2017-06-11T06:32:49Z</time>
      </trkpt>
      <trkpt lat="47.43858" lon="6.58419">
        <ele>320.200012</ele>
        <time>2017-06-11T06:32:51Z</time>
      </trkpt>
      <trkpt lat="47.43855" lon="6.58419">
        <ele>320.600006</ele>
        <time>2017-06-11T06:32:52Z</time>
      </trkpt>
      <trkpt lat="47.43849" lon="6.58422">
        <ele>320.600006</ele>
        <time>2017-06-11T06:32:54Z</time>
      </trkpt>
      <trkpt lat="47.43837" lon="6.58426">
        <ele>321.399994</ele>
        <time>2017-06-11T06:32:58Z</time>
      </trkpt>
      <trkpt lat="47.43834" lon="6.58427">
        <ele>321.799988</ele>
        <time>2017-06-11T06:32:59Z</time>
      </trkpt>
      <trkpt lat="47.43828" lon="6.5843">
        <ele>322.799988</ele>
        <time>2017-06-11T06:33:01Z</time>
      </trkpt>
      <trkpt lat="47.43803" lon="6.58437">
        <ele>322.799988</ele>
        <time>2017-06-11T06:33:09Z</time>
      </trkpt>
      <trkpt lat="47.43779" lon="6.58443">
        <ele>322.799988</ele>
        <time>2017-06-11T06:33:17Z</time>
      </trkpt>
      <trkpt lat="47.43777" lon="6.58441">
        <ele>323.200012</ele>
        <time>2017-06-11T06:33:18Z</time>
      </trkpt>
      <trkpt lat="47.43775" lon="6.58437">
        <ele>323.600006</ele>
        <time>2017-06-11T06:33:19Z</time>
      </trkpt>
      <trkpt lat="47.43775" lon="6.58433">
        <ele>324</ele>
        <time>2017-06-11T06:33:20Z</time>
      </trkpt>
      <trkpt lat="47.43773" lon="6.58408">
        <ele>324.799988</ele>
        <time>2017-06-11T06:33:24Z</time>
      </trkpt>
      <trkpt lat="47.43772" lon="6.58401">
        <ele>324.399994</ele>
        <time>2017-06-11T06:33:25Z</time>
      </trkpt>
      <trkpt lat="47.43769" lon="6.58384">
        <ele>323.399994</ele>
        <time>2017-06-11T06:33:27Z</time>
      </trkpt>
      <trkpt lat="47.43763" lon="6.58348">
        <ele>321.399994</ele>
        <time>2017-06-11T06:33:31Z</time>
      </trkpt>
      <trkpt lat="47.43758" lon="6.58325">
        <ele>319.799988</ele>
        <time>2017-06-11T06:33:34Z</time>
      </trkpt>
      <trkpt lat="47.43758" lon="6.58318">
        <ele>319.200012</ele>
        <time>2017-06-11T06:33:35Z</time>
      </trkpt>
      <trkpt lat="47.43757" lon="6.58306">
        <ele>318</ele>
        <time>2017-06-11T06:33:37Z</time>
      </trkpt>
      <trkpt lat="47.43756" lon="6.583">
        <ele>318</ele>
        <time>2017-06-11T06:33:38Z</time>
      </trkpt>
      <trkpt lat="47.43752" lon="6.58274">
        <ele>318.399994</ele>
        <time>2017-06-11T06:33:42Z</time>
      </trkpt>
      <trkpt lat="47.4375" lon="6.58263">
        <ele>319.200012</ele>
        <time>2017-06-11T06:33:44Z</time>
      </trkpt>
      <trkpt lat="47.43749" lon="6.58258">
        <ele>319.600006</ele>
        <time>2017-06-11T06:33:45Z</time>
      </trkpt>
      <trkpt lat="47.43744" lon="6.58237">
        <ele>320.600006</ele>
        <time>2017-06-11T06:33:49Z</time>
      </trkpt>
      <trkpt lat="47.43743" lon="6.58226">
        <ele>321.399994</ele>
        <time>2017-06-11T06:33:51Z</time>
      </trkpt>
      <trkpt lat="47.43741" lon="6.58215">
        <ele>322.200012</ele>
        <time>2017-06-11T06:33:53Z</time>
      </trkpt>
      <trkpt lat="47.43734" lon="6.58191">
        <ele>322.600006</ele>
        <time>2017-06-11T06:33:58Z</time>
      </trkpt>
      <trkpt lat="47.43731" lon="6.5819">
        <ele>323</ele>
        <time>2017-06-11T06:33:59Z</time>
      </trkpt>
      <trkpt lat="47.43727" lon="6.5819">
        <ele>323.399994</ele>
        <time>2017-06-11T06:34:00Z</time>
      </trkpt>
      <trkpt lat="47.43724" lon="6.58191">
        <ele>324</ele>
        <time>2017-06-11T06:34:01Z</time>
      </trkpt>
      <trkpt lat="47.43717" lon="6.58194">
        <ele>324.399994</ele>
        <time>2017-06-11T06:34:03Z</time>
      </trkpt>
      <trkpt lat="47.43699" lon="6.58206">
        <ele>324.399994</ele>
        <time>2017-06-11T06:34:08Z</time>
      </trkpt>
      <trkpt lat="47.43696" lon="6.58209">
        <ele>324.399994</ele>
        <time>2017-06-11T06:34:09Z</time>
      </trkpt>
      <trkpt lat="47.43651" lon="6.58256">
        <ele>324.399994</ele>
        <time>2017-06-11T06:34:22Z</time>
      </trkpt>
      <trkpt lat="47.43635" lon="6.58274">
        <ele>325.200012</ele>
        <time>2017-06-11T06:34:27Z</time>
      </trkpt>
      <trkpt lat="47.43628" lon="6.58282">
        <ele>326</ele>
        <time>2017-06-11T06:34:29Z</time>
      </trkpt>
      <trkpt lat="47.43621" lon="6.58289">
        <ele>326.399994</ele>
        <time>2017-06-11T06:34:31Z</time>
      </trkpt>
      <trkpt lat="47.43596" lon="6.5832">
        <ele>326.399994</ele>
        <time>2017-06-11T06:34:39Z</time>
      </trkpt>
      <trkpt lat="47.43563" lon="6.58355">
        <ele>326.399994</ele>
        <time>2017-06-11T06:34:49Z</time>
      </trkpt>
      <trkpt lat="47.43539" lon="6.58381">
        <ele>328.600006</ele>
        <time>2017-06-11T06:34:57Z</time>
      </trkpt>
      <trkpt lat="47.43522" lon="6.58401">
        <ele>329</ele>
        <time>2017-06-11T06:35:03Z</time>
      </trkpt>
      <trkpt lat="47.4351" lon="6.58412">
        <ele>330.600006</ele>
        <time>2017-06-11T06:35:07Z</time>
      </trkpt>
      <trkpt lat="47.43498" lon="6.58425">
        <ele>330.600006</ele>
        <time>2017-06-11T06:35:11Z</time>
      </trkpt>
      <trkpt lat="47.43473" lon="6.58453">
        <ele>331.200012</ele>
        <time>2017-06-11T06:35:19Z</time>
      </trkpt>
      <trkpt lat="47.4346" lon="6.58466">
        <ele>332.799988</ele>
        <time>2017-06-11T06:35:23Z</time>
      </trkpt>
      <trkpt lat="47.43447" lon="6.5848">
        <ele>332.799988</ele>
        <time>2017-06-11T06:35:27Z</time>
      </trkpt>
      <trkpt lat="47.43428" lon="6.58503">
        <ele>332.799988</ele>
        <time>2017-06-11T06:35:33Z</time>
      </trkpt>
      <trkpt lat="47.43425" lon="6.58507">
        <ele>332.799988</ele>
        <time>2017-06-11T06:35:34Z</time>
      </trkpt>
      <trkpt lat="47.43401" lon="6.58539">
        <ele>332.799988</ele>
        <time>2017-06-11T06:35:42Z</time>
      </trkpt>
      <trkpt lat="47.43371" lon="6.58567">
        <ele>332.799988</ele>
        <time>2017-06-11T06:35:50Z</time>
      </trkpt>
      <trkpt lat="47.43362" lon="6.58574">
        <ele>332.799988</ele>
        <time>2017-06-11T06:35:52Z</time>
      </trkpt>
      <trkpt lat="47.43346" lon="6.58589">
        <ele>332.799988</ele>
        <time>2017-06-11T06:35:56Z</time>
      </trkpt>
      <trkpt lat="47.43329" lon="6.58606">
        <ele>332.799988</ele>
        <time>2017-06-11T06:36:00Z</time>
      </trkpt>
      <trkpt lat="47.43282" lon="6.58654">
        <ele>332.799988</ele>
        <time>2017-06-11T06:36:11Z</time>
      </trkpt>
      <trkpt lat="47.43248" lon="6.58684">
        <ele>332.799988</ele>
        <time>2017-06-11T06:36:19Z</time>
      </trkpt>
      <trkpt lat="47.43219" lon="6.58703">
        <ele>332.799988</ele>
        <time>2017-06-11T06:36:26Z</time>
      </trkpt>
      <trkpt lat="47.43191" lon="6.58722">
        <ele>334</ele>
        <time>2017-06-11T06:36:33Z</time>
      </trkpt>
      <trkpt lat="47.43183" lon="6.58728">
        <ele>334.799988</ele>
        <time>2017-06-11T06:36:35Z</time>
      </trkpt>
      <trkpt lat="47.43169" lon="6.58736">
        <ele>334.799988</ele>
        <time>2017-06-11T06:36:38Z</time>
      </trkpt>
      <trkpt lat="47.4316" lon="6.5873">
        <ele>334.799988</ele>
        <time>2017-06-11T06:36:40Z</time>
      </trkpt>
      <trkpt lat="47.43155" lon="6.58706">
        <ele>334.799988</ele>
        <time>2017-06-11T06:36:43Z</time>
      </trkpt>
      <trkpt lat="47.43149" lon="6.58664">
        <ele>334.799988</ele>
        <time>2017-06-11T06:36:48Z</time>
      </trkpt>
      <trkpt lat="47.43136" lon="6.58652">
        <ele>334.799988</ele>
        <time>2017-06-11T06:36:51Z</time>
      </trkpt>
      <trkpt lat="47.43126" lon="6.58647">
        <ele>334.399994</ele>
        <time>2017-06-11T06:36:53Z</time>
      </trkpt>
      <trkpt lat="47.43121" lon="6.58644">
        <ele>334</ele>
        <time>2017-06-11T06:36:54Z</time>
      </trkpt>
      <trkpt lat="47.43107" lon="6.58637">
        <ele>332.799988</ele>
        <time>2017-06-11T06:36:57Z</time>
      </trkpt>
      <trkpt lat="47.43092" lon="6.58632">
        <ele>332.799988</ele>
        <time>2017-06-11T06:37:00Z</time>
      </trkpt>
      <trkpt lat="47.43082" lon="6.58632">
        <ele>332.799988</ele>
        <time>2017-06-11T06:37:02Z</time>
      </trkpt>
      <trkpt lat="47.43053" lon="6.58637">
        <ele>332.799988</ele>
        <time>2017-06-11T06:37:08Z</time>
      </trkpt>
      <trkpt lat="47.43036" lon="6.5864">
        <ele>332.799988</ele>
        <time>2017-06-11T06:37:12Z</time>
      </trkpt>
      <trkpt lat="47.43024" lon="6.58641">
        <ele>332.799988</ele>
        <time>2017-06-11T06:37:15Z</time>
      </trkpt>
      <trkpt lat="47.43002" lon="6.58642">
        <ele>333.600006</ele>
        <time>2017-06-11T06:37:21Z</time>
      </trkpt>
      <trkpt lat="47.42981" lon="6.58646">
        <ele>335</ele>
        <time>2017-06-11T06:37:28Z</time>
      </trkpt>
      <trkpt lat="47.42939" lon="6.58659">
        <ele>335</ele>
        <time>2017-06-11T06:37:39Z</time>
      </trkpt>
      <trkpt lat="47.42919" lon="6.58667">
        <ele>335</ele>
        <time>2017-06-11T06:37:44Z</time>
      </trkpt>
      <trkpt lat="47.42915" lon="6.5867">
        <ele>335</ele>
        <time>2017-06-11T06:37:45Z</time>
      </trkpt>
      <trkpt lat="47.42899" lon="6.58676">
        <ele>335</ele>
        <time>2017-06-11T06:37:49Z</time>
      </trkpt>
      <trkpt lat="47.42895" lon="6.58678">
        <ele>335</ele>
        <time>2017-06-11T06:37:50Z</time>
      </trkpt>
      <trkpt lat="47.42848" lon="6.58697">
        <ele>335</ele>
        <time>2017-06-11T06:38:03Z</time>
      </trkpt>
      <trkpt lat="47.42829" lon="6.58707">
        <ele>335.399994</ele>
        <time>2017-06-11T06:38:09Z</time>
      </trkpt>
      <trkpt lat="47.42826" lon="6.58708">
        <ele>335.799988</ele>
        <time>2017-06-11T06:38:10Z</time>
      </trkpt>
      <trkpt lat="47.42818" lon="6.58713">
        <ele>337.200012</ele>
        <time>2017-06-11T06:38:13Z</time>
      </trkpt>
      <trkpt lat="47.42789" lon="6.58727">
        <ele>339.200012</ele>
        <time>2017-06-11T06:38:24Z</time>
      </trkpt>
      <trkpt lat="47.42775" lon="6.58734">
        <ele>341.200012</ele>
        <time>2017-06-11T06:38:30Z</time>
      </trkpt>
      <trkpt lat="47.42764" lon="6.58741">
        <ele>341.600006</ele>
        <time>2017-06-11T06:38:35Z</time>
      </trkpt>
      <trkpt lat="47.42762" lon="6.58742">
        <ele>342.200012</ele>
        <time>2017-06-11T06:38:36Z</time>
      </trkpt>
      <trkpt lat="47.42756" lon="6.58746">
        <ele>343.399994</ele>
        <time>2017-06-11T06:38:39Z</time>
      </trkpt>
      <trkpt lat="47.42747" lon="6.5875">
        <ele>343.799988</ele>
        <time>2017-06-11T06:38:43Z</time>
      </trkpt>
      <trkpt lat="47.42735" lon="6.58757">
        <ele>345.600006</ele>
        <time>2017-06-11T06:38:49Z</time>
      </trkpt>
      <trkpt lat="47.42729" lon="6.58758">
        <ele>346.399994</ele>
        <time>2017-06-11T06:38:52Z</time>
      </trkpt>
      <trkpt lat="47.42727" lon="6.58758">
        <ele>346.799988</ele>
        <time>2017-06-11T06:38:53Z</time>
      </trkpt>
      <trkpt lat="47.42725" lon="6.58758">
        <ele>347.200012</ele>
        <time>2017-06-11T06:38:54Z</time>
      </trkpt>
      <trkpt lat="47.42711" lon="6.58764">
        <ele>349.600006</ele>
        <time>2017-06-11T06:39:02Z</time>
      </trkpt>
      <trkpt lat="47.42704" lon="6.5877">
        <ele>350</ele>
        <time>2017-06-11T06:39:06Z</time>
      </trkpt>
      <trkpt lat="47.42702" lon="6.58771">
        <ele>350.399994</ele>
        <time>2017-06-11T06:39:07Z</time>
      </trkpt>
      <trkpt lat="47.42691" lon="6.58778">
        <ele>352.200012</ele>
        <time>2017-06-11T06:39:13Z</time>
      </trkpt>
      <trkpt lat="47.42687" lon="6.5878">
        <ele>353</ele>
        <time>2017-06-11T06:39:15Z</time>
      </trkpt>
      <trkpt lat="47.4268" lon="6.58786">
        <ele>353.799988</ele>
        <time>2017-06-11T06:39:19Z</time>
      </trkpt>
      <trkpt lat="47.42666" lon="6.58795">
        <ele>355.200012</ele>
        <time>2017-06-11T06:39:26Z</time>
      </trkpt>
      <trkpt lat="47.4266" lon="6.58799">
        <ele>356</ele>
        <time>2017-06-11T06:39:29Z</time>
      </trkpt>
      <trkpt lat="47.42647" lon="6.58806">
        <ele>357.600006</ele>
        <time>2017-06-11T06:39:36Z</time>
      </trkpt>
      <trkpt lat="47.42633" lon="6.58809">
        <ele>358</ele>
        <time>2017-06-11T06:39:42Z</time>
      </trkpt>
      <trkpt lat="47.42626" lon="6.5881">
        <ele>358.600006</ele>
        <time>2017-06-11T06:39:46Z</time>
      </trkpt>
      <trkpt lat="47.42624" lon="6.5881">
        <ele>359</ele>
        <time>2017-06-11T06:39:47Z</time>
      </trkpt>
      <trkpt lat="47.42622" lon="6.58809">
        <ele>359.799988</ele>
        <time>2017-06-11T06:39:49Z</time>
      </trkpt>
      <trkpt lat="47.42614" lon="6.58803">
        <ele>360.200012</ele>
        <time>2017-06-11T06:39:53Z</time>
      </trkpt>
      <trkpt lat="47.42605" lon="6.58799">
        <ele>360.600006</ele>
        <time>2017-06-11T06:39:56Z</time>
      </trkpt>
      <trkpt lat="47.42598" lon="6.58797">
        <ele>361.799988</ele>
        <time>2017-06-11T06:39:58Z</time>
      </trkpt>
      <trkpt lat="47.42595" lon="6.58797">
        <ele>362.200012</ele>
        <time>2017-06-11T06:39:59Z</time>
      </trkpt>
      <trkpt lat="47.42582" lon="6.58794">
        <ele>363.399994</ele>
        <time>2017-06-11T06:40:06Z</time>
      </trkpt>
      <trkpt lat="47.42579" lon="6.58794">
        <ele>363.799988</ele>
        <time>2017-06-11T06:40:07Z</time>
      </trkpt>
      <trkpt lat="47.42576" lon="6.58793">
        <ele>364.200012</ele>
        <time>2017-06-11T06:40:09Z</time>
      </trkpt>
      <trkpt lat="47.42559" lon="6.58787">
        <ele>365.600006</ele>
        <time>2017-06-11T06:40:18Z</time>
      </trkpt>
      <trkpt lat="47.42553" lon="6.58783">
        <ele>366.399994</ele>
        <time>2017-06-11T06:40:20Z</time>
      </trkpt>
      <trkpt lat="47.4254" lon="6.58779">
        <ele>366.399994</ele>
        <time>2017-06-11T06:40:24Z</time>
      </trkpt>
      <trkpt lat="47.42511" lon="6.5877">
        <ele>367.200012</ele>
        <time>2017-06-11T06:40:34Z</time>
      </trkpt>
      <trkpt lat="47.42502" lon="6.58768">
        <ele>368.600006</ele>
        <time>2017-06-11T06:40:37Z</time>
      </trkpt>
      <trkpt lat="47.4249" lon="6.58766">
        <ele>368.600006</ele>
        <time>2017-06-11T06:40:40Z</time>
      </trkpt>
      <trkpt lat="47.42475" lon="6.58766">
        <ele>368.600006</ele>
        <time>2017-06-11T06:40:45Z</time>
      </trkpt>
      <trkpt lat="47.42452" lon="6.58764">
        <ele>369.399994</ele>
        <time>2017-06-11T06:40:53Z</time>
      </trkpt>
      <trkpt lat="47.42447" lon="6.58764">
        <ele>370.200012</ele>
        <time>2017-06-11T06:40:55Z</time>
      </trkpt>
      <trkpt lat="47.42443" lon="6.58763">
        <ele>370.600006</ele>
        <time>2017-06-11T06:40:56Z</time>
      </trkpt>
      <trkpt lat="47.42423" lon="6.58762">
        <ele>370.600006</ele>
        <time>2017-06-11T06:41:02Z</time>
      </trkpt>
      <trkpt lat="47.42406" lon="6.58765">
        <ele>370.600006</ele>
        <time>2017-06-11T06:41:07Z</time>
      </trkpt>
      <trkpt lat="47.42393" lon="6.58764">
        <ele>370.600006</ele>
        <time>2017-06-11T06:41:12Z</time>
      </trkpt>
      <trkpt lat="47.42382" lon="6.58766">
        <ele>371.399994</ele>
        <time>2017-06-11T06:41:16Z</time>
      </trkpt>
      <trkpt lat="47.42379" lon="6.58767">
        <ele>371.799988</ele>
        <time>2017-06-11T06:41:17Z</time>
      </trkpt>
      <trkpt lat="47.42376" lon="6.58767">
        <ele>372.200012</ele>
        <time>2017-06-11T06:41:18Z</time>
      </trkpt>
      <trkpt lat="47.4235" lon="6.58771">
        <ele>372.600006</ele>
        <time>2017-06-11T06:41:28Z</time>
      </trkpt>
      <trkpt lat="47.42341" lon="6.58771">
        <ele>372.600006</ele>
        <time>2017-06-11T06:41:32Z</time>
      </trkpt>
      <trkpt lat="47.42339" lon="6.5877">
        <ele>372.600006</ele>
        <time>2017-06-11T06:41:33Z</time>
      </trkpt>
      <trkpt lat="47.42328" lon="6.58774">
        <ele>372.600006</ele>
        <time>2017-06-11T06:41:37Z</time>
      </trkpt>
      <trkpt lat="47.42314" lon="6.5878">
        <ele>372.600006</ele>
        <time>2017-06-11T06:41:42Z</time>
      </trkpt>
      <trkpt lat="47.42306" lon="6.58784">
        <ele>372.600006</ele>
        <time>2017-06-11T06:41:45Z</time>
      </trkpt>
      <trkpt lat="47.42292" lon="6.5879">
        <ele>372.600006</ele>
        <time>2017-06-11T06:41:50Z</time>
      </trkpt>
      <trkpt lat="47.42271" lon="6.58791">
        <ele>372.600006</ele>
        <time>2017-06-11T06:41:55Z</time>
      </trkpt>
      <trkpt lat="47.42232" lon="6.58794">
        <ele>372.600006</ele>
        <time>2017-06-11T06:42:01Z</time>
      </trkpt>
      <trkpt lat="47.4219" lon="6.58788">
        <ele>372.600006</ele>
        <time>2017-06-11T06:42:06Z</time>
      </trkpt>
      <trkpt lat="47.42183" lon="6.58789">
        <ele>372.200012</ele>
        <time>2017-06-11T06:42:07Z</time>
      </trkpt>
      <trkpt lat="47.42177" lon="6.58789">
        <ele>371.799988</ele>
        <time>2017-06-11T06:42:08Z</time>
      </trkpt>
      <trkpt lat="47.42164" lon="6.58789">
        <ele>370.799988</ele>
        <time>2017-06-11T06:42:10Z</time>
      </trkpt>
      <trkpt lat="47.42147" lon="6.5879">
        <ele>370</ele>
        <time>2017-06-11T06:42:13Z</time>
      </trkpt>
      <trkpt lat="47.42136" lon="6.5879">
        <ele>369</ele>
        <time>2017-06-11T06:42:15Z</time>
      </trkpt>
      <trkpt lat="47.42112" lon="6.58788">
        <ele>367.600006</ele>
        <time>2017-06-11T06:42:19Z</time>
      </trkpt>
      <trkpt lat="47.42101" lon="6.58785">
        <ele>366.600006</ele>
        <time>2017-06-11T06:42:21Z</time>
      </trkpt>
      <trkpt lat="47.42091" lon="6.58783">
        <ele>365.600006</ele>
        <time>2017-06-11T06:42:23Z</time>
      </trkpt>
      <trkpt lat="47.42081" lon="6.58783">
        <ele>364.600006</ele>
        <time>2017-06-11T06:42:25Z</time>
      </trkpt>
      <trkpt lat="47.42078" lon="6.58781">
        <ele>363.600006</ele>
        <time>2017-06-11T06:42:26Z</time>
      </trkpt>
      <trkpt lat="47.42075" lon="6.58779">
        <ele>363.600006</ele>
        <time>2017-06-11T06:42:27Z</time>
      </trkpt>
      <trkpt lat="47.42068" lon="6.58778">
        <ele>363</ele>
        <time>2017-06-11T06:42:29Z</time>
      </trkpt>
      <trkpt lat="47.42063" lon="6.58775">
        <ele>362.200012</ele>
        <time>2017-06-11T06:42:31Z</time>
      </trkpt>
      <trkpt lat="47.42057" lon="6.58773">
        <ele>361.200012</ele>
        <time>2017-06-11T06:42:33Z</time>
      </trkpt>
      <trkpt lat="47.4205" lon="6.58769">
        <ele>360.799988</ele>
        <time>2017-06-11T06:42:35Z</time>
      </trkpt>
      <trkpt lat="47.42047" lon="6.58768">
        <ele>360.399994</ele>
        <time>2017-06-11T06:42:36Z</time>
      </trkpt>
      <trkpt lat="47.42042" lon="6.58764">
        <ele>359.399994</ele>
        <time>2017-06-11T06:42:38Z</time>
      </trkpt>
      <trkpt lat="47.42039" lon="6.58762">
        <ele>359</ele>
        <time>2017-06-11T06:42:39Z</time>
      </trkpt>
      <trkpt lat="47.42032" lon="6.58761">
        <ele>358.600006</ele>
        <time>2017-06-11T06:42:41Z</time>
      </trkpt>
      <trkpt lat="47.42026" lon="6.58757">
        <ele>357.600006</ele>
        <time>2017-06-11T06:42:43Z</time>
      </trkpt>
      <trkpt lat="47.42023" lon="6.58756">
        <ele>357.200012</ele>
        <time>2017-06-11T06:42:44Z</time>
      </trkpt>
      <trkpt lat="47.42019" lon="6.58754">
        <ele>356.799988</ele>
        <time>2017-06-11T06:42:45Z</time>
      </trkpt>
      <trkpt lat="47.42009" lon="6.58751">
        <ele>356.799988</ele>
        <time>2017-06-11T06:42:48Z</time>
      </trkpt>
      <trkpt lat="47.42006" lon="6.58751">
        <ele>356.799988</ele>
        <time>2017-06-11T06:42:49Z</time>
      </trkpt>
      <trkpt lat="47.42001" lon="6.58755">
        <ele>356.799988</ele>
        <time>2017-06-11T06:42:51Z</time>
      </trkpt>
      <trkpt lat="47.41999" lon="6.58757">
        <ele>356.200012</ele>
        <time>2017-06-11T06:42:52Z</time>
      </trkpt>
      <trkpt lat="47.41996" lon="6.58766">
        <ele>355.399994</ele>
        <time>2017-06-11T06:42:54Z</time>
      </trkpt>
      <trkpt lat="47.4199" lon="6.5879">
        <ele>354.600006</ele>
        <time>2017-06-11T06:43:00Z</time>
      </trkpt>
      <trkpt lat="47.41979" lon="6.58805">
        <ele>354.600006</ele>
        <time>2017-06-11T06:43:05Z</time>
      </trkpt>
      <trkpt lat="47.41973" lon="6.58819">
        <ele>354.600006</ele>
        <time>2017-06-11T06:43:09Z</time>
      </trkpt>
      <trkpt lat="47.4197" lon="6.58826">
        <ele>354.600006</ele>
        <time>2017-06-11T06:43:11Z</time>
      </trkpt>
      <trkpt lat="47.41964" lon="6.58842">
        <ele>354.600006</ele>
        <time>2017-06-11T06:43:16Z</time>
      </trkpt>
      <trkpt lat="47.41955" lon="6.58859">
        <ele>354.600006</ele>
        <time>2017-06-11T06:43:22Z</time>
      </trkpt>
      <trkpt lat="47.41952" lon="6.58868">
        <ele>355</ele>
        <time>2017-06-11T06:43:26Z</time>
      </trkpt>
      <trkpt lat="47.41953" lon="6.58871">
        <ele>355.399994</ele>
        <time>2017-06-11T06:43:27Z</time>
      </trkpt>
      <trkpt lat="47.41953" lon="6.58877">
        <ele>356.200012</ele>
        <time>2017-06-11T06:43:29Z</time>
      </trkpt>
      <trkpt lat="47.41954" lon="6.58885">
        <ele>356.600006</ele>
        <time>2017-06-11T06:43:33Z</time>
      </trkpt>
      <trkpt lat="47.41955" lon="6.58887">
        <ele>356.600006</ele>
        <time>2017-06-11T06:43:34Z</time>
      </trkpt>
      <trkpt lat="47.41955" lon="6.58894">
        <ele>357.399994</ele>
        <time>2017-06-11T06:43:37Z</time>
      </trkpt>
      <trkpt lat="47.41956" lon="6.58895">
        <ele>358</ele>
        <time>2017-06-11T06:43:38Z</time>
      </trkpt>
      <trkpt lat="47.41956" lon="6.58899">
        <ele>358.799988</ele>
        <time>2017-06-11T06:43:40Z</time>
      </trkpt>
      <trkpt lat="47.41956" lon="6.58902">
        <ele>358.799988</ele>
        <time>2017-06-11T06:43:42Z</time>
      </trkpt>
      <trkpt lat="47.41951" lon="6.58911">
        <ele>358.799988</ele>
        <time>2017-06-11T06:43:47Z</time>
      </trkpt>
      <trkpt lat="47.41952" lon="6.58924">
        <ele>358.799988</ele>
        <time>2017-06-11T06:43:52Z</time>
      </trkpt>
      <trkpt lat="47.41951" lon="6.58931">
        <ele>359.600006</ele>
        <time>2017-06-11T06:43:54Z</time>
      </trkpt>
      <trkpt lat="47.41949" lon="6.58935">
        <ele>360.399994</ele>
        <time>2017-06-11T06:43:56Z</time>
      </trkpt>
      <trkpt lat="47.41948" lon="6.58938">
        <ele>360.799988</ele>
        <time>2017-06-11T06:43:57Z</time>
      </trkpt>
      <trkpt lat="47.41951" lon="6.58956">
        <ele>360.799988</ele>
        <time>2017-06-11T06:44:03Z</time>
      </trkpt>
      <trkpt lat="47.41951" lon="6.58964">
        <ele>361.399994</ele>
        <time>2017-06-11T06:44:06Z</time>
      </trkpt>
      <trkpt lat="47.41951" lon="6.58967">
        <ele>362.200012</ele>
        <time>2017-06-11T06:44:08Z</time>
      </trkpt>
      <trkpt lat="47.41951" lon="6.5897">
        <ele>362.600006</ele>
        <time>2017-06-11T06:44:09Z</time>
      </trkpt>
      <trkpt lat="47.41952" lon="6.58974">
        <ele>363</ele>
        <time>2017-06-11T06:44:10Z</time>
      </trkpt>
      <trkpt lat="47.41954" lon="6.58987">
        <ele>363</ele>
        <time>2017-06-11T06:44:14Z</time>
      </trkpt>
      <trkpt lat="47.41955" lon="6.5899">
        <ele>363</ele>
        <time>2017-06-11T06:44:15Z</time>
      </trkpt>
      <trkpt lat="47.41957" lon="6.58999">
        <ele>363</ele>
        <time>2017-06-11T06:44:17Z</time>
      </trkpt>
      <trkpt lat="47.41958" lon="6.59006">
        <ele>363</ele>
        <time>2017-06-11T06:44:19Z</time>
      </trkpt>
      <trkpt lat="47.41959" lon="6.59014">
        <ele>364.399994</ele>
        <time>2017-06-11T06:44:22Z</time>
      </trkpt>
      <trkpt lat="47.41958" lon="6.59037">
        <ele>365.200012</ele>
        <time>2017-06-11T06:44:29Z</time>
      </trkpt>
      <trkpt lat="47.41963" lon="6.59068">
        <ele>365.600006</ele>
        <time>2017-06-11T06:44:38Z</time>
      </trkpt>
      <trkpt lat="47.41964" lon="6.59071">
        <ele>366.200012</ele>
        <time>2017-06-11T06:44:39Z</time>
      </trkpt>
      <trkpt lat="47.41965" lon="6.59076">
        <ele>367</ele>
        <time>2017-06-11T06:44:41Z</time>
      </trkpt>
      <trkpt lat="47.41966" lon="6.59081">
        <ele>367.399994</ele>
        <time>2017-06-11T06:44:42Z</time>
      </trkpt>
      <trkpt lat="47.41969" lon="6.59087">
        <ele>367.399994</ele>
        <time>2017-06-11T06:44:44Z</time>
      </trkpt>
      <trkpt lat="47.41972" lon="6.59105">
        <ele>367.399994</ele>
        <time>2017-06-11T06:44:49Z</time>
      </trkpt>
      <trkpt lat="47.41971" lon="6.59127">
        <ele>367.399994</ele>
        <time>2017-06-11T06:44:56Z</time>
      </trkpt>
      <trkpt lat="47.41978" lon="6.59157">
        <ele>368.399994</ele>
        <time>2017-06-11T06:45:05Z</time>
      </trkpt>
      <trkpt lat="47.41979" lon="6.5916">
        <ele>368.799988</ele>
        <time>2017-06-11T06:45:06Z</time>
      </trkpt>
      <trkpt lat="47.41981" lon="6.59198">
        <ele>369.600006</ele>
        <time>2017-06-11T06:45:18Z</time>
      </trkpt>
      <trkpt lat="47.41986" lon="6.5922">
        <ele>369.600006</ele>
        <time>2017-06-11T06:45:25Z</time>
      </trkpt>
      <trkpt lat="47.41987" lon="6.59223">
        <ele>370</ele>
        <time>2017-06-11T06:45:26Z</time>
      </trkpt>
      <trkpt lat="47.4199" lon="6.59234">
        <ele>371.200012</ele>
        <time>2017-06-11T06:45:29Z</time>
      </trkpt>
      <trkpt lat="47.41994" lon="6.59255">
        <ele>371.600006</ele>
        <time>2017-06-11T06:45:35Z</time>
      </trkpt>
      <trkpt lat="47.41999" lon="6.59281">
        <ele>371.600006</ele>
        <time>2017-06-11T06:45:43Z</time>
      </trkpt>
      <trkpt lat="47.42002" lon="6.59301">
        <ele>371.600006</ele>
        <time>2017-06-11T06:45:48Z</time>
      </trkpt>
      <trkpt lat="47.42011" lon="6.59328">
        <ele>371.600006</ele>
        <time>2017-06-11T06:45:55Z</time>
      </trkpt>
      <trkpt lat="47.42012" lon="6.59339">
        <ele>372</ele>
        <time>2017-06-11T06:45:58Z</time>
      </trkpt>
      <trkpt lat="47.42012" lon="6.59342">
        <ele>372.399994</ele>
        <time>2017-06-11T06:45:59Z</time>
      </trkpt>
      <trkpt lat="47.42013" lon="6.59345">
        <ele>372.799988</ele>
        <time>2017-06-11T06:46:00Z</time>
      </trkpt>
      <trkpt lat="47.42014" lon="6.59355">
        <ele>373.799988</ele>
        <time>2017-06-11T06:46:03Z</time>
      </trkpt>
      <trkpt lat="47.42012" lon="6.59364">
        <ele>373.799988</ele>
        <time>2017-06-11T06:46:07Z</time>
      </trkpt>
      <trkpt lat="47.42013" lon="6.59368">
        <ele>373.799988</ele>
        <time>2017-06-11T06:46:09Z</time>
      </trkpt>
      <trkpt lat="47.42017" lon="6.59374">
        <ele>373.799988</ele>
        <time>2017-06-11T06:46:12Z</time>
      </trkpt>
      <trkpt lat="47.42017" lon="6.59377">
        <ele>373.799988</ele>
        <time>2017-06-11T06:46:13Z</time>
      </trkpt>
      <trkpt lat="47.42017" lon="6.59393">
        <ele>373.799988</ele>
        <time>2017-06-11T06:46:18Z</time>
      </trkpt>
      <trkpt lat="47.42019" lon="6.59411">
        <ele>373.799988</ele>
        <time>2017-06-11T06:46:22Z</time>
      </trkpt>
      <trkpt lat="47.42026" lon="6.59443">
        <ele>373.799988</ele>
        <time>2017-06-11T06:46:27Z</time>
      </trkpt>
      <trkpt lat="47.42027" lon="6.59446">
        <ele>373.799988</ele>
        <time>2017-06-11T06:46:28Z</time>
      </trkpt>
      <trkpt lat="47.4203" lon="6.59452">
        <ele>373.799988</ele>
        <time>2017-06-11T06:46:31Z</time>
      </trkpt>
      <trkpt lat="47.42034" lon="6.59456">
        <ele>373.799988</ele>
        <time>2017-06-11T06:46:33Z</time>
      </trkpt>
      <trkpt lat="47.42038" lon="6.59462">
        <ele>373.799988</ele>
        <time>2017-06-11T06:46:36Z</time>
      </trkpt>
      <trkpt lat="47.42049" lon="6.59468">
        <ele>373.799988</ele>
        <time>2017-06-11T06:46:42Z</time>
      </trkpt>
      <trkpt lat="47.42062" lon="6.59477">
        <ele>373.799988</ele>
        <time>2017-06-11T06:46:47Z</time>
      </trkpt>
      <trkpt lat="47.42069" lon="6.5948">
        <ele>373.799988</ele>
        <time>2017-06-11T06:46:49Z</time>
      </trkpt>
      <trkpt lat="47.42076" lon="6.59482">
        <ele>373.799988</ele>
        <time>2017-06-11T06:46:52Z</time>
      </trkpt>
      <trkpt lat="47.42081" lon="6.59486">
        <ele>373.799988</ele>
        <time>2017-06-11T06:46:54Z</time>
      </trkpt>
      <trkpt lat="47.42083" lon="6.59493">
        <ele>373.799988</ele>
        <time>2017-06-11T06:46:56Z</time>
      </trkpt>
      <trkpt lat="47.42085" lon="6.59506">
        <ele>373.399994</ele>
        <time>2017-06-11T06:46:59Z</time>
      </trkpt>
      <trkpt lat="47.42086" lon="6.5951">
        <ele>373</ele>
        <time>2017-06-11T06:47:00Z</time>
      </trkpt>
      <trkpt lat="47.42086" lon="6.59513">
        <ele>372.600006</ele>
        <time>2017-06-11T06:47:01Z</time>
      </trkpt>
      <trkpt lat="47.42085" lon="6.59518">
        <ele>371.799988</ele>
        <time>2017-06-11T06:47:03Z</time>
      </trkpt>
      <trkpt lat="47.42084" lon="6.59529">
        <ele>371.799988</ele>
        <time>2017-06-11T06:47:18Z</time>
      </trkpt>
      <trkpt lat="47.42077" lon="6.59534">
        <ele>371.799988</ele>
        <time>2017-06-11T06:47:24Z</time>
      </trkpt>
      <trkpt lat="47.42073" lon="6.59532">
        <ele>371.799988</ele>
        <time>2017-06-11T06:47:27Z</time>
      </trkpt>
      <trkpt lat="47.42059" lon="6.59534">
        <ele>371.799988</ele>
        <time>2017-06-11T06:47:33Z</time>
      </trkpt>
      <trkpt lat="47.42042" lon="6.59529">
        <ele>371.799988</ele>
        <time>2017-06-11T06:47:38Z</time>
      </trkpt>
      <trkpt lat="47.42022" lon="6.59526">
        <ele>371.799988</ele>
        <time>2017-06-11T06:47:43Z</time>
      </trkpt>
      <trkpt lat="47.41992" lon="6.59519">
        <ele>371.799988</ele>
        <time>2017-06-11T06:47:49Z</time>
      </trkpt>
      <trkpt lat="47.41981" lon="6.59517">
        <ele>370.799988</ele>
        <time>2017-06-11T06:47:51Z</time>
      </trkpt>
      <trkpt lat="47.4197" lon="6.59517">
        <ele>370</ele>
        <time>2017-06-11T06:47:53Z</time>
      </trkpt>
      <trkpt lat="47.41964" lon="6.59515">
        <ele>369.600006</ele>
        <time>2017-06-11T06:47:54Z</time>
      </trkpt>
      <trkpt lat="47.41959" lon="6.59515">
        <ele>369.600006</ele>
        <time>2017-06-11T06:47:55Z</time>
      </trkpt>
      <trkpt lat="47.41944" lon="6.59512">
        <ele>369.600006</ele>
        <time>2017-06-11T06:47:58Z</time>
      </trkpt>
      <trkpt lat="47.41937" lon="6.59502">
        <ele>369.600006</ele>
        <time>2017-06-11T06:48:00Z</time>
      </trkpt>
      <trkpt lat="47.41936" lon="6.59466">
        <ele>369.600006</ele>
        <time>2017-06-11T06:48:05Z</time>
      </trkpt>
      <trkpt lat="47.41934" lon="6.59434">
        <ele>369.600006</ele>
        <time>2017-06-11T06:48:10Z</time>
      </trkpt>
      <trkpt lat="47.41929" lon="6.59415">
        <ele>369.600006</ele>
        <time>2017-06-11T06:48:13Z</time>
      </trkpt>
      <trkpt lat="47.41922" lon="6.59379">
        <ele>369.600006</ele>
        <time>2017-06-11T06:48:19Z</time>
      </trkpt>
      <trkpt lat="47.4192" lon="6.59353">
        <ele>369.600006</ele>
        <time>2017-06-11T06:48:24Z</time>
      </trkpt>
      <trkpt lat="47.41922" lon="6.59334">
        <ele>369.600006</ele>
        <time>2017-06-11T06:48:29Z</time>
      </trkpt>
      <trkpt lat="47.41919" lon="6.59332">
        <ele>369.600006</ele>
        <time>2017-06-11T06:48:33Z</time>
      </trkpt>
      <trkpt lat="47.41915" lon="6.59331">
        <ele>369.600006</ele>
        <time>2017-06-11T06:48:35Z</time>
      </trkpt>
      <trkpt lat="47.41909" lon="6.59329">
        <ele>369.600006</ele>
        <time>2017-06-11T06:48:38Z</time>
      </trkpt>
      <trkpt lat="47.419" lon="6.59327">
        <ele>369.200012</ele>
        <time>2017-06-11T06:48:41Z</time>
      </trkpt>
      <trkpt lat="47.41898" lon="6.59326">
        <ele>368.799988</ele>
        <time>2017-06-11T06:48:42Z</time>
      </trkpt>
      <trkpt lat="47.41897" lon="6.59324">
        <ele>368.399994</ele>
        <time>2017-06-11T06:48:43Z</time>
      </trkpt>
      <trkpt lat="47.41892" lon="6.59323">
        <ele>367.600006</ele>
        <time>2017-06-11T06:48:45Z</time>
      </trkpt>
      <trkpt lat="47.41885" lon="6.59321">
        <ele>367.600006</ele>
        <time>2017-06-11T06:48:47Z</time>
      </trkpt>
      <trkpt lat="47.41878" lon="6.59319">
        <ele>367.600006</ele>
        <time>2017-06-11T06:48:49Z</time>
      </trkpt>
      <trkpt lat="47.41871" lon="6.59317">
        <ele>367.600006</ele>
        <time>2017-06-11T06:48:51Z</time>
      </trkpt>
      <trkpt lat="47.41869" lon="6.59318">
        <ele>367.600006</ele>
        <time>2017-06-11T06:48:52Z</time>
      </trkpt>
      <trkpt lat="47.41867" lon="6.5932">
        <ele>367.600006</ele>
        <time>2017-06-11T06:48:53Z</time>
      </trkpt>
      <trkpt lat="47.41848" lon="6.59326">
        <ele>367.600006</ele>
        <time>2017-06-11T06:48:59Z</time>
      </trkpt>
      <trkpt lat="47.41833" lon="6.59326">
        <ele>367.600006</ele>
        <time>2017-06-11T06:49:04Z</time>
      </trkpt>
      <trkpt lat="47.41825" lon="6.59319">
        <ele>367.600006</ele>
        <time>2017-06-11T06:49:07Z</time>
      </trkpt>
      <trkpt lat="47.41816" lon="6.59309">
        <ele>367.600006</ele>
        <time>2017-06-11T06:49:10Z</time>
      </trkpt>
      <trkpt lat="47.41815" lon="6.59302">
        <ele>367.600006</ele>
        <time>2017-06-11T06:49:12Z</time>
      </trkpt>
      <trkpt lat="47.41814" lon="6.59295">
        <ele>367.600006</ele>
        <time>2017-06-11T06:49:14Z</time>
      </trkpt>
      <trkpt lat="47.41811" lon="6.59279">
        <ele>367.600006</ele>
        <time>2017-06-11T06:49:18Z</time>
      </trkpt>
      <trkpt lat="47.41806" lon="6.59264">
        <ele>367.600006</ele>
        <time>2017-06-11T06:49:22Z</time>
      </trkpt>
      <trkpt lat="47.41797" lon="6.59251">
        <ele>367.600006</ele>
        <time>2017-06-11T06:49:27Z</time>
      </trkpt>
      <trkpt lat="47.41783" lon="6.59235">
        <ele>367.600006</ele>
        <time>2017-06-11T06:49:33Z</time>
      </trkpt>
      <trkpt lat="47.41777" lon="6.59222">
        <ele>367.600006</ele>
        <time>2017-06-11T06:49:37Z</time>
      </trkpt>
      <trkpt lat="47.41777" lon="6.59206">
        <ele>367.600006</ele>
        <time>2017-06-11T06:49:41Z</time>
      </trkpt>
      <trkpt lat="47.41776" lon="6.59193">
        <ele>367.600006</ele>
        <time>2017-06-11T06:49:45Z</time>
      </trkpt>
      <trkpt lat="47.41775" lon="6.59186">
        <ele>368</ele>
        <time>2017-06-11T06:49:47Z</time>
      </trkpt>
      <trkpt lat="47.41774" lon="6.59183">
        <ele>368.399994</ele>
        <time>2017-06-11T06:49:48Z</time>
      </trkpt>
      <trkpt lat="47.4177" lon="6.59179">
        <ele>368.799988</ele>
        <time>2017-06-11T06:49:49Z</time>
      </trkpt>
      <trkpt lat="47.41766" lon="6.59169">
        <ele>369.600006</ele>
        <time>2017-06-11T06:49:51Z</time>
      </trkpt>
      <trkpt lat="47.41754" lon="6.5915">
        <ele>369.600006</ele>
        <time>2017-06-11T06:49:56Z</time>
      </trkpt>
      <trkpt lat="47.41737" lon="6.59131">
        <ele>369.600006</ele>
        <time>2017-06-11T06:50:01Z</time>
      </trkpt>
      <trkpt lat="47.41731" lon="6.59113">
        <ele>370</ele>
        <time>2017-06-11T06:50:06Z</time>
      </trkpt>
      <trkpt lat="47.4173" lon="6.59111">
        <ele>370.399994</ele>
        <time>2017-06-11T06:50:07Z</time>
      </trkpt>
      <trkpt lat="47.41728" lon="6.59109">
        <ele>370.799988</ele>
        <time>2017-06-11T06:50:08Z</time>
      </trkpt>
      <trkpt lat="47.41727" lon="6.59106">
        <ele>371.200012</ele>
        <time>2017-06-11T06:50:09Z</time>
      </trkpt>
      <trkpt lat="47.41726" lon="6.59103">
        <ele>371.600006</ele>
        <time>2017-06-11T06:50:10Z</time>
      </trkpt>
      <trkpt lat="47.41727" lon="6.59096">
        <ele>371.600006</ele>
        <time>2017-06-11T06:50:13Z</time>
      </trkpt>
      <trkpt lat="47.4173" lon="6.59087">
        <ele>371.600006</ele>
        <time>2017-06-11T06:50:15Z</time>
      </trkpt>
      <trkpt lat="47.41735" lon="6.59073">
        <ele>371.600006</ele>
        <time>2017-06-11T06:50:19Z</time>
      </trkpt>
      <trkpt lat="47.41737" lon="6.59062">
        <ele>371.600006</ele>
        <time>2017-06-11T06:50:23Z</time>
      </trkpt>
      <trkpt lat="47.4174" lon="6.59041">
        <ele>371.600006</ele>
        <time>2017-06-11T06:50:28Z</time>
      </trkpt>
      <trkpt lat="47.4174" lon="6.59038">
        <ele>371.600006</ele>
        <time>2017-06-11T06:50:29Z</time>
      </trkpt>
      <trkpt lat="47.41741" lon="6.59023">
        <ele>371.600006</ele>
        <time>2017-06-11T06:50:33Z</time>
      </trkpt>
      <trkpt lat="47.4174" lon="6.59002">
        <ele>371.600006</ele>
        <time>2017-06-11T06:50:38Z</time>
      </trkpt>
      <trkpt lat="47.41738" lon="6.58999">
        <ele>371.600006</ele>
        <time>2017-06-11T06:50:39Z</time>
      </trkpt>
      <trkpt lat="47.41731" lon="6.5899">
        <ele>371.600006</ele>
        <time>2017-06-11T06:50:42Z</time>
      </trkpt>
      <trkpt lat="47.41717" lon="6.58972">
        <ele>371.600006</ele>
        <time>2017-06-11T06:50:47Z</time>
      </trkpt>
      <trkpt lat="47.41708" lon="6.58962">
        <ele>371.600006</ele>
        <time>2017-06-11T06:50:51Z</time>
      </trkpt>
      <trkpt lat="47.41698" lon="6.58955">
        <ele>371.600006</ele>
        <time>2017-06-11T06:50:55Z</time>
      </trkpt>
      <trkpt lat="47.41694" lon="6.58952">
        <ele>371.600006</ele>
        <time>2017-06-11T06:50:57Z</time>
      </trkpt>
      <trkpt lat="47.41676" lon="6.58947">
        <ele>371.600006</ele>
        <time>2017-06-11T06:51:05Z</time>
      </trkpt>
      <trkpt lat="47.41663" lon="6.58954">
        <ele>371.600006</ele>
        <time>2017-06-11T06:51:10Z</time>
      </trkpt>
      <trkpt lat="47.41655" lon="6.5896">
        <ele>371.600006</ele>
        <time>2017-06-11T06:51:14Z</time>
      </trkpt>
      <trkpt lat="47.41653" lon="6.58964">
        <ele>371.600006</ele>
        <time>2017-06-11T06:51:16Z</time>
      </trkpt>
      <trkpt lat="47.4165" lon="6.58971">
        <ele>372</ele>
        <time>2017-06-11T06:51:18Z</time>
      </trkpt>
      <trkpt lat="47.41646" lon="6.58976">
        <ele>373.399994</ele>
        <time>2017-06-11T06:51:21Z</time>
      </trkpt>
      <trkpt lat="47.41645" lon="6.58981">
        <ele>373.799988</ele>
        <time>2017-06-11T06:51:24Z</time>
      </trkpt>
      <trkpt lat="47.41642" lon="6.58987">
        <ele>373.799988</ele>
        <time>2017-06-11T06:51:27Z</time>
      </trkpt>
      <trkpt lat="47.41641" lon="6.58988">
        <ele>373.799988</ele>
        <time>2017-06-11T06:51:28Z</time>
      </trkpt>
      <trkpt lat="47.41633" lon="6.58991">
        <ele>373.799988</ele>
        <time>2017-06-11T06:51:33Z</time>
      </trkpt>
      <trkpt lat="47.41628" lon="6.58996">
        <ele>373.799988</ele>
        <time>2017-06-11T06:51:36Z</time>
      </trkpt>
      <trkpt lat="47.41625" lon="6.59007">
        <ele>373.799988</ele>
        <time>2017-06-11T06:51:39Z</time>
      </trkpt>
      <trkpt lat="47.41617" lon="6.59025">
        <ele>373.799988</ele>
        <time>2017-06-11T06:51:44Z</time>
      </trkpt>
      <trkpt lat="47.41607" lon="6.5904">
        <ele>373.799988</ele>
        <time>2017-06-11T06:51:50Z</time>
      </trkpt>
      <trkpt lat="47.41606" lon="6.59041">
        <ele>373.799988</ele>
        <time>2017-06-11T06:51:51Z</time>
      </trkpt>
      <trkpt lat="47.41603" lon="6.59044">
        <ele>373.799988</ele>
        <time>2017-06-11T06:51:54Z</time>
      </trkpt>
      <trkpt lat="47.41601" lon="6.59051">
        <ele>374.200012</ele>
        <time>2017-06-11T06:51:56Z</time>
      </trkpt>
      <trkpt lat="47.41595" lon="6.59061">
        <ele>375.799988</ele>
        <time>2017-06-11T06:52:00Z</time>
      </trkpt>
      <trkpt lat="47.41593" lon="6.59064">
        <ele>375.799988</ele>
        <time>2017-06-11T06:52:01Z</time>
      </trkpt>
      <trkpt lat="47.41587" lon="6.59077">
        <ele>375.799988</ele>
        <time>2017-06-11T06:52:04Z</time>
      </trkpt>
      <trkpt lat="47.41583" lon="6.59082">
        <ele>375.799988</ele>
        <time>2017-06-11T06:52:06Z</time>
      </trkpt>
      <trkpt lat="47.41578" lon="6.59089">
        <ele>375.799988</ele>
        <time>2017-06-11T06:52:08Z</time>
      </trkpt>
      <trkpt lat="47.41576" lon="6.59101">
        <ele>375.799988</ele>
        <time>2017-06-11T06:52:11Z</time>
      </trkpt>
      <trkpt lat="47.41575" lon="6.59106">
        <ele>375.799988</ele>
        <time>2017-06-11T06:52:12Z</time>
      </trkpt>
      <trkpt lat="47.41572" lon="6.59139">
        <ele>375.799988</ele>
        <time>2017-06-11T06:52:19Z</time>
      </trkpt>
      <trkpt lat="47.41569" lon="6.59143">
        <ele>376.200012</ele>
        <time>2017-06-11T06:52:21Z</time>
      </trkpt>
      <trkpt lat="47.41567" lon="6.59145">
        <ele>376.600006</ele>
        <time>2017-06-11T06:52:22Z</time>
      </trkpt>
      <trkpt lat="47.41566" lon="6.59146">
        <ele>377</ele>
        <time>2017-06-11T06:52:23Z</time>
      </trkpt>
      <trkpt lat="47.41565" lon="6.59148">
        <ele>377.399994</ele>
        <time>2017-06-11T06:52:24Z</time>
      </trkpt>
      <trkpt lat="47.41553" lon="6.59164">
        <ele>377.799988</ele>
        <time>2017-06-11T06:52:30Z</time>
      </trkpt>
      <trkpt lat="47.41541" lon="6.59173">
        <ele>377.799988</ele>
        <time>2017-06-11T06:52:35Z</time>
      </trkpt>
      <trkpt lat="47.4153" lon="6.59184">
        <ele>377.799988</ele>
        <time>2017-06-11T06:52:40Z</time>
      </trkpt>
      <trkpt lat="47.41517" lon="6.59194">
        <ele>377.799988</ele>
        <time>2017-06-11T06:52:45Z</time>
      </trkpt>
      <trkpt lat="47.4151" lon="6.59197">
        <ele>377.799988</ele>
        <time>2017-06-11T06:52:48Z</time>
      </trkpt>
      <trkpt lat="47.41507" lon="6.59196">
        <ele>377.799988</ele>
        <time>2017-06-11T06:52:49Z</time>
      </trkpt>
      <trkpt lat="47.41501" lon="6.59191">
        <ele>377.799988</ele>
        <time>2017-06-11T06:52:53Z</time>
      </trkpt>
      <trkpt lat="47.41496" lon="6.5919">
        <ele>378.200012</ele>
        <time>2017-06-11T06:52:56Z</time>
      </trkpt>
      <trkpt lat="47.41492" lon="6.59189">
        <ele>379</ele>
        <time>2017-06-11T06:52:58Z</time>
      </trkpt>
      <trkpt lat="47.41489" lon="6.59189">
        <ele>379.399994</ele>
        <time>2017-06-11T06:52:59Z</time>
      </trkpt>
      <trkpt lat="47.41487" lon="6.5919">
        <ele>380</ele>
        <time>2017-06-11T06:53:00Z</time>
      </trkpt>
      <trkpt lat="47.41475" lon="6.59191">
        <ele>380</ele>
        <time>2017-06-11T06:53:05Z</time>
      </trkpt>
      <trkpt lat="47.4146" lon="6.59186">
        <ele>380</ele>
        <time>2017-06-11T06:53:11Z</time>
      </trkpt>
      <trkpt lat="47.41458" lon="6.59185">
        <ele>380</ele>
        <time>2017-06-11T06:53:12Z</time>
      </trkpt>
      <trkpt lat="47.41451" lon="6.59183">
        <ele>380.399994</ele>
        <time>2017-06-11T06:53:15Z</time>
      </trkpt>
      <trkpt lat="47.4145" lon="6.59182">
        <ele>380.799988</ele>
        <time>2017-06-11T06:53:16Z</time>
      </trkpt>
      <trkpt lat="47.41443" lon="6.5918">
        <ele>382</ele>
        <time>2017-06-11T06:53:19Z</time>
      </trkpt>
      <trkpt lat="47.41436" lon="6.59177">
        <ele>382</ele>
        <time>2017-06-11T06:53:22Z</time>
      </trkpt>
      <trkpt lat="47.41425" lon="6.59169">
        <ele>382</ele>
        <time>2017-06-11T06:53:28Z</time>
      </trkpt>
      <trkpt lat="47.4142" lon="6.59159">
        <ele>382</ele>
        <time>2017-06-11T06:53:34Z</time>
      </trkpt>
      <trkpt lat="47.41411" lon="6.59152">
        <ele>382</ele>
        <time>2017-06-11T06:53:37Z</time>
      </trkpt>
      <trkpt lat="47.41398" lon="6.59144">
        <ele>382</ele>
        <time>2017-06-11T06:53:41Z</time>
      </trkpt>
      <trkpt lat="47.41396" lon="6.59144">
        <ele>382</ele>
        <time>2017-06-11T06:53:42Z</time>
      </trkpt>
      <trkpt lat="47.4139" lon="6.59142">
        <ele>382</ele>
        <time>2017-06-11T06:53:45Z</time>
      </trkpt>
      <trkpt lat="47.41364" lon="6.59136">
        <ele>382</ele>
        <time>2017-06-11T06:53:53Z</time>
      </trkpt>
      <trkpt lat="47.41351" lon="6.59135">
        <ele>382</ele>
        <time>2017-06-11T06:53:57Z</time>
      </trkpt>
      <trkpt lat="47.41349" lon="6.59136">
        <ele>382</ele>
        <time>2017-06-11T06:53:58Z</time>
      </trkpt>
      <trkpt lat="47.41343" lon="6.59136">
        <ele>382.399994</ele>
        <time>2017-06-11T06:54:00Z</time>
      </trkpt>
      <trkpt lat="47.4134" lon="6.59136">
        <ele>382.799988</ele>
        <time>2017-06-11T06:54:01Z</time>
      </trkpt>
      <trkpt lat="47.41338" lon="6.59135">
        <ele>383.200012</ele>
        <time>2017-06-11T06:54:02Z</time>
      </trkpt>
      <trkpt lat="47.41337" lon="6.59135">
        <ele>383.600006</ele>
        <time>2017-06-11T06:54:03Z</time>
      </trkpt>
      <trkpt lat="47.41335" lon="6.59135">
        <ele>384</ele>
        <time>2017-06-11T06:54:04Z</time>
      </trkpt>
      <trkpt lat="47.41325" lon="6.59136">
        <ele>384</ele>
        <time>2017-06-11T06:54:08Z</time>
      </trkpt>
      <trkpt lat="47.41323" lon="6.59137">
        <ele>384</ele>
        <time>2017-06-11T06:54:09Z</time>
      </trkpt>
      <trkpt lat="47.41311" lon="6.59144">
        <ele>384</ele>
        <time>2017-06-11T06:54:14Z</time>
      </trkpt>
      <trkpt lat="47.41304" lon="6.59146">
        <ele>384</ele>
        <time>2017-06-11T06:54:17Z</time>
      </trkpt>
      <trkpt lat="47.41296" lon="6.59147">
        <ele>384.799988</ele>
        <time>2017-06-11T06:54:20Z</time>
      </trkpt>
      <trkpt lat="47.41293" lon="6.59147">
        <ele>385.200012</ele>
        <time>2017-06-11T06:54:21Z</time>
      </trkpt>
      <trkpt lat="47.4129" lon="6.59148">
        <ele>385.600006</ele>
        <time>2017-06-11T06:54:22Z</time>
      </trkpt>
      <trkpt lat="47.41288" lon="6.59146">
        <ele>386</ele>
        <time>2017-06-11T06:54:23Z</time>
      </trkpt>
      <trkpt lat="47.41281" lon="6.59145">
        <ele>386</ele>
        <time>2017-06-11T06:54:27Z</time>
      </trkpt>
      <trkpt lat="47.41278" lon="6.59142">
        <ele>386</ele>
        <time>2017-06-11T06:54:29Z</time>
      </trkpt>
      <trkpt lat="47.41269" lon="6.59136">
        <ele>386</ele>
        <time>2017-06-11T06:54:33Z</time>
      </trkpt>
      <trkpt lat="47.41255" lon="6.59127">
        <ele>386</ele>
        <time>2017-06-11T06:54:38Z</time>
      </trkpt>
      <trkpt lat="47.41248" lon="6.59123">
        <ele>386</ele>
        <time>2017-06-11T06:54:41Z</time>
      </trkpt>
      <trkpt lat="47.41247" lon="6.59121">
        <ele>386</ele>
        <time>2017-06-11T06:54:42Z</time>
      </trkpt>
      <trkpt lat="47.41237" lon="6.59115">
        <ele>386</ele>
        <time>2017-06-11T06:54:47Z</time>
      </trkpt>
      <trkpt lat="47.41233" lon="6.59104">
        <ele>386</ele>
        <time>2017-06-11T06:54:51Z</time>
      </trkpt>
      <trkpt lat="47.41227" lon="6.59104">
        <ele>386</ele>
        <time>2017-06-11T06:54:53Z</time>
      </trkpt>
      <trkpt lat="47.41225" lon="6.59104">
        <ele>386</ele>
        <time>2017-06-11T06:54:54Z</time>
      </trkpt>
      <trkpt lat="47.41214" lon="6.59096">
        <ele>386</ele>
        <time>2017-06-11T06:54:59Z</time>
      </trkpt>
      <trkpt lat="47.41213" lon="6.59094">
        <ele>386</ele>
        <time>2017-06-11T06:55:00Z</time>
      </trkpt>
      <trkpt lat="47.412" lon="6.59085">
        <ele>386</ele>
        <time>2017-06-11T06:55:05Z</time>
      </trkpt>
      <trkpt lat="47.41195" lon="6.59085">
        <ele>386</ele>
        <time>2017-06-11T06:55:07Z</time>
      </trkpt>
      <trkpt lat="47.41188" lon="6.59085">
        <ele>386</ele>
        <time>2017-06-11T06:55:10Z</time>
      </trkpt>
      <trkpt lat="47.41185" lon="6.59084">
        <ele>386</ele>
        <time>2017-06-11T06:55:11Z</time>
      </trkpt>
      <trkpt lat="47.41174" lon="6.59087">
        <ele>386</ele>
        <time>2017-06-11T06:55:16Z</time>
      </trkpt>
      <trkpt lat="47.41165" lon="6.59089">
        <ele>386.399994</ele>
        <time>2017-06-11T06:55:20Z</time>
      </trkpt>
      <trkpt lat="47.41161" lon="6.5909">
        <ele>386.799988</ele>
        <time>2017-06-11T06:55:21Z</time>
      </trkpt>
      <trkpt lat="47.41154" lon="6.59095">
        <ele>388.200012</ele>
        <time>2017-06-11T06:55:24Z</time>
      </trkpt>
      <trkpt lat="47.4115" lon="6.591">
        <ele>388.200012</ele>
        <time>2017-06-11T06:55:27Z</time>
      </trkpt>
      <trkpt lat="47.41139" lon="6.59106">
        <ele>388.200012</ele>
        <time>2017-06-11T06:55:32Z</time>
      </trkpt>
      <trkpt lat="47.41134" lon="6.59111">
        <ele>388.200012</ele>
        <time>2017-06-11T06:55:34Z</time>
      </trkpt>
      <trkpt lat="47.41124" lon="6.59121">
        <ele>388.200012</ele>
        <time>2017-06-11T06:55:38Z</time>
      </trkpt>
      <trkpt lat="47.41118" lon="6.5913">
        <ele>388.200012</ele>
        <time>2017-06-11T06:55:41Z</time>
      </trkpt>
      <trkpt lat="47.41105" lon="6.59153">
        <ele>387.200012</ele>
        <time>2017-06-11T06:55:48Z</time>
      </trkpt>
      <trkpt lat="47.41085" lon="6.59169">
        <ele>385.399994</ele>
        <time>2017-06-11T06:55:55Z</time>
      </trkpt>
      <trkpt lat="47.41079" lon="6.59178">
        <ele>384.200012</ele>
        <time>2017-06-11T06:55:58Z</time>
      </trkpt>
      <trkpt lat="47.41075" lon="6.59181">
        <ele>383.799988</ele>
        <time>2017-06-11T06:56:00Z</time>
      </trkpt>
      <trkpt lat="47.41061" lon="6.59188">
        <ele>383.799988</ele>
        <time>2017-06-11T06:56:06Z</time>
      </trkpt>
      <trkpt lat="47.41047" lon="6.59189">
        <ele>383.799988</ele>
        <time>2017-06-11T06:56:11Z</time>
      </trkpt>
      <trkpt lat="47.41046" lon="6.59188">
        <ele>384.200012</ele>
        <time>2017-06-11T06:56:12Z</time>
      </trkpt>
      <trkpt lat="47.41045" lon="6.59186">
        <ele>384.600006</ele>
        <time>2017-06-11T06:56:13Z</time>
      </trkpt>
      <trkpt lat="47.41042" lon="6.59185">
        <ele>385.399994</ele>
        <time>2017-06-11T06:56:15Z</time>
      </trkpt>
      <trkpt lat="47.4104" lon="6.59183">
        <ele>385.799988</ele>
        <time>2017-06-11T06:56:16Z</time>
      </trkpt>
      <trkpt lat="47.41038" lon="6.59181">
        <ele>385.799988</ele>
        <time>2017-06-11T06:56:17Z</time>
      </trkpt>
      <trkpt lat="47.41033" lon="6.59177">
        <ele>385.799988</ele>
        <time>2017-06-11T06:56:20Z</time>
      </trkpt>
      <trkpt lat="47.41014" lon="6.59165">
        <ele>385.799988</ele>
        <time>2017-06-11T06:56:27Z</time>
      </trkpt>
      <trkpt lat="47.41002" lon="6.59162">
        <ele>385.799988</ele>
        <time>2017-06-11T06:56:33Z</time>
      </trkpt>
      <trkpt lat="47.41" lon="6.59158">
        <ele>386.799988</ele>
        <time>2017-06-11T06:56:35Z</time>
      </trkpt>
      <trkpt lat="47.40997" lon="6.59156">
        <ele>387.200012</ele>
        <time>2017-06-11T06:56:36Z</time>
      </trkpt>
      <trkpt lat="47.4098" lon="6.59147">
        <ele>388</ele>
        <time>2017-06-11T06:56:45Z</time>
      </trkpt>
      <trkpt lat="47.40978" lon="6.59145">
        <ele>388</ele>
        <time>2017-06-11T06:56:46Z</time>
      </trkpt>
      <trkpt lat="47.40972" lon="6.59141">
        <ele>388</ele>
        <time>2017-06-11T06:56:50Z</time>
      </trkpt>
      <trkpt lat="47.4096" lon="6.59141">
        <ele>388</ele>
        <time>2017-06-11T06:56:56Z</time>
      </trkpt>
      <trkpt lat="47.40957" lon="6.59139">
        <ele>388</ele>
        <time>2017-06-11T06:56:57Z</time>
      </trkpt>
      <trkpt lat="47.4095" lon="6.59137">
        <ele>388</ele>
        <time>2017-06-11T06:57:00Z</time>
      </trkpt>
      <trkpt lat="47.40943" lon="6.59137">
        <ele>388</ele>
        <time>2017-06-11T06:57:02Z</time>
      </trkpt>
      <trkpt lat="47.40939" lon="6.59137">
        <ele>388</ele>
        <time>2017-06-11T06:57:04Z</time>
      </trkpt>
      <trkpt lat="47.40928" lon="6.59143">
        <ele>388</ele>
        <time>2017-06-11T06:57:09Z</time>
      </trkpt>
      <trkpt lat="47.40926" lon="6.59143">
        <ele>388</ele>
        <time>2017-06-11T06:57:10Z</time>
      </trkpt>
      <trkpt lat="47.40916" lon="6.59145">
        <ele>388</ele>
        <time>2017-06-11T06:57:16Z</time>
      </trkpt>
      <trkpt lat="47.40907" lon="6.59155">
        <ele>389</ele>
        <time>2017-06-11T06:57:21Z</time>
      </trkpt>
      <trkpt lat="47.40906" lon="6.59155">
        <ele>389.399994</ele>
        <time>2017-06-11T06:57:22Z</time>
      </trkpt>
      <trkpt lat="47.409" lon="6.59161">
        <ele>390.399994</ele>
        <time>2017-06-11T06:57:24Z</time>
      </trkpt>
      <trkpt lat="47.40885" lon="6.59178">
        <ele>390.399994</ele>
        <time>2017-06-11T06:57:31Z</time>
      </trkpt>
      <trkpt lat="47.40876" lon="6.59189">
        <ele>390.399994</ele>
        <time>2017-06-11T06:57:36Z</time>
      </trkpt>
      <trkpt lat="47.40873" lon="6.59199">
        <ele>390.799988</ele>
        <time>2017-06-11T06:57:40Z</time>
      </trkpt>
      <trkpt lat="47.40873" lon="6.59207">
        <ele>392.399994</ele>
        <time>2017-06-11T06:57:43Z</time>
      </trkpt>
      <trkpt lat="47.40874" lon="6.59233">
        <ele>392.799988</ele>
        <time>2017-06-11T06:57:53Z</time>
      </trkpt>
      <trkpt lat="47.40876" lon="6.59241">
        <ele>393.600006</ele>
        <time>2017-06-11T06:57:55Z</time>
      </trkpt>
      <trkpt lat="47.40877" lon="6.59243">
        <ele>394</ele>
        <time>2017-06-11T06:57:56Z</time>
      </trkpt>
      <trkpt lat="47.40878" lon="6.59247">
        <ele>394.600006</ele>
        <time>2017-06-11T06:57:57Z</time>
      </trkpt>
      <trkpt lat="47.4088" lon="6.59254">
        <ele>394.600006</ele>
        <time>2017-06-11T06:57:59Z</time>
      </trkpt>
      <trkpt lat="47.4088" lon="6.5927">
        <ele>394.600006</ele>
        <time>2017-06-11T06:58:03Z</time>
      </trkpt>
      <trkpt lat="47.40881" lon="6.59274">
        <ele>394.600006</ele>
        <time>2017-06-11T06:58:04Z</time>
      </trkpt>
      <trkpt lat="47.40882" lon="6.59286">
        <ele>395</ele>
        <time>2017-06-11T06:58:07Z</time>
      </trkpt>
      <trkpt lat="47.40883" lon="6.5929">
        <ele>395.399994</ele>
        <time>2017-06-11T06:58:08Z</time>
      </trkpt>
      <trkpt lat="47.40883" lon="6.59299">
        <ele>396.200012</ele>
        <time>2017-06-11T06:58:10Z</time>
      </trkpt>
      <trkpt lat="47.40886" lon="6.59316">
        <ele>396.600006</ele>
        <time>2017-06-11T06:58:14Z</time>
      </trkpt>
      <trkpt lat="47.40885" lon="6.59323">
        <ele>396.600006</ele>
        <time>2017-06-11T06:58:17Z</time>
      </trkpt>
      <trkpt lat="47.40886" lon="6.59325">
        <ele>396.600006</ele>
        <time>2017-06-11T06:58:19Z</time>
      </trkpt>
      <trkpt lat="47.40886" lon="6.59326">
        <ele>396.600006</ele>
        <time>2017-06-11T06:58:56Z</time>
      </trkpt>
      <trkpt lat="47.40887" lon="6.5933">
        <ele>396.600006</ele>
        <time>2017-06-11T06:58:58Z</time>
      </trkpt>
      <trkpt lat="47.40887" lon="6.59337">
        <ele>396.600006</ele>
        <time>2017-06-11T06:59:01Z</time>
      </trkpt>
      <trkpt lat="47.40886" lon="6.59341">
        <ele>396.600006</ele>
        <time>2017-06-11T06:59:03Z</time>
      </trkpt>
      <trkpt lat="47.40887" lon="6.59345">
        <ele>396.600006</ele>
        <time>2017-06-11T06:59:04Z</time>
      </trkpt>
      <trkpt lat="47.40889" lon="6.59361">
        <ele>396.600006</ele>
        <time>2017-06-11T06:59:08Z</time>
      </trkpt>
      <trkpt lat="47.4089" lon="6.5937">
        <ele>397.399994</ele>
        <time>2017-06-11T06:59:11Z</time>
      </trkpt>
      <trkpt lat="47.4089" lon="6.59376">
        <ele>397.799988</ele>
        <time>2017-06-11T06:59:12Z</time>
      </trkpt>
      <trkpt lat="47.40892" lon="6.59393">
        <ele>398.600006</ele>
        <time>2017-06-11T06:59:17Z</time>
      </trkpt>
      <trkpt lat="47.40894" lon="6.594">
        <ele>398.600006</ele>
        <time>2017-06-11T06:59:19Z</time>
      </trkpt>
      <trkpt lat="47.409" lon="6.59427">
        <ele>398.600006</ele>
        <time>2017-06-11T06:59:26Z</time>
      </trkpt>
      <trkpt lat="47.40903" lon="6.59436">
        <ele>399.200012</ele>
        <time>2017-06-11T06:59:28Z</time>
      </trkpt>
      <trkpt lat="47.40904" lon="6.59445">
        <ele>400</ele>
        <time>2017-06-11T06:59:30Z</time>
      </trkpt>
      <trkpt lat="47.40905" lon="6.59453">
        <ele>400.799988</ele>
        <time>2017-06-11T06:59:32Z</time>
      </trkpt>
      <trkpt lat="47.40901" lon="6.59466">
        <ele>400.799988</ele>
        <time>2017-06-11T06:59:36Z</time>
      </trkpt>
      <trkpt lat="47.40898" lon="6.59473">
        <ele>400.799988</ele>
        <time>2017-06-11T06:59:39Z</time>
      </trkpt>
      <trkpt lat="47.40898" lon="6.59478">
        <ele>401.200012</ele>
        <time>2017-06-11T06:59:41Z</time>
      </trkpt>
      <trkpt lat="47.40897" lon="6.59482">
        <ele>401.600006</ele>
        <time>2017-06-11T06:59:42Z</time>
      </trkpt>
      <trkpt lat="47.40895" lon="6.59485">
        <ele>402</ele>
        <time>2017-06-11T06:59:43Z</time>
      </trkpt>
      <trkpt lat="47.40894" lon="6.59488">
        <ele>402.399994</ele>
        <time>2017-06-11T06:59:44Z</time>
      </trkpt>
      <trkpt lat="47.40893" lon="6.59491">
        <ele>402.799988</ele>
        <time>2017-06-11T06:59:45Z</time>
      </trkpt>
      <trkpt lat="47.40893" lon="6.59493">
        <ele>402.799988</ele>
        <time>2017-06-11T06:59:46Z</time>
      </trkpt>
      <trkpt lat="47.40889" lon="6.59509">
        <ele>403.799988</ele>
        <time>2017-06-11T06:59:52Z</time>
      </trkpt>
      <trkpt lat="47.40888" lon="6.59512">
        <ele>404.200012</ele>
        <time>2017-06-11T06:59:53Z</time>
      </trkpt>
      <trkpt lat="47.40886" lon="6.59515">
        <ele>404.600006</ele>
        <time>2017-06-11T06:59:54Z</time>
      </trkpt>
      <trkpt lat="47.40884" lon="6.59518">
        <ele>405</ele>
        <time>2017-06-11T06:59:55Z</time>
      </trkpt>
      <trkpt lat="47.40885" lon="6.59522">
        <ele>405</ele>
        <time>2017-06-11T06:59:57Z</time>
      </trkpt>
      <trkpt lat="47.40886" lon="6.59525">
        <ele>405</ele>
        <time>2017-06-11T06:59:58Z</time>
      </trkpt>
      <trkpt lat="47.40899" lon="6.5955">
        <ele>405</ele>
        <time>2017-06-11T07:00:05Z</time>
      </trkpt>
      <trkpt lat="47.409" lon="6.59557">
        <ele>405</ele>
        <time>2017-06-11T07:00:07Z</time>
      </trkpt>
      <trkpt lat="47.40903" lon="6.59564">
        <ele>405</ele>
        <time>2017-06-11T07:00:09Z</time>
      </trkpt>
      <trkpt lat="47.40903" lon="6.59574">
        <ele>405.399994</ele>
        <time>2017-06-11T07:00:12Z</time>
      </trkpt>
      <trkpt lat="47.40902" lon="6.59577">
        <ele>405.799988</ele>
        <time>2017-06-11T07:00:13Z</time>
      </trkpt>
      <trkpt lat="47.40901" lon="6.59579">
        <ele>406.200012</ele>
        <time>2017-06-11T07:00:14Z</time>
      </trkpt>
      <trkpt lat="47.40901" lon="6.59584">
        <ele>406.600006</ele>
        <time>2017-06-11T07:00:15Z</time>
      </trkpt>
      <trkpt lat="47.409" lon="6.59598">
        <ele>407</ele>
        <time>2017-06-11T07:00:19Z</time>
      </trkpt>
      <trkpt lat="47.40897" lon="6.59623">
        <ele>407</ele>
        <time>2017-06-11T07:00:26Z</time>
      </trkpt>
      <trkpt lat="47.40898" lon="6.59627">
        <ele>407</ele>
        <time>2017-06-11T07:00:27Z</time>
      </trkpt>
      <trkpt lat="47.40894" lon="6.59635">
        <ele>407</ele>
        <time>2017-06-11T07:00:30Z</time>
      </trkpt>
      <trkpt lat="47.40888" lon="6.59655">
        <ele>407</ele>
        <time>2017-06-11T07:00:36Z</time>
      </trkpt>
      <trkpt lat="47.40887" lon="6.59656">
        <ele>407</ele>
        <time>2017-06-11T07:00:37Z</time>
      </trkpt>
      <trkpt lat="47.40884" lon="6.59667">
        <ele>407</ele>
        <time>2017-06-11T07:00:41Z</time>
      </trkpt>
      <trkpt lat="47.40884" lon="6.59673">
        <ele>407</ele>
        <time>2017-06-11T07:00:43Z</time>
      </trkpt>
      <trkpt lat="47.40887" lon="6.59679">
        <ele>407</ele>
        <time>2017-06-11T07:00:45Z</time>
      </trkpt>
      <trkpt lat="47.40887" lon="6.59683">
        <ele>407</ele>
        <time>2017-06-11T07:00:46Z</time>
      </trkpt>
      <trkpt lat="47.40885" lon="6.59693">
        <ele>407</ele>
        <time>2017-06-11T07:00:49Z</time>
      </trkpt>
      <trkpt lat="47.40885" lon="6.59706">
        <ele>407</ele>
        <time>2017-06-11T07:00:54Z</time>
      </trkpt>
      <trkpt lat="47.40886" lon="6.59715">
        <ele>407</ele>
        <time>2017-06-11T07:00:56Z</time>
      </trkpt>
      <trkpt lat="47.40885" lon="6.59726">
        <ele>407</ele>
        <time>2017-06-11T07:00:58Z</time>
      </trkpt>
      <trkpt lat="47.4088" lon="6.59735">
        <ele>407</ele>
        <time>2017-06-11T07:01:02Z</time>
      </trkpt>
      <trkpt lat="47.40878" lon="6.59749">
        <ele>407</ele>
        <time>2017-06-11T07:01:07Z</time>
      </trkpt>
      <trkpt lat="47.4088" lon="6.59755">
        <ele>407</ele>
        <time>2017-06-11T07:01:09Z</time>
      </trkpt>
      <trkpt lat="47.40879" lon="6.59759">
        <ele>407</ele>
        <time>2017-06-11T07:01:10Z</time>
      </trkpt>
      <trkpt lat="47.40873" lon="6.59777">
        <ele>407</ele>
        <time>2017-06-11T07:01:16Z</time>
      </trkpt>
      <trkpt lat="47.40873" lon="6.59782">
        <ele>407</ele>
        <time>2017-06-11T07:01:17Z</time>
      </trkpt>
      <trkpt lat="47.40869" lon="6.59799">
        <ele>407</ele>
        <time>2017-06-11T07:01:21Z</time>
      </trkpt>
      <trkpt lat="47.40867" lon="6.59806">
        <ele>407</ele>
        <time>2017-06-11T07:01:23Z</time>
      </trkpt>
      <trkpt lat="47.40866" lon="6.59807">
        <ele>407</ele>
        <time>2017-06-11T07:01:24Z</time>
      </trkpt>
      <trkpt lat="47.40864" lon="6.59815">
        <ele>407</ele>
        <time>2017-06-11T07:01:28Z</time>
      </trkpt>
      <trkpt lat="47.40849" lon="6.5984">
        <ele>407</ele>
        <time>2017-06-11T07:01:39Z</time>
      </trkpt>
      <trkpt lat="47.40843" lon="6.59847">
        <ele>407</ele>
        <time>2017-06-11T07:01:43Z</time>
      </trkpt>
      <trkpt lat="47.40839" lon="6.5985">
        <ele>407</ele>
        <time>2017-06-11T07:01:44Z</time>
      </trkpt>
      <trkpt lat="47.40817" lon="6.59877">
        <ele>407</ele>
        <time>2017-06-11T07:01:53Z</time>
      </trkpt>
      <trkpt lat="47.40813" lon="6.59879">
        <ele>407</ele>
        <time>2017-06-11T07:01:55Z</time>
      </trkpt>
      <trkpt lat="47.40808" lon="6.59876">
        <ele>407</ele>
        <time>2017-06-11T07:01:58Z</time>
      </trkpt>
      <trkpt lat="47.40774" lon="6.59857">
        <ele>407</ele>
        <time>2017-06-11T07:02:10Z</time>
      </trkpt>
      <trkpt lat="47.40756" lon="6.59843">
        <ele>407</ele>
        <time>2017-06-11T07:02:15Z</time>
      </trkpt>
      <trkpt lat="47.40738" lon="6.59825">
        <ele>407</ele>
        <time>2017-06-11T07:02:20Z</time>
      </trkpt>
      <trkpt lat="47.40734" lon="6.59821">
        <ele>407</ele>
        <time>2017-06-11T07:02:21Z</time>
      </trkpt>
      <trkpt lat="47.40725" lon="6.59818">
        <ele>407</ele>
        <time>2017-06-11T07:02:24Z</time>
      </trkpt>
      <trkpt lat="47.40723" lon="6.59821">
        <ele>407</ele>
        <time>2017-06-11T07:02:25Z</time>
      </trkpt>
      <trkpt lat="47.40712" lon="6.59828">
        <ele>407</ele>
        <time>2017-06-11T07:02:30Z</time>
      </trkpt>
      <trkpt lat="47.407" lon="6.5983">
        <ele>407</ele>
        <time>2017-06-11T07:02:34Z</time>
      </trkpt>
      <trkpt lat="47.40696" lon="6.59834">
        <ele>407</ele>
        <time>2017-06-11T07:02:35Z</time>
      </trkpt>
      <trkpt lat="47.40686" lon="6.5984">
        <ele>407</ele>
        <time>2017-06-11T07:02:38Z</time>
      </trkpt>
      <trkpt lat="47.40681" lon="6.59841">
        <ele>407</ele>
        <time>2017-06-11T07:02:39Z</time>
      </trkpt>
      <trkpt lat="47.40675" lon="6.59848">
        <ele>407</ele>
        <time>2017-06-11T07:02:42Z</time>
      </trkpt>
      <trkpt lat="47.40663" lon="6.59862">
        <ele>407</ele>
        <time>2017-06-11T07:02:47Z</time>
      </trkpt>
      <trkpt lat="47.4065" lon="6.59873">
        <ele>407</ele>
        <time>2017-06-11T07:02:52Z</time>
      </trkpt>
      <trkpt lat="47.4064" lon="6.59878">
        <ele>407</ele>
        <time>2017-06-11T07:02:56Z</time>
      </trkpt>
      <trkpt lat="47.40637" lon="6.59878">
        <ele>407</ele>
        <time>2017-06-11T07:02:57Z</time>
      </trkpt>
      <trkpt lat="47.40626" lon="6.59885">
        <ele>407</ele>
        <time>2017-06-11T07:03:01Z</time>
      </trkpt>
      <trkpt lat="47.40613" lon="6.5989">
        <ele>407</ele>
        <time>2017-06-11T07:03:06Z</time>
      </trkpt>
      <trkpt lat="47.40592" lon="6.59903">
        <ele>407</ele>
        <time>2017-06-11T07:03:16Z</time>
      </trkpt>
      <trkpt lat="47.40573" lon="6.59916">
        <ele>407</ele>
        <time>2017-06-11T07:03:22Z</time>
      </trkpt>
      <trkpt lat="47.40555" lon="6.59931">
        <ele>407</ele>
        <time>2017-06-11T07:03:28Z</time>
      </trkpt>
      <trkpt lat="47.40551" lon="6.59938">
        <ele>407</ele>
        <time>2017-06-11T07:03:31Z</time>
      </trkpt>
      <trkpt lat="47.40549" lon="6.59941">
        <ele>407</ele>
        <time>2017-06-11T07:03:32Z</time>
      </trkpt>
      <trkpt lat="47.40543" lon="6.59951">
        <ele>407</ele>
        <time>2017-06-11T07:03:35Z</time>
      </trkpt>
      <trkpt lat="47.40542" lon="6.59952">
        <ele>407</ele>
        <time>2017-06-11T07:03:36Z</time>
      </trkpt>
      <trkpt lat="47.40534" lon="6.59952">
        <ele>407</ele>
        <time>2017-06-11T07:03:39Z</time>
      </trkpt>
      <trkpt lat="47.40529" lon="6.59954">
        <ele>407</ele>
        <time>2017-06-11T07:03:41Z</time>
      </trkpt>
      <trkpt lat="47.40513" lon="6.59958">
        <ele>407</ele>
        <time>2017-06-11T07:03:46Z</time>
      </trkpt>
      <trkpt lat="47.40501" lon="6.59961">
        <ele>407</ele>
        <time>2017-06-11T07:03:51Z</time>
      </trkpt>
      <trkpt lat="47.40487" lon="6.59965">
        <ele>407</ele>
        <time>2017-06-11T07:03:56Z</time>
      </trkpt>
      <trkpt lat="47.40483" lon="6.59966">
        <ele>407.399994</ele>
        <time>2017-06-11T07:03:58Z</time>
      </trkpt>
      <trkpt lat="47.40481" lon="6.59965">
        <ele>407.799988</ele>
        <time>2017-06-11T07:03:59Z</time>
      </trkpt>
      <trkpt lat="47.40475" lon="6.59965">
        <ele>408.600006</ele>
        <time>2017-06-11T07:04:01Z</time>
      </trkpt>
      <trkpt lat="47.40472" lon="6.59965">
        <ele>409</ele>
        <time>2017-06-11T07:04:02Z</time>
      </trkpt>
      <trkpt lat="47.40465" lon="6.59965">
        <ele>409</ele>
        <time>2017-06-11T07:04:06Z</time>
      </trkpt>
      <trkpt lat="47.40465" lon="6.59964">
        <ele>409</ele>
        <time>2017-06-11T07:04:07Z</time>
      </trkpt>
      <trkpt lat="47.40457" lon="6.59965">
        <ele>409</ele>
        <time>2017-06-11T07:04:14Z</time>
      </trkpt>
      <trkpt lat="47.40444" lon="6.5997">
        <ele>409</ele>
        <time>2017-06-11T07:04:19Z</time>
      </trkpt>
      <trkpt lat="47.40426" lon="6.59971">
        <ele>409</ele>
        <time>2017-06-11T07:04:26Z</time>
      </trkpt>
      <trkpt lat="47.40407" lon="6.59986">
        <ele>409</ele>
        <time>2017-06-11T07:04:33Z</time>
      </trkpt>
      <trkpt lat="47.40395" lon="6.59992">
        <ele>409</ele>
        <time>2017-06-11T07:04:39Z</time>
      </trkpt>
      <trkpt lat="47.40393" lon="6.59992">
        <ele>410</ele>
        <time>2017-06-11T07:04:41Z</time>
      </trkpt>
      <trkpt lat="47.4039" lon="6.59994">
        <ele>411.200012</ele>
        <time>2017-06-11T07:04:43Z</time>
      </trkpt>
      <trkpt lat="47.40375" lon="6.60006">
        <ele>411.200012</ele>
        <time>2017-06-11T07:04:50Z</time>
      </trkpt>
      <trkpt lat="47.40371" lon="6.60009">
        <ele>412</ele>
        <time>2017-06-11T07:04:52Z</time>
      </trkpt>
      <trkpt lat="47.40368" lon="6.60012">
        <ele>413</ele>
        <time>2017-06-11T07:04:54Z</time>
      </trkpt>
      <trkpt lat="47.40366" lon="6.60014">
        <ele>413.399994</ele>
        <time>2017-06-11T07:04:55Z</time>
      </trkpt>
      <trkpt lat="47.40357" lon="6.60023">
        <ele>413.399994</ele>
        <time>2017-06-11T07:04:59Z</time>
      </trkpt>
      <trkpt lat="47.40354" lon="6.60029">
        <ele>413.399994</ele>
        <time>2017-06-11T07:05:02Z</time>
      </trkpt>
      <trkpt lat="47.4034" lon="6.60042">
        <ele>413.399994</ele>
        <time>2017-06-11T07:05:08Z</time>
      </trkpt>
      <trkpt lat="47.40331" lon="6.60054">
        <ele>413.399994</ele>
        <time>2017-06-11T07:05:12Z</time>
      </trkpt>
      <trkpt lat="47.40328" lon="6.60062">
        <ele>413.799988</ele>
        <time>2017-06-11T07:05:15Z</time>
      </trkpt>
      <trkpt lat="47.40326" lon="6.60064">
        <ele>414.200012</ele>
        <time>2017-06-11T07:05:16Z</time>
      </trkpt>
      <trkpt lat="47.40323" lon="6.60069">
        <ele>415</ele>
        <time>2017-06-11T07:05:18Z</time>
      </trkpt>
      <trkpt lat="47.40321" lon="6.60078">
        <ele>415.399994</ele>
        <time>2017-06-11T07:05:22Z</time>
      </trkpt>
      <trkpt lat="47.40307" lon="6.60092">
        <ele>415.399994</ele>
        <time>2017-06-11T07:05:30Z</time>
      </trkpt>
      <trkpt lat="47.40301" lon="6.60102">
        <ele>415.799988</ele>
        <time>2017-06-11T07:05:34Z</time>
      </trkpt>
      <trkpt lat="47.403" lon="6.60104">
        <ele>416.200012</ele>
        <time>2017-06-11T07:05:35Z</time>
      </trkpt>
      <trkpt lat="47.40295" lon="6.60108">
        <ele>417</ele>
        <time>2017-06-11T07:05:37Z</time>
      </trkpt>
      <trkpt lat="47.40284" lon="6.60115">
        <ele>417.399994</ele>
        <time>2017-06-11T07:05:42Z</time>
      </trkpt>
      <trkpt lat="47.40281" lon="6.60115">
        <ele>417.399994</ele>
        <time>2017-06-11T07:05:44Z</time>
      </trkpt>
      <trkpt lat="47.40272" lon="6.60116">
        <ele>417.399994</ele>
        <time>2017-06-11T07:05:49Z</time>
      </trkpt>
      <trkpt lat="47.40271" lon="6.60117">
        <ele>417.399994</ele>
        <time>2017-06-11T07:05:50Z</time>
      </trkpt>
      <trkpt lat="47.40261" lon="6.60119">
        <ele>417.399994</ele>
        <time>2017-06-11T07:05:54Z</time>
      </trkpt>
      <trkpt lat="47.40259" lon="6.60119">
        <ele>417.399994</ele>
        <time>2017-06-11T07:05:55Z</time>
      </trkpt>
      <trkpt lat="47.40252" lon="6.60123">
        <ele>417.399994</ele>
        <time>2017-06-11T07:06:00Z</time>
      </trkpt>
      <trkpt lat="47.40247" lon="6.60127">
        <ele>417.399994</ele>
        <time>2017-06-11T07:06:05Z</time>
      </trkpt>
      <trkpt lat="47.4024" lon="6.60129">
        <ele>417.399994</ele>
        <time>2017-06-11T07:06:09Z</time>
      </trkpt>
      <trkpt lat="47.40232" lon="6.6013">
        <ele>417.399994</ele>
        <time>2017-06-11T07:06:13Z</time>
      </trkpt>
      <trkpt lat="47.40227" lon="6.60129">
        <ele>417.399994</ele>
        <time>2017-06-11T07:06:15Z</time>
      </trkpt>
      <trkpt lat="47.4022" lon="6.60126">
        <ele>417.399994</ele>
        <time>2017-06-11T07:06:18Z</time>
      </trkpt>
      <trkpt lat="47.40219" lon="6.60125">
        <ele>417.799988</ele>
        <time>2017-06-11T07:06:19Z</time>
      </trkpt>
      <trkpt lat="47.40215" lon="6.60122">
        <ele>419.200012</ele>
        <time>2017-06-11T07:06:21Z</time>
      </trkpt>
      <trkpt lat="47.40204" lon="6.60114">
        <ele>419.600006</ele>
        <time>2017-06-11T07:06:25Z</time>
      </trkpt>
      <trkpt lat="47.40194" lon="6.60103">
        <ele>419.600006</ele>
        <time>2017-06-11T07:06:30Z</time>
      </trkpt>
      <trkpt lat="47.40186" lon="6.60088">
        <ele>419.600006</ele>
        <time>2017-06-11T07:06:34Z</time>
      </trkpt>
      <trkpt lat="47.40181" lon="6.60073">
        <ele>419.600006</ele>
        <time>2017-06-11T07:06:38Z</time>
      </trkpt>
      <trkpt lat="47.40174" lon="6.60069">
        <ele>419.600006</ele>
        <time>2017-06-11T07:06:42Z</time>
      </trkpt>
      <trkpt lat="47.40163" lon="6.60085">
        <ele>419.600006</ele>
        <time>2017-06-11T07:06:48Z</time>
      </trkpt>
      <trkpt lat="47.40148" lon="6.601">
        <ele>419.600006</ele>
        <time>2017-06-11T07:06:55Z</time>
      </trkpt>
      <trkpt lat="47.40132" lon="6.60111">
        <ele>420</ele>
        <time>2017-06-11T07:07:02Z</time>
      </trkpt>
      <trkpt lat="47.40123" lon="6.60122">
        <ele>421.600006</ele>
        <time>2017-06-11T07:07:07Z</time>
      </trkpt>
      <trkpt lat="47.40117" lon="6.60123">
        <ele>421.600006</ele>
        <time>2017-06-11T07:07:10Z</time>
      </trkpt>
      <trkpt lat="47.40115" lon="6.60122">
        <ele>421.600006</ele>
        <time>2017-06-11T07:07:11Z</time>
      </trkpt>
      <trkpt lat="47.40109" lon="6.60118">
        <ele>421.600006</ele>
        <time>2017-06-11T07:07:15Z</time>
      </trkpt>
      <trkpt lat="47.40101" lon="6.60113">
        <ele>421.600006</ele>
        <time>2017-06-11T07:07:20Z</time>
      </trkpt>
      <trkpt lat="47.40098" lon="6.6011">
        <ele>421.600006</ele>
        <time>2017-06-11T07:07:22Z</time>
      </trkpt>
      <trkpt lat="47.40095" lon="6.60105">
        <ele>422</ele>
        <time>2017-06-11T07:07:24Z</time>
      </trkpt>
      <trkpt lat="47.40087" lon="6.60096">
        <ele>423.399994</ele>
        <time>2017-06-11T07:07:27Z</time>
      </trkpt>
      <trkpt lat="47.40076" lon="6.60088">
        <ele>423.799988</ele>
        <time>2017-06-11T07:07:31Z</time>
      </trkpt>
      <trkpt lat="47.40067" lon="6.60079">
        <ele>424.200012</ele>
        <time>2017-06-11T07:07:36Z</time>
      </trkpt>
      <trkpt lat="47.40064" lon="6.60077">
        <ele>424.600006</ele>
        <time>2017-06-11T07:07:37Z</time>
      </trkpt>
      <trkpt lat="47.40058" lon="6.60072">
        <ele>426</ele>
        <time>2017-06-11T07:07:40Z</time>
      </trkpt>
      <trkpt lat="47.40037" lon="6.60054">
        <ele>426</ele>
        <time>2017-06-11T07:07:48Z</time>
      </trkpt>
      <trkpt lat="47.40035" lon="6.60053">
        <ele>426.399994</ele>
        <time>2017-06-11T07:07:49Z</time>
      </trkpt>
      <trkpt lat="47.40023" lon="6.60047">
        <ele>428</ele>
        <time>2017-06-11T07:07:54Z</time>
      </trkpt>
      <trkpt lat="47.40002" lon="6.60042">
        <ele>430.200012</ele>
        <time>2017-06-11T07:08:03Z</time>
      </trkpt>
      <trkpt lat="47.39976" lon="6.60037">
        <ele>431.799988</ele>
        <time>2017-06-11T07:08:14Z</time>
      </trkpt>
      <trkpt lat="47.39966" lon="6.60036">
        <ele>432.200012</ele>
        <time>2017-06-11T07:08:18Z</time>
      </trkpt>
      <trkpt lat="47.39952" lon="6.60038">
        <ele>432.200012</ele>
        <time>2017-06-11T07:08:23Z</time>
      </trkpt>
      <trkpt lat="47.39941" lon="6.60034">
        <ele>432.600006</ele>
        <time>2017-06-11T07:08:28Z</time>
      </trkpt>
      <trkpt lat="47.39935" lon="6.60033">
        <ele>433.799988</ele>
        <time>2017-06-11T07:08:31Z</time>
      </trkpt>
      <trkpt lat="47.39919" lon="6.60033">
        <ele>434.799988</ele>
        <time>2017-06-11T07:08:38Z</time>
      </trkpt>
      <trkpt lat="47.39916" lon="6.60033">
        <ele>435.600006</ele>
        <time>2017-06-11T07:08:40Z</time>
      </trkpt>
      <trkpt lat="47.39912" lon="6.60035">
        <ele>436.399994</ele>
        <time>2017-06-11T07:08:42Z</time>
      </trkpt>
      <trkpt lat="47.3991" lon="6.60035">
        <ele>436.399994</ele>
        <time>2017-06-11T07:08:43Z</time>
      </trkpt>
      <trkpt lat="47.39905" lon="6.60035">
        <ele>436.399994</ele>
        <time>2017-06-11T07:08:45Z</time>
      </trkpt>
      <trkpt lat="47.39897" lon="6.60033">
        <ele>438</ele>
        <time>2017-06-11T07:08:49Z</time>
      </trkpt>
      <trkpt lat="47.39895" lon="6.60034">
        <ele>438.399994</ele>
        <time>2017-06-11T07:08:51Z</time>
      </trkpt>
      <trkpt lat="47.39884" lon="6.60032">
        <ele>439</ele>
        <time>2017-06-11T07:08:57Z</time>
      </trkpt>
      <trkpt lat="47.39882" lon="6.60032">
        <ele>439.399994</ele>
        <time>2017-06-11T07:08:58Z</time>
      </trkpt>
      <trkpt lat="47.39877" lon="6.60034">
        <ele>440.600006</ele>
        <time>2017-06-11T07:09:02Z</time>
      </trkpt>
      <trkpt lat="47.39875" lon="6.60036">
        <ele>440.600006</ele>
        <time>2017-06-11T07:09:05Z</time>
      </trkpt>
      <trkpt lat="47.39873" lon="6.60035">
        <ele>440.600006</ele>
        <time>2017-06-11T07:09:06Z</time>
      </trkpt>
      <trkpt lat="47.39862" lon="6.60034">
        <ele>440.600006</ele>
        <time>2017-06-11T07:09:10Z</time>
      </trkpt>
      <trkpt lat="47.39853" lon="6.60034">
        <ele>441</ele>
        <time>2017-06-11T07:09:14Z</time>
      </trkpt>
      <trkpt lat="47.39849" lon="6.60035">
        <ele>442.200012</ele>
        <time>2017-06-11T07:09:17Z</time>
      </trkpt>
      <trkpt lat="47.39846" lon="6.60034">
        <ele>442.600006</ele>
        <time>2017-06-11T07:09:19Z</time>
      </trkpt>
      <trkpt lat="47.3984" lon="6.60029">
        <ele>442.600006</ele>
        <time>2017-06-11T07:09:23Z</time>
      </trkpt>
      <trkpt lat="47.39837" lon="6.60024">
        <ele>442.600006</ele>
        <time>2017-06-11T07:09:26Z</time>
      </trkpt>
      <trkpt lat="47.39837" lon="6.60023">
        <ele>442.600006</ele>
        <time>2017-06-11T07:09:27Z</time>
      </trkpt>
      <trkpt lat="47.39837" lon="6.60022">
        <ele>442.600006</ele>
        <time>2017-06-11T07:09:29Z</time>
      </trkpt>
      <trkpt lat="47.39832" lon="6.60022">
        <ele>443.799988</ele>
        <time>2017-06-11T07:09:33Z</time>
      </trkpt>
      <trkpt lat="47.39825" lon="6.6002">
        <ele>444.799988</ele>
        <time>2017-06-11T07:09:37Z</time>
      </trkpt>
      <trkpt lat="47.39824" lon="6.60019">
        <ele>444.799988</ele>
        <time>2017-06-11T07:09:38Z</time>
      </trkpt>
      <trkpt lat="47.39814" lon="6.60009">
        <ele>444.799988</ele>
        <time>2017-06-11T07:09:41Z</time>
      </trkpt>
      <trkpt lat="47.39805" lon="6.60001">
        <ele>446.799988</ele>
        <time>2017-06-11T07:09:48Z</time>
      </trkpt>
      <trkpt lat="47.39798" lon="6.59994">
        <ele>447.200012</ele>
        <time>2017-06-11T07:09:51Z</time>
      </trkpt>
      <trkpt lat="47.39792" lon="6.59987">
        <ele>449</ele>
        <time>2017-06-11T07:09:55Z</time>
      </trkpt>
      <trkpt lat="47.39788" lon="6.5998">
        <ele>449</ele>
        <time>2017-06-11T07:10:00Z</time>
      </trkpt>
      <trkpt lat="47.39785" lon="6.59973">
        <ele>450.799988</ele>
        <time>2017-06-11T07:10:03Z</time>
      </trkpt>
      <trkpt lat="47.39782" lon="6.59972">
        <ele>451.200012</ele>
        <time>2017-06-11T07:10:05Z</time>
      </trkpt>
      <trkpt lat="47.39767" lon="6.59962">
        <ele>451.200012</ele>
        <time>2017-06-11T07:10:09Z</time>
      </trkpt>
      <trkpt lat="47.3976" lon="6.59956">
        <ele>452</ele>
        <time>2017-06-11T07:10:12Z</time>
      </trkpt>
      <trkpt lat="47.39758" lon="6.59955">
        <ele>452.399994</ele>
        <time>2017-06-11T07:10:13Z</time>
      </trkpt>
      <trkpt lat="47.39756" lon="6.59956">
        <ele>452.799988</ele>
        <time>2017-06-11T07:10:14Z</time>
      </trkpt>
      <trkpt lat="47.39755" lon="6.59956">
        <ele>453.200012</ele>
        <time>2017-06-11T07:10:15Z</time>
      </trkpt>
      <trkpt lat="47.39745" lon="6.59958">
        <ele>453.200012</ele>
        <time>2017-06-11T07:10:20Z</time>
      </trkpt>
      <trkpt lat="47.39743" lon="6.59958">
        <ele>453.200012</ele>
        <time>2017-06-11T07:10:22Z</time>
      </trkpt>
      <trkpt lat="47.39725" lon="6.59956">
        <ele>450.600006</ele>
        <time>2017-06-11T07:10:27Z</time>
      </trkpt>
      <trkpt lat="47.3971" lon="6.59956">
        <ele>447.799988</ele>
        <time>2017-06-11T07:10:31Z</time>
      </trkpt>
      <trkpt lat="47.39707" lon="6.59955">
        <ele>447</ele>
        <time>2017-06-11T07:10:32Z</time>
      </trkpt>
      <trkpt lat="47.39705" lon="6.59956">
        <ele>446.200012</ele>
        <time>2017-06-11T07:10:33Z</time>
      </trkpt>
      <trkpt lat="47.39695" lon="6.59956">
        <ele>444.200012</ele>
        <time>2017-06-11T07:10:36Z</time>
      </trkpt>
      <trkpt lat="47.39688" lon="6.59954">
        <ele>443.200012</ele>
        <time>2017-06-11T07:10:38Z</time>
      </trkpt>
      <trkpt lat="47.39681" lon="6.59952">
        <ele>441.600006</ele>
        <time>2017-06-11T07:10:41Z</time>
      </trkpt>
      <trkpt lat="47.39674" lon="6.59948">
        <ele>441.600006</ele>
        <time>2017-06-11T07:10:45Z</time>
      </trkpt>
      <trkpt lat="47.39669" lon="6.59946">
        <ele>441.600006</ele>
        <time>2017-06-11T07:10:50Z</time>
      </trkpt>
      <trkpt lat="47.39657" lon="6.59941">
        <ele>441.600006</ele>
        <time>2017-06-11T07:10:55Z</time>
      </trkpt>
      <trkpt lat="47.39644" lon="6.5994">
        <ele>441.200012</ele>
        <time>2017-06-11T07:10:59Z</time>
      </trkpt>
      <trkpt lat="47.39631" lon="6.59937">
        <ele>439.399994</ele>
        <time>2017-06-11T07:11:03Z</time>
      </trkpt>
      <trkpt lat="47.39625" lon="6.59934">
        <ele>439.399994</ele>
        <time>2017-06-11T07:11:05Z</time>
      </trkpt>
      <trkpt lat="47.3961" lon="6.59929">
        <ele>439.399994</ele>
        <time>2017-06-11T07:11:10Z</time>
      </trkpt>
      <trkpt lat="47.39597" lon="6.59928">
        <ele>439.399994</ele>
        <time>2017-06-11T07:11:16Z</time>
      </trkpt>
      <trkpt lat="47.39594" lon="6.59926">
        <ele>439.399994</ele>
        <time>2017-06-11T07:11:18Z</time>
      </trkpt>
      <trkpt lat="47.39594" lon="6.59924">
        <ele>439.399994</ele>
        <time>2017-06-11T07:11:28Z</time>
      </trkpt>
      <trkpt lat="47.39592" lon="6.59922">
        <ele>439.399994</ele>
        <time>2017-06-11T07:11:29Z</time>
      </trkpt>
      <trkpt lat="47.39584" lon="6.59919">
        <ele>439.399994</ele>
        <time>2017-06-11T07:11:34Z</time>
      </trkpt>
      <trkpt lat="47.39579" lon="6.59913">
        <ele>439.399994</ele>
        <time>2017-06-11T07:11:37Z</time>
      </trkpt>
      <trkpt lat="47.39576" lon="6.59912">
        <ele>439.399994</ele>
        <time>2017-06-11T07:11:38Z</time>
      </trkpt>
      <trkpt lat="47.39567" lon="6.5991">
        <ele>438.799988</ele>
        <time>2017-06-11T07:11:41Z</time>
      </trkpt>
      <trkpt lat="47.39561" lon="6.5991">
        <ele>438</ele>
        <time>2017-06-11T07:11:43Z</time>
      </trkpt>
      <trkpt lat="47.39555" lon="6.59912">
        <ele>437.200012</ele>
        <time>2017-06-11T07:11:45Z</time>
      </trkpt>
      <trkpt lat="47.3955" lon="6.59916">
        <ele>436.399994</ele>
        <time>2017-06-11T07:11:47Z</time>
      </trkpt>
      <trkpt lat="47.39547" lon="6.59917">
        <ele>436</ele>
        <time>2017-06-11T07:11:48Z</time>
      </trkpt>
      <trkpt lat="47.39542" lon="6.59916">
        <ele>435</ele>
        <time>2017-06-11T07:11:50Z</time>
      </trkpt>
      <trkpt lat="47.39539" lon="6.59916">
        <ele>434.399994</ele>
        <time>2017-06-11T07:11:51Z</time>
      </trkpt>
      <trkpt lat="47.39535" lon="6.59915">
        <ele>433.399994</ele>
        <time>2017-06-11T07:11:53Z</time>
      </trkpt>
      <trkpt lat="47.39533" lon="6.59914">
        <ele>432.799988</ele>
        <time>2017-06-11T07:11:54Z</time>
      </trkpt>
      <trkpt lat="47.3953" lon="6.59913">
        <ele>432.799988</ele>
        <time>2017-06-11T07:11:56Z</time>
      </trkpt>
      <trkpt lat="47.39528" lon="6.59912">
        <ele>432.799988</ele>
        <time>2017-06-11T07:11:58Z</time>
      </trkpt>
      <trkpt lat="47.39508" lon="6.59906">
        <ele>435.399994</ele>
        <time>2017-06-11T07:12:19Z</time>
      </trkpt>
      <trkpt lat="47.39502" lon="6.59905">
        <ele>437</ele>
        <time>2017-06-11T07:12:23Z</time>
      </trkpt>
      <trkpt lat="47.39496" lon="6.59905">
        <ele>437.399994</ele>
        <time>2017-06-11T07:12:26Z</time>
      </trkpt>
      <trkpt lat="47.3949" lon="6.59904">
        <ele>438.600006</ele>
        <time>2017-06-11T07:12:29Z</time>
      </trkpt>
      <trkpt lat="47.39481" lon="6.599">
        <ele>439.600006</ele>
        <time>2017-06-11T07:12:33Z</time>
      </trkpt>
      <trkpt lat="47.39476" lon="6.59899">
        <ele>440.799988</ele>
        <time>2017-06-11T07:12:36Z</time>
      </trkpt>
      <trkpt lat="47.39466" lon="6.59898">
        <ele>441.399994</ele>
        <time>2017-06-11T07:12:42Z</time>
      </trkpt>
      <trkpt lat="47.39459" lon="6.59896">
        <ele>443</ele>
        <time>2017-06-11T07:12:46Z</time>
      </trkpt>
      <trkpt lat="47.39454" lon="6.59895">
        <ele>443.600006</ele>
        <time>2017-06-11T07:12:49Z</time>
      </trkpt>
      <trkpt lat="47.39441" lon="6.59893">
        <ele>445.200012</ele>
        <time>2017-06-11T07:12:57Z</time>
      </trkpt>
      <trkpt lat="47.39432" lon="6.59891">
        <ele>445.600006</ele>
        <time>2017-06-11T07:13:04Z</time>
      </trkpt>
      <trkpt lat="47.39431" lon="6.5989">
        <ele>445.600006</ele>
        <time>2017-06-11T07:13:05Z</time>
      </trkpt>
      <trkpt lat="47.39421" lon="6.59887">
        <ele>446.799988</ele>
        <time>2017-06-11T07:13:10Z</time>
      </trkpt>
      <trkpt lat="47.39416" lon="6.59885">
        <ele>447.600006</ele>
        <time>2017-06-11T07:13:12Z</time>
      </trkpt>
      <trkpt lat="47.39395" lon="6.59879">
        <ele>449.399994</ele>
        <time>2017-06-11T07:13:22Z</time>
      </trkpt>
      <trkpt lat="47.3939" lon="6.59878">
        <ele>449.799988</ele>
        <time>2017-06-11T07:13:24Z</time>
      </trkpt>
      <trkpt lat="47.39374" lon="6.59872">
        <ele>449.799988</ele>
        <time>2017-06-11T07:13:31Z</time>
      </trkpt>
      <trkpt lat="47.39368" lon="6.59868">
        <ele>451.399994</ele>
        <time>2017-06-11T07:13:35Z</time>
      </trkpt>
      <trkpt lat="47.39349" lon="6.59863">
        <ele>453</ele>
        <time>2017-06-11T07:13:46Z</time>
      </trkpt>
      <trkpt lat="47.39345" lon="6.59861">
        <ele>453.799988</ele>
        <time>2017-06-11T07:13:48Z</time>
      </trkpt>
      <trkpt lat="47.3932" lon="6.59854">
        <ele>453.799988</ele>
        <time>2017-06-11T07:14:01Z</time>
      </trkpt>
      <trkpt lat="47.39312" lon="6.5985">
        <ele>455</ele>
        <time>2017-06-11T07:14:05Z</time>
      </trkpt>
      <trkpt lat="47.3931" lon="6.5985">
        <ele>455.399994</ele>
        <time>2017-06-11T07:14:06Z</time>
      </trkpt>
      <trkpt lat="47.39305" lon="6.59848">
        <ele>455.799988</ele>
        <time>2017-06-11T07:14:09Z</time>
      </trkpt>
      <trkpt lat="47.39279" lon="6.59839">
        <ele>455.799988</ele>
        <time>2017-06-11T07:14:21Z</time>
      </trkpt>
      <trkpt lat="47.39274" lon="6.59839">
        <ele>456.200012</ele>
        <time>2017-06-11T07:14:23Z</time>
      </trkpt>
      <trkpt lat="47.39267" lon="6.59836">
        <ele>457.600006</ele>
        <time>2017-06-11T07:14:26Z</time>
      </trkpt>
      <trkpt lat="47.39265" lon="6.59836">
        <ele>458</ele>
        <time>2017-06-11T07:14:27Z</time>
      </trkpt>
      <trkpt lat="47.39242" lon="6.59828">
        <ele>458</ele>
        <time>2017-06-11T07:14:38Z</time>
      </trkpt>
      <trkpt lat="47.3923" lon="6.59821">
        <ele>458</ele>
        <time>2017-06-11T07:14:44Z</time>
      </trkpt>
      <trkpt lat="47.3922" lon="6.59818">
        <ele>458.799988</ele>
        <time>2017-06-11T07:14:49Z</time>
      </trkpt>
      <trkpt lat="47.39213" lon="6.59814">
        <ele>460</ele>
        <time>2017-06-11T07:14:52Z</time>
      </trkpt>
      <trkpt lat="47.392" lon="6.59806">
        <ele>460</ele>
        <time>2017-06-11T07:14:58Z</time>
      </trkpt>
      <trkpt lat="47.39178" lon="6.59796">
        <ele>460.399994</ele>
        <time>2017-06-11T07:15:07Z</time>
      </trkpt>
      <trkpt lat="47.39168" lon="6.59791">
        <ele>462</ele>
        <time>2017-06-11T07:15:11Z</time>
      </trkpt>
      <trkpt lat="47.39158" lon="6.59785">
        <ele>462</ele>
        <time>2017-06-11T07:15:16Z</time>
      </trkpt>
      <trkpt lat="47.39146" lon="6.59779">
        <ele>462</ele>
        <time>2017-06-11T07:15:21Z</time>
      </trkpt>
      <trkpt lat="47.39134" lon="6.59772">
        <ele>463.200012</ele>
        <time>2017-06-11T07:15:26Z</time>
      </trkpt>
      <trkpt lat="47.39132" lon="6.5977">
        <ele>463.600006</ele>
        <time>2017-06-11T07:15:27Z</time>
      </trkpt>
      <trkpt lat="47.3913" lon="6.59769">
        <ele>464</ele>
        <time>2017-06-11T07:15:28Z</time>
      </trkpt>
      <trkpt lat="47.39125" lon="6.59767">
        <ele>464</ele>
        <time>2017-06-11T07:15:31Z</time>
      </trkpt>
      <trkpt lat="47.39105" lon="6.59757">
        <ele>464.399994</ele>
        <time>2017-06-11T07:15:40Z</time>
      </trkpt>
      <trkpt lat="47.39102" lon="6.59755">
        <ele>465</ele>
        <time>2017-06-11T07:15:41Z</time>
      </trkpt>
      <trkpt lat="47.39098" lon="6.59753">
        <ele>465.799988</ele>
        <time>2017-06-11T07:15:43Z</time>
      </trkpt>
      <trkpt lat="47.39093" lon="6.59748">
        <ele>466.200012</ele>
        <time>2017-06-11T07:15:47Z</time>
      </trkpt>
      <trkpt lat="47.39086" lon="6.59744">
        <ele>466.600006</ele>
        <time>2017-06-11T07:15:51Z</time>
      </trkpt>
      <trkpt lat="47.39085" lon="6.59743">
        <ele>467</ele>
        <time>2017-06-11T07:15:52Z</time>
      </trkpt>
      <trkpt lat="47.39079" lon="6.59739">
        <ele>468.200012</ele>
        <time>2017-06-11T07:15:56Z</time>
      </trkpt>
      <trkpt lat="47.39076" lon="6.59739">
        <ele>468.200012</ele>
        <time>2017-06-11T07:15:58Z</time>
      </trkpt>
      <trkpt lat="47.39073" lon="6.59741">
        <ele>468.200012</ele>
        <time>2017-06-11T07:16:01Z</time>
      </trkpt>
      <trkpt lat="47.39071" lon="6.59746">
        <ele>468.200012</ele>
        <time>2017-06-11T07:16:04Z</time>
      </trkpt>
      <trkpt lat="47.39065" lon="6.59756">
        <ele>468.200012</ele>
        <time>2017-06-11T07:16:07Z</time>
      </trkpt>
      <trkpt lat="47.39063" lon="6.5976">
        <ele>468.200012</ele>
        <time>2017-06-11T07:16:08Z</time>
      </trkpt>
      <trkpt lat="47.39052" lon="6.59782">
        <ele>468.200012</ele>
        <time>2017-06-11T07:16:14Z</time>
      </trkpt>
      <trkpt lat="47.3905" lon="6.5979">
        <ele>468.200012</ele>
        <time>2017-06-11T07:16:17Z</time>
      </trkpt>
      <trkpt lat="47.39051" lon="6.59793">
        <ele>468.200012</ele>
        <time>2017-06-11T07:16:18Z</time>
      </trkpt>
      <trkpt lat="47.39053" lon="6.59803">
        <ele>468.200012</ele>
        <time>2017-06-11T07:16:21Z</time>
      </trkpt>
      <trkpt lat="47.39053" lon="6.59814">
        <ele>468.200012</ele>
        <time>2017-06-11T07:16:24Z</time>
      </trkpt>
      <trkpt lat="47.39053" lon="6.59818">
        <ele>468.200012</ele>
        <time>2017-06-11T07:16:25Z</time>
      </trkpt>
      <trkpt lat="47.39061" lon="6.59832">
        <ele>468.200012</ele>
        <time>2017-06-11T07:16:29Z</time>
      </trkpt>
      <trkpt lat="47.39079" lon="6.59841">
        <ele>467.799988</ele>
        <time>2017-06-11T07:16:35Z</time>
      </trkpt>
      <trkpt lat="47.39085" lon="6.5984">
        <ele>467</ele>
        <time>2017-06-11T07:16:37Z</time>
      </trkpt>
      <trkpt lat="47.39088" lon="6.59842">
        <ele>466.200012</ele>
        <time>2017-06-11T07:16:38Z</time>
      </trkpt>
      <trkpt lat="47.39097" lon="6.59847">
        <ele>466.200012</ele>
        <time>2017-06-11T07:16:42Z</time>
      </trkpt>
      <trkpt lat="47.39104" lon="6.59855">
        <ele>465.799988</ele>
        <time>2017-06-11T07:16:46Z</time>
      </trkpt>
      <trkpt lat="47.39107" lon="6.59857">
        <ele>465.399994</ele>
        <time>2017-06-11T07:16:47Z</time>
      </trkpt>
      <trkpt lat="47.3911" lon="6.59859">
        <ele>464.799988</ele>
        <time>2017-06-11T07:16:48Z</time>
      </trkpt>
      <trkpt lat="47.39113" lon="6.5986">
        <ele>464.399994</ele>
        <time>2017-06-11T07:16:49Z</time>
      </trkpt>
      <trkpt lat="47.39115" lon="6.5986">
        <ele>464</ele>
        <time>2017-06-11T07:16:50Z</time>
      </trkpt>
      <trkpt lat="47.39122" lon="6.59861">
        <ele>464</ele>
        <time>2017-06-11T07:16:52Z</time>
      </trkpt>
      <trkpt lat="47.39131" lon="6.59864">
        <ele>464</ele>
        <time>2017-06-11T07:16:54Z</time>
      </trkpt>
      <trkpt lat="47.3914" lon="6.59865">
        <ele>464</ele>
        <time>2017-06-11T07:16:57Z</time>
      </trkpt>
      <trkpt lat="47.39144" lon="6.59867">
        <ele>464</ele>
        <time>2017-06-11T07:16:59Z</time>
      </trkpt>
      <trkpt lat="47.39148" lon="6.59869">
        <ele>464</ele>
        <time>2017-06-11T07:17:00Z</time>
      </trkpt>
      <trkpt lat="47.39151" lon="6.59872">
        <ele>463.399994</ele>
        <time>2017-06-11T07:17:01Z</time>
      </trkpt>
      <trkpt lat="47.39156" lon="6.59875">
        <ele>462.200012</ele>
        <time>2017-06-11T07:17:03Z</time>
      </trkpt>
      <trkpt lat="47.39159" lon="6.59877">
        <ele>461.799988</ele>
        <time>2017-06-11T07:17:04Z</time>
      </trkpt>
      <trkpt lat="47.39171" lon="6.59885">
        <ele>461.799988</ele>
        <time>2017-06-11T07:17:07Z</time>
      </trkpt>
      <trkpt lat="47.3918" lon="6.59887">
        <ele>461.799988</ele>
        <time>2017-06-11T07:17:09Z</time>
      </trkpt>
      <trkpt lat="47.39188" lon="6.59889">
        <ele>461.799988</ele>
        <time>2017-06-11T07:17:11Z</time>
      </trkpt>
      <trkpt lat="47.39192" lon="6.5989">
        <ele>461.200012</ele>
        <time>2017-06-11T07:17:12Z</time>
      </trkpt>
      <trkpt lat="47.39196" lon="6.59891">
        <ele>460.799988</ele>
        <time>2017-06-11T07:17:13Z</time>
      </trkpt>
      <trkpt lat="47.39201" lon="6.59892">
        <ele>460.399994</ele>
        <time>2017-06-11T07:17:14Z</time>
      </trkpt>
      <trkpt lat="47.39209" lon="6.59895">
        <ele>459.399994</ele>
        <time>2017-06-11T07:17:16Z</time>
      </trkpt>
      <trkpt lat="47.39226" lon="6.59898">
        <ele>459.399994</ele>
        <time>2017-06-11T07:17:21Z</time>
      </trkpt>
      <trkpt lat="47.39231" lon="6.59902">
        <ele>459.399994</ele>
        <time>2017-06-11T07:17:23Z</time>
      </trkpt>
      <trkpt lat="47.39235" lon="6.59904">
        <ele>459</ele>
        <time>2017-06-11T07:17:25Z</time>
      </trkpt>
      <trkpt lat="47.3924" lon="6.59905">
        <ele>457.600006</ele>
        <time>2017-06-11T07:17:27Z</time>
      </trkpt>
      <trkpt lat="47.39244" lon="6.59906">
        <ele>457.200012</ele>
        <time>2017-06-11T07:17:28Z</time>
      </trkpt>
      <trkpt lat="47.39251" lon="6.59903">
        <ele>457.200012</ele>
        <time>2017-06-11T07:17:30Z</time>
      </trkpt>
      <trkpt lat="47.39256" lon="6.59902">
        <ele>457.200012</ele>
        <time>2017-06-11T07:17:33Z</time>
      </trkpt>
      <trkpt lat="47.39266" lon="6.59909">
        <ele>457.200012</ele>
        <time>2017-06-11T07:17:40Z</time>
      </trkpt>
      <trkpt lat="47.39273" lon="6.59913">
        <ele>457.200012</ele>
        <time>2017-06-11T07:17:43Z</time>
      </trkpt>
      <trkpt lat="47.39286" lon="6.5992">
        <ele>457.200012</ele>
        <time>2017-06-11T07:17:48Z</time>
      </trkpt>
      <trkpt lat="47.39295" lon="6.59927">
        <ele>457.200012</ele>
        <time>2017-06-11T07:17:53Z</time>
      </trkpt>
      <trkpt lat="47.39295" lon="6.59929">
        <ele>456.799988</ele>
        <time>2017-06-11T07:17:54Z</time>
      </trkpt>
      <trkpt lat="47.39295" lon="6.59932">
        <ele>456</ele>
        <time>2017-06-11T07:17:56Z</time>
      </trkpt>
      <trkpt lat="47.39302" lon="6.59941">
        <ele>455.200012</ele>
        <time>2017-06-11T07:18:19Z</time>
      </trkpt>
      <trkpt lat="47.39304" lon="6.59942">
        <ele>455.200012</ele>
        <time>2017-06-11T07:18:20Z</time>
      </trkpt>
      <trkpt lat="47.39316" lon="6.59943">
        <ele>455.200012</ele>
        <time>2017-06-11T07:18:24Z</time>
      </trkpt>
      <trkpt lat="47.39332" lon="6.59942">
        <ele>455.200012</ele>
        <time>2017-06-11T07:18:29Z</time>
      </trkpt>
      <trkpt lat="47.39341" lon="6.59946">
        <ele>455.200012</ele>
        <time>2017-06-11T07:18:34Z</time>
      </trkpt>
      <trkpt lat="47.39343" lon="6.59949">
        <ele>455.200012</ele>
        <time>2017-06-11T07:18:35Z</time>
      </trkpt>
      <trkpt lat="47.39346" lon="6.59958">
        <ele>454.799988</ele>
        <time>2017-06-11T07:18:37Z</time>
      </trkpt>
      <trkpt lat="47.39346" lon="6.59962">
        <ele>454.399994</ele>
        <time>2017-06-11T07:18:38Z</time>
      </trkpt>
      <trkpt lat="47.39346" lon="6.59965">
        <ele>454</ele>
        <time>2017-06-11T07:18:39Z</time>
      </trkpt>
      <trkpt lat="47.39347" lon="6.59969">
        <ele>453</ele>
        <time>2017-06-11T07:18:41Z</time>
      </trkpt>
      <trkpt lat="47.39348" lon="6.59971">
        <ele>452.200012</ele>
        <time>2017-06-11T07:18:42Z</time>
      </trkpt>
      <trkpt lat="47.39349" lon="6.59972">
        <ele>451.799988</ele>
        <time>2017-06-11T07:18:43Z</time>
      </trkpt>
      <trkpt lat="47.39354" lon="6.59973">
        <ele>451</ele>
        <time>2017-06-11T07:18:46Z</time>
      </trkpt>
      <trkpt lat="47.39364" lon="6.59972">
        <ele>451</ele>
        <time>2017-06-11T07:18:49Z</time>
      </trkpt>
      <trkpt lat="47.3937" lon="6.59969">
        <ele>451</ele>
        <time>2017-06-11T07:18:51Z</time>
      </trkpt>
      <trkpt lat="47.39377" lon="6.59967">
        <ele>450.600006</ele>
        <time>2017-06-11T07:18:54Z</time>
      </trkpt>
      <trkpt lat="47.39379" lon="6.59968">
        <ele>450.200012</ele>
        <time>2017-06-11T07:18:55Z</time>
      </trkpt>
      <trkpt lat="47.39382" lon="6.59973">
        <ele>449.200012</ele>
        <time>2017-06-11T07:18:57Z</time>
      </trkpt>
      <trkpt lat="47.39385" lon="6.59975">
        <ele>448.799988</ele>
        <time>2017-06-11T07:18:58Z</time>
      </trkpt>
      <trkpt lat="47.39386" lon="6.59978">
        <ele>448.799988</ele>
        <time>2017-06-11T07:18:59Z</time>
      </trkpt>
      <trkpt lat="47.39393" lon="6.59986">
        <ele>448.399994</ele>
        <time>2017-06-11T07:19:02Z</time>
      </trkpt>
      <trkpt lat="47.39394" lon="6.59989">
        <ele>448</ele>
        <time>2017-06-11T07:19:03Z</time>
      </trkpt>
      <trkpt lat="47.39393" lon="6.59992">
        <ele>447.600006</ele>
        <time>2017-06-11T07:19:04Z</time>
      </trkpt>
      <trkpt lat="47.39393" lon="6.59997">
        <ele>447.200012</ele>
        <time>2017-06-11T07:19:05Z</time>
      </trkpt>
      <trkpt lat="47.39393" lon="6.6">
        <ele>446.799988</ele>
        <time>2017-06-11T07:19:06Z</time>
      </trkpt>
      <trkpt lat="47.39394" lon="6.60005">
        <ele>446.799988</ele>
        <time>2017-06-11T07:19:08Z</time>
      </trkpt>
      <trkpt lat="47.39399" lon="6.60004">
        <ele>446.799988</ele>
        <time>2017-06-11T07:19:10Z</time>
      </trkpt>
      <trkpt lat="47.39408" lon="6.60004">
        <ele>446.399994</ele>
        <time>2017-06-11T07:19:13Z</time>
      </trkpt>
      <trkpt lat="47.39412" lon="6.60005">
        <ele>446</ele>
        <time>2017-06-11T07:19:14Z</time>
      </trkpt>
      <trkpt lat="47.39414" lon="6.60006">
        <ele>445.600006</ele>
        <time>2017-06-11T07:19:15Z</time>
      </trkpt>
      <trkpt lat="47.39418" lon="6.60008">
        <ele>445.200012</ele>
        <time>2017-06-11T07:19:16Z</time>
      </trkpt>
      <trkpt lat="47.39424" lon="6.60012">
        <ele>444.799988</ele>
        <time>2017-06-11T07:19:18Z</time>
      </trkpt>
      <trkpt lat="47.39431" lon="6.60016">
        <ele>444.799988</ele>
        <time>2017-06-11T07:19:20Z</time>
      </trkpt>
      <trkpt lat="47.39435" lon="6.6002">
        <ele>444.399994</ele>
        <time>2017-06-11T07:19:22Z</time>
      </trkpt>
      <trkpt lat="47.39439" lon="6.60024">
        <ele>443.600006</ele>
        <time>2017-06-11T07:19:24Z</time>
      </trkpt>
      <trkpt lat="47.39443" lon="6.6003">
        <ele>442.799988</ele>
        <time>2017-06-11T07:19:26Z</time>
      </trkpt>
      <trkpt lat="47.39447" lon="6.60037">
        <ele>442.799988</ele>
        <time>2017-06-11T07:19:28Z</time>
      </trkpt>
      <trkpt lat="47.39451" lon="6.60048">
        <ele>442.399994</ele>
        <time>2017-06-11T07:19:31Z</time>
      </trkpt>
      <trkpt lat="47.39452" lon="6.60051">
        <ele>442</ele>
        <time>2017-06-11T07:19:32Z</time>
      </trkpt>
      <trkpt lat="47.39453" lon="6.60055">
        <ele>441.399994</ele>
        <time>2017-06-11T07:19:33Z</time>
      </trkpt>
      <trkpt lat="47.39455" lon="6.60057">
        <ele>441</ele>
        <time>2017-06-11T07:19:34Z</time>
      </trkpt>
      <trkpt lat="47.39456" lon="6.60058">
        <ele>440.600006</ele>
        <time>2017-06-11T07:19:35Z</time>
      </trkpt>
      <trkpt lat="47.39457" lon="6.60057">
        <ele>440.600006</ele>
        <time>2017-06-11T07:19:36Z</time>
      </trkpt>
      <trkpt lat="47.39463" lon="6.60054">
        <ele>440.600006</ele>
        <time>2017-06-11T07:19:38Z</time>
      </trkpt>
      <trkpt lat="47.39468" lon="6.60053">
        <ele>440.200012</ele>
        <time>2017-06-11T07:19:41Z</time>
      </trkpt>
      <trkpt lat="47.3947" lon="6.60055">
        <ele>439.799988</ele>
        <time>2017-06-11T07:19:42Z</time>
      </trkpt>
      <trkpt lat="47.39472" lon="6.60058">
        <ele>439.399994</ele>
        <time>2017-06-11T07:19:43Z</time>
      </trkpt>
      <trkpt lat="47.39474" lon="6.60059">
        <ele>439</ele>
        <time>2017-06-11T07:19:44Z</time>
      </trkpt>
      <trkpt lat="47.39476" lon="6.60057">
        <ele>438.399994</ele>
        <time>2017-06-11T07:19:45Z</time>
      </trkpt>
      <trkpt lat="47.3948" lon="6.60056">
        <ele>438.399994</ele>
        <time>2017-06-11T07:19:46Z</time>
      </trkpt>
      <trkpt lat="47.39488" lon="6.6005">
        <ele>438</ele>
        <time>2017-06-11T07:19:50Z</time>
      </trkpt>
      <trkpt lat="47.39494" lon="6.60054">
        <ele>437.200012</ele>
        <time>2017-06-11T07:19:52Z</time>
      </trkpt>
      <trkpt lat="47.39496" lon="6.60057">
        <ele>436.799988</ele>
        <time>2017-06-11T07:19:53Z</time>
      </trkpt>
      <trkpt lat="47.39498" lon="6.6006">
        <ele>436.399994</ele>
        <time>2017-06-11T07:19:54Z</time>
      </trkpt>
      <trkpt lat="47.39499" lon="6.60065">
        <ele>436.399994</ele>
        <time>2017-06-11T07:19:57Z</time>
      </trkpt>
      <trkpt lat="47.39499" lon="6.60065">
        <ele>436</ele>
        <time>2017-06-11T07:19:59Z</time>
      </trkpt>
      <trkpt lat="47.39501" lon="6.60063">
        <ele>435.600006</ele>
        <time>2017-06-11T07:20:00Z</time>
      </trkpt>
      <trkpt lat="47.39503" lon="6.60063">
        <ele>435.200012</ele>
        <time>2017-06-11T07:20:01Z</time>
      </trkpt>
      <trkpt lat="47.39504" lon="6.60064">
        <ele>434.799988</ele>
        <time>2017-06-11T07:20:02Z</time>
      </trkpt>
      <trkpt lat="47.39511" lon="6.60079">
        <ele>433.399994</ele>
        <time>2017-06-11T07:20:07Z</time>
      </trkpt>
      <trkpt lat="47.39513" lon="6.60081">
        <ele>433</ele>
        <time>2017-06-11T07:20:08Z</time>
      </trkpt>
      <trkpt lat="47.39527" lon="6.60094">
        <ele>429.200012</ele>
        <time>2017-06-11T07:20:16Z</time>
      </trkpt>
      <trkpt lat="47.39527" lon="6.60101">
        <ele>428.200012</ele>
        <time>2017-06-11T07:20:18Z</time>
      </trkpt>
      <trkpt lat="47.39526" lon="6.60105">
        <ele>427.799988</ele>
        <time>2017-06-11T07:20:19Z</time>
      </trkpt>
      <trkpt lat="47.39531" lon="6.60113">
        <ele>427.200012</ele>
        <time>2017-06-11T07:20:21Z</time>
      </trkpt>
      <trkpt lat="47.39534" lon="6.6012">
        <ele>426.200012</ele>
        <time>2017-06-11T07:20:23Z</time>
      </trkpt>
      <trkpt lat="47.39536" lon="6.60124">
        <ele>425.600006</ele>
        <time>2017-06-11T07:20:24Z</time>
      </trkpt>
      <trkpt lat="47.39541" lon="6.60133">
        <ele>424.600006</ele>
        <time>2017-06-11T07:20:27Z</time>
      </trkpt>
      <trkpt lat="47.39546" lon="6.60138">
        <ele>423.799988</ele>
        <time>2017-06-11T07:20:29Z</time>
      </trkpt>
      <trkpt lat="47.39549" lon="6.60139">
        <ele>423.399994</ele>
        <time>2017-06-11T07:20:30Z</time>
      </trkpt>
      <trkpt lat="47.39552" lon="6.60142">
        <ele>423</ele>
        <time>2017-06-11T07:20:31Z</time>
      </trkpt>
      <trkpt lat="47.39556" lon="6.60146">
        <ele>422</ele>
        <time>2017-06-11T07:20:33Z</time>
      </trkpt>
      <trkpt lat="47.39557" lon="6.60147">
        <ele>421.600006</ele>
        <time>2017-06-11T07:20:34Z</time>
      </trkpt>
      <trkpt lat="47.39562" lon="6.60154">
        <ele>420.399994</ele>
        <time>2017-06-11T07:20:37Z</time>
      </trkpt>
      <trkpt lat="47.39564" lon="6.60157">
        <ele>419.799988</ele>
        <time>2017-06-11T07:20:38Z</time>
      </trkpt>
      <trkpt lat="47.39567" lon="6.60159">
        <ele>419.399994</ele>
        <time>2017-06-11T07:20:39Z</time>
      </trkpt>
      <trkpt lat="47.39573" lon="6.60163">
        <ele>418.399994</ele>
        <time>2017-06-11T07:20:41Z</time>
      </trkpt>
      <trkpt lat="47.39574" lon="6.60165">
        <ele>417.799988</ele>
        <time>2017-06-11T07:20:42Z</time>
      </trkpt>
      <trkpt lat="47.39578" lon="6.60169">
        <ele>416.200012</ele>
        <time>2017-06-11T07:20:45Z</time>
      </trkpt>
      <trkpt lat="47.39579" lon="6.60174">
        <ele>416.200012</ele>
        <time>2017-06-11T07:20:50Z</time>
      </trkpt>
      <trkpt lat="47.39577" lon="6.60172">
        <ele>414.200012</ele>
        <time>2017-06-11T07:21:56Z</time>
      </trkpt>
      <trkpt lat="47.39576" lon="6.60173">
        <ele>414.200012</ele>
        <time>2017-06-11T07:21:58Z</time>
      </trkpt>
      <trkpt lat="47.39573" lon="6.60181">
        <ele>414.200012</ele>
        <time>2017-06-11T07:22:03Z</time>
      </trkpt>
      <trkpt lat="47.39572" lon="6.60184">
        <ele>414.200012</ele>
        <time>2017-06-11T07:22:05Z</time>
      </trkpt>
      <trkpt lat="47.3957" lon="6.60189">
        <ele>413.600006</ele>
        <time>2017-06-11T07:22:07Z</time>
      </trkpt>
      <trkpt lat="47.3957" lon="6.60196">
        <ele>412.799988</ele>
        <time>2017-06-11T07:22:09Z</time>
      </trkpt>
      <trkpt lat="47.3957" lon="6.60199">
        <ele>412.399994</ele>
        <time>2017-06-11T07:22:10Z</time>
      </trkpt>
      <trkpt lat="47.39572" lon="6.60203">
        <ele>412</ele>
        <time>2017-06-11T07:22:11Z</time>
      </trkpt>
      <trkpt lat="47.39582" lon="6.60211">
        <ele>412</ele>
        <time>2017-06-11T07:22:15Z</time>
      </trkpt>
      <trkpt lat="47.3959" lon="6.60211">
        <ele>412</ele>
        <time>2017-06-11T07:22:18Z</time>
      </trkpt>
      <trkpt lat="47.39594" lon="6.6021">
        <ele>411.600006</ele>
        <time>2017-06-11T07:22:19Z</time>
      </trkpt>
      <trkpt lat="47.39605" lon="6.60206">
        <ele>410</ele>
        <time>2017-06-11T07:22:23Z</time>
      </trkpt>
      <trkpt lat="47.39608" lon="6.60205">
        <ele>410</ele>
        <time>2017-06-11T07:22:24Z</time>
      </trkpt>
      <trkpt lat="47.39621" lon="6.60199">
        <ele>410</ele>
        <time>2017-06-11T07:22:29Z</time>
      </trkpt>
      <trkpt lat="47.3963" lon="6.60196">
        <ele>410</ele>
        <time>2017-06-11T07:22:33Z</time>
      </trkpt>
      <trkpt lat="47.39639" lon="6.60193">
        <ele>409.600006</ele>
        <time>2017-06-11T07:22:36Z</time>
      </trkpt>
      <trkpt lat="47.3964" lon="6.60192">
        <ele>409.200012</ele>
        <time>2017-06-11T07:22:37Z</time>
      </trkpt>
      <trkpt lat="47.39655" lon="6.60194">
        <ele>408</ele>
        <time>2017-06-11T07:22:42Z</time>
      </trkpt>
      <trkpt lat="47.39666" lon="6.60193">
        <ele>407.399994</ele>
        <time>2017-06-11T07:22:46Z</time>
      </trkpt>
      <trkpt lat="47.39674" lon="6.60192">
        <ele>406.600006</ele>
        <time>2017-06-11T07:22:48Z</time>
      </trkpt>
      <trkpt lat="47.39678" lon="6.60191">
        <ele>405.600006</ele>
        <time>2017-06-11T07:22:49Z</time>
      </trkpt>
      <trkpt lat="47.39683" lon="6.60191">
        <ele>405.600006</ele>
        <time>2017-06-11T07:22:50Z</time>
      </trkpt>
      <trkpt lat="47.39696" lon="6.60188">
        <ele>405.600006</ele>
        <time>2017-06-11T07:22:54Z</time>
      </trkpt>
      <trkpt lat="47.39723" lon="6.60184">
        <ele>405.600006</ele>
        <time>2017-06-11T07:23:00Z</time>
      </trkpt>
      <trkpt lat="47.39738" lon="6.60179">
        <ele>405.600006</ele>
        <time>2017-06-11T07:23:04Z</time>
      </trkpt>
      <trkpt lat="47.39772" lon="6.60175">
        <ele>404.399994</ele>
        <time>2017-06-11T07:23:15Z</time>
      </trkpt>
      <trkpt lat="47.39775" lon="6.60176">
        <ele>404</ele>
        <time>2017-06-11T07:23:16Z</time>
      </trkpt>
      <trkpt lat="47.39785" lon="6.60177">
        <ele>403.399994</ele>
        <time>2017-06-11T07:23:20Z</time>
      </trkpt>
      <trkpt lat="47.39794" lon="6.6018">
        <ele>403</ele>
        <time>2017-06-11T07:23:24Z</time>
      </trkpt>
      <trkpt lat="47.39804" lon="6.6018">
        <ele>401.799988</ele>
        <time>2017-06-11T07:23:27Z</time>
      </trkpt>
      <trkpt lat="47.39808" lon="6.60181">
        <ele>401.399994</ele>
        <time>2017-06-11T07:23:28Z</time>
      </trkpt>
      <trkpt lat="47.39817" lon="6.60182">
        <ele>401.399994</ele>
        <time>2017-06-11T07:23:31Z</time>
      </trkpt>
      <trkpt lat="47.39836" lon="6.6018">
        <ele>401.399994</ele>
        <time>2017-06-11T07:23:37Z</time>
      </trkpt>
      <trkpt lat="47.39841" lon="6.60179">
        <ele>401.399994</ele>
        <time>2017-06-11T07:23:38Z</time>
      </trkpt>
      <trkpt lat="47.39846" lon="6.60179">
        <ele>401</ele>
        <time>2017-06-11T07:23:39Z</time>
      </trkpt>
      <trkpt lat="47.3985" lon="6.60178">
        <ele>400.399994</ele>
        <time>2017-06-11T07:23:40Z</time>
      </trkpt>
      <trkpt lat="47.39854" lon="6.60178">
        <ele>400</ele>
        <time>2017-06-11T07:23:41Z</time>
      </trkpt>
      <trkpt lat="47.39858" lon="6.6018">
        <ele>399.200012</ele>
        <time>2017-06-11T07:23:43Z</time>
      </trkpt>
      <trkpt lat="47.39862" lon="6.60181">
        <ele>399.200012</ele>
        <time>2017-06-11T07:23:44Z</time>
      </trkpt>
      <trkpt lat="47.39881" lon="6.60185">
        <ele>399.200012</ele>
        <time>2017-06-11T07:23:51Z</time>
      </trkpt>
      <trkpt lat="47.39892" lon="6.6019">
        <ele>399.200012</ele>
        <time>2017-06-11T07:23:57Z</time>
      </trkpt>
      <trkpt lat="47.39913" lon="6.60197">
        <ele>398.799988</ele>
        <time>2017-06-11T07:24:04Z</time>
      </trkpt>
      <trkpt lat="47.39916" lon="6.60199">
        <ele>398.399994</ele>
        <time>2017-06-11T07:24:05Z</time>
      </trkpt>
      <trkpt lat="47.39925" lon="6.60201">
        <ele>397.399994</ele>
        <time>2017-06-11T07:24:07Z</time>
      </trkpt>
      <trkpt lat="47.39929" lon="6.60201">
        <ele>397</ele>
        <time>2017-06-11T07:24:08Z</time>
      </trkpt>
      <trkpt lat="47.39942" lon="6.602">
        <ele>397</ele>
        <time>2017-06-11T07:24:11Z</time>
      </trkpt>
      <trkpt lat="47.39959" lon="6.60194">
        <ele>397</ele>
        <time>2017-06-11T07:24:15Z</time>
      </trkpt>
      <trkpt lat="47.39981" lon="6.60195">
        <ele>396.600006</ele>
        <time>2017-06-11T07:24:23Z</time>
      </trkpt>
      <trkpt lat="47.39983" lon="6.60196">
        <ele>396.200012</ele>
        <time>2017-06-11T07:24:24Z</time>
      </trkpt>
      <trkpt lat="47.39986" lon="6.60196">
        <ele>395.799988</ele>
        <time>2017-06-11T07:24:25Z</time>
      </trkpt>
      <trkpt lat="47.39989" lon="6.60196">
        <ele>395.399994</ele>
        <time>2017-06-11T07:24:26Z</time>
      </trkpt>
      <trkpt lat="47.39993" lon="6.60197">
        <ele>395</ele>
        <time>2017-06-11T07:24:27Z</time>
      </trkpt>
      <trkpt lat="47.40005" lon="6.60197">
        <ele>395</ele>
        <time>2017-06-11T07:24:31Z</time>
      </trkpt>
      <trkpt lat="47.40016" lon="6.602">
        <ele>395</ele>
        <time>2017-06-11T07:24:35Z</time>
      </trkpt>
      <trkpt lat="47.40025" lon="6.60204">
        <ele>395</ele>
        <time>2017-06-11T07:24:39Z</time>
      </trkpt>
      <trkpt lat="47.40045" lon="6.60209">
        <ele>395</ele>
        <time>2017-06-11T07:24:46Z</time>
      </trkpt>
      <trkpt lat="47.40056" lon="6.60217">
        <ele>395</ele>
        <time>2017-06-11T07:24:51Z</time>
      </trkpt>
      <trkpt lat="47.40063" lon="6.60221">
        <ele>395</ele>
        <time>2017-06-11T07:24:54Z</time>
      </trkpt>
      <trkpt lat="47.4007" lon="6.60224">
        <ele>395</ele>
        <time>2017-06-11T07:24:56Z</time>
      </trkpt>
      <trkpt lat="47.40073" lon="6.60228">
        <ele>395</ele>
        <time>2017-06-11T07:24:57Z</time>
      </trkpt>
      <trkpt lat="47.40077" lon="6.60232">
        <ele>395</ele>
        <time>2017-06-11T07:24:59Z</time>
      </trkpt>
      <trkpt lat="47.40084" lon="6.60236">
        <ele>394.200012</ele>
        <time>2017-06-11T07:25:01Z</time>
      </trkpt>
      <trkpt lat="47.40086" lon="6.60238">
        <ele>393.799988</ele>
        <time>2017-06-11T07:25:02Z</time>
      </trkpt>
      <trkpt lat="47.40094" lon="6.6024">
        <ele>393</ele>
        <time>2017-06-11T07:25:04Z</time>
      </trkpt>
      <trkpt lat="47.40101" lon="6.60244">
        <ele>393</ele>
        <time>2017-06-11T07:25:06Z</time>
      </trkpt>
      <trkpt lat="47.4011" lon="6.60252">
        <ele>393</ele>
        <time>2017-06-11T07:25:10Z</time>
      </trkpt>
      <trkpt lat="47.40123" lon="6.60258">
        <ele>393</ele>
        <time>2017-06-11T07:25:15Z</time>
      </trkpt>
      <trkpt lat="47.40139" lon="6.60269">
        <ele>392.399994</ele>
        <time>2017-06-11T07:25:20Z</time>
      </trkpt>
      <trkpt lat="47.40142" lon="6.60272">
        <ele>392</ele>
        <time>2017-06-11T07:25:21Z</time>
      </trkpt>
      <trkpt lat="47.40146" lon="6.60273">
        <ele>391.600006</ele>
        <time>2017-06-11T07:25:22Z</time>
      </trkpt>
      <trkpt lat="47.40151" lon="6.60278">
        <ele>390.799988</ele>
        <time>2017-06-11T07:25:24Z</time>
      </trkpt>
      <trkpt lat="47.40159" lon="6.60282">
        <ele>390.799988</ele>
        <time>2017-06-11T07:25:26Z</time>
      </trkpt>
      <trkpt lat="47.40162" lon="6.60285">
        <ele>390.799988</ele>
        <time>2017-06-11T07:25:27Z</time>
      </trkpt>
      <trkpt lat="47.40177" lon="6.60297">
        <ele>390.799988</ele>
        <time>2017-06-11T07:25:33Z</time>
      </trkpt>
      <trkpt lat="47.40179" lon="6.60299">
        <ele>390.399994</ele>
        <time>2017-06-11T07:25:34Z</time>
      </trkpt>
      <trkpt lat="47.40181" lon="6.60304">
        <ele>389.600006</ele>
        <time>2017-06-11T07:25:36Z</time>
      </trkpt>
      <trkpt lat="47.40184" lon="6.60307">
        <ele>389.200012</ele>
        <time>2017-06-11T07:25:37Z</time>
      </trkpt>
      <trkpt lat="47.40186" lon="6.6031">
        <ele>388.799988</ele>
        <time>2017-06-11T07:25:38Z</time>
      </trkpt>
      <trkpt lat="47.40191" lon="6.60316">
        <ele>388.799988</ele>
        <time>2017-06-11T07:25:40Z</time>
      </trkpt>
      <trkpt lat="47.40193" lon="6.60322">
        <ele>388.799988</ele>
        <time>2017-06-11T07:25:42Z</time>
      </trkpt>
      <trkpt lat="47.40197" lon="6.60327">
        <ele>388.799988</ele>
        <time>2017-06-11T07:25:45Z</time>
      </trkpt>
      <trkpt lat="47.402" lon="6.60332">
        <ele>388.799988</ele>
        <time>2017-06-11T07:25:47Z</time>
      </trkpt>
      <trkpt lat="47.40204" lon="6.60342">
        <ele>388.799988</ele>
        <time>2017-06-11T07:25:51Z</time>
      </trkpt>
      <trkpt lat="47.40205" lon="6.60355">
        <ele>388.799988</ele>
        <time>2017-06-11T07:25:55Z</time>
      </trkpt>
      <trkpt lat="47.40206" lon="6.60358">
        <ele>388.799988</ele>
        <time>2017-06-11T07:25:56Z</time>
      </trkpt>
      <trkpt lat="47.40212" lon="6.60367">
        <ele>388.799988</ele>
        <time>2017-06-11T07:26:01Z</time>
      </trkpt>
      <trkpt lat="47.40219" lon="6.60374">
        <ele>388.399994</ele>
        <time>2017-06-11T07:26:03Z</time>
      </trkpt>
      <trkpt lat="47.40222" lon="6.6038">
        <ele>388</ele>
        <time>2017-06-11T07:26:04Z</time>
      </trkpt>
      <trkpt lat="47.40227" lon="6.60386">
        <ele>387.600006</ele>
        <time>2017-06-11T07:26:05Z</time>
      </trkpt>
      <trkpt lat="47.40232" lon="6.6039">
        <ele>387.200012</ele>
        <time>2017-06-11T07:26:06Z</time>
      </trkpt>
      <trkpt lat="47.40235" lon="6.60392">
        <ele>386.600006</ele>
        <time>2017-06-11T07:26:07Z</time>
      </trkpt>
      <trkpt lat="47.40238" lon="6.60393">
        <ele>386.600006</ele>
        <time>2017-06-11T07:26:08Z</time>
      </trkpt>
      <trkpt lat="47.40245" lon="6.60401">
        <ele>386.600006</ele>
        <time>2017-06-11T07:26:13Z</time>
      </trkpt>
      <trkpt lat="47.40245" lon="6.60405">
        <ele>386.600006</ele>
        <time>2017-06-11T07:26:14Z</time>
      </trkpt>
      <trkpt lat="47.40246" lon="6.60426">
        <ele>386.600006</ele>
        <time>2017-06-11T07:26:22Z</time>
      </trkpt>
      <trkpt lat="47.40246" lon="6.60429">
        <ele>386.600006</ele>
        <time>2017-06-11T07:26:24Z</time>
      </trkpt>
      <trkpt lat="47.40248" lon="6.60433">
        <ele>386.600006</ele>
        <time>2017-06-11T07:26:26Z</time>
      </trkpt>
      <trkpt lat="47.40253" lon="6.60439">
        <ele>386.600006</ele>
        <time>2017-06-11T07:26:29Z</time>
      </trkpt>
      <trkpt lat="47.40256" lon="6.60449">
        <ele>386.600006</ele>
        <time>2017-06-11T07:26:33Z</time>
      </trkpt>
      <trkpt lat="47.40263" lon="6.60451">
        <ele>385.799988</ele>
        <time>2017-06-11T07:26:36Z</time>
      </trkpt>
      <trkpt lat="47.40265" lon="6.60456">
        <ele>385</ele>
        <time>2017-06-11T07:26:38Z</time>
      </trkpt>
      <trkpt lat="47.40275" lon="6.60469">
        <ele>384.600006</ele>
        <time>2017-06-11T07:26:44Z</time>
      </trkpt>
      <trkpt lat="47.40281" lon="6.60492">
        <ele>384.600006</ele>
        <time>2017-06-11T07:26:56Z</time>
      </trkpt>
      <trkpt lat="47.40293" lon="6.60517">
        <ele>384.600006</ele>
        <time>2017-06-11T07:27:02Z</time>
      </trkpt>
      <trkpt lat="47.40295" lon="6.60523">
        <ele>384.200012</ele>
        <time>2017-06-11T07:27:04Z</time>
      </trkpt>
      <trkpt lat="47.40297" lon="6.6053">
        <ele>383.399994</ele>
        <time>2017-06-11T07:27:06Z</time>
      </trkpt>
      <trkpt lat="47.40301" lon="6.60538">
        <ele>382.600006</ele>
        <time>2017-06-11T07:27:08Z</time>
      </trkpt>
      <trkpt lat="47.40312" lon="6.6056">
        <ele>382.600006</ele>
        <time>2017-06-11T07:27:13Z</time>
      </trkpt>
      <trkpt lat="47.40319" lon="6.60581">
        <ele>382.600006</ele>
        <time>2017-06-11T07:27:18Z</time>
      </trkpt>
      <trkpt lat="47.40329" lon="6.606">
        <ele>382.200012</ele>
        <time>2017-06-11T07:27:22Z</time>
      </trkpt>
      <trkpt lat="47.40332" lon="6.60603">
        <ele>381.799988</ele>
        <time>2017-06-11T07:27:23Z</time>
      </trkpt>
      <trkpt lat="47.40335" lon="6.60607">
        <ele>381.399994</ele>
        <time>2017-06-11T07:27:24Z</time>
      </trkpt>
      <trkpt lat="47.40338" lon="6.60611">
        <ele>381</ele>
        <time>2017-06-11T07:27:25Z</time>
      </trkpt>
      <trkpt lat="47.40342" lon="6.60614">
        <ele>380.600006</ele>
        <time>2017-06-11T07:27:26Z</time>
      </trkpt>
      <trkpt lat="47.40356" lon="6.60628">
        <ele>380.600006</ele>
        <time>2017-06-11T07:27:29Z</time>
      </trkpt>
      <trkpt lat="47.40372" lon="6.60653">
        <ele>380.600006</ele>
        <time>2017-06-11T07:27:35Z</time>
      </trkpt>
      <trkpt lat="47.40378" lon="6.60664">
        <ele>380.200012</ele>
        <time>2017-06-11T07:27:37Z</time>
      </trkpt>
      <trkpt lat="47.40388" lon="6.60686">
        <ele>378.600006</ele>
        <time>2017-06-11T07:27:41Z</time>
      </trkpt>
      <trkpt lat="47.40444" lon="6.6073">
        <ele>378.600006</ele>
        <time>2017-06-11T07:27:43Z</time>
      </trkpt>
      <trkpt lat="47.40457" lon="6.60764">
        <ele>377.200012</ele>
        <time>2017-06-11T07:27:49Z</time>
      </trkpt>
      <trkpt lat="47.40459" lon="6.60769">
        <ele>376.799988</ele>
        <time>2017-06-11T07:27:50Z</time>
      </trkpt>
      <trkpt lat="47.40461" lon="6.60775">
        <ele>376.399994</ele>
        <time>2017-06-11T07:27:51Z</time>
      </trkpt>
      <trkpt lat="47.40464" lon="6.60784">
        <ele>376</ele>
        <time>2017-06-11T07:27:53Z</time>
      </trkpt>
      <trkpt lat="47.40466" lon="6.60787">
        <ele>375.399994</ele>
        <time>2017-06-11T07:27:54Z</time>
      </trkpt>
      <trkpt lat="47.40468" lon="6.60789">
        <ele>375</ele>
        <time>2017-06-11T07:27:55Z</time>
      </trkpt>
      <trkpt lat="47.40473" lon="6.6079">
        <ele>374.200012</ele>
        <time>2017-06-11T07:27:57Z</time>
      </trkpt>
      <trkpt lat="47.40478" lon="6.6079">
        <ele>374.200012</ele>
        <time>2017-06-11T07:27:59Z</time>
      </trkpt>
      <trkpt lat="47.40483" lon="6.60793">
        <ele>374.200012</ele>
        <time>2017-06-11T07:28:01Z</time>
      </trkpt>
      <trkpt lat="47.40486" lon="6.60799">
        <ele>374.200012</ele>
        <time>2017-06-11T07:28:03Z</time>
      </trkpt>
      <trkpt lat="47.40497" lon="6.60812">
        <ele>374.200012</ele>
        <time>2017-06-11T07:28:08Z</time>
      </trkpt>
      <trkpt lat="47.40504" lon="6.6082">
        <ele>374.200012</ele>
        <time>2017-06-11T07:28:12Z</time>
      </trkpt>
      <trkpt lat="47.40505" lon="6.60825">
        <ele>374.200012</ele>
        <time>2017-06-11T07:28:14Z</time>
      </trkpt>
      <trkpt lat="47.40505" lon="6.60832">
        <ele>374.200012</ele>
        <time>2017-06-11T07:28:18Z</time>
      </trkpt>
      <trkpt lat="47.40503" lon="6.60839">
        <ele>374.200012</ele>
        <time>2017-06-11T07:28:21Z</time>
      </trkpt>
      <trkpt lat="47.40513" lon="6.60859">
        <ele>374.200012</ele>
        <time>2017-06-11T07:28:24Z</time>
      </trkpt>
      <trkpt lat="47.40517" lon="6.60865">
        <ele>373.799988</ele>
        <time>2017-06-11T07:28:25Z</time>
      </trkpt>
      <trkpt lat="47.4052" lon="6.60871">
        <ele>373.399994</ele>
        <time>2017-06-11T07:28:26Z</time>
      </trkpt>
      <trkpt lat="47.40523" lon="6.60876">
        <ele>372.799988</ele>
        <time>2017-06-11T07:28:27Z</time>
      </trkpt>
      <trkpt lat="47.40525" lon="6.6088">
        <ele>372.399994</ele>
        <time>2017-06-11T07:28:28Z</time>
      </trkpt>
      <trkpt lat="47.40527" lon="6.60884">
        <ele>372</ele>
        <time>2017-06-11T07:28:29Z</time>
      </trkpt>
      <trkpt lat="47.40538" lon="6.60912">
        <ele>372</ele>
        <time>2017-06-11T07:28:34Z</time>
      </trkpt>
      <trkpt lat="47.40545" lon="6.60938">
        <ele>372</ele>
        <time>2017-06-11T07:28:39Z</time>
      </trkpt>
      <trkpt lat="47.40546" lon="6.60949">
        <ele>372</ele>
        <time>2017-06-11T07:28:42Z</time>
      </trkpt>
      <trkpt lat="47.40549" lon="6.60954">
        <ele>372</ele>
        <time>2017-06-11T07:28:43Z</time>
      </trkpt>
      <trkpt lat="47.40555" lon="6.60965">
        <ele>371.600006</ele>
        <time>2017-06-11T07:28:44Z</time>
      </trkpt>
      <trkpt lat="47.40559" lon="6.60971">
        <ele>371.200012</ele>
        <time>2017-06-11T07:28:45Z</time>
      </trkpt>
      <trkpt lat="47.40563" lon="6.60988">
        <ele>370.200012</ele>
        <time>2017-06-11T07:28:47Z</time>
      </trkpt>
      <trkpt lat="47.40565" lon="6.60997">
        <ele>369.799988</ele>
        <time>2017-06-11T07:28:48Z</time>
      </trkpt>
      <trkpt lat="47.4057" lon="6.61013">
        <ele>369.799988</ele>
        <time>2017-06-11T07:28:50Z</time>
      </trkpt>
      <trkpt lat="47.40582" lon="6.61043">
        <ele>369.799988</ele>
        <time>2017-06-11T07:28:55Z</time>
      </trkpt>
      <trkpt lat="47.40594" lon="6.61054">
        <ele>369.799988</ele>
        <time>2017-06-11T07:29:00Z</time>
      </trkpt>
      <trkpt lat="47.40596" lon="6.61061">
        <ele>369.799988</ele>
        <time>2017-06-11T07:29:01Z</time>
      </trkpt>
      <trkpt lat="47.40602" lon="6.61075">
        <ele>369.799988</ele>
        <time>2017-06-11T07:29:04Z</time>
      </trkpt>
      <trkpt lat="47.40608" lon="6.61086">
        <ele>370.200012</ele>
        <time>2017-06-11T07:29:07Z</time>
      </trkpt>
      <trkpt lat="47.40608" lon="6.6109">
        <ele>370.799988</ele>
        <time>2017-06-11T07:29:08Z</time>
      </trkpt>
      <trkpt lat="47.40611" lon="6.61099">
        <ele>372</ele>
        <time>2017-06-11T07:29:11Z</time>
      </trkpt>
      <trkpt lat="47.4062" lon="6.61111">
        <ele>373</ele>
        <time>2017-06-11T07:29:15Z</time>
      </trkpt>
      <trkpt lat="47.40622" lon="6.61113">
        <ele>373.399994</ele>
        <time>2017-06-11T07:29:16Z</time>
      </trkpt>
      <trkpt lat="47.40626" lon="6.61119">
        <ele>374.399994</ele>
        <time>2017-06-11T07:29:19Z</time>
      </trkpt>
      <trkpt lat="47.40628" lon="6.6112">
        <ele>374.799988</ele>
        <time>2017-06-11T07:29:20Z</time>
      </trkpt>
      <trkpt lat="47.40629" lon="6.61122">
        <ele>375.200012</ele>
        <time>2017-06-11T07:29:21Z</time>
      </trkpt>
      <trkpt lat="47.4063" lon="6.61124">
        <ele>375.600006</ele>
        <time>2017-06-11T07:29:22Z</time>
      </trkpt>
      <trkpt lat="47.40631" lon="6.61125">
        <ele>376.200012</ele>
        <time>2017-06-11T07:29:23Z</time>
      </trkpt>
      <trkpt lat="47.40636" lon="6.61133">
        <ele>377.399994</ele>
        <time>2017-06-11T07:29:26Z</time>
      </trkpt>
      <trkpt lat="47.40637" lon="6.61135">
        <ele>377.799988</ele>
        <time>2017-06-11T07:29:27Z</time>
      </trkpt>
      <trkpt lat="47.40649" lon="6.61141">
        <ele>380.200012</ele>
        <time>2017-06-11T07:29:33Z</time>
      </trkpt>
      <trkpt lat="47.4065" lon="6.61143">
        <ele>380.600006</ele>
        <time>2017-06-11T07:29:34Z</time>
      </trkpt>
      <trkpt lat="47.40652" lon="6.61146">
        <ele>381</ele>
        <time>2017-06-11T07:29:35Z</time>
      </trkpt>
      <trkpt lat="47.40656" lon="6.6115">
        <ele>381.399994</ele>
        <time>2017-06-11T07:29:37Z</time>
      </trkpt>
      <trkpt lat="47.40658" lon="6.61151">
        <ele>382</ele>
        <time>2017-06-11T07:29:38Z</time>
      </trkpt>
      <trkpt lat="47.40659" lon="6.61151">
        <ele>382.399994</ele>
        <time>2017-06-11T07:29:39Z</time>
      </trkpt>
      <trkpt lat="47.40661" lon="6.61153">
        <ele>383.200012</ele>
        <time>2017-06-11T07:29:41Z</time>
      </trkpt>
      <trkpt lat="47.40696" lon="6.61181">
        <ele>387.600006</ele>
        <time>2017-06-11T07:30:34Z</time>
      </trkpt>
      <trkpt lat="47.40697" lon="6.61183">
        <ele>387.600006</ele>
        <time>2017-06-11T07:30:35Z</time>
      </trkpt>
      <trkpt lat="47.40703" lon="6.61187">
        <ele>388.399994</ele>
        <time>2017-06-11T07:30:39Z</time>
      </trkpt>
      <trkpt lat="47.40706" lon="6.61188">
        <ele>389.200012</ele>
        <time>2017-06-11T07:30:41Z</time>
      </trkpt>
      <trkpt lat="47.40711" lon="6.61191">
        <ele>389.600006</ele>
        <time>2017-06-11T07:30:44Z</time>
      </trkpt>
      <trkpt lat="47.40713" lon="6.61192">
        <ele>389.600006</ele>
        <time>2017-06-11T07:30:45Z</time>
      </trkpt>
      <trkpt lat="47.40721" lon="6.61197">
        <ele>390</ele>
        <time>2017-06-11T07:30:50Z</time>
      </trkpt>
      <trkpt lat="47.40723" lon="6.61197">
        <ele>390.399994</ele>
        <time>2017-06-11T07:30:51Z</time>
      </trkpt>
      <trkpt lat="47.40726" lon="6.61199">
        <ele>391.200012</ele>
        <time>2017-06-11T07:30:53Z</time>
      </trkpt>
      <trkpt lat="47.40727" lon="6.612">
        <ele>391.600006</ele>
        <time>2017-06-11T07:30:54Z</time>
      </trkpt>
      <trkpt lat="47.40735" lon="6.61206">
        <ele>391.600006</ele>
        <time>2017-06-11T07:30:58Z</time>
      </trkpt>
      <trkpt lat="47.40745" lon="6.61207">
        <ele>391.600006</ele>
        <time>2017-06-11T07:31:03Z</time>
      </trkpt>
      <trkpt lat="47.40752" lon="6.61211">
        <ele>393.200012</ele>
        <time>2017-06-11T07:31:07Z</time>
      </trkpt>
      <trkpt lat="47.40755" lon="6.61213">
        <ele>393.600006</ele>
        <time>2017-06-11T07:31:11Z</time>
      </trkpt>
      <trkpt lat="47.40757" lon="6.61218">
        <ele>393.600006</ele>
        <time>2017-06-11T07:31:48Z</time>
      </trkpt>
      <trkpt lat="47.40759" lon="6.61221">
        <ele>393.600006</ele>
        <time>2017-06-11T07:31:49Z</time>
      </trkpt>
      <trkpt lat="47.40762" lon="6.61231">
        <ele>393.600006</ele>
        <time>2017-06-11T07:31:52Z</time>
      </trkpt>
      <trkpt lat="47.40766" lon="6.6124">
        <ele>393.600006</ele>
        <time>2017-06-11T07:31:54Z</time>
      </trkpt>
      <trkpt lat="47.4077" lon="6.61249">
        <ele>393.600006</ele>
        <time>2017-06-11T07:31:57Z</time>
      </trkpt>
      <trkpt lat="47.40771" lon="6.61253">
        <ele>393.600006</ele>
        <time>2017-06-11T07:31:58Z</time>
      </trkpt>
      <trkpt lat="47.40778" lon="6.61262">
        <ele>393.600006</ele>
        <time>2017-06-11T07:32:02Z</time>
      </trkpt>
      <trkpt lat="47.40789" lon="6.61254">
        <ele>393.600006</ele>
        <time>2017-06-11T07:32:07Z</time>
      </trkpt>
      <trkpt lat="47.40802" lon="6.61239">
        <ele>393.600006</ele>
        <time>2017-06-11T07:32:12Z</time>
      </trkpt>
      <trkpt lat="47.40811" lon="6.61223">
        <ele>393.600006</ele>
        <time>2017-06-11T07:32:16Z</time>
      </trkpt>
      <trkpt lat="47.40823" lon="6.61205">
        <ele>393.200012</ele>
        <time>2017-06-11T07:32:20Z</time>
      </trkpt>
      <trkpt lat="47.40826" lon="6.61203">
        <ele>392.799988</ele>
        <time>2017-06-11T07:32:21Z</time>
      </trkpt>
      <trkpt lat="47.40833" lon="6.61193">
        <ele>391.600006</ele>
        <time>2017-06-11T07:32:24Z</time>
      </trkpt>
      <trkpt lat="47.40847" lon="6.61179">
        <ele>391.600006</ele>
        <time>2017-06-11T07:32:28Z</time>
      </trkpt>
      <trkpt lat="47.4085" lon="6.61173">
        <ele>391.600006</ele>
        <time>2017-06-11T07:32:29Z</time>
      </trkpt>
      <trkpt lat="47.40874" lon="6.61149">
        <ele>389.600006</ele>
        <time>2017-06-11T07:32:35Z</time>
      </trkpt>
      <trkpt lat="47.40908" lon="6.61111">
        <ele>389.600006</ele>
        <time>2017-06-11T07:32:47Z</time>
      </trkpt>
      <trkpt lat="47.40917" lon="6.61103">
        <ele>389.600006</ele>
        <time>2017-06-11T07:32:51Z</time>
      </trkpt>
      <trkpt lat="47.40927" lon="6.61096">
        <ele>389</ele>
        <time>2017-06-11T07:32:54Z</time>
      </trkpt>
      <trkpt lat="47.40931" lon="6.61094">
        <ele>388.600006</ele>
        <time>2017-06-11T07:32:55Z</time>
      </trkpt>
      <trkpt lat="47.40934" lon="6.61091">
        <ele>388.200012</ele>
        <time>2017-06-11T07:32:56Z</time>
      </trkpt>
      <trkpt lat="47.40937" lon="6.61087">
        <ele>387.799988</ele>
        <time>2017-06-11T07:32:57Z</time>
      </trkpt>
      <trkpt lat="47.40939" lon="6.61084">
        <ele>387.399994</ele>
        <time>2017-06-11T07:32:58Z</time>
      </trkpt>
      <trkpt lat="47.40944" lon="6.61085">
        <ele>387.399994</ele>
        <time>2017-06-11T07:33:00Z</time>
      </trkpt>
      <trkpt lat="47.40949" lon="6.61087">
        <ele>387.399994</ele>
        <time>2017-06-11T07:33:03Z</time>
      </trkpt>
      <trkpt lat="47.40964" lon="6.61085">
        <ele>387.399994</ele>
        <time>2017-06-11T07:33:09Z</time>
      </trkpt>
      <trkpt lat="47.40978" lon="6.6108">
        <ele>387.399994</ele>
        <time>2017-06-11T07:33:15Z</time>
      </trkpt>
      <trkpt lat="47.40986" lon="6.6107">
        <ele>387.799988</ele>
        <time>2017-06-11T07:33:20Z</time>
      </trkpt>
      <trkpt lat="47.40988" lon="6.61069">
        <ele>388.200012</ele>
        <time>2017-06-11T07:33:21Z</time>
      </trkpt>
      <trkpt lat="47.40989" lon="6.61067">
        <ele>389</ele>
        <time>2017-06-11T07:33:23Z</time>
      </trkpt>
      <trkpt lat="47.40989" lon="6.61072">
        <ele>389.399994</ele>
        <time>2017-06-11T07:34:02Z</time>
      </trkpt>
      <trkpt lat="47.4099" lon="6.61072">
        <ele>389.399994</ele>
        <time>2017-06-11T07:34:03Z</time>
      </trkpt>
      <trkpt lat="47.40989" lon="6.61074">
        <ele>389.399994</ele>
        <time>2017-06-11T07:34:04Z</time>
      </trkpt>
      <trkpt lat="47.40982" lon="6.61093">
        <ele>388.200012</ele>
        <time>2017-06-11T07:34:09Z</time>
      </trkpt>
      <trkpt lat="47.40983" lon="6.61096">
        <ele>387.799988</ele>
        <time>2017-06-11T07:34:10Z</time>
      </trkpt>
      <trkpt lat="47.40983" lon="6.61103">
        <ele>387.399994</ele>
        <time>2017-06-11T07:34:11Z</time>
      </trkpt>
      <trkpt lat="47.40983" lon="6.61108">
        <ele>387</ele>
        <time>2017-06-11T07:34:12Z</time>
      </trkpt>
      <trkpt lat="47.40984" lon="6.61112">
        <ele>386.600006</ele>
        <time>2017-06-11T07:34:13Z</time>
      </trkpt>
      <trkpt lat="47.40983" lon="6.61117">
        <ele>386</ele>
        <time>2017-06-11T07:34:14Z</time>
      </trkpt>
      <trkpt lat="47.40984" lon="6.61121">
        <ele>385.600006</ele>
        <time>2017-06-11T07:34:15Z</time>
      </trkpt>
      <trkpt lat="47.40986" lon="6.61127">
        <ele>385.200012</ele>
        <time>2017-06-11T07:34:16Z</time>
      </trkpt>
      <trkpt lat="47.40988" lon="6.61132">
        <ele>385.200012</ele>
        <time>2017-06-11T07:34:17Z</time>
      </trkpt>
      <trkpt lat="47.40993" lon="6.61142">
        <ele>385.200012</ele>
        <time>2017-06-11T07:34:19Z</time>
      </trkpt>
      <trkpt lat="47.41007" lon="6.61161">
        <ele>385.200012</ele>
        <time>2017-06-11T07:34:24Z</time>
      </trkpt>
      <trkpt lat="47.41022" lon="6.61175">
        <ele>385.200012</ele>
        <time>2017-06-11T07:34:30Z</time>
      </trkpt>
      <trkpt lat="47.41039" lon="6.61187">
        <ele>385.200012</ele>
        <time>2017-06-11T07:34:35Z</time>
      </trkpt>
      <trkpt lat="47.41048" lon="6.61191">
        <ele>386</ele>
        <time>2017-06-11T07:34:38Z</time>
      </trkpt>
      <trkpt lat="47.41069" lon="6.61206">
        <ele>387.200012</ele>
        <time>2017-06-11T07:34:46Z</time>
      </trkpt>
      <trkpt lat="47.41076" lon="6.61213">
        <ele>387.799988</ele>
        <time>2017-06-11T07:34:50Z</time>
      </trkpt>
      <trkpt lat="47.41079" lon="6.61214">
        <ele>388.200012</ele>
        <time>2017-06-11T07:34:51Z</time>
      </trkpt>
      <trkpt lat="47.41081" lon="6.61214">
        <ele>388.600006</ele>
        <time>2017-06-11T07:34:52Z</time>
      </trkpt>
      <trkpt lat="47.41101" lon="6.6123">
        <ele>391</ele>
        <time>2017-06-11T07:35:01Z</time>
      </trkpt>
      <trkpt lat="47.41103" lon="6.61231">
        <ele>391.399994</ele>
        <time>2017-06-11T07:35:02Z</time>
      </trkpt>
      <trkpt lat="47.41114" lon="6.61235">
        <ele>391.399994</ele>
        <time>2017-06-11T07:35:07Z</time>
      </trkpt>
      <trkpt lat="47.41128" lon="6.61247">
        <ele>391.399994</ele>
        <time>2017-06-11T07:35:13Z</time>
      </trkpt>
      <trkpt lat="47.41141" lon="6.61255">
        <ele>391.399994</ele>
        <time>2017-06-11T07:35:17Z</time>
      </trkpt>
      <trkpt lat="47.41146" lon="6.61259">
        <ele>391.399994</ele>
        <time>2017-06-11T07:35:19Z</time>
      </trkpt>
      <trkpt lat="47.41151" lon="6.61261">
        <ele>391.399994</ele>
        <time>2017-06-11T07:35:21Z</time>
      </trkpt>
      <trkpt lat="47.41158" lon="6.61266">
        <ele>391.399994</ele>
        <time>2017-06-11T07:35:24Z</time>
      </trkpt>
      <trkpt lat="47.41161" lon="6.61269">
        <ele>391.399994</ele>
        <time>2017-06-11T07:35:26Z</time>
      </trkpt>
      <trkpt lat="47.41175" lon="6.61276">
        <ele>391.399994</ele>
        <time>2017-06-11T07:35:31Z</time>
      </trkpt>
      <trkpt lat="47.41179" lon="6.61278">
        <ele>391</ele>
        <time>2017-06-11T07:35:32Z</time>
      </trkpt>
      <trkpt lat="47.41186" lon="6.61281">
        <ele>390.200012</ele>
        <time>2017-06-11T07:35:34Z</time>
      </trkpt>
      <trkpt lat="47.41188" lon="6.61283">
        <ele>389.799988</ele>
        <time>2017-06-11T07:35:35Z</time>
      </trkpt>
      <trkpt lat="47.41191" lon="6.61286">
        <ele>389.399994</ele>
        <time>2017-06-11T07:35:36Z</time>
      </trkpt>
      <trkpt lat="47.41201" lon="6.61289">
        <ele>389.399994</ele>
        <time>2017-06-11T07:35:38Z</time>
      </trkpt>
      <trkpt lat="47.41209" lon="6.6129">
        <ele>389</ele>
        <time>2017-06-11T07:35:40Z</time>
      </trkpt>
      <trkpt lat="47.41212" lon="6.61291">
        <ele>388.399994</ele>
        <time>2017-06-11T07:35:41Z</time>
      </trkpt>
      <trkpt lat="47.41216" lon="6.61291">
        <ele>388</ele>
        <time>2017-06-11T07:35:42Z</time>
      </trkpt>
      <trkpt lat="47.41222" lon="6.61292">
        <ele>387.200012</ele>
        <time>2017-06-11T07:35:44Z</time>
      </trkpt>
      <trkpt lat="47.41232" lon="6.61291">
        <ele>387.200012</ele>
        <time>2017-06-11T07:35:46Z</time>
      </trkpt>
      <trkpt lat="47.41244" lon="6.61285">
        <ele>386.799988</ele>
        <time>2017-06-11T07:35:49Z</time>
      </trkpt>
      <trkpt lat="47.41248" lon="6.61282">
        <ele>386.200012</ele>
        <time>2017-06-11T07:35:50Z</time>
      </trkpt>
      <trkpt lat="47.41253" lon="6.61279">
        <ele>385.799988</ele>
        <time>2017-06-11T07:35:51Z</time>
      </trkpt>
      <trkpt lat="47.41257" lon="6.61276">
        <ele>385.399994</ele>
        <time>2017-06-11T07:35:52Z</time>
      </trkpt>
      <trkpt lat="47.41261" lon="6.61272">
        <ele>385</ele>
        <time>2017-06-11T07:35:53Z</time>
      </trkpt>
      <trkpt lat="47.41277" lon="6.61239">
        <ele>385</ele>
        <time>2017-06-11T07:36:02Z</time>
      </trkpt>
      <trkpt lat="47.41291" lon="6.61223">
        <ele>384.600006</ele>
        <time>2017-06-11T07:36:07Z</time>
      </trkpt>
      <trkpt lat="47.41296" lon="6.61214">
        <ele>383.600006</ele>
        <time>2017-06-11T07:36:09Z</time>
      </trkpt>
      <trkpt lat="47.41302" lon="6.61207">
        <ele>382.799988</ele>
        <time>2017-06-11T07:36:11Z</time>
      </trkpt>
      <trkpt lat="47.41315" lon="6.6119">
        <ele>382.399994</ele>
        <time>2017-06-11T07:36:15Z</time>
      </trkpt>
      <trkpt lat="47.41322" lon="6.61183">
        <ele>381.600006</ele>
        <time>2017-06-11T07:36:17Z</time>
      </trkpt>
      <trkpt lat="47.41325" lon="6.61179">
        <ele>381.200012</ele>
        <time>2017-06-11T07:36:18Z</time>
      </trkpt>
      <trkpt lat="47.41328" lon="6.61176">
        <ele>380.799988</ele>
        <time>2017-06-11T07:36:19Z</time>
      </trkpt>
      <trkpt lat="47.41333" lon="6.61169">
        <ele>380.399994</ele>
        <time>2017-06-11T07:36:21Z</time>
      </trkpt>
      <trkpt lat="47.41336" lon="6.61165">
        <ele>380</ele>
        <time>2017-06-11T07:36:22Z</time>
      </trkpt>
      <trkpt lat="47.41339" lon="6.6116">
        <ele>379.600006</ele>
        <time>2017-06-11T07:36:23Z</time>
      </trkpt>
      <trkpt lat="47.41347" lon="6.61149">
        <ele>378.600006</ele>
        <time>2017-06-11T07:36:25Z</time>
      </trkpt>
      <trkpt lat="47.41353" lon="6.61139">
        <ele>377</ele>
        <time>2017-06-11T07:36:27Z</time>
      </trkpt>
      <trkpt lat="47.41357" lon="6.61134">
        <ele>376.399994</ele>
        <time>2017-06-11T07:36:28Z</time>
      </trkpt>
      <trkpt lat="47.41362" lon="6.61125">
        <ele>375.399994</ele>
        <time>2017-06-11T07:36:30Z</time>
      </trkpt>
      <trkpt lat="47.41364" lon="6.61121">
        <ele>375</ele>
        <time>2017-06-11T07:36:31Z</time>
      </trkpt>
      <trkpt lat="47.41366" lon="6.61117">
        <ele>374.600006</ele>
        <time>2017-06-11T07:36:32Z</time>
      </trkpt>
      <trkpt lat="47.41369" lon="6.61116">
        <ele>374</ele>
        <time>2017-06-11T07:36:33Z</time>
      </trkpt>
      <trkpt lat="47.41372" lon="6.61114">
        <ele>374</ele>
        <time>2017-06-11T07:36:34Z</time>
      </trkpt>
      <trkpt lat="47.41375" lon="6.61114">
        <ele>373.600006</ele>
        <time>2017-06-11T07:36:35Z</time>
      </trkpt>
      <trkpt lat="47.41378" lon="6.61115">
        <ele>373.200012</ele>
        <time>2017-06-11T07:36:36Z</time>
      </trkpt>
      <trkpt lat="47.41388" lon="6.61113">
        <ele>371.799988</ele>
        <time>2017-06-11T07:36:39Z</time>
      </trkpt>
      <trkpt lat="47.41398" lon="6.61111">
        <ele>371.799988</ele>
        <time>2017-06-11T07:36:42Z</time>
      </trkpt>
      <trkpt lat="47.41409" lon="6.61109">
        <ele>371.399994</ele>
        <time>2017-06-11T07:36:47Z</time>
      </trkpt>
      <trkpt lat="47.41411" lon="6.61107">
        <ele>370.600006</ele>
        <time>2017-06-11T07:36:49Z</time>
      </trkpt>
      <trkpt lat="47.41413" lon="6.61107">
        <ele>370</ele>
        <time>2017-06-11T07:36:50Z</time>
      </trkpt>
      <trkpt lat="47.41416" lon="6.61105">
        <ele>369.600006</ele>
        <time>2017-06-11T07:36:51Z</time>
      </trkpt>
      <trkpt lat="47.41419" lon="6.61105">
        <ele>369.600006</ele>
        <time>2017-06-11T07:36:52Z</time>
      </trkpt>
      <trkpt lat="47.41425" lon="6.61102">
        <ele>369.200012</ele>
        <time>2017-06-11T07:36:54Z</time>
      </trkpt>
      <trkpt lat="47.41427" lon="6.61102">
        <ele>368.799988</ele>
        <time>2017-06-11T07:36:55Z</time>
      </trkpt>
      <trkpt lat="47.4143" lon="6.61102">
        <ele>368.399994</ele>
        <time>2017-06-11T07:36:56Z</time>
      </trkpt>
      <trkpt lat="47.41435" lon="6.61101">
        <ele>367.399994</ele>
        <time>2017-06-11T07:36:58Z</time>
      </trkpt>
      <trkpt lat="47.41457" lon="6.61099">
        <ele>367.399994</ele>
        <time>2017-06-11T07:37:04Z</time>
      </trkpt>
      <trkpt lat="47.41465" lon="6.61098">
        <ele>366.600006</ele>
        <time>2017-06-11T07:37:06Z</time>
      </trkpt>
      <trkpt lat="47.41473" lon="6.61096">
        <ele>365.799988</ele>
        <time>2017-06-11T07:37:08Z</time>
      </trkpt>
      <trkpt lat="47.41484" lon="6.61096">
        <ele>364.799988</ele>
        <time>2017-06-11T07:37:11Z</time>
      </trkpt>
      <trkpt lat="47.41487" lon="6.61096">
        <ele>364.399994</ele>
        <time>2017-06-11T07:37:12Z</time>
      </trkpt>
      <trkpt lat="47.41489" lon="6.61097">
        <ele>364</ele>
        <time>2017-06-11T07:37:13Z</time>
      </trkpt>
      <trkpt lat="47.41492" lon="6.61097">
        <ele>363.600006</ele>
        <time>2017-06-11T07:37:14Z</time>
      </trkpt>
      <trkpt lat="47.41498" lon="6.61098">
        <ele>362.200012</ele>
        <time>2017-06-11T07:37:16Z</time>
      </trkpt>
      <trkpt lat="47.4151" lon="6.61102">
        <ele>360.200012</ele>
        <time>2017-06-11T07:37:20Z</time>
      </trkpt>
      <trkpt lat="47.41513" lon="6.61104">
        <ele>359.799988</ele>
        <time>2017-06-11T07:37:21Z</time>
      </trkpt>
      <trkpt lat="47.41516" lon="6.61105">
        <ele>359.399994</ele>
        <time>2017-06-11T07:37:22Z</time>
      </trkpt>
      <trkpt lat="47.41524" lon="6.61105">
        <ele>358.600006</ele>
        <time>2017-06-11T07:37:24Z</time>
      </trkpt>
      <trkpt lat="47.41527" lon="6.61105">
        <ele>358</ele>
        <time>2017-06-11T07:37:25Z</time>
      </trkpt>
      <trkpt lat="47.41531" lon="6.61104">
        <ele>357.600006</ele>
        <time>2017-06-11T07:37:26Z</time>
      </trkpt>
      <trkpt lat="47.41534" lon="6.61103">
        <ele>357</ele>
        <time>2017-06-11T07:37:27Z</time>
      </trkpt>
      <trkpt lat="47.41537" lon="6.61103">
        <ele>356.600006</ele>
        <time>2017-06-11T07:37:28Z</time>
      </trkpt>
      <trkpt lat="47.4154" lon="6.61099">
        <ele>355.600006</ele>
        <time>2017-06-11T07:37:30Z</time>
      </trkpt>
      <trkpt lat="47.41544" lon="6.61097">
        <ele>355.200012</ele>
        <time>2017-06-11T07:37:31Z</time>
      </trkpt>
      <trkpt lat="47.41549" lon="6.61096">
        <ele>354.799988</ele>
        <time>2017-06-11T07:37:32Z</time>
      </trkpt>
      <trkpt lat="47.41555" lon="6.61094">
        <ele>354.399994</ele>
        <time>2017-06-11T07:37:33Z</time>
      </trkpt>
      <trkpt lat="47.41561" lon="6.61091">
        <ele>353.799988</ele>
        <time>2017-06-11T07:37:35Z</time>
      </trkpt>
      <trkpt lat="47.41566" lon="6.61091">
        <ele>353.399994</ele>
        <time>2017-06-11T07:37:36Z</time>
      </trkpt>
      <trkpt lat="47.4157" lon="6.61089">
        <ele>352.799988</ele>
        <time>2017-06-11T07:37:37Z</time>
      </trkpt>
      <trkpt lat="47.41577" lon="6.61084">
        <ele>352</ele>
        <time>2017-06-11T07:37:39Z</time>
      </trkpt>
      <trkpt lat="47.41582" lon="6.61083">
        <ele>351.399994</ele>
        <time>2017-06-11T07:37:40Z</time>
      </trkpt>
      <trkpt lat="47.41586" lon="6.61082">
        <ele>350.399994</ele>
        <time>2017-06-11T07:37:41Z</time>
      </trkpt>
      <trkpt lat="47.41589" lon="6.6108">
        <ele>350</ele>
        <time>2017-06-11T07:37:42Z</time>
      </trkpt>
      <trkpt lat="47.41593" lon="6.61076">
        <ele>348.799988</ele>
        <time>2017-06-11T07:37:44Z</time>
      </trkpt>
      <trkpt lat="47.41597" lon="6.61074">
        <ele>348.200012</ele>
        <time>2017-06-11T07:37:45Z</time>
      </trkpt>
      <trkpt lat="47.41603" lon="6.61072">
        <ele>347.799988</ele>
        <time>2017-06-11T07:37:46Z</time>
      </trkpt>
      <trkpt lat="47.41612" lon="6.61068">
        <ele>346.600006</ele>
        <time>2017-06-11T07:37:48Z</time>
      </trkpt>
      <trkpt lat="47.41617" lon="6.61067">
        <ele>346.200012</ele>
        <time>2017-06-11T07:37:49Z</time>
      </trkpt>
      <trkpt lat="47.41628" lon="6.61067">
        <ele>345</ele>
        <time>2017-06-11T07:37:51Z</time>
      </trkpt>
      <trkpt lat="47.4164" lon="6.61069">
        <ele>343.600006</ele>
        <time>2017-06-11T07:37:54Z</time>
      </trkpt>
      <trkpt lat="47.41653" lon="6.61065">
        <ele>341.799988</ele>
        <time>2017-06-11T07:37:58Z</time>
      </trkpt>
      <trkpt lat="47.41658" lon="6.61066">
        <ele>341.200012</ele>
        <time>2017-06-11T07:37:59Z</time>
      </trkpt>
      <trkpt lat="47.4166" lon="6.61068">
        <ele>340.600006</ele>
        <time>2017-06-11T07:38:00Z</time>
      </trkpt>
      <trkpt lat="47.41664" lon="6.61068">
        <ele>340</ele>
        <time>2017-06-11T07:38:01Z</time>
      </trkpt>
      <trkpt lat="47.41666" lon="6.61068">
        <ele>339.399994</ele>
        <time>2017-06-11T07:38:02Z</time>
      </trkpt>
      <trkpt lat="47.41668" lon="6.61067">
        <ele>338.799988</ele>
        <time>2017-06-11T07:38:03Z</time>
      </trkpt>
      <trkpt lat="47.41668" lon="6.61067">
        <ele>338</ele>
        <time>2017-06-11T07:38:04Z</time>
      </trkpt>
      <trkpt lat="47.41673" lon="6.61066">
        <ele>337.600006</ele>
        <time>2017-06-11T07:38:06Z</time>
      </trkpt>
      <trkpt lat="47.41683" lon="6.61064">
        <ele>336.200012</ele>
        <time>2017-06-11T07:38:09Z</time>
      </trkpt>
      <trkpt lat="47.41707" lon="6.61061">
        <ele>334.799988</ele>
        <time>2017-06-11T07:38:15Z</time>
      </trkpt>
      <trkpt lat="47.4171" lon="6.61062">
        <ele>334.399994</ele>
        <time>2017-06-11T07:38:16Z</time>
      </trkpt>
      <trkpt lat="47.41714" lon="6.61065">
        <ele>333.600006</ele>
        <time>2017-06-11T07:38:18Z</time>
      </trkpt>
      <trkpt lat="47.41728" lon="6.6107">
        <ele>333.200012</ele>
        <time>2017-06-11T07:38:22Z</time>
      </trkpt>
      <trkpt lat="47.41733" lon="6.61069">
        <ele>332.799988</ele>
        <time>2017-06-11T07:38:23Z</time>
      </trkpt>
      <trkpt lat="47.41738" lon="6.61067">
        <ele>332.200012</ele>
        <time>2017-06-11T07:38:24Z</time>
      </trkpt>
      <trkpt lat="47.41746" lon="6.61061">
        <ele>331.200012</ele>
        <time>2017-06-11T07:38:26Z</time>
      </trkpt>
      <trkpt lat="47.41752" lon="6.61064">
        <ele>331.200012</ele>
        <time>2017-06-11T07:38:29Z</time>
      </trkpt>
      <trkpt lat="47.41753" lon="6.61071">
        <ele>331.200012</ele>
        <time>2017-06-11T07:38:33Z</time>
      </trkpt>
      <trkpt lat="47.41752" lon="6.61074">
        <ele>331.200012</ele>
        <time>2017-06-11T07:38:35Z</time>
      </trkpt>
      <trkpt lat="47.4175" lon="6.61088">
        <ele>331.200012</ele>
        <time>2017-06-11T07:38:41Z</time>
      </trkpt>
      <trkpt lat="47.41745" lon="6.61099">
        <ele>331.200012</ele>
        <time>2017-06-11T07:38:46Z</time>
      </trkpt>
      <trkpt lat="47.41745" lon="6.61103">
        <ele>331.200012</ele>
        <time>2017-06-11T07:38:47Z</time>
      </trkpt>
      <trkpt lat="47.41742" lon="6.61117">
        <ele>331.200012</ele>
        <time>2017-06-11T07:38:51Z</time>
      </trkpt>
      <trkpt lat="47.41738" lon="6.6113">
        <ele>330</ele>
        <time>2017-06-11T07:38:54Z</time>
      </trkpt>
      <trkpt lat="47.41727" lon="6.61166">
        <ele>328.799988</ele>
        <time>2017-06-11T07:39:00Z</time>
      </trkpt>
      <trkpt lat="47.41725" lon="6.61174">
        <ele>328.399994</ele>
        <time>2017-06-11T07:39:01Z</time>
      </trkpt>
      <trkpt lat="47.41717" lon="6.61201">
        <ele>326.799988</ele>
        <time>2017-06-11T07:39:04Z</time>
      </trkpt>
      <trkpt lat="47.41712" lon="6.6122">
        <ele>325.600006</ele>
        <time>2017-06-11T07:39:06Z</time>
      </trkpt>
      <trkpt lat="47.41709" lon="6.61229">
        <ele>325.200012</ele>
        <time>2017-06-11T07:39:07Z</time>
      </trkpt>
      <trkpt lat="47.41706" lon="6.6124">
        <ele>324.399994</ele>
        <time>2017-06-11T07:39:08Z</time>
      </trkpt>
      <trkpt lat="47.41704" lon="6.61251">
        <ele>323.799988</ele>
        <time>2017-06-11T07:39:09Z</time>
      </trkpt>
      <trkpt lat="47.41701" lon="6.61273">
        <ele>322.600006</ele>
        <time>2017-06-11T07:39:11Z</time>
      </trkpt>
      <trkpt lat="47.417" lon="6.61283">
        <ele>322</ele>
        <time>2017-06-11T07:39:12Z</time>
      </trkpt>
      <trkpt lat="47.41699" lon="6.61293">
        <ele>322</ele>
        <time>2017-06-11T07:39:13Z</time>
      </trkpt>
      <trkpt lat="47.41691" lon="6.6134">
        <ele>322</ele>
        <time>2017-06-11T07:39:19Z</time>
      </trkpt>
      <trkpt lat="47.41681" lon="6.61368">
        <ele>322</ele>
        <time>2017-06-11T07:39:24Z</time>
      </trkpt>
      <trkpt lat="47.41679" lon="6.61373">
        <ele>322</ele>
        <time>2017-06-11T07:39:25Z</time>
      </trkpt>
      <trkpt lat="47.41665" lon="6.614">
        <ele>322</ele>
        <time>2017-06-11T07:39:31Z</time>
      </trkpt>
      <trkpt lat="47.41658" lon="6.61417">
        <ele>322</ele>
        <time>2017-06-11T07:39:35Z</time>
      </trkpt>
      <trkpt lat="47.41648" lon="6.61442">
        <ele>322</ele>
        <time>2017-06-11T07:39:41Z</time>
      </trkpt>
      <trkpt lat="47.41642" lon="6.61459">
        <ele>322.799988</ele>
        <time>2017-06-11T07:39:45Z</time>
      </trkpt>
      <trkpt lat="47.41639" lon="6.61468">
        <ele>323.600006</ele>
        <time>2017-06-11T07:39:47Z</time>
      </trkpt>
      <trkpt lat="47.41638" lon="6.61473">
        <ele>324</ele>
        <time>2017-06-11T07:39:48Z</time>
      </trkpt>
      <trkpt lat="47.41623" lon="6.6152">
        <ele>324</ele>
        <time>2017-06-11T07:39:57Z</time>
      </trkpt>
      <trkpt lat="47.41615" lon="6.61541">
        <ele>324</ele>
        <time>2017-06-11T07:40:01Z</time>
      </trkpt>
      <trkpt lat="47.41608" lon="6.61563">
        <ele>324</ele>
        <time>2017-06-11T07:40:05Z</time>
      </trkpt>
      <trkpt lat="47.41596" lon="6.61602">
        <ele>324</ele>
        <time>2017-06-11T07:40:12Z</time>
      </trkpt>
      <trkpt lat="47.4159" lon="6.61622">
        <ele>324.399994</ele>
        <time>2017-06-11T07:40:16Z</time>
      </trkpt>
      <trkpt lat="47.41589" lon="6.61627">
        <ele>324.799988</ele>
        <time>2017-06-11T07:40:17Z</time>
      </trkpt>
      <trkpt lat="47.41585" lon="6.61636">
        <ele>325.600006</ele>
        <time>2017-06-11T07:40:19Z</time>
      </trkpt>
      <trkpt lat="47.41583" lon="6.61641">
        <ele>326.200012</ele>
        <time>2017-06-11T07:40:20Z</time>
      </trkpt>
      <trkpt lat="47.41561" lon="6.61697">
        <ele>326.200012</ele>
        <time>2017-06-11T07:40:32Z</time>
      </trkpt>
      <trkpt lat="47.41553" lon="6.61733">
        <ele>326.200012</ele>
        <time>2017-06-11T07:40:39Z</time>
      </trkpt>
      <trkpt lat="47.41547" lon="6.61788">
        <ele>326.200012</ele>
        <time>2017-06-11T07:40:48Z</time>
      </trkpt>
      <trkpt lat="47.41538" lon="6.6182">
        <ele>326.200012</ele>
        <time>2017-06-11T07:40:54Z</time>
      </trkpt>
      <trkpt lat="47.41524" lon="6.6186">
        <ele>326.200012</ele>
        <time>2017-06-11T07:41:02Z</time>
      </trkpt>
      <trkpt lat="47.41514" lon="6.61893">
        <ele>326.600006</ele>
        <time>2017-06-11T07:41:09Z</time>
      </trkpt>
      <trkpt lat="47.41514" lon="6.61897">
        <ele>327</ele>
        <time>2017-06-11T07:41:10Z</time>
      </trkpt>
      <trkpt lat="47.41511" lon="6.61904">
        <ele>327.799988</ele>
        <time>2017-06-11T07:41:12Z</time>
      </trkpt>
      <trkpt lat="47.41508" lon="6.61907">
        <ele>328.200012</ele>
        <time>2017-06-11T07:41:13Z</time>
      </trkpt>
      <trkpt lat="47.41505" lon="6.61912">
        <ele>328.200012</ele>
        <time>2017-06-11T07:41:14Z</time>
      </trkpt>
      <trkpt lat="47.41491" lon="6.61924">
        <ele>328.200012</ele>
        <time>2017-06-11T07:41:19Z</time>
      </trkpt>
      <trkpt lat="47.41466" lon="6.61939">
        <ele>328.200012</ele>
        <time>2017-06-11T07:41:26Z</time>
      </trkpt>
      <trkpt lat="47.41439" lon="6.61966">
        <ele>328.200012</ele>
        <time>2017-06-11T07:41:32Z</time>
      </trkpt>
      <trkpt lat="47.4143" lon="6.61979">
        <ele>328.200012</ele>
        <time>2017-06-11T07:41:35Z</time>
      </trkpt>
      <trkpt lat="47.41424" lon="6.61985">
        <ele>328.200012</ele>
        <time>2017-06-11T07:41:37Z</time>
      </trkpt>
      <trkpt lat="47.4141" lon="6.62">
        <ele>328.600006</ele>
        <time>2017-06-11T07:41:42Z</time>
      </trkpt>
      <trkpt lat="47.41407" lon="6.62001">
        <ele>329.200012</ele>
        <time>2017-06-11T07:41:43Z</time>
      </trkpt>
      <trkpt lat="47.41404" lon="6.62003">
        <ele>329.600006</ele>
        <time>2017-06-11T07:41:44Z</time>
      </trkpt>
      <trkpt lat="47.41398" lon="6.62006">
        <ele>330.399994</ele>
        <time>2017-06-11T07:41:46Z</time>
      </trkpt>
      <trkpt lat="47.41386" lon="6.62012">
        <ele>330.399994</ele>
        <time>2017-06-11T07:41:50Z</time>
      </trkpt>
      <trkpt lat="47.41372" lon="6.62023">
        <ele>330.399994</ele>
        <time>2017-06-11T07:41:55Z</time>
      </trkpt>
      <trkpt lat="47.41356" lon="6.62033">
        <ele>330.799988</ele>
        <time>2017-06-11T07:42:00Z</time>
      </trkpt>
      <trkpt lat="47.41349" lon="6.62036">
        <ele>331.600006</ele>
        <time>2017-06-11T07:42:02Z</time>
      </trkpt>
      <trkpt lat="47.4132" lon="6.62044">
        <ele>332.600006</ele>
        <time>2017-06-11T07:42:11Z</time>
      </trkpt>
      <trkpt lat="47.41304" lon="6.62048">
        <ele>333.399994</ele>
        <time>2017-06-11T07:42:15Z</time>
      </trkpt>
      <trkpt lat="47.41294" lon="6.6205">
        <ele>334.200012</ele>
        <time>2017-06-11T07:42:17Z</time>
      </trkpt>
      <trkpt lat="47.41289" lon="6.62052">
        <ele>334.600006</ele>
        <time>2017-06-11T07:42:18Z</time>
      </trkpt>
      <trkpt lat="47.41267" lon="6.62058">
        <ele>334.600006</ele>
        <time>2017-06-11T07:42:24Z</time>
      </trkpt>
      <trkpt lat="47.41248" lon="6.62061">
        <ele>334.600006</ele>
        <time>2017-06-11T07:42:29Z</time>
      </trkpt>
      <trkpt lat="47.41214" lon="6.62068">
        <ele>334.600006</ele>
        <time>2017-06-11T07:42:37Z</time>
      </trkpt>
      <trkpt lat="47.41211" lon="6.62068">
        <ele>335.399994</ele>
        <time>2017-06-11T07:42:38Z</time>
      </trkpt>
      <trkpt lat="47.41209" lon="6.62068">
        <ele>335.799988</ele>
        <time>2017-06-11T07:42:39Z</time>
      </trkpt>
      <trkpt lat="47.41207" lon="6.62067">
        <ele>336.200012</ele>
        <time>2017-06-11T07:42:40Z</time>
      </trkpt>
      <trkpt lat="47.41203" lon="6.6207">
        <ele>336.600006</ele>
        <time>2017-06-11T07:42:41Z</time>
      </trkpt>
      <trkpt lat="47.41179" lon="6.62076">
        <ele>337.600006</ele>
        <time>2017-06-11T07:42:48Z</time>
      </trkpt>
      <trkpt lat="47.41172" lon="6.62077">
        <ele>338.600006</ele>
        <time>2017-06-11T07:42:50Z</time>
      </trkpt>
      <trkpt lat="47.41154" lon="6.62076">
        <ele>339</ele>
        <time>2017-06-11T07:42:56Z</time>
      </trkpt>
      <trkpt lat="47.41135" lon="6.62072">
        <ele>339.399994</ele>
        <time>2017-06-11T07:43:00Z</time>
      </trkpt>
      <trkpt lat="47.41132" lon="6.62071">
        <ele>339.799988</ele>
        <time>2017-06-11T07:43:01Z</time>
      </trkpt>
      <trkpt lat="47.41119" lon="6.62067">
        <ele>341</ele>
        <time>2017-06-11T07:43:06Z</time>
      </trkpt>
      <trkpt lat="47.41107" lon="6.62062">
        <ele>341</ele>
        <time>2017-06-11T07:43:11Z</time>
      </trkpt>
      <trkpt lat="47.41091" lon="6.62059">
        <ele>341.399994</ele>
        <time>2017-06-11T07:43:16Z</time>
      </trkpt>
      <trkpt lat="47.41086" lon="6.62059">
        <ele>341.799988</ele>
        <time>2017-06-11T07:43:17Z</time>
      </trkpt>
      <trkpt lat="47.41081" lon="6.62059">
        <ele>342.200012</ele>
        <time>2017-06-11T07:43:18Z</time>
      </trkpt>
      <trkpt lat="47.41058" lon="6.62056">
        <ele>343</ele>
        <time>2017-06-11T07:43:24Z</time>
      </trkpt>
      <trkpt lat="47.41037" lon="6.62051">
        <ele>343</ele>
        <time>2017-06-11T07:43:30Z</time>
      </trkpt>
      <trkpt lat="47.41018" lon="6.62046">
        <ele>343</ele>
        <time>2017-06-11T07:43:36Z</time>
      </trkpt>
      <trkpt lat="47.40997" lon="6.62033">
        <ele>343</ele>
        <time>2017-06-11T07:43:42Z</time>
      </trkpt>
      <trkpt lat="47.40984" lon="6.62017">
        <ele>343</ele>
        <time>2017-06-11T07:43:47Z</time>
      </trkpt>
      <trkpt lat="47.40966" lon="6.62002">
        <ele>344</ele>
        <time>2017-06-11T07:43:54Z</time>
      </trkpt>
      <trkpt lat="47.40952" lon="6.6199">
        <ele>345.200012</ele>
        <time>2017-06-11T07:43:59Z</time>
      </trkpt>
      <trkpt lat="47.40906" lon="6.61985">
        <ele>345.200012</ele>
        <time>2017-06-11T07:44:05Z</time>
      </trkpt>
      <trkpt lat="47.40888" lon="6.61976">
        <ele>345.200012</ele>
        <time>2017-06-11T07:44:11Z</time>
      </trkpt>
      <trkpt lat="47.4087" lon="6.61972">
        <ele>345.200012</ele>
        <time>2017-06-11T07:44:16Z</time>
      </trkpt>
      <trkpt lat="47.40852" lon="6.61968">
        <ele>345.200012</ele>
        <time>2017-06-11T07:44:21Z</time>
      </trkpt>
      <trkpt lat="47.40834" lon="6.61965">
        <ele>345.200012</ele>
        <time>2017-06-11T07:44:26Z</time>
      </trkpt>
      <trkpt lat="47.40821" lon="6.61962">
        <ele>345.600006</ele>
        <time>2017-06-11T07:44:30Z</time>
      </trkpt>
      <trkpt lat="47.40816" lon="6.6196">
        <ele>346.399994</ele>
        <time>2017-06-11T07:44:32Z</time>
      </trkpt>
      <trkpt lat="47.40814" lon="6.61958">
        <ele>346.799988</ele>
        <time>2017-06-11T07:44:33Z</time>
      </trkpt>
      <trkpt lat="47.40812" lon="6.61957">
        <ele>347.200012</ele>
        <time>2017-06-11T07:44:34Z</time>
      </trkpt>
      <trkpt lat="47.40806" lon="6.61955">
        <ele>347.200012</ele>
        <time>2017-06-11T07:44:36Z</time>
      </trkpt>
      <trkpt lat="47.40791" lon="6.61941">
        <ele>347.200012</ele>
        <time>2017-06-11T07:44:42Z</time>
      </trkpt>
      <trkpt lat="47.40774" lon="6.61935">
        <ele>347.200012</ele>
        <time>2017-06-11T07:44:47Z</time>
      </trkpt>
      <trkpt lat="47.4076" lon="6.61931">
        <ele>347.200012</ele>
        <time>2017-06-11T07:44:52Z</time>
      </trkpt>
      <trkpt lat="47.40745" lon="6.61929">
        <ele>347.200012</ele>
        <time>2017-06-11T07:44:56Z</time>
      </trkpt>
      <trkpt lat="47.40739" lon="6.61929">
        <ele>347.799988</ele>
        <time>2017-06-11T07:44:58Z</time>
      </trkpt>
      <trkpt lat="47.40731" lon="6.61929">
        <ele>349</ele>
        <time>2017-06-11T07:45:01Z</time>
      </trkpt>
      <trkpt lat="47.40727" lon="6.61929">
        <ele>349.399994</ele>
        <time>2017-06-11T07:45:02Z</time>
      </trkpt>
      <trkpt lat="47.40713" lon="6.61925">
        <ele>349.399994</ele>
        <time>2017-06-11T07:45:06Z</time>
      </trkpt>
      <trkpt lat="47.40693" lon="6.61924">
        <ele>349.399994</ele>
        <time>2017-06-11T07:45:11Z</time>
      </trkpt>
      <trkpt lat="47.40689" lon="6.61924">
        <ele>349.399994</ele>
        <time>2017-06-11T07:45:12Z</time>
      </trkpt>
      <trkpt lat="47.40677" lon="6.61923">
        <ele>349.399994</ele>
        <time>2017-06-11T07:45:16Z</time>
      </trkpt>
      <trkpt lat="47.40664" lon="6.61922">
        <ele>349.799988</ele>
        <time>2017-06-11T07:45:20Z</time>
      </trkpt>
      <trkpt lat="47.40655" lon="6.61922">
        <ele>351</ele>
        <time>2017-06-11T07:45:23Z</time>
      </trkpt>
      <trkpt lat="47.40652" lon="6.61923">
        <ele>351.399994</ele>
        <time>2017-06-11T07:45:24Z</time>
      </trkpt>
      <trkpt lat="47.40645" lon="6.61923">
        <ele>351.399994</ele>
        <time>2017-06-11T07:45:26Z</time>
      </trkpt>
      <trkpt lat="47.4063" lon="6.61921">
        <ele>351.399994</ele>
        <time>2017-06-11T07:45:30Z</time>
      </trkpt>
      <trkpt lat="47.40626" lon="6.61922">
        <ele>351.399994</ele>
        <time>2017-06-11T07:45:31Z</time>
      </trkpt>
      <trkpt lat="47.4062" lon="6.61923">
        <ele>351.399994</ele>
        <time>2017-06-11T07:45:33Z</time>
      </trkpt>
      <trkpt lat="47.40601" lon="6.61918">
        <ele>351.399994</ele>
        <time>2017-06-11T07:45:39Z</time>
      </trkpt>
      <trkpt lat="47.40597" lon="6.61917">
        <ele>351.399994</ele>
        <time>2017-06-11T07:45:40Z</time>
      </trkpt>
      <trkpt lat="47.4058" lon="6.6191">
        <ele>351.799988</ele>
        <time>2017-06-11T07:45:45Z</time>
      </trkpt>
      <trkpt lat="47.40573" lon="6.61909">
        <ele>352.600006</ele>
        <time>2017-06-11T07:45:47Z</time>
      </trkpt>
      <trkpt lat="47.40569" lon="6.61908">
        <ele>353</ele>
        <time>2017-06-11T07:45:48Z</time>
      </trkpt>
      <trkpt lat="47.40566" lon="6.61906">
        <ele>353.600006</ele>
        <time>2017-06-11T07:45:49Z</time>
      </trkpt>
      <trkpt lat="47.4056" lon="6.61902">
        <ele>353.600006</ele>
        <time>2017-06-11T07:45:51Z</time>
      </trkpt>
      <trkpt lat="47.40547" lon="6.61896">
        <ele>353.600006</ele>
        <time>2017-06-11T07:45:55Z</time>
      </trkpt>
      <trkpt lat="47.40527" lon="6.61892">
        <ele>353.600006</ele>
        <time>2017-06-11T07:46:01Z</time>
      </trkpt>
      <trkpt lat="47.40511" lon="6.61892">
        <ele>354</ele>
        <time>2017-06-11T07:46:06Z</time>
      </trkpt>
      <trkpt lat="47.40499" lon="6.61891">
        <ele>355.200012</ele>
        <time>2017-06-11T07:46:09Z</time>
      </trkpt>
      <trkpt lat="47.40493" lon="6.61892">
        <ele>355.600006</ele>
        <time>2017-06-11T07:46:11Z</time>
      </trkpt>
      <trkpt lat="47.40471" lon="6.61891">
        <ele>355.600006</ele>
        <time>2017-06-11T07:46:18Z</time>
      </trkpt>
      <trkpt lat="47.40455" lon="6.61893">
        <ele>355.600006</ele>
        <time>2017-06-11T07:46:23Z</time>
      </trkpt>
      <trkpt lat="47.40444" lon="6.61895">
        <ele>356</ele>
        <time>2017-06-11T07:46:27Z</time>
      </trkpt>
      <trkpt lat="47.40441" lon="6.61896">
        <ele>356.399994</ele>
        <time>2017-06-11T07:46:28Z</time>
      </trkpt>
      <trkpt lat="47.40428" lon="6.61905">
        <ele>357.600006</ele>
        <time>2017-06-11T07:46:32Z</time>
      </trkpt>
      <trkpt lat="47.40414" lon="6.61917">
        <ele>357.600006</ele>
        <time>2017-06-11T07:46:37Z</time>
      </trkpt>
      <trkpt lat="47.40402" lon="6.61926">
        <ele>357.600006</ele>
        <time>2017-06-11T07:46:42Z</time>
      </trkpt>
      <trkpt lat="47.40398" lon="6.61937">
        <ele>357.600006</ele>
        <time>2017-06-11T07:46:46Z</time>
      </trkpt>
      <trkpt lat="47.40398" lon="6.61942">
        <ele>358</ele>
        <time>2017-06-11T07:46:48Z</time>
      </trkpt>
      <trkpt lat="47.40399" lon="6.61947">
        <ele>359</ele>
        <time>2017-06-11T07:46:50Z</time>
      </trkpt>
      <trkpt lat="47.40399" lon="6.61952">
        <ele>359.799988</ele>
        <time>2017-06-11T07:46:52Z</time>
      </trkpt>
      <trkpt lat="47.40398" lon="6.61957">
        <ele>360.200012</ele>
        <time>2017-06-11T07:46:54Z</time>
      </trkpt>
      <trkpt lat="47.40398" lon="6.61959">
        <ele>360.600006</ele>
        <time>2017-06-11T07:46:55Z</time>
      </trkpt>
      <trkpt lat="47.40399" lon="6.61961">
        <ele>361</ele>
        <time>2017-06-11T07:46:56Z</time>
      </trkpt>
      <trkpt lat="47.404" lon="6.61963">
        <ele>361.399994</ele>
        <time>2017-06-11T07:46:57Z</time>
      </trkpt>
      <trkpt lat="47.40401" lon="6.61966">
        <ele>361.799988</ele>
        <time>2017-06-11T07:46:58Z</time>
      </trkpt>
      <trkpt lat="47.40401" lon="6.61969">
        <ele>361.799988</ele>
        <time>2017-06-11T07:46:59Z</time>
      </trkpt>
      <trkpt lat="47.404" lon="6.61976">
        <ele>362.200012</ele>
        <time>2017-06-11T07:47:02Z</time>
      </trkpt>
      <trkpt lat="47.40398" lon="6.61985">
        <ele>364</ele>
        <time>2017-06-11T07:47:06Z</time>
      </trkpt>
      <trkpt lat="47.40396" lon="6.61994">
        <ele>364</ele>
        <time>2017-06-11T07:47:10Z</time>
      </trkpt>
      <trkpt lat="47.40394" lon="6.61999">
        <ele>364.399994</ele>
        <time>2017-06-11T07:47:12Z</time>
      </trkpt>
      <trkpt lat="47.40393" lon="6.62003">
        <ele>365.200012</ele>
        <time>2017-06-11T07:47:14Z</time>
      </trkpt>
      <trkpt lat="47.40393" lon="6.62005">
        <ele>366</ele>
        <time>2017-06-11T07:47:16Z</time>
      </trkpt>
      <trkpt lat="47.40386" lon="6.6202">
        <ele>366.600006</ele>
        <time>2017-06-11T07:47:24Z</time>
      </trkpt>
      <trkpt lat="47.40384" lon="6.62022">
        <ele>367</ele>
        <time>2017-06-11T07:47:25Z</time>
      </trkpt>
      <trkpt lat="47.40383" lon="6.62024">
        <ele>367.399994</ele>
        <time>2017-06-11T07:47:26Z</time>
      </trkpt>
      <trkpt lat="47.40383" lon="6.62025">
        <ele>367.799988</ele>
        <time>2017-06-11T07:47:27Z</time>
      </trkpt>
      <trkpt lat="47.40383" lon="6.62027">
        <ele>368.399994</ele>
        <time>2017-06-11T07:47:28Z</time>
      </trkpt>
      <trkpt lat="47.40384" lon="6.6203">
        <ele>368.799988</ele>
        <time>2017-06-11T07:47:30Z</time>
      </trkpt>
      <trkpt lat="47.40387" lon="6.62031">
        <ele>369.600006</ele>
        <time>2017-06-11T07:47:32Z</time>
      </trkpt>
      <trkpt lat="47.4039" lon="6.62031">
        <ele>370.399994</ele>
        <time>2017-06-11T07:47:34Z</time>
      </trkpt>
      <trkpt lat="47.40393" lon="6.62029">
        <ele>370.399994</ele>
        <time>2017-06-11T07:47:36Z</time>
      </trkpt>
      <trkpt lat="47.40401" lon="6.62022">
        <ele>370.799988</ele>
        <time>2017-06-11T07:47:41Z</time>
      </trkpt>
      <trkpt lat="47.40405" lon="6.62019">
        <ele>371.799988</ele>
        <time>2017-06-11T07:47:43Z</time>
      </trkpt>
      <trkpt lat="47.40406" lon="6.62017">
        <ele>372.200012</ele>
        <time>2017-06-11T07:47:44Z</time>
      </trkpt>
      <trkpt lat="47.40408" lon="6.62015">
        <ele>372.600006</ele>
        <time>2017-06-11T07:47:45Z</time>
      </trkpt>
      <trkpt lat="47.40413" lon="6.62012">
        <ele>372.600006</ele>
        <time>2017-06-11T07:47:48Z</time>
      </trkpt>
      <trkpt lat="47.40416" lon="6.62008">
        <ele>372.600006</ele>
        <time>2017-06-11T07:47:50Z</time>
      </trkpt>
      <trkpt lat="47.40423" lon="6.62004">
        <ele>373.399994</ele>
        <time>2017-06-11T07:47:53Z</time>
      </trkpt>
      <trkpt lat="47.40429" lon="6.62002">
        <ele>374.799988</ele>
        <time>2017-06-11T07:47:56Z</time>
      </trkpt>
      <trkpt lat="47.40432" lon="6.62002">
        <ele>374.799988</ele>
        <time>2017-06-11T07:47:58Z</time>
      </trkpt>
      <trkpt lat="47.40438" lon="6.62">
        <ele>374.799988</ele>
        <time>2017-06-11T07:48:02Z</time>
      </trkpt>
      <trkpt lat="47.40448" lon="6.62002">
        <ele>376.799988</ele>
        <time>2017-06-11T07:48:07Z</time>
      </trkpt>
      <trkpt lat="47.40454" lon="6.62002">
        <ele>376.799988</ele>
        <time>2017-06-11T07:48:10Z</time>
      </trkpt>
      <trkpt lat="47.40467" lon="6.62005">
        <ele>376.799988</ele>
        <time>2017-06-11T07:48:15Z</time>
      </trkpt>
      <trkpt lat="47.40481" lon="6.6202">
        <ele>376.799988</ele>
        <time>2017-06-11T07:48:20Z</time>
      </trkpt>
      <trkpt lat="47.40491" lon="6.62035">
        <ele>377.600006</ele>
        <time>2017-06-11T07:48:25Z</time>
      </trkpt>
      <trkpt lat="47.40495" lon="6.62041">
        <ele>378.600006</ele>
        <time>2017-06-11T07:48:27Z</time>
      </trkpt>
      <trkpt lat="47.40497" lon="6.62044">
        <ele>379</ele>
        <time>2017-06-11T07:48:28Z</time>
      </trkpt>
      <trkpt lat="47.40509" lon="6.62054">
        <ele>379</ele>
        <time>2017-06-11T07:48:32Z</time>
      </trkpt>
      <trkpt lat="47.40522" lon="6.62061">
        <ele>379</ele>
        <time>2017-06-11T07:48:37Z</time>
      </trkpt>
      <trkpt lat="47.40535" lon="6.62082">
        <ele>379</ele>
        <time>2017-06-11T07:48:43Z</time>
      </trkpt>
      <trkpt lat="47.40547" lon="6.62093">
        <ele>379</ele>
        <time>2017-06-11T07:48:47Z</time>
      </trkpt>
      <trkpt lat="47.40563" lon="6.62102">
        <ele>379</ele>
        <time>2017-06-11T07:48:52Z</time>
      </trkpt>
      <trkpt lat="47.40579" lon="6.62116">
        <ele>379</ele>
        <time>2017-06-11T07:48:57Z</time>
      </trkpt>
      <trkpt lat="47.40585" lon="6.62136">
        <ele>379</ele>
        <time>2017-06-11T07:49:02Z</time>
      </trkpt>
      <trkpt lat="47.40587" lon="6.62146">
        <ele>379.799988</ele>
        <time>2017-06-11T07:49:05Z</time>
      </trkpt>
      <trkpt lat="47.40589" lon="6.62156">
        <ele>381</ele>
        <time>2017-06-11T07:49:08Z</time>
      </trkpt>
      <trkpt lat="47.4059" lon="6.62172">
        <ele>381.399994</ele>
        <time>2017-06-11T07:49:13Z</time>
      </trkpt>
      <trkpt lat="47.4059" lon="6.62184">
        <ele>383</ele>
        <time>2017-06-11T07:49:17Z</time>
      </trkpt>
      <trkpt lat="47.40592" lon="6.62198">
        <ele>383</ele>
        <time>2017-06-11T07:49:22Z</time>
      </trkpt>
      <trkpt lat="47.40593" lon="6.62207">
        <ele>384.399994</ele>
        <time>2017-06-11T07:49:25Z</time>
      </trkpt>
      <trkpt lat="47.40596" lon="6.62217">
        <ele>385.200012</ele>
        <time>2017-06-11T07:49:28Z</time>
      </trkpt>
      <trkpt lat="47.40597" lon="6.62225">
        <ele>385.600006</ele>
        <time>2017-06-11T07:49:31Z</time>
      </trkpt>
      <trkpt lat="47.40598" lon="6.62228">
        <ele>386</ele>
        <time>2017-06-11T07:49:32Z</time>
      </trkpt>
      <trkpt lat="47.40598" lon="6.62231">
        <ele>386.399994</ele>
        <time>2017-06-11T07:49:33Z</time>
      </trkpt>
      <trkpt lat="47.406" lon="6.62236">
        <ele>387.200012</ele>
        <time>2017-06-11T07:49:35Z</time>
      </trkpt>
      <trkpt lat="47.40604" lon="6.62248">
        <ele>387.600006</ele>
        <time>2017-06-11T07:49:39Z</time>
      </trkpt>
      <trkpt lat="47.40605" lon="6.62251">
        <ele>388</ele>
        <time>2017-06-11T07:49:40Z</time>
      </trkpt>
      <trkpt lat="47.40614" lon="6.62272">
        <ele>389.200012</ele>
        <time>2017-06-11T07:49:47Z</time>
      </trkpt>
      <trkpt lat="47.40618" lon="6.62281">
        <ele>389.600006</ele>
        <time>2017-06-11T07:49:50Z</time>
      </trkpt>
      <trkpt lat="47.40626" lon="6.62297">
        <ele>391.200012</ele>
        <time>2017-06-11T07:49:55Z</time>
      </trkpt>
      <trkpt lat="47.40632" lon="6.62312">
        <ele>391.200012</ele>
        <time>2017-06-11T07:50:00Z</time>
      </trkpt>
      <trkpt lat="47.40636" lon="6.62325">
        <ele>392</ele>
        <time>2017-06-11T07:50:04Z</time>
      </trkpt>
      <trkpt lat="47.40637" lon="6.62327">
        <ele>392.399994</ele>
        <time>2017-06-11T07:50:05Z</time>
      </trkpt>
      <trkpt lat="47.40637" lon="6.6233">
        <ele>392.799988</ele>
        <time>2017-06-11T07:50:06Z</time>
      </trkpt>
      <trkpt lat="47.40638" lon="6.62333">
        <ele>393.200012</ele>
        <time>2017-06-11T07:50:07Z</time>
      </trkpt>
      <trkpt lat="47.40644" lon="6.62348">
        <ele>393.200012</ele>
        <time>2017-06-11T07:50:12Z</time>
      </trkpt>
      <trkpt lat="47.40645" lon="6.62357">
        <ele>393.600006</ele>
        <time>2017-06-11T07:50:15Z</time>
      </trkpt>
      <trkpt lat="47.40645" lon="6.62363">
        <ele>394.399994</ele>
        <time>2017-06-11T07:50:17Z</time>
      </trkpt>
      <trkpt lat="47.40646" lon="6.6237">
        <ele>395.399994</ele>
        <time>2017-06-11T07:50:19Z</time>
      </trkpt>
      <trkpt lat="47.40651" lon="6.62382">
        <ele>395.399994</ele>
        <time>2017-06-11T07:50:23Z</time>
      </trkpt>
      <trkpt lat="47.40654" lon="6.62396">
        <ele>396.200012</ele>
        <time>2017-06-11T07:50:27Z</time>
      </trkpt>
      <trkpt lat="47.40655" lon="6.624">
        <ele>396.600006</ele>
        <time>2017-06-11T07:50:28Z</time>
      </trkpt>
      <trkpt lat="47.40666" lon="6.62441">
        <ele>397.399994</ele>
        <time>2017-06-11T07:50:37Z</time>
      </trkpt>
      <trkpt lat="47.40667" lon="6.62446">
        <ele>397.799988</ele>
        <time>2017-06-11T07:50:38Z</time>
      </trkpt>
      <trkpt lat="47.40669" lon="6.62463">
        <ele>399.600006</ele>
        <time>2017-06-11T07:50:42Z</time>
      </trkpt>
      <trkpt lat="47.40675" lon="6.62502">
        <ele>400.399994</ele>
        <time>2017-06-11T07:50:51Z</time>
      </trkpt>
      <trkpt lat="47.40679" lon="6.62532">
        <ele>401.600006</ele>
        <time>2017-06-11T07:50:58Z</time>
      </trkpt>
      <trkpt lat="47.40681" lon="6.62552">
        <ele>402</ele>
        <time>2017-06-11T07:51:03Z</time>
      </trkpt>
      <trkpt lat="47.40681" lon="6.62556">
        <ele>402.399994</ele>
        <time>2017-06-11T07:51:04Z</time>
      </trkpt>
      <trkpt lat="47.40682" lon="6.62564">
        <ele>403.200012</ele>
        <time>2017-06-11T07:51:06Z</time>
      </trkpt>
      <trkpt lat="47.40682" lon="6.62568">
        <ele>403.600006</ele>
        <time>2017-06-11T07:51:07Z</time>
      </trkpt>
      <trkpt lat="47.40681" lon="6.62589">
        <ele>403.600006</ele>
        <time>2017-06-11T07:51:12Z</time>
      </trkpt>
      <trkpt lat="47.40681" lon="6.62593">
        <ele>404</ele>
        <time>2017-06-11T07:51:13Z</time>
      </trkpt>
      <trkpt lat="47.40679" lon="6.626">
        <ele>404.799988</ele>
        <time>2017-06-11T07:51:15Z</time>
      </trkpt>
      <trkpt lat="47.40678" lon="6.62609">
        <ele>405.600006</ele>
        <time>2017-06-11T07:51:17Z</time>
      </trkpt>
      <trkpt lat="47.40672" lon="6.62643">
        <ele>406.600006</ele>
        <time>2017-06-11T07:51:25Z</time>
      </trkpt>
      <trkpt lat="47.40671" lon="6.62647">
        <ele>407</ele>
        <time>2017-06-11T07:51:26Z</time>
      </trkpt>
      <trkpt lat="47.4067" lon="6.62651">
        <ele>407.399994</ele>
        <time>2017-06-11T07:51:27Z</time>
      </trkpt>
      <trkpt lat="47.4067" lon="6.62655">
        <ele>407.799988</ele>
        <time>2017-06-11T07:51:28Z</time>
      </trkpt>
      <trkpt lat="47.4067" lon="6.62663">
        <ele>407.799988</ele>
        <time>2017-06-11T07:51:30Z</time>
      </trkpt>
      <trkpt lat="47.40677" lon="6.62701">
        <ele>409.600006</ele>
        <time>2017-06-11T07:51:39Z</time>
      </trkpt>
      <trkpt lat="47.4068" lon="6.62713">
        <ele>410</ele>
        <time>2017-06-11T07:51:42Z</time>
      </trkpt>
      <trkpt lat="47.40685" lon="6.62736">
        <ele>411.200012</ele>
        <time>2017-06-11T07:51:47Z</time>
      </trkpt>
      <trkpt lat="47.40687" lon="6.62745">
        <ele>412</ele>
        <time>2017-06-11T07:51:49Z</time>
      </trkpt>
      <trkpt lat="47.40691" lon="6.62778">
        <ele>412.799988</ele>
        <time>2017-06-11T07:51:57Z</time>
      </trkpt>
      <trkpt lat="47.40691" lon="6.62782">
        <ele>413.399994</ele>
        <time>2017-06-11T07:51:58Z</time>
      </trkpt>
      <trkpt lat="47.40693" lon="6.62794">
        <ele>414.200012</ele>
        <time>2017-06-11T07:52:02Z</time>
      </trkpt>
      <trkpt lat="47.40694" lon="6.62797">
        <ele>414.200012</ele>
        <time>2017-06-11T07:52:03Z</time>
      </trkpt>
      <trkpt lat="47.40703" lon="6.62804">
        <ele>414.200012</ele>
        <time>2017-06-11T07:52:08Z</time>
      </trkpt>
      <trkpt lat="47.40712" lon="6.62803">
        <ele>414.200012</ele>
        <time>2017-06-11T07:52:11Z</time>
      </trkpt>
      <trkpt lat="47.40744" lon="6.62797">
        <ele>414.200012</ele>
        <time>2017-06-11T07:52:18Z</time>
      </trkpt>
      <trkpt lat="47.4076" lon="6.62792">
        <ele>413.799988</ele>
        <time>2017-06-11T07:52:21Z</time>
      </trkpt>
      <trkpt lat="47.40776" lon="6.62785">
        <ele>412.399994</ele>
        <time>2017-06-11T07:52:24Z</time>
      </trkpt>
      <trkpt lat="47.40782" lon="6.62782">
        <ele>411.799988</ele>
        <time>2017-06-11T07:52:25Z</time>
      </trkpt>
      <trkpt lat="47.40799" lon="6.62771">
        <ele>411.399994</ele>
        <time>2017-06-11T07:52:28Z</time>
      </trkpt>
      <trkpt lat="47.40805" lon="6.62768">
        <ele>411</ele>
        <time>2017-06-11T07:52:29Z</time>
      </trkpt>
      <trkpt lat="47.40824" lon="6.62756">
        <ele>409.799988</ele>
        <time>2017-06-11T07:52:32Z</time>
      </trkpt>
      <trkpt lat="47.40858" lon="6.62735">
        <ele>409.799988</ele>
        <time>2017-06-11T07:52:38Z</time>
      </trkpt>
      <trkpt lat="47.40867" lon="6.62727">
        <ele>409.799988</ele>
        <time>2017-06-11T07:52:40Z</time>
      </trkpt>
      <trkpt lat="47.40879" lon="6.62716">
        <ele>409.799988</ele>
        <time>2017-06-11T07:52:43Z</time>
      </trkpt>
      <trkpt lat="47.40889" lon="6.62704">
        <ele>409</ele>
        <time>2017-06-11T07:52:46Z</time>
      </trkpt>
      <trkpt lat="47.40895" lon="6.62696">
        <ele>408.200012</ele>
        <time>2017-06-11T07:52:48Z</time>
      </trkpt>
      <trkpt lat="47.40898" lon="6.62691">
        <ele>407.799988</ele>
        <time>2017-06-11T07:52:49Z</time>
      </trkpt>
      <trkpt lat="47.409" lon="6.62687">
        <ele>407.799988</ele>
        <time>2017-06-11T07:52:50Z</time>
      </trkpt>
      <trkpt lat="47.4091" lon="6.62669">
        <ele>407.799988</ele>
        <time>2017-06-11T07:52:54Z</time>
      </trkpt>
      <trkpt lat="47.40919" lon="6.62655">
        <ele>407.799988</ele>
        <time>2017-06-11T07:52:58Z</time>
      </trkpt>
      <trkpt lat="47.40931" lon="6.62642">
        <ele>409.799988</ele>
        <time>2017-06-11T07:53:03Z</time>
      </trkpt>
      <trkpt lat="47.40934" lon="6.6264">
        <ele>409.799988</ele>
        <time>2017-06-11T07:53:04Z</time>
      </trkpt>
      <trkpt lat="47.40946" lon="6.62629">
        <ele>410.200012</ele>
        <time>2017-06-11T07:53:09Z</time>
      </trkpt>
      <trkpt lat="47.4095" lon="6.62624">
        <ele>411.200012</ele>
        <time>2017-06-11T07:53:11Z</time>
      </trkpt>
      <trkpt lat="47.40955" lon="6.62619">
        <ele>412</ele>
        <time>2017-06-11T07:53:13Z</time>
      </trkpt>
      <trkpt lat="47.4096" lon="6.62614">
        <ele>412</ele>
        <time>2017-06-11T07:53:15Z</time>
      </trkpt>
      <trkpt lat="47.40976" lon="6.62595">
        <ele>412</ele>
        <time>2017-06-11T07:53:21Z</time>
      </trkpt>
      <trkpt lat="47.40982" lon="6.6259">
        <ele>412</ele>
        <time>2017-06-11T07:53:23Z</time>
      </trkpt>
      <trkpt lat="47.40998" lon="6.62577">
        <ele>412.799988</ele>
        <time>2017-06-11T07:53:28Z</time>
      </trkpt>
      <trkpt lat="47.41" lon="6.62574">
        <ele>413.200012</ele>
        <time>2017-06-11T07:53:29Z</time>
      </trkpt>
      <trkpt lat="47.41003" lon="6.62571">
        <ele>413.600006</ele>
        <time>2017-06-11T07:53:30Z</time>
      </trkpt>
      <trkpt lat="47.41013" lon="6.62563">
        <ele>414</ele>
        <time>2017-06-11T07:53:33Z</time>
      </trkpt>
      <trkpt lat="47.41028" lon="6.62547">
        <ele>414</ele>
        <time>2017-06-11T07:53:38Z</time>
      </trkpt>
      <trkpt lat="47.41039" lon="6.62536">
        <ele>414</ele>
        <time>2017-06-11T07:53:42Z</time>
      </trkpt>
      <trkpt lat="47.41059" lon="6.6252">
        <ele>414</ele>
        <time>2017-06-11T07:53:48Z</time>
      </trkpt>
      <trkpt lat="47.41081" lon="6.62504">
        <ele>414</ele>
        <time>2017-06-11T07:53:54Z</time>
      </trkpt>
      <trkpt lat="47.41098" lon="6.62487">
        <ele>414</ele>
        <time>2017-06-11T07:53:59Z</time>
      </trkpt>
      <trkpt lat="47.4111" lon="6.62478">
        <ele>412.600006</ele>
        <time>2017-06-11T07:54:02Z</time>
      </trkpt>
      <trkpt lat="47.41117" lon="6.62473">
        <ele>411.799988</ele>
        <time>2017-06-11T07:54:04Z</time>
      </trkpt>
      <trkpt lat="47.41135" lon="6.62463">
        <ele>411.799988</ele>
        <time>2017-06-11T07:54:09Z</time>
      </trkpt>
      <trkpt lat="47.41146" lon="6.62454">
        <ele>410.600006</ele>
        <time>2017-06-11T07:54:12Z</time>
      </trkpt>
      <trkpt lat="47.41154" lon="6.6245">
        <ele>409.600006</ele>
        <time>2017-06-11T07:54:14Z</time>
      </trkpt>
      <trkpt lat="47.41178" lon="6.62439">
        <ele>408.799988</ele>
        <time>2017-06-11T07:54:19Z</time>
      </trkpt>
      <trkpt lat="47.4119" lon="6.62432">
        <ele>407.399994</ele>
        <time>2017-06-11T07:54:22Z</time>
      </trkpt>
      <trkpt lat="47.41205" lon="6.62422">
        <ele>406.600006</ele>
        <time>2017-06-11T07:54:25Z</time>
      </trkpt>
      <trkpt lat="47.41209" lon="6.62419">
        <ele>406.200012</ele>
        <time>2017-06-11T07:54:26Z</time>
      </trkpt>
      <trkpt lat="47.41218" lon="6.62411">
        <ele>405.399994</ele>
        <time>2017-06-11T07:54:28Z</time>
      </trkpt>
      <trkpt lat="47.41222" lon="6.62407">
        <ele>405.399994</ele>
        <time>2017-06-11T07:54:29Z</time>
      </trkpt>
      <trkpt lat="47.4124" lon="6.62393">
        <ele>404.200012</ele>
        <time>2017-06-11T07:54:32Z</time>
      </trkpt>
      <trkpt lat="47.41259" lon="6.6238">
        <ele>402.799988</ele>
        <time>2017-06-11T07:54:35Z</time>
      </trkpt>
      <trkpt lat="47.41265" lon="6.62375">
        <ele>401.799988</ele>
        <time>2017-06-11T07:54:36Z</time>
      </trkpt>
      <trkpt lat="47.4127" lon="6.62369">
        <ele>401.200012</ele>
        <time>2017-06-11T07:54:37Z</time>
      </trkpt>
      <trkpt lat="47.41277" lon="6.62363">
        <ele>400.600006</ele>
        <time>2017-06-11T07:54:38Z</time>
      </trkpt>
      <trkpt lat="47.41292" lon="6.62352">
        <ele>399.200012</ele>
        <time>2017-06-11T07:54:40Z</time>
      </trkpt>
      <trkpt lat="47.41306" lon="6.62341">
        <ele>397.799988</ele>
        <time>2017-06-11T07:54:42Z</time>
      </trkpt>
      <trkpt lat="47.41321" lon="6.62334">
        <ele>396.200012</ele>
        <time>2017-06-11T07:54:44Z</time>
      </trkpt>
      <trkpt lat="47.41328" lon="6.62329">
        <ele>395.600006</ele>
        <time>2017-06-11T07:54:45Z</time>
      </trkpt>
      <trkpt lat="47.41334" lon="6.62323">
        <ele>395</ele>
        <time>2017-06-11T07:54:46Z</time>
      </trkpt>
      <trkpt lat="47.41341" lon="6.62319">
        <ele>394.200012</ele>
        <time>2017-06-11T07:54:47Z</time>
      </trkpt>
      <trkpt lat="47.41348" lon="6.62317">
        <ele>393.399994</ele>
        <time>2017-06-11T07:54:48Z</time>
      </trkpt>
      <trkpt lat="47.41355" lon="6.62315">
        <ele>392.600006</ele>
        <time>2017-06-11T07:54:49Z</time>
      </trkpt>
      <trkpt lat="47.41362" lon="6.62314">
        <ele>391.799988</ele>
        <time>2017-06-11T07:54:50Z</time>
      </trkpt>
      <trkpt lat="47.41369" lon="6.62314">
        <ele>391.200012</ele>
        <time>2017-06-11T07:54:51Z</time>
      </trkpt>
      <trkpt lat="47.41381" lon="6.62318">
        <ele>390</ele>
        <time>2017-06-11T07:54:53Z</time>
      </trkpt>
      <trkpt lat="47.41388" lon="6.62321">
        <ele>389.399994</ele>
        <time>2017-06-11T07:54:54Z</time>
      </trkpt>
      <trkpt lat="47.41394" lon="6.62323">
        <ele>388.799988</ele>
        <time>2017-06-11T07:54:55Z</time>
      </trkpt>
      <trkpt lat="47.4141" lon="6.62332">
        <ele>387</ele>
        <time>2017-06-11T07:54:59Z</time>
      </trkpt>
      <trkpt lat="47.41417" lon="6.62337">
        <ele>385.799988</ele>
        <time>2017-06-11T07:55:01Z</time>
      </trkpt>
      <trkpt lat="47.41424" lon="6.62344">
        <ele>384.799988</ele>
        <time>2017-06-11T07:55:03Z</time>
      </trkpt>
      <trkpt lat="47.41428" lon="6.62349">
        <ele>384.200012</ele>
        <time>2017-06-11T07:55:04Z</time>
      </trkpt>
      <trkpt lat="47.41433" lon="6.62354">
        <ele>383.600006</ele>
        <time>2017-06-11T07:55:05Z</time>
      </trkpt>
      <trkpt lat="47.41448" lon="6.62367">
        <ele>381.799988</ele>
        <time>2017-06-11T07:55:08Z</time>
      </trkpt>
      <trkpt lat="47.41452" lon="6.6237">
        <ele>381.200012</ele>
        <time>2017-06-11T07:55:09Z</time>
      </trkpt>
      <trkpt lat="47.4146" lon="6.62374">
        <ele>380.200012</ele>
        <time>2017-06-11T07:55:11Z</time>
      </trkpt>
      <trkpt lat="47.41465" lon="6.62377">
        <ele>379.600006</ele>
        <time>2017-06-11T07:55:12Z</time>
      </trkpt>
      <trkpt lat="47.41469" lon="6.6238">
        <ele>379.600006</ele>
        <time>2017-06-11T07:55:13Z</time>
      </trkpt>
      <trkpt lat="47.41478" lon="6.62387">
        <ele>379.600006</ele>
        <time>2017-06-11T07:55:15Z</time>
      </trkpt>
      <trkpt lat="47.415" lon="6.6241">
        <ele>378.200012</ele>
        <time>2017-06-11T07:55:19Z</time>
      </trkpt>
      <trkpt lat="47.41514" lon="6.62426">
        <ele>376.600006</ele>
        <time>2017-06-11T07:55:22Z</time>
      </trkpt>
      <trkpt lat="47.41519" lon="6.62429">
        <ele>376</ele>
        <time>2017-06-11T07:55:23Z</time>
      </trkpt>
      <trkpt lat="47.41523" lon="6.62433">
        <ele>375.399994</ele>
        <time>2017-06-11T07:55:24Z</time>
      </trkpt>
      <trkpt lat="47.41535" lon="6.62443">
        <ele>373.200012</ele>
        <time>2017-06-11T07:55:26Z</time>
      </trkpt>
      <trkpt lat="47.4154" lon="6.62446">
        <ele>372.399994</ele>
        <time>2017-06-11T07:55:27Z</time>
      </trkpt>
      <trkpt lat="47.41545" lon="6.62448">
        <ele>371.799988</ele>
        <time>2017-06-11T07:55:28Z</time>
      </trkpt>
      <trkpt lat="47.41557" lon="6.6245">
        <ele>371.200012</ele>
        <time>2017-06-11T07:55:30Z</time>
      </trkpt>
      <trkpt lat="47.41561" lon="6.62453">
        <ele>370.799988</ele>
        <time>2017-06-11T07:55:31Z</time>
      </trkpt>
      <trkpt lat="47.41565" lon="6.62459">
        <ele>370</ele>
        <time>2017-06-11T07:55:33Z</time>
      </trkpt>
      <trkpt lat="47.41571" lon="6.62471">
        <ele>369.600006</ele>
        <time>2017-06-11T07:55:37Z</time>
      </trkpt>
      <trkpt lat="47.41575" lon="6.62477">
        <ele>369.600006</ele>
        <time>2017-06-11T07:55:39Z</time>
      </trkpt>
      <trkpt lat="47.41582" lon="6.62485">
        <ele>369.600006</ele>
        <time>2017-06-11T07:55:42Z</time>
      </trkpt>
      <trkpt lat="47.41598" lon="6.62493">
        <ele>369.600006</ele>
        <time>2017-06-11T07:55:48Z</time>
      </trkpt>
      <trkpt lat="47.41605" lon="6.62496">
        <ele>370.200012</ele>
        <time>2017-06-11T07:55:51Z</time>
      </trkpt>
      <trkpt lat="47.41609" lon="6.62498">
        <ele>371</ele>
        <time>2017-06-11T07:55:53Z</time>
      </trkpt>
      <trkpt lat="47.41612" lon="6.62499">
        <ele>371.399994</ele>
        <time>2017-06-11T07:55:54Z</time>
      </trkpt>
      <trkpt lat="47.41628" lon="6.62501">
        <ele>371.799988</ele>
        <time>2017-06-11T07:56:00Z</time>
      </trkpt>
      <trkpt lat="47.4164" lon="6.62504">
        <ele>372.200012</ele>
        <time>2017-06-11T07:56:05Z</time>
      </trkpt>
      <trkpt lat="47.41646" lon="6.62505">
        <ele>373</ele>
        <time>2017-06-11T07:56:07Z</time>
      </trkpt>
      <trkpt lat="47.41649" lon="6.62505">
        <ele>373.399994</ele>
        <time>2017-06-11T07:56:08Z</time>
      </trkpt>
      <trkpt lat="47.41658" lon="6.62509">
        <ele>373.799988</ele>
        <time>2017-06-11T07:56:11Z</time>
      </trkpt>
      <trkpt lat="47.41672" lon="6.62515">
        <ele>373.799988</ele>
        <time>2017-06-11T07:56:16Z</time>
      </trkpt>
      <trkpt lat="47.41676" lon="6.62515">
        <ele>373.799988</ele>
        <time>2017-06-11T07:56:18Z</time>
      </trkpt>
      <trkpt lat="47.41677" lon="6.62512">
        <ele>373.799988</ele>
        <time>2017-06-11T07:56:20Z</time>
      </trkpt>
      <trkpt lat="47.41673" lon="6.62461">
        <ele>373.799988</ele>
        <time>2017-06-11T07:56:31Z</time>
      </trkpt>
      <trkpt lat="47.41669" lon="6.62417">
        <ele>373.799988</ele>
        <time>2017-06-11T07:56:38Z</time>
      </trkpt>
      <trkpt lat="47.41667" lon="6.62393">
        <ele>372.600006</ele>
        <time>2017-06-11T07:56:43Z</time>
      </trkpt>
      <trkpt lat="47.41667" lon="6.62389">
        <ele>371.799988</ele>
        <time>2017-06-11T07:56:45Z</time>
      </trkpt>
      <trkpt lat="47.41667" lon="6.62389">
        <ele>371.799988</ele>
        <time>2017-06-11T07:56:46Z</time>
      </trkpt>
      <trkpt lat="47.41665" lon="6.6237">
        <ele>371.799988</ele>
        <time>2017-06-11T07:57:16Z</time>
      </trkpt>
      <trkpt lat="47.41665" lon="6.62354">
        <ele>371.799988</ele>
        <time>2017-06-11T07:57:21Z</time>
      </trkpt>
      <trkpt lat="47.41665" lon="6.62345">
        <ele>371</ele>
        <time>2017-06-11T07:57:23Z</time>
      </trkpt>
      <trkpt lat="47.41665" lon="6.62336">
        <ele>370</ele>
        <time>2017-06-11T07:57:25Z</time>
      </trkpt>
      <trkpt lat="47.41666" lon="6.62332">
        <ele>369.600006</ele>
        <time>2017-06-11T07:57:26Z</time>
      </trkpt>
      <trkpt lat="47.41665" lon="6.62311">
        <ele>369.600006</ele>
        <time>2017-06-11T07:57:30Z</time>
      </trkpt>
      <trkpt lat="47.41662" lon="6.62302">
        <ele>369.600006</ele>
        <time>2017-06-11T07:57:33Z</time>
      </trkpt>
      <trkpt lat="47.41659" lon="6.623">
        <ele>369.200012</ele>
        <time>2017-06-11T07:57:35Z</time>
      </trkpt>
      <trkpt lat="47.41657" lon="6.62297">
        <ele>368.799988</ele>
        <time>2017-06-11T07:57:36Z</time>
      </trkpt>
      <trkpt lat="47.41656" lon="6.62293">
        <ele>368.399994</ele>
        <time>2017-06-11T07:57:37Z</time>
      </trkpt>
      <trkpt lat="47.41656" lon="6.62284">
        <ele>367.600006</ele>
        <time>2017-06-11T07:57:39Z</time>
      </trkpt>
      <trkpt lat="47.41654" lon="6.62275">
        <ele>366.799988</ele>
        <time>2017-06-11T07:57:41Z</time>
      </trkpt>
      <trkpt lat="47.41656" lon="6.62269">
        <ele>366.399994</ele>
        <time>2017-06-11T07:57:43Z</time>
      </trkpt>
      <trkpt lat="47.41657" lon="6.62266">
        <ele>366</ele>
        <time>2017-06-11T07:57:44Z</time>
      </trkpt>
      <trkpt lat="47.41657" lon="6.62257">
        <ele>365.600006</ele>
        <time>2017-06-11T07:57:46Z</time>
      </trkpt>
      <trkpt lat="47.41659" lon="6.62247">
        <ele>365.600006</ele>
        <time>2017-06-11T07:57:48Z</time>
      </trkpt>
      <trkpt lat="47.4166" lon="6.62217">
        <ele>365.600006</ele>
        <time>2017-06-11T07:57:53Z</time>
      </trkpt>
      <trkpt lat="47.4166" lon="6.62211">
        <ele>365.600006</ele>
        <time>2017-06-11T07:57:54Z</time>
      </trkpt>
      <trkpt lat="47.41661" lon="6.62194">
        <ele>365.600006</ele>
        <time>2017-06-11T07:57:57Z</time>
      </trkpt>
      <trkpt lat="47.41661" lon="6.62182">
        <ele>365.600006</ele>
        <time>2017-06-11T07:57:59Z</time>
      </trkpt>
      <trkpt lat="47.41659" lon="6.62163">
        <ele>365.600006</ele>
        <time>2017-06-11T07:58:02Z</time>
      </trkpt>
      <trkpt lat="47.41658" lon="6.62157">
        <ele>365.600006</ele>
        <time>2017-06-11T07:58:03Z</time>
      </trkpt>
      <trkpt lat="47.41656" lon="6.62131">
        <ele>365.600006</ele>
        <time>2017-06-11T07:58:07Z</time>
      </trkpt>
      <trkpt lat="47.41656" lon="6.62118">
        <ele>365.600006</ele>
        <time>2017-06-11T07:58:09Z</time>
      </trkpt>
      <trkpt lat="47.41654" lon="6.62106">
        <ele>365.600006</ele>
        <time>2017-06-11T07:58:11Z</time>
      </trkpt>
      <trkpt lat="47.41653" lon="6.62092">
        <ele>365.600006</ele>
        <time>2017-06-11T07:58:13Z</time>
      </trkpt>
      <trkpt lat="47.4165" lon="6.62051">
        <ele>365</ele>
        <time>2017-06-11T07:58:18Z</time>
      </trkpt>
      <trkpt lat="47.41649" lon="6.62043">
        <ele>364.600006</ele>
        <time>2017-06-11T07:58:19Z</time>
      </trkpt>
      <trkpt lat="47.41648" lon="6.62035">
        <ele>364.200012</ele>
        <time>2017-06-11T07:58:20Z</time>
      </trkpt>
      <trkpt lat="47.41637" lon="6.61959">
        <ele>362.399994</ele>
        <time>2017-06-11T07:58:28Z</time>
      </trkpt>
      <trkpt lat="47.41632" lon="6.61925">
        <ele>361.200012</ele>
        <time>2017-06-11T07:58:31Z</time>
      </trkpt>
      <trkpt lat="47.41629" lon="6.61901">
        <ele>361.200012</ele>
        <time>2017-06-11T07:58:33Z</time>
      </trkpt>
      <trkpt lat="47.41627" lon="6.61889">
        <ele>360.799988</ele>
        <time>2017-06-11T07:58:34Z</time>
      </trkpt>
      <trkpt lat="47.41625" lon="6.61877">
        <ele>360.200012</ele>
        <time>2017-06-11T07:58:35Z</time>
      </trkpt>
      <trkpt lat="47.41625" lon="6.61864">
        <ele>359.799988</ele>
        <time>2017-06-11T07:58:36Z</time>
      </trkpt>
      <trkpt lat="47.41626" lon="6.61852">
        <ele>359.399994</ele>
        <time>2017-06-11T07:58:37Z</time>
      </trkpt>
      <trkpt lat="47.41629" lon="6.61828">
        <ele>358.399994</ele>
        <time>2017-06-11T07:58:39Z</time>
      </trkpt>
      <trkpt lat="47.41632" lon="6.61816">
        <ele>358</ele>
        <time>2017-06-11T07:58:40Z</time>
      </trkpt>
      <trkpt lat="47.41635" lon="6.61805">
        <ele>357.600006</ele>
        <time>2017-06-11T07:58:41Z</time>
      </trkpt>
      <trkpt lat="47.41639" lon="6.61795">
        <ele>357</ele>
        <time>2017-06-11T07:58:42Z</time>
      </trkpt>
      <trkpt lat="47.41644" lon="6.61785">
        <ele>356.600006</ele>
        <time>2017-06-11T07:58:43Z</time>
      </trkpt>
      <trkpt lat="47.41655" lon="6.61767">
        <ele>356.600006</ele>
        <time>2017-06-11T07:58:45Z</time>
      </trkpt>
      <trkpt lat="47.41674" lon="6.61747">
        <ele>356.600006</ele>
        <time>2017-06-11T07:58:48Z</time>
      </trkpt>
      <trkpt lat="47.41688" lon="6.61736">
        <ele>355.799988</ele>
        <time>2017-06-11T07:58:50Z</time>
      </trkpt>
      <trkpt lat="47.41708" lon="6.61721">
        <ele>354.399994</ele>
        <time>2017-06-11T07:58:53Z</time>
      </trkpt>
      <trkpt lat="47.41726" lon="6.61707">
        <ele>354.399994</ele>
        <time>2017-06-11T07:58:56Z</time>
      </trkpt>
      <trkpt lat="47.41735" lon="6.617">
        <ele>354.399994</ele>
        <time>2017-06-11T07:58:58Z</time>
      </trkpt>
      <trkpt lat="47.41738" lon="6.61701">
        <ele>354</ele>
        <time>2017-06-11T07:58:59Z</time>
      </trkpt>
      <trkpt lat="47.41738" lon="6.61703">
        <ele>353.600006</ele>
        <time>2017-06-11T07:59:00Z</time>
      </trkpt>
      <trkpt lat="47.41737" lon="6.61707">
        <ele>353.200012</ele>
        <time>2017-06-11T07:59:01Z</time>
      </trkpt>
      <trkpt lat="47.41735" lon="6.61714">
        <ele>352.399994</ele>
        <time>2017-06-11T07:59:03Z</time>
      </trkpt>
      <trkpt lat="47.41734" lon="6.61725">
        <ele>352.399994</ele>
        <time>2017-06-11T07:59:06Z</time>
      </trkpt>
      <trkpt lat="47.41732" lon="6.61746">
        <ele>352.399994</ele>
        <time>2017-06-11T07:59:12Z</time>
      </trkpt>
      <trkpt lat="47.41729" lon="6.61754">
        <ele>353.200012</ele>
        <time>2017-06-11T07:59:15Z</time>
      </trkpt>
      <trkpt lat="47.41726" lon="6.61757">
        <ele>354.200012</ele>
        <time>2017-06-11T07:59:17Z</time>
      </trkpt>
      <trkpt lat="47.41726" lon="6.6176">
        <ele>354.600006</ele>
        <time>2017-06-11T07:59:18Z</time>
      </trkpt>
      <trkpt lat="47.41725" lon="6.61768">
        <ele>355.799988</ele>
        <time>2017-06-11T07:59:22Z</time>
      </trkpt>
      <trkpt lat="47.41724" lon="6.61773">
        <ele>356.600006</ele>
        <time>2017-06-11T07:59:24Z</time>
      </trkpt>
      <trkpt lat="47.41724" lon="6.61781">
        <ele>357</ele>
        <time>2017-06-11T07:59:27Z</time>
      </trkpt>
      <trkpt lat="47.41724" lon="6.61785">
        <ele>357.600006</ele>
        <time>2017-06-11T07:59:28Z</time>
      </trkpt>
      <trkpt lat="47.41724" lon="6.61792">
        <ele>358.399994</ele>
        <time>2017-06-11T07:59:30Z</time>
      </trkpt>
      <trkpt lat="47.41722" lon="6.6182">
        <ele>360.399994</ele>
        <time>2017-06-11T07:59:39Z</time>
      </trkpt>
      <trkpt lat="47.41722" lon="6.61824">
        <ele>360.799988</ele>
        <time>2017-06-11T07:59:40Z</time>
      </trkpt>
      <trkpt lat="47.41723" lon="6.61833">
        <ele>360.799988</ele>
        <time>2017-06-11T07:59:43Z</time>
      </trkpt>
      <trkpt lat="47.41726" lon="6.61839">
        <ele>360.799988</ele>
        <time>2017-06-11T07:59:47Z</time>
      </trkpt>
      <trkpt lat="47.41727" lon="6.61839">
        <ele>360.799988</ele>
        <time>2017-06-11T07:59:48Z</time>
      </trkpt>
      <trkpt lat="47.41732" lon="6.61835">
        <ele>361.200012</ele>
        <time>2017-06-11T07:59:51Z</time>
      </trkpt>
      <trkpt lat="47.41732" lon="6.61833">
        <ele>362</ele>
        <time>2017-06-11T07:59:52Z</time>
      </trkpt>
      <trkpt lat="47.41733" lon="6.6183">
        <ele>362.399994</ele>
        <time>2017-06-11T07:59:53Z</time>
      </trkpt>
      <trkpt lat="47.41734" lon="6.61826">
        <ele>363</ele>
        <time>2017-06-11T07:59:54Z</time>
      </trkpt>
      <trkpt lat="47.41738" lon="6.61821">
        <ele>363</ele>
        <time>2017-06-11T07:59:56Z</time>
      </trkpt>
      <trkpt lat="47.41745" lon="6.61804">
        <ele>363</ele>
        <time>2017-06-11T08:00:01Z</time>
      </trkpt>
      <trkpt lat="47.41751" lon="6.61787">
        <ele>363</ele>
        <time>2017-06-11T08:00:04Z</time>
      </trkpt>
      <trkpt lat="47.4175" lon="6.61784">
        <ele>362.399994</ele>
        <time>2017-06-11T08:00:05Z</time>
      </trkpt>
      <trkpt lat="47.41756" lon="6.6177">
        <ele>361.200012</ele>
        <time>2017-06-11T08:00:08Z</time>
      </trkpt>
      <trkpt lat="47.41758" lon="6.61766">
        <ele>360.799988</ele>
        <time>2017-06-11T08:00:09Z</time>
      </trkpt>
      <trkpt lat="47.41766" lon="6.61753">
        <ele>360.399994</ele>
        <time>2017-06-11T08:00:11Z</time>
      </trkpt>
      <trkpt lat="47.41772" lon="6.61741">
        <ele>359.600006</ele>
        <time>2017-06-11T08:00:13Z</time>
      </trkpt>
      <trkpt lat="47.41777" lon="6.61728">
        <ele>358.799988</ele>
        <time>2017-06-11T08:00:15Z</time>
      </trkpt>
      <trkpt lat="47.41778" lon="6.61726">
        <ele>358.799988</ele>
        <time>2017-06-11T08:00:16Z</time>
      </trkpt>
      <trkpt lat="47.41786" lon="6.61716">
        <ele>358.799988</ele>
        <time>2017-06-11T08:00:21Z</time>
      </trkpt>
      <trkpt lat="47.41793" lon="6.61704">
        <ele>358.799988</ele>
        <time>2017-06-11T08:00:25Z</time>
      </trkpt>
      <trkpt lat="47.41801" lon="6.6169">
        <ele>358.799988</ele>
        <time>2017-06-11T08:00:29Z</time>
      </trkpt>
      <trkpt lat="47.4181" lon="6.61674">
        <ele>359.200012</ele>
        <time>2017-06-11T08:00:34Z</time>
      </trkpt>
      <trkpt lat="47.41814" lon="6.61664">
        <ele>360.399994</ele>
        <time>2017-06-11T08:00:37Z</time>
      </trkpt>
      <trkpt lat="47.41815" lon="6.61662">
        <ele>361</ele>
        <time>2017-06-11T08:00:38Z</time>
      </trkpt>
      <trkpt lat="47.41817" lon="6.61657">
        <ele>361</ele>
        <time>2017-06-11T08:00:39Z</time>
      </trkpt>
      <trkpt lat="47.41825" lon="6.61644">
        <ele>361</ele>
        <time>2017-06-11T08:00:43Z</time>
      </trkpt>
      <trkpt lat="47.41827" lon="6.61642">
        <ele>361</ele>
        <time>2017-06-11T08:00:44Z</time>
      </trkpt>
      <trkpt lat="47.41834" lon="6.61627">
        <ele>361</ele>
        <time>2017-06-11T08:00:48Z</time>
      </trkpt>
      <trkpt lat="47.41838" lon="6.61618">
        <ele>361</ele>
        <time>2017-06-11T08:00:52Z</time>
      </trkpt>
      <trkpt lat="47.41845" lon="6.61614">
        <ele>361</ele>
        <time>2017-06-11T08:00:56Z</time>
      </trkpt>
      <trkpt lat="47.41847" lon="6.61609">
        <ele>361</ele>
        <time>2017-06-11T08:00:57Z</time>
      </trkpt>
      <trkpt lat="47.41872" lon="6.61559">
        <ele>361</ele>
        <time>2017-06-11T08:01:07Z</time>
      </trkpt>
      <trkpt lat="47.41885" lon="6.6154">
        <ele>361</ele>
        <time>2017-06-11T08:01:12Z</time>
      </trkpt>
      <trkpt lat="47.41887" lon="6.61535">
        <ele>361</ele>
        <time>2017-06-11T08:01:13Z</time>
      </trkpt>
      <trkpt lat="47.41894" lon="6.61523">
        <ele>361</ele>
        <time>2017-06-11T08:01:16Z</time>
      </trkpt>
      <trkpt lat="47.41899" lon="6.61516">
        <ele>361</ele>
        <time>2017-06-11T08:01:18Z</time>
      </trkpt>
      <trkpt lat="47.41907" lon="6.6149">
        <ele>361</ele>
        <time>2017-06-11T08:01:22Z</time>
      </trkpt>
      <trkpt lat="47.41917" lon="6.61474">
        <ele>361</ele>
        <time>2017-06-11T08:01:26Z</time>
      </trkpt>
      <trkpt lat="47.41932" lon="6.61455">
        <ele>361</ele>
        <time>2017-06-11T08:01:31Z</time>
      </trkpt>
      <trkpt lat="47.4194" lon="6.61447">
        <ele>361</ele>
        <time>2017-06-11T08:01:34Z</time>
      </trkpt>
      <trkpt lat="47.41942" lon="6.61446">
        <ele>361</ele>
        <time>2017-06-11T08:01:35Z</time>
      </trkpt>
      <trkpt lat="47.41945" lon="6.61441">
        <ele>361</ele>
        <time>2017-06-11T08:01:37Z</time>
      </trkpt>
      <trkpt lat="47.41953" lon="6.61434">
        <ele>361</ele>
        <time>2017-06-11T08:01:40Z</time>
      </trkpt>
      <trkpt lat="47.41955" lon="6.61433">
        <ele>361</ele>
        <time>2017-06-11T08:01:41Z</time>
      </trkpt>
      <trkpt lat="47.41971" lon="6.61417">
        <ele>361</ele>
        <time>2017-06-11T08:01:46Z</time>
      </trkpt>
      <trkpt lat="47.42009" lon="6.61374">
        <ele>361</ele>
        <time>2017-06-11T08:01:56Z</time>
      </trkpt>
      <trkpt lat="47.42022" lon="6.6136">
        <ele>360.399994</ele>
        <time>2017-06-11T08:02:00Z</time>
      </trkpt>
      <trkpt lat="47.42025" lon="6.61355">
        <ele>360</ele>
        <time>2017-06-11T08:02:01Z</time>
      </trkpt>
      <trkpt lat="47.42028" lon="6.61352">
        <ele>359.600006</ele>
        <time>2017-06-11T08:02:02Z</time>
      </trkpt>
      <trkpt lat="47.42032" lon="6.61348">
        <ele>359.200012</ele>
        <time>2017-06-11T08:02:03Z</time>
      </trkpt>
      <trkpt lat="47.42038" lon="6.61336">
        <ele>358.799988</ele>
        <time>2017-06-11T08:02:06Z</time>
      </trkpt>
      <trkpt lat="47.4204" lon="6.61331">
        <ele>358.799988</ele>
        <time>2017-06-11T08:02:08Z</time>
      </trkpt>
      <trkpt lat="47.42046" lon="6.61313">
        <ele>358.799988</ele>
        <time>2017-06-11T08:06:41Z</time>
      </trkpt>
      <trkpt lat="47.42048" lon="6.61311">
        <ele>358.799988</ele>
        <time>2017-06-11T08:06:43Z</time>
      </trkpt>
      <trkpt lat="47.42049" lon="6.61307">
        <ele>358.799988</ele>
        <time>2017-06-11T08:06:48Z</time>
      </trkpt>
      <trkpt lat="47.42066" lon="6.61324">
        <ele>358.799988</ele>
        <time>2017-06-11T08:07:41Z</time>
      </trkpt>
      <trkpt lat="47.42069" lon="6.61328">
        <ele>358.799988</ele>
        <time>2017-06-11T08:07:45Z</time>
      </trkpt>
      <trkpt lat="47.42071" lon="6.61329">
        <ele>358.799988</ele>
        <time>2017-06-11T08:07:46Z</time>
      </trkpt>
      <trkpt lat="47.42072" lon="6.61328">
        <ele>358.799988</ele>
        <time>2017-06-11T08:07:48Z</time>
      </trkpt>
      <trkpt lat="47.42072" lon="6.61324">
        <ele>358.799988</ele>
        <time>2017-06-11T08:07:57Z</time>
      </trkpt>
      <trkpt lat="47.42071" lon="6.61322">
        <ele>358.799988</ele>
        <time>2017-06-11T08:07:58Z</time>
      </trkpt>
      <trkpt lat="47.42069" lon="6.61322">
        <ele>358.799988</ele>
        <time>2017-06-11T08:07:59Z</time>
      </trkpt>
      <trkpt lat="47.42068" lon="6.6132">
        <ele>358.799988</ele>
        <time>2017-06-11T08:08:02Z</time>
      </trkpt>
      <trkpt lat="47.42069" lon="6.61324">
        <ele>358.799988</ele>
        <time>2017-06-11T08:08:06Z</time>
      </trkpt>
      <trkpt lat="47.42071" lon="6.61324">
        <ele>358.799988</ele>
        <time>2017-06-11T08:08:07Z</time>
      </trkpt>
      <trkpt lat="47.42079" lon="6.61333">
        <ele>358.799988</ele>
        <time>2017-06-11T08:08:15Z</time>
      </trkpt>
      <trkpt lat="47.4209" lon="6.61345">
        <ele>358.799988</ele>
        <time>2017-06-11T08:08:21Z</time>
      </trkpt>
      <trkpt lat="47.42101" lon="6.61363">
        <ele>360.600006</ele>
        <time>2017-06-11T08:08:27Z</time>
      </trkpt>
      <trkpt lat="47.42103" lon="6.61366">
        <ele>361</ele>
        <time>2017-06-11T08:08:28Z</time>
      </trkpt>
      <trkpt lat="47.42109" lon="6.6138">
        <ele>361.399994</ele>
        <time>2017-06-11T08:08:32Z</time>
      </trkpt>
      <trkpt lat="47.42111" lon="6.61384">
        <ele>361.799988</ele>
        <time>2017-06-11T08:08:33Z</time>
      </trkpt>
      <trkpt lat="47.42112" lon="6.61388">
        <ele>362.200012</ele>
        <time>2017-06-11T08:08:34Z</time>
      </trkpt>
      <trkpt lat="47.42113" lon="6.61395">
        <ele>363.200012</ele>
        <time>2017-06-11T08:08:36Z</time>
      </trkpt>
      <trkpt lat="47.42112" lon="6.61403">
        <ele>363.200012</ele>
        <time>2017-06-11T08:08:38Z</time>
      </trkpt>
      <trkpt lat="47.4211" lon="6.61411">
        <ele>364</ele>
        <time>2017-06-11T08:08:40Z</time>
      </trkpt>
      <trkpt lat="47.42108" lon="6.61422">
        <ele>365.200012</ele>
        <time>2017-06-11T08:08:43Z</time>
      </trkpt>
      <trkpt lat="47.42103" lon="6.61435">
        <ele>365.600006</ele>
        <time>2017-06-11T08:08:47Z</time>
      </trkpt>
      <trkpt lat="47.42102" lon="6.61439">
        <ele>366</ele>
        <time>2017-06-11T08:08:48Z</time>
      </trkpt>
      <trkpt lat="47.421" lon="6.61445">
        <ele>366.799988</ele>
        <time>2017-06-11T08:08:50Z</time>
      </trkpt>
      <trkpt lat="47.42099" lon="6.61453">
        <ele>367.200012</ele>
        <time>2017-06-11T08:08:52Z</time>
      </trkpt>
      <trkpt lat="47.42096" lon="6.61463">
        <ele>368.600006</ele>
        <time>2017-06-11T08:08:55Z</time>
      </trkpt>
      <trkpt lat="47.42095" lon="6.61467">
        <ele>369</ele>
        <time>2017-06-11T08:08:56Z</time>
      </trkpt>
      <trkpt lat="47.42091" lon="6.61478">
        <ele>369.399994</ele>
        <time>2017-06-11T08:08:59Z</time>
      </trkpt>
      <trkpt lat="47.42089" lon="6.61488">
        <ele>370.200012</ele>
        <time>2017-06-11T08:09:02Z</time>
      </trkpt>
      <trkpt lat="47.42088" lon="6.61491">
        <ele>370.600006</ele>
        <time>2017-06-11T08:09:03Z</time>
      </trkpt>
      <trkpt lat="47.42087" lon="6.61495">
        <ele>371</ele>
        <time>2017-06-11T08:09:04Z</time>
      </trkpt>
      <trkpt lat="47.42086" lon="6.61499">
        <ele>371.600006</ele>
        <time>2017-06-11T08:09:05Z</time>
      </trkpt>
      <trkpt lat="47.42085" lon="6.61507">
        <ele>371.600006</ele>
        <time>2017-06-11T08:09:07Z</time>
      </trkpt>
      <trkpt lat="47.42079" lon="6.61526">
        <ele>372</ele>
        <time>2017-06-11T08:09:12Z</time>
      </trkpt>
      <trkpt lat="47.42077" lon="6.61537">
        <ele>373.200012</ele>
        <time>2017-06-11T08:09:14Z</time>
      </trkpt>
      <trkpt lat="47.4207" lon="6.61564">
        <ele>374.399994</ele>
        <time>2017-06-11T08:09:22Z</time>
      </trkpt>
      <trkpt lat="47.42068" lon="6.61569">
        <ele>374.799988</ele>
        <time>2017-06-11T08:09:23Z</time>
      </trkpt>
      <trkpt lat="47.42065" lon="6.61577">
        <ele>375.799988</ele>
        <time>2017-06-11T08:09:25Z</time>
      </trkpt>
      <trkpt lat="47.4206" lon="6.61595">
        <ele>375.799988</ele>
        <time>2017-06-11T08:09:29Z</time>
      </trkpt>
      <trkpt lat="47.42033" lon="6.61646">
        <ele>375.799988</ele>
        <time>2017-06-11T08:09:42Z</time>
      </trkpt>
      <trkpt lat="47.42022" lon="6.61667">
        <ele>377</ele>
        <time>2017-06-11T08:09:47Z</time>
      </trkpt>
      <trkpt lat="47.42018" lon="6.61678">
        <ele>377.799988</ele>
        <time>2017-06-11T08:09:49Z</time>
      </trkpt>
      <trkpt lat="47.41994" lon="6.6175">
        <ele>377.799988</ele>
        <time>2017-06-11T08:10:02Z</time>
      </trkpt>
      <trkpt lat="47.4199" lon="6.61768">
        <ele>377.799988</ele>
        <time>2017-06-11T08:10:05Z</time>
      </trkpt>
      <trkpt lat="47.41989" lon="6.6178">
        <ele>377.799988</ele>
        <time>2017-06-11T08:10:07Z</time>
      </trkpt>
      <trkpt lat="47.41988" lon="6.61786">
        <ele>377.799988</ele>
        <time>2017-06-11T08:10:08Z</time>
      </trkpt>
      <trkpt lat="47.41989" lon="6.61825">
        <ele>377.799988</ele>
        <time>2017-06-11T08:10:14Z</time>
      </trkpt>
      <trkpt lat="47.41992" lon="6.61867">
        <ele>377.799988</ele>
        <time>2017-06-11T08:10:20Z</time>
      </trkpt>
      <trkpt lat="47.41993" lon="6.61881">
        <ele>377.799988</ele>
        <time>2017-06-11T08:10:22Z</time>
      </trkpt>
      <trkpt lat="47.41996" lon="6.61911">
        <ele>377.799988</ele>
        <time>2017-06-11T08:10:26Z</time>
      </trkpt>
      <trkpt lat="47.42" lon="6.61947">
        <ele>377.200012</ele>
        <time>2017-06-11T08:10:31Z</time>
      </trkpt>
      <trkpt lat="47.41999" lon="6.61964">
        <ele>376.399994</ele>
        <time>2017-06-11T08:10:33Z</time>
      </trkpt>
      <trkpt lat="47.41999" lon="6.61971">
        <ele>376</ele>
        <time>2017-06-11T08:10:34Z</time>
      </trkpt>
      <trkpt lat="47.41997" lon="6.61979">
        <ele>375.399994</ele>
        <time>2017-06-11T08:10:35Z</time>
      </trkpt>
      <trkpt lat="47.41992" lon="6.61999">
        <ele>375.399994</ele>
        <time>2017-06-11T08:10:38Z</time>
      </trkpt>
      <trkpt lat="47.41965" lon="6.62127">
        <ele>377.600006</ele>
        <time>2017-06-11T08:10:58Z</time>
      </trkpt>
      <trkpt lat="47.41953" lon="6.62177">
        <ele>378</ele>
        <time>2017-06-11T08:11:09Z</time>
      </trkpt>
      <trkpt lat="47.41952" lon="6.6218">
        <ele>378.399994</ele>
        <time>2017-06-11T08:11:10Z</time>
      </trkpt>
      <trkpt lat="47.41951" lon="6.62184">
        <ele>378.799988</ele>
        <time>2017-06-11T08:11:11Z</time>
      </trkpt>
      <trkpt lat="47.41949" lon="6.62192">
        <ele>379.600006</ele>
        <time>2017-06-11T08:11:13Z</time>
      </trkpt>
      <trkpt lat="47.41944" lon="6.62203">
        <ele>379.600006</ele>
        <time>2017-06-11T08:11:16Z</time>
      </trkpt>
      <trkpt lat="47.41934" lon="6.62232">
        <ele>379.600006</ele>
        <time>2017-06-11T08:11:22Z</time>
      </trkpt>
      <trkpt lat="47.41933" lon="6.62239">
        <ele>379.600006</ele>
        <time>2017-06-11T08:11:23Z</time>
      </trkpt>
      <trkpt lat="47.41929" lon="6.62258">
        <ele>379.600006</ele>
        <time>2017-06-11T08:11:26Z</time>
      </trkpt>
      <trkpt lat="47.41918" lon="6.62299">
        <ele>379.600006</ele>
        <time>2017-06-11T08:11:33Z</time>
      </trkpt>
      <trkpt lat="47.41912" lon="6.62314">
        <ele>379.600006</ele>
        <time>2017-06-11T08:11:36Z</time>
      </trkpt>
      <trkpt lat="47.41909" lon="6.62324">
        <ele>379.600006</ele>
        <time>2017-06-11T08:11:38Z</time>
      </trkpt>
      <trkpt lat="47.41899" lon="6.62345">
        <ele>379.600006</ele>
        <time>2017-06-11T08:11:43Z</time>
      </trkpt>
      <trkpt lat="47.41885" lon="6.62378">
        <ele>379.600006</ele>
        <time>2017-06-11T08:11:50Z</time>
      </trkpt>
      <trkpt lat="47.41871" lon="6.62413">
        <ele>379.600006</ele>
        <time>2017-06-11T08:11:57Z</time>
      </trkpt>
      <trkpt lat="47.41862" lon="6.62442">
        <ele>379.200012</ele>
        <time>2017-06-11T08:12:02Z</time>
      </trkpt>
      <trkpt lat="47.4186" lon="6.62448">
        <ele>378.799988</ele>
        <time>2017-06-11T08:12:03Z</time>
      </trkpt>
      <trkpt lat="47.41858" lon="6.62453">
        <ele>378.399994</ele>
        <time>2017-06-11T08:12:04Z</time>
      </trkpt>
      <trkpt lat="47.41857" lon="6.62459">
        <ele>378</ele>
        <time>2017-06-11T08:12:05Z</time>
      </trkpt>
      <trkpt lat="47.41855" lon="6.62465">
        <ele>377.600006</ele>
        <time>2017-06-11T08:12:06Z</time>
      </trkpt>
      <trkpt lat="47.41852" lon="6.62477">
        <ele>377.600006</ele>
        <time>2017-06-11T08:12:08Z</time>
      </trkpt>
      <trkpt lat="47.41851" lon="6.62484">
        <ele>377.600006</ele>
        <time>2017-06-11T08:12:09Z</time>
      </trkpt>
      <trkpt lat="47.41843" lon="6.62526">
        <ele>377.600006</ele>
        <time>2017-06-11T08:12:16Z</time>
      </trkpt>
      <trkpt lat="47.41834" lon="6.62558">
        <ele>377.600006</ele>
        <time>2017-06-11T08:12:22Z</time>
      </trkpt>
      <trkpt lat="47.41827" lon="6.62585">
        <ele>377.600006</ele>
        <time>2017-06-11T08:12:28Z</time>
      </trkpt>
      <trkpt lat="47.41819" lon="6.62604">
        <ele>377.600006</ele>
        <time>2017-06-11T08:12:33Z</time>
      </trkpt>
      <trkpt lat="47.4182" lon="6.6261">
        <ele>377.600006</ele>
        <time>2017-06-11T08:12:36Z</time>
      </trkpt>
      <trkpt lat="47.41827" lon="6.62617">
        <ele>377.600006</ele>
        <time>2017-06-11T08:12:40Z</time>
      </trkpt>
      <trkpt lat="47.41831" lon="6.62623">
        <ele>377.600006</ele>
        <time>2017-06-11T08:12:43Z</time>
      </trkpt>
      <trkpt lat="47.41844" lon="6.62643">
        <ele>377.600006</ele>
        <time>2017-06-11T08:12:48Z</time>
      </trkpt>
      <trkpt lat="47.41848" lon="6.62647">
        <ele>377.200012</ele>
        <time>2017-06-11T08:12:49Z</time>
      </trkpt>
      <trkpt lat="47.41858" lon="6.62658">
        <ele>376.200012</ele>
        <time>2017-06-11T08:12:51Z</time>
      </trkpt>
      <trkpt lat="47.41863" lon="6.62665">
        <ele>375.600006</ele>
        <time>2017-06-11T08:12:52Z</time>
      </trkpt>
      <trkpt lat="47.41867" lon="6.62669">
        <ele>375.200012</ele>
        <time>2017-06-11T08:12:53Z</time>
      </trkpt>
      <trkpt lat="47.4187" lon="6.62672">
        <ele>375.200012</ele>
        <time>2017-06-11T08:12:54Z</time>
      </trkpt>
      <trkpt lat="47.41872" lon="6.62677">
        <ele>375.200012</ele>
        <time>2017-06-11T08:12:55Z</time>
      </trkpt>
      <trkpt lat="47.41877" lon="6.62691">
        <ele>374.799988</ele>
        <time>2017-06-11T08:12:57Z</time>
      </trkpt>
      <trkpt lat="47.41878" lon="6.62698">
        <ele>374.399994</ele>
        <time>2017-06-11T08:12:58Z</time>
      </trkpt>
      <trkpt lat="47.41879" lon="6.62704">
        <ele>373.799988</ele>
        <time>2017-06-11T08:12:59Z</time>
      </trkpt>
      <trkpt lat="47.41879" lon="6.62709">
        <ele>373.399994</ele>
        <time>2017-06-11T08:13:00Z</time>
      </trkpt>
      <trkpt lat="47.41878" lon="6.62722">
        <ele>373</ele>
        <time>2017-06-11T08:13:02Z</time>
      </trkpt>
      <trkpt lat="47.41878" lon="6.62739">
        <ele>373</ele>
        <time>2017-06-11T08:13:04Z</time>
      </trkpt>
      <trkpt lat="47.41876" lon="6.62766">
        <ele>373</ele>
        <time>2017-06-11T08:13:08Z</time>
      </trkpt>
      <trkpt lat="47.41874" lon="6.62773">
        <ele>372.600006</ele>
        <time>2017-06-11T08:13:09Z</time>
      </trkpt>
      <trkpt lat="47.41874" lon="6.6278">
        <ele>372.200012</ele>
        <time>2017-06-11T08:13:10Z</time>
      </trkpt>
      <trkpt lat="47.41874" lon="6.62786">
        <ele>371.799988</ele>
        <time>2017-06-11T08:13:11Z</time>
      </trkpt>
      <trkpt lat="47.41875" lon="6.62793">
        <ele>371.399994</ele>
        <time>2017-06-11T08:13:12Z</time>
      </trkpt>
      <trkpt lat="47.41875" lon="6.62817">
        <ele>371</ele>
        <time>2017-06-11T08:13:15Z</time>
      </trkpt>
      <trkpt lat="47.41879" lon="6.62835">
        <ele>371</ele>
        <time>2017-06-11T08:13:17Z</time>
      </trkpt>
      <trkpt lat="47.41882" lon="6.62843">
        <ele>370.399994</ele>
        <time>2017-06-11T08:13:18Z</time>
      </trkpt>
      <trkpt lat="47.41885" lon="6.62851">
        <ele>370</ele>
        <time>2017-06-11T08:13:19Z</time>
      </trkpt>
      <trkpt lat="47.41888" lon="6.62858">
        <ele>369.399994</ele>
        <time>2017-06-11T08:13:20Z</time>
      </trkpt>
      <trkpt lat="47.4189" lon="6.62865">
        <ele>369</ele>
        <time>2017-06-11T08:13:21Z</time>
      </trkpt>
      <trkpt lat="47.41899" lon="6.629">
        <ele>368</ele>
        <time>2017-06-11T08:13:25Z</time>
      </trkpt>
      <trkpt lat="47.41901" lon="6.62908">
        <ele>367.600006</ele>
        <time>2017-06-11T08:13:26Z</time>
      </trkpt>
      <trkpt lat="47.41904" lon="6.62915">
        <ele>367.200012</ele>
        <time>2017-06-11T08:13:27Z</time>
      </trkpt>
      <trkpt lat="47.41906" lon="6.62922">
        <ele>366.799988</ele>
        <time>2017-06-11T08:13:28Z</time>
      </trkpt>
      <trkpt lat="47.41911" lon="6.62927">
        <ele>366.200012</ele>
        <time>2017-06-11T08:13:29Z</time>
      </trkpt>
      <trkpt lat="47.41916" lon="6.62932">
        <ele>366.200012</ele>
        <time>2017-06-11T08:13:30Z</time>
      </trkpt>
      <trkpt lat="47.41931" lon="6.62946">
        <ele>365</ele>
        <time>2017-06-11T08:13:33Z</time>
      </trkpt>
      <trkpt lat="47.41938" lon="6.62951">
        <ele>364.200012</ele>
        <time>2017-06-11T08:13:35Z</time>
      </trkpt>
      <trkpt lat="47.41947" lon="6.62951">
        <ele>364.200012</ele>
        <time>2017-06-11T08:13:39Z</time>
      </trkpt>
      <trkpt lat="47.41954" lon="6.62948">
        <ele>363.200012</ele>
        <time>2017-06-11T08:13:41Z</time>
      </trkpt>
      <trkpt lat="47.41955" lon="6.62945">
        <ele>362.600006</ele>
        <time>2017-06-11T08:13:42Z</time>
      </trkpt>
      <trkpt lat="47.41957" lon="6.62943">
        <ele>362</ele>
        <time>2017-06-11T08:13:43Z</time>
      </trkpt>
      <trkpt lat="47.41964" lon="6.62932">
        <ele>360.200012</ele>
        <time>2017-06-11T08:13:45Z</time>
      </trkpt>
      <trkpt lat="47.41966" lon="6.62926">
        <ele>359.399994</ele>
        <time>2017-06-11T08:13:46Z</time>
      </trkpt>
      <trkpt lat="47.41966" lon="6.6292">
        <ele>358.399994</ele>
        <time>2017-06-11T08:13:47Z</time>
      </trkpt>
      <trkpt lat="47.41966" lon="6.62912">
        <ele>356.399994</ele>
        <time>2017-06-11T08:13:49Z</time>
      </trkpt>
      <trkpt lat="47.41966" lon="6.62907">
        <ele>355.399994</ele>
        <time>2017-06-11T08:13:50Z</time>
      </trkpt>
      <trkpt lat="47.41968" lon="6.62903">
        <ele>354.200012</ele>
        <time>2017-06-11T08:13:51Z</time>
      </trkpt>
      <trkpt lat="47.41967" lon="6.62896">
        <ele>353.799988</ele>
        <time>2017-06-11T08:13:53Z</time>
      </trkpt>
      <trkpt lat="47.41968" lon="6.62893">
        <ele>353.399994</ele>
        <time>2017-06-11T08:13:54Z</time>
      </trkpt>
      <trkpt lat="47.4197" lon="6.62889">
        <ele>352.600006</ele>
        <time>2017-06-11T08:13:56Z</time>
      </trkpt>
      <trkpt lat="47.41974" lon="6.62875">
        <ele>352.200012</ele>
        <time>2017-06-11T08:14:02Z</time>
      </trkpt>
      <trkpt lat="47.4198" lon="6.62861">
        <ele>352.200012</ele>
        <time>2017-06-11T08:14:16Z</time>
      </trkpt>
      <trkpt lat="47.41984" lon="6.62855">
        <ele>351.799988</ele>
        <time>2017-06-11T08:14:18Z</time>
      </trkpt>
      <trkpt lat="47.41988" lon="6.62848">
        <ele>351</ele>
        <time>2017-06-11T08:14:20Z</time>
      </trkpt>
      <trkpt lat="47.41993" lon="6.62834">
        <ele>350.200012</ele>
        <time>2017-06-11T08:14:24Z</time>
      </trkpt>
      <trkpt lat="47.41995" lon="6.62832">
        <ele>350.200012</ele>
        <time>2017-06-11T08:14:25Z</time>
      </trkpt>
      <trkpt lat="47.42" lon="6.62824">
        <ele>350.200012</ele>
        <time>2017-06-11T08:14:28Z</time>
      </trkpt>
      <trkpt lat="47.42006" lon="6.62816">
        <ele>350.200012</ele>
        <time>2017-06-11T08:14:31Z</time>
      </trkpt>
      <trkpt lat="47.42013" lon="6.62809">
        <ele>350.200012</ele>
        <time>2017-06-11T08:14:34Z</time>
      </trkpt>
      <trkpt lat="47.4202" lon="6.62798">
        <ele>349.799988</ele>
        <time>2017-06-11T08:14:40Z</time>
      </trkpt>
      <trkpt lat="47.42022" lon="6.62798">
        <ele>349.399994</ele>
        <time>2017-06-11T08:14:41Z</time>
      </trkpt>
      <trkpt lat="47.42023" lon="6.62796">
        <ele>349</ele>
        <time>2017-06-11T08:14:42Z</time>
      </trkpt>
      <trkpt lat="47.42024" lon="6.62795">
        <ele>348.600006</ele>
        <time>2017-06-11T08:14:43Z</time>
      </trkpt>
      <trkpt lat="47.42026" lon="6.62795">
        <ele>348.200012</ele>
        <time>2017-06-11T08:14:44Z</time>
      </trkpt>
      <trkpt lat="47.42037" lon="6.62786">
        <ele>348.200012</ele>
        <time>2017-06-11T08:14:50Z</time>
      </trkpt>
      <trkpt lat="47.42041" lon="6.62786">
        <ele>348.200012</ele>
        <time>2017-06-11T08:14:54Z</time>
      </trkpt>
      <trkpt lat="47.42043" lon="6.62789">
        <ele>348.200012</ele>
        <time>2017-06-11T08:14:55Z</time>
      </trkpt>
      <trkpt lat="47.42054" lon="6.6281">
        <ele>348.200012</ele>
        <time>2017-06-11T08:15:01Z</time>
      </trkpt>
      <trkpt lat="47.42061" lon="6.62829">
        <ele>348.200012</ele>
        <time>2017-06-11T08:15:05Z</time>
      </trkpt>
      <trkpt lat="47.42065" lon="6.62833">
        <ele>348.200012</ele>
        <time>2017-06-11T08:15:06Z</time>
      </trkpt>
      <trkpt lat="47.42076" lon="6.62842">
        <ele>348.200012</ele>
        <time>2017-06-11T08:15:08Z</time>
      </trkpt>
      <trkpt lat="47.42089" lon="6.62858">
        <ele>348.200012</ele>
        <time>2017-06-11T08:15:11Z</time>
      </trkpt>
      <trkpt lat="47.42091" lon="6.62864">
        <ele>348.200012</ele>
        <time>2017-06-11T08:15:12Z</time>
      </trkpt>
      <trkpt lat="47.42095" lon="6.62869">
        <ele>348.200012</ele>
        <time>2017-06-11T08:15:13Z</time>
      </trkpt>
      <trkpt lat="47.421" lon="6.62881">
        <ele>347.799988</ele>
        <time>2017-06-11T08:15:15Z</time>
      </trkpt>
      <trkpt lat="47.42102" lon="6.62888">
        <ele>346.799988</ele>
        <time>2017-06-11T08:15:16Z</time>
      </trkpt>
      <trkpt lat="47.42105" lon="6.62896">
        <ele>346.399994</ele>
        <time>2017-06-11T08:15:17Z</time>
      </trkpt>
      <trkpt lat="47.42109" lon="6.62903">
        <ele>346</ele>
        <time>2017-06-11T08:15:18Z</time>
      </trkpt>
      <trkpt lat="47.42117" lon="6.62917">
        <ele>345.600006</ele>
        <time>2017-06-11T08:15:20Z</time>
      </trkpt>
      <trkpt lat="47.42126" lon="6.62931">
        <ele>344.600006</ele>
        <time>2017-06-11T08:15:22Z</time>
      </trkpt>
      <trkpt lat="47.42135" lon="6.62948">
        <ele>343.600006</ele>
        <time>2017-06-11T08:15:24Z</time>
      </trkpt>
      <trkpt lat="47.42154" lon="6.6298">
        <ele>342.200012</ele>
        <time>2017-06-11T08:15:28Z</time>
      </trkpt>
      <trkpt lat="47.42158" lon="6.62987">
        <ele>341.799988</ele>
        <time>2017-06-11T08:15:29Z</time>
      </trkpt>
      <trkpt lat="47.42165" lon="6.63004">
        <ele>341.200012</ele>
        <time>2017-06-11T08:15:31Z</time>
      </trkpt>
      <trkpt lat="47.42177" lon="6.63024">
        <ele>340.399994</ele>
        <time>2017-06-11T08:15:34Z</time>
      </trkpt>
      <trkpt lat="47.42185" lon="6.63038">
        <ele>339.399994</ele>
        <time>2017-06-11T08:15:36Z</time>
      </trkpt>
      <trkpt lat="47.4219" lon="6.63045">
        <ele>339</ele>
        <time>2017-06-11T08:15:37Z</time>
      </trkpt>
      <trkpt lat="47.42195" lon="6.6305">
        <ele>338.399994</ele>
        <time>2017-06-11T08:15:38Z</time>
      </trkpt>
      <trkpt lat="47.42199" lon="6.63057">
        <ele>337.799988</ele>
        <time>2017-06-11T08:15:39Z</time>
      </trkpt>
      <trkpt lat="47.42204" lon="6.63061">
        <ele>337.399994</ele>
        <time>2017-06-11T08:15:40Z</time>
      </trkpt>
      <trkpt lat="47.42211" lon="6.63064">
        <ele>336.399994</ele>
        <time>2017-06-11T08:15:41Z</time>
      </trkpt>
      <trkpt lat="47.42217" lon="6.63065">
        <ele>335.799988</ele>
        <time>2017-06-11T08:15:42Z</time>
      </trkpt>
      <trkpt lat="47.42234" lon="6.63072">
        <ele>334.399994</ele>
        <time>2017-06-11T08:15:45Z</time>
      </trkpt>
      <trkpt lat="47.4224" lon="6.63076">
        <ele>334</ele>
        <time>2017-06-11T08:15:46Z</time>
      </trkpt>
      <trkpt lat="47.42248" lon="6.63081">
        <ele>333.399994</ele>
        <time>2017-06-11T08:15:47Z</time>
      </trkpt>
      <trkpt lat="47.42256" lon="6.63086">
        <ele>333</ele>
        <time>2017-06-11T08:15:48Z</time>
      </trkpt>
      <trkpt lat="47.42266" lon="6.63091">
        <ele>332.399994</ele>
        <time>2017-06-11T08:15:49Z</time>
      </trkpt>
      <trkpt lat="47.42295" lon="6.63113">
        <ele>332.399994</ele>
        <time>2017-06-11T08:15:53Z</time>
      </trkpt>
      <trkpt lat="47.42302" lon="6.63118">
        <ele>332</ele>
        <time>2017-06-11T08:15:54Z</time>
      </trkpt>
      <trkpt lat="47.42317" lon="6.63131">
        <ele>331.200012</ele>
        <time>2017-06-11T08:15:56Z</time>
      </trkpt>
      <trkpt lat="47.42325" lon="6.63137">
        <ele>330.799988</ele>
        <time>2017-06-11T08:15:57Z</time>
      </trkpt>
      <trkpt lat="47.42345" lon="6.63146">
        <ele>329.600006</ele>
        <time>2017-06-11T08:15:59Z</time>
      </trkpt>
      <trkpt lat="47.42353" lon="6.63152">
        <ele>329</ele>
        <time>2017-06-11T08:16:00Z</time>
      </trkpt>
      <trkpt lat="47.42359" lon="6.63157">
        <ele>328.399994</ele>
        <time>2017-06-11T08:16:01Z</time>
      </trkpt>
      <trkpt lat="47.42365" lon="6.63163">
        <ele>327.799988</ele>
        <time>2017-06-11T08:16:02Z</time>
      </trkpt>
      <trkpt lat="47.42369" lon="6.63168">
        <ele>327.799988</ele>
        <time>2017-06-11T08:16:03Z</time>
      </trkpt>
      <trkpt lat="47.42373" lon="6.63173">
        <ele>327.799988</ele>
        <time>2017-06-11T08:16:04Z</time>
      </trkpt>
      <trkpt lat="47.4238" lon="6.63187">
        <ele>327</ele>
        <time>2017-06-11T08:16:07Z</time>
      </trkpt>
      <trkpt lat="47.42382" lon="6.63192">
        <ele>326.200012</ele>
        <time>2017-06-11T08:16:09Z</time>
      </trkpt>
      <trkpt lat="47.42383" lon="6.63193">
        <ele>325.799988</ele>
        <time>2017-06-11T08:16:10Z</time>
      </trkpt>
      <trkpt lat="47.42383" lon="6.63195">
        <ele>325.799988</ele>
        <time>2017-06-11T08:16:11Z</time>
      </trkpt>
      <trkpt lat="47.42383" lon="6.63205">
        <ele>325.799988</ele>
        <time>2017-06-11T08:16:17Z</time>
      </trkpt>
      <trkpt lat="47.42382" lon="6.63209">
        <ele>325.799988</ele>
        <time>2017-06-11T08:16:21Z</time>
      </trkpt>
      <trkpt lat="47.42378" lon="6.63209">
        <ele>325.799988</ele>
        <time>2017-06-11T08:16:23Z</time>
      </trkpt>
      <trkpt lat="47.42372" lon="6.63214">
        <ele>325.399994</ele>
        <time>2017-06-11T08:16:26Z</time>
      </trkpt>
      <trkpt lat="47.42369" lon="6.63216">
        <ele>325</ele>
        <time>2017-06-11T08:16:27Z</time>
      </trkpt>
      <trkpt lat="47.42368" lon="6.63216">
        <ele>324.600006</ele>
        <time>2017-06-11T08:16:28Z</time>
      </trkpt>
      <trkpt lat="47.42367" lon="6.63216">
        <ele>324.200012</ele>
        <time>2017-06-11T08:16:29Z</time>
      </trkpt>
      <trkpt lat="47.42367" lon="6.63218">
        <ele>323.799988</ele>
        <time>2017-06-11T08:16:30Z</time>
      </trkpt>
      <trkpt lat="47.42367" lon="6.63221">
        <ele>322.799988</ele>
        <time>2017-06-11T08:16:32Z</time>
      </trkpt>
      <trkpt lat="47.42368" lon="6.63225">
        <ele>321.799988</ele>
        <time>2017-06-11T08:16:34Z</time>
      </trkpt>
      <trkpt lat="47.42372" lon="6.63239">
        <ele>321.399994</ele>
        <time>2017-06-11T08:16:39Z</time>
      </trkpt>
      <trkpt lat="47.42374" lon="6.63242">
        <ele>321.399994</ele>
        <time>2017-06-11T08:16:40Z</time>
      </trkpt>
      <trkpt lat="47.42381" lon="6.63254">
        <ele>320.200012</ele>
        <time>2017-06-11T08:16:43Z</time>
      </trkpt>
      <trkpt lat="47.42384" lon="6.63257">
        <ele>319.799988</ele>
        <time>2017-06-11T08:16:44Z</time>
      </trkpt>
      <trkpt lat="47.42386" lon="6.63258">
        <ele>319.399994</ele>
        <time>2017-06-11T08:16:45Z</time>
      </trkpt>
      <trkpt lat="47.42389" lon="6.63258">
        <ele>319.399994</ele>
        <time>2017-06-11T08:16:46Z</time>
      </trkpt>
      <trkpt lat="47.42391" lon="6.6326">
        <ele>318.799988</ele>
        <time>2017-06-11T08:16:47Z</time>
      </trkpt>
      <trkpt lat="47.42394" lon="6.6326">
        <ele>318</ele>
        <time>2017-06-11T08:16:49Z</time>
      </trkpt>
      <trkpt lat="47.42398" lon="6.63262">
        <ele>317</ele>
        <time>2017-06-11T08:16:51Z</time>
      </trkpt>
      <trkpt lat="47.42399" lon="6.63264">
        <ele>317</ele>
        <time>2017-06-11T08:16:52Z</time>
      </trkpt>
      <trkpt lat="47.42403" lon="6.63265">
        <ele>316.200012</ele>
        <time>2017-06-11T08:16:55Z</time>
      </trkpt>
      <trkpt lat="47.42404" lon="6.63268">
        <ele>315.399994</ele>
        <time>2017-06-11T08:16:56Z</time>
      </trkpt>
      <trkpt lat="47.42405" lon="6.63271">
        <ele>315</ele>
        <time>2017-06-11T08:16:57Z</time>
      </trkpt>
      <trkpt lat="47.42404" lon="6.63275">
        <ele>315</ele>
        <time>2017-06-11T08:16:58Z</time>
      </trkpt>
      <trkpt lat="47.42405" lon="6.63287">
        <ele>315</ele>
        <time>2017-06-11T08:17:02Z</time>
      </trkpt>
      <trkpt lat="47.42404" lon="6.63309">
        <ele>315</ele>
        <time>2017-06-11T08:17:08Z</time>
      </trkpt>
      <trkpt lat="47.42401" lon="6.6332">
        <ele>315</ele>
        <time>2017-06-11T08:17:11Z</time>
      </trkpt>
      <trkpt lat="47.42399" lon="6.63323">
        <ele>315</ele>
        <time>2017-06-11T08:17:12Z</time>
      </trkpt>
      <trkpt lat="47.42395" lon="6.63343">
        <ele>315</ele>
        <time>2017-06-11T08:17:17Z</time>
      </trkpt>
      <trkpt lat="47.42394" lon="6.63352">
        <ele>315.399994</ele>
        <time>2017-06-11T08:17:19Z</time>
      </trkpt>
      <trkpt lat="47.42391" lon="6.63367">
        <ele>317</ele>
        <time>2017-06-11T08:17:22Z</time>
      </trkpt>
      <trkpt lat="47.42385" lon="6.63392">
        <ele>317</ele>
        <time>2017-06-11T08:17:28Z</time>
      </trkpt>
      <trkpt lat="47.4238" lon="6.63416">
        <ele>317</ele>
        <time>2017-06-11T08:17:34Z</time>
      </trkpt>
      <trkpt lat="47.42384" lon="6.63439">
        <ele>317</ele>
        <time>2017-06-11T08:17:40Z</time>
      </trkpt>
      <trkpt lat="47.42386" lon="6.63455">
        <ele>317</ele>
        <time>2017-06-11T08:17:44Z</time>
      </trkpt>
      <trkpt lat="47.42387" lon="6.63457">
        <ele>317</ele>
        <time>2017-06-11T08:17:46Z</time>
      </trkpt>
      <trkpt lat="47.42387" lon="6.6346">
        <ele>317</ele>
        <time>2017-06-11T08:17:48Z</time>
      </trkpt>
      <trkpt lat="47.42385" lon="6.63466">
        <ele>317</ele>
        <time>2017-06-11T08:17:51Z</time>
      </trkpt>
      <trkpt lat="47.42384" lon="6.63469">
        <ele>317</ele>
        <time>2017-06-11T08:17:53Z</time>
      </trkpt>
      <trkpt lat="47.42383" lon="6.63471">
        <ele>317.399994</ele>
        <time>2017-06-11T08:17:54Z</time>
      </trkpt>
      <trkpt lat="47.42382" lon="6.63472">
        <ele>317.799988</ele>
        <time>2017-06-11T08:17:55Z</time>
      </trkpt>
      <trkpt lat="47.42382" lon="6.63473">
        <ele>318.200012</ele>
        <time>2017-06-11T08:17:56Z</time>
      </trkpt>
      <trkpt lat="47.42381" lon="6.63476">
        <ele>319</ele>
        <time>2017-06-11T08:17:58Z</time>
      </trkpt>
      <trkpt lat="47.42376" lon="6.63488">
        <ele>319</ele>
        <time>2017-06-11T08:18:03Z</time>
      </trkpt>
      <trkpt lat="47.42372" lon="6.63503">
        <ele>319</ele>
        <time>2017-06-11T08:18:07Z</time>
      </trkpt>
      <trkpt lat="47.42369" lon="6.6352">
        <ele>319</ele>
        <time>2017-06-11T08:18:13Z</time>
      </trkpt>
      <trkpt lat="47.42362" lon="6.63541">
        <ele>319</ele>
        <time>2017-06-11T08:18:22Z</time>
      </trkpt>
      <trkpt lat="47.42353" lon="6.63559">
        <ele>319.399994</ele>
        <time>2017-06-11T08:18:27Z</time>
      </trkpt>
      <trkpt lat="47.42351" lon="6.63562">
        <ele>319.799988</ele>
        <time>2017-06-11T08:18:28Z</time>
      </trkpt>
      <trkpt lat="47.4235" lon="6.63565">
        <ele>320.200012</ele>
        <time>2017-06-11T08:18:29Z</time>
      </trkpt>
      <trkpt lat="47.42346" lon="6.63571">
        <ele>321</ele>
        <time>2017-06-11T08:18:31Z</time>
      </trkpt>
      <trkpt lat="47.4234" lon="6.63581">
        <ele>321</ele>
        <time>2017-06-11T08:18:35Z</time>
      </trkpt>
      <trkpt lat="47.42338" lon="6.63595">
        <ele>321</ele>
        <time>2017-06-11T08:18:39Z</time>
      </trkpt>
      <trkpt lat="47.42334" lon="6.63611">
        <ele>321</ele>
        <time>2017-06-11T08:18:43Z</time>
      </trkpt>
      <trkpt lat="47.42334" lon="6.63613">
        <ele>321</ele>
        <time>2017-06-11T08:18:44Z</time>
      </trkpt>
      <trkpt lat="47.42332" lon="6.63616">
        <ele>321.399994</ele>
        <time>2017-06-11T08:18:46Z</time>
      </trkpt>
      <trkpt lat="47.4233" lon="6.63624">
        <ele>322.600006</ele>
        <time>2017-06-11T08:18:49Z</time>
      </trkpt>
      <trkpt lat="47.4233" lon="6.63628">
        <ele>323</ele>
        <time>2017-06-11T08:18:50Z</time>
      </trkpt>
      <trkpt lat="47.42328" lon="6.63634">
        <ele>323</ele>
        <time>2017-06-11T08:18:52Z</time>
      </trkpt>
      <trkpt lat="47.42324" lon="6.63639">
        <ele>323</ele>
        <time>2017-06-11T08:18:54Z</time>
      </trkpt>
      <trkpt lat="47.42322" lon="6.63642">
        <ele>323</ele>
        <time>2017-06-11T08:18:56Z</time>
      </trkpt>
      <trkpt lat="47.4232" lon="6.63647">
        <ele>323</ele>
        <time>2017-06-11T08:18:58Z</time>
      </trkpt>
      <trkpt lat="47.42319" lon="6.63663">
        <ele>323</ele>
        <time>2017-06-11T08:19:03Z</time>
      </trkpt>
      <trkpt lat="47.42318" lon="6.63677">
        <ele>323</ele>
        <time>2017-06-11T08:19:09Z</time>
      </trkpt>
      <trkpt lat="47.42314" lon="6.6369">
        <ele>323</ele>
        <time>2017-06-11T08:19:15Z</time>
      </trkpt>
      <trkpt lat="47.42315" lon="6.63698">
        <ele>323</ele>
        <time>2017-06-11T08:19:20Z</time>
      </trkpt>
      <trkpt lat="47.42315" lon="6.637">
        <ele>323.399994</ele>
        <time>2017-06-11T08:19:22Z</time>
      </trkpt>
      <trkpt lat="47.42315" lon="6.63702">
        <ele>323.799988</ele>
        <time>2017-06-11T08:19:23Z</time>
      </trkpt>
      <trkpt lat="47.42317" lon="6.63706">
        <ele>324.600006</ele>
        <time>2017-06-11T08:19:24Z</time>
      </trkpt>
      <trkpt lat="47.4232" lon="6.63716">
        <ele>325</ele>
        <time>2017-06-11T08:19:26Z</time>
      </trkpt>
      <trkpt lat="47.42329" lon="6.63738">
        <ele>325.399994</ele>
        <time>2017-06-11T08:19:32Z</time>
      </trkpt>
      <trkpt lat="47.42331" lon="6.6375">
        <ele>326.399994</ele>
        <time>2017-06-11T08:19:34Z</time>
      </trkpt>
      <trkpt lat="47.42331" lon="6.63755">
        <ele>326.799988</ele>
        <time>2017-06-11T08:19:35Z</time>
      </trkpt>
      <trkpt lat="47.42333" lon="6.6376">
        <ele>327.200012</ele>
        <time>2017-06-11T08:19:36Z</time>
      </trkpt>
      <trkpt lat="47.42333" lon="6.63772">
        <ele>327.600006</ele>
        <time>2017-06-11T08:19:39Z</time>
      </trkpt>
      <trkpt lat="47.42334" lon="6.63776">
        <ele>328.200012</ele>
        <time>2017-06-11T08:19:40Z</time>
      </trkpt>
      <trkpt lat="47.42335" lon="6.63779">
        <ele>328.600006</ele>
        <time>2017-06-11T08:19:41Z</time>
      </trkpt>
      <trkpt lat="47.42337" lon="6.63781">
        <ele>329.399994</ele>
        <time>2017-06-11T08:19:43Z</time>
      </trkpt>
      <trkpt lat="47.4234" lon="6.63788">
        <ele>329.399994</ele>
        <time>2017-06-11T08:19:47Z</time>
      </trkpt>
      <trkpt lat="47.42347" lon="6.6379">
        <ele>329.399994</ele>
        <time>2017-06-11T08:20:10Z</time>
      </trkpt>
      <trkpt lat="47.42351" lon="6.63789">
        <ele>329.399994</ele>
        <time>2017-06-11T08:20:12Z</time>
      </trkpt>
      <trkpt lat="47.42353" lon="6.6379">
        <ele>330.200012</ele>
        <time>2017-06-11T08:20:13Z</time>
      </trkpt>
      <trkpt lat="47.42354" lon="6.63792">
        <ele>330.600006</ele>
        <time>2017-06-11T08:20:14Z</time>
      </trkpt>
      <trkpt lat="47.42358" lon="6.63795">
        <ele>331.399994</ele>
        <time>2017-06-11T08:20:17Z</time>
      </trkpt>
      <trkpt lat="47.42366" lon="6.63801">
        <ele>333.399994</ele>
        <time>2017-06-11T08:20:22Z</time>
      </trkpt>
      <trkpt lat="47.42369" lon="6.63805">
        <ele>334.799988</ele>
        <time>2017-06-11T08:20:26Z</time>
      </trkpt>
      <trkpt lat="47.42373" lon="6.63808">
        <ele>335.799988</ele>
        <time>2017-06-11T08:20:28Z</time>
      </trkpt>
      <trkpt lat="47.42375" lon="6.63808">
        <ele>336.200012</ele>
        <time>2017-06-11T08:20:29Z</time>
      </trkpt>
      <trkpt lat="47.42376" lon="6.63809">
        <ele>336.799988</ele>
        <time>2017-06-11T08:20:30Z</time>
      </trkpt>
      <trkpt lat="47.4238" lon="6.63809">
        <ele>337.799988</ele>
        <time>2017-06-11T08:20:32Z</time>
      </trkpt>
      <trkpt lat="47.42386" lon="6.6381">
        <ele>337.799988</ele>
        <time>2017-06-11T08:20:36Z</time>
      </trkpt>
      <trkpt lat="47.42393" lon="6.63816">
        <ele>340</ele>
        <time>2017-06-11T08:20:46Z</time>
      </trkpt>
      <trkpt lat="47.42394" lon="6.63818">
        <ele>340</ele>
        <time>2017-06-11T08:20:47Z</time>
      </trkpt>
      <trkpt lat="47.42394" lon="6.63819">
        <ele>340.399994</ele>
        <time>2017-06-11T08:20:48Z</time>
      </trkpt>
      <trkpt lat="47.42396" lon="6.63822">
        <ele>341.200012</ele>
        <time>2017-06-11T08:20:50Z</time>
      </trkpt>
      <trkpt lat="47.424" lon="6.63824">
        <ele>342.200012</ele>
        <time>2017-06-11T08:20:52Z</time>
      </trkpt>
      <trkpt lat="47.42406" lon="6.63825">
        <ele>342.200012</ele>
        <time>2017-06-11T08:20:55Z</time>
      </trkpt>
      <trkpt lat="47.4241" lon="6.63828">
        <ele>342.200012</ele>
        <time>2017-06-11T08:20:57Z</time>
      </trkpt>
      <trkpt lat="47.42411" lon="6.6383">
        <ele>342.200012</ele>
        <time>2017-06-11T08:20:58Z</time>
      </trkpt>
      <trkpt lat="47.42421" lon="6.63839">
        <ele>342.200012</ele>
        <time>2017-06-11T08:21:03Z</time>
      </trkpt>
      <trkpt lat="47.42423" lon="6.63842">
        <ele>342.200012</ele>
        <time>2017-06-11T08:21:04Z</time>
      </trkpt>
      <trkpt lat="47.42433" lon="6.63851">
        <ele>342.200012</ele>
        <time>2017-06-11T08:21:08Z</time>
      </trkpt>
      <trkpt lat="47.42437" lon="6.63856">
        <ele>342.200012</ele>
        <time>2017-06-11T08:21:12Z</time>
      </trkpt>
      <trkpt lat="47.42451" lon="6.63869">
        <ele>343.799988</ele>
        <time>2017-06-11T08:21:20Z</time>
      </trkpt>
      <trkpt lat="47.42453" lon="6.63871">
        <ele>344.200012</ele>
        <time>2017-06-11T08:21:21Z</time>
      </trkpt>
      <trkpt lat="47.42455" lon="6.63872">
        <ele>344.200012</ele>
        <time>2017-06-11T08:21:22Z</time>
      </trkpt>
      <trkpt lat="47.42468" lon="6.63886">
        <ele>344.200012</ele>
        <time>2017-06-11T08:21:30Z</time>
      </trkpt>
      <trkpt lat="47.42472" lon="6.63893">
        <ele>344.200012</ele>
        <time>2017-06-11T08:21:33Z</time>
      </trkpt>
      <trkpt lat="47.42479" lon="6.63899">
        <ele>344.200012</ele>
        <time>2017-06-11T08:21:38Z</time>
      </trkpt>
      <trkpt lat="47.42487" lon="6.63908">
        <ele>344.200012</ele>
        <time>2017-06-11T08:21:43Z</time>
      </trkpt>
      <trkpt lat="47.42491" lon="6.63911">
        <ele>344.600006</ele>
        <time>2017-06-11T08:21:45Z</time>
      </trkpt>
      <trkpt lat="47.42493" lon="6.63912">
        <ele>345</ele>
        <time>2017-06-11T08:21:46Z</time>
      </trkpt>
      <trkpt lat="47.42495" lon="6.63913">
        <ele>345.399994</ele>
        <time>2017-06-11T08:21:47Z</time>
      </trkpt>
      <trkpt lat="47.42497" lon="6.63916">
        <ele>345.799988</ele>
        <time>2017-06-11T08:21:48Z</time>
      </trkpt>
      <trkpt lat="47.42507" lon="6.63924">
        <ele>346.200012</ele>
        <time>2017-06-11T08:21:53Z</time>
      </trkpt>
      <trkpt lat="47.42527" lon="6.63948">
        <ele>346.200012</ele>
        <time>2017-06-11T08:22:04Z</time>
      </trkpt>
      <trkpt lat="47.42529" lon="6.63952">
        <ele>346.200012</ele>
        <time>2017-06-11T08:22:07Z</time>
      </trkpt>
      <trkpt lat="47.42536" lon="6.63958">
        <ele>346.200012</ele>
        <time>2017-06-11T08:22:52Z</time>
      </trkpt>
      <trkpt lat="47.42551" lon="6.63959">
        <ele>346.200012</ele>
        <time>2017-06-11T08:22:56Z</time>
      </trkpt>
      <trkpt lat="47.42557" lon="6.63959">
        <ele>345.200012</ele>
        <time>2017-06-11T08:22:58Z</time>
      </trkpt>
      <trkpt lat="47.4256" lon="6.63959">
        <ele>344.799988</ele>
        <time>2017-06-11T08:22:59Z</time>
      </trkpt>
      <trkpt lat="47.42564" lon="6.63964">
        <ele>343.799988</ele>
        <time>2017-06-11T08:23:01Z</time>
      </trkpt>
      <trkpt lat="47.42578" lon="6.63971">
        <ele>343.799988</ele>
        <time>2017-06-11T08:23:05Z</time>
      </trkpt>
      <trkpt lat="47.42583" lon="6.63976">
        <ele>343.799988</ele>
        <time>2017-06-11T08:23:08Z</time>
      </trkpt>
      <trkpt lat="47.42592" lon="6.63982">
        <ele>343.799988</ele>
        <time>2017-06-11T08:23:12Z</time>
      </trkpt>
      <trkpt lat="47.42613" lon="6.64">
        <ele>343.799988</ele>
        <time>2017-06-11T08:23:22Z</time>
      </trkpt>
      <trkpt lat="47.42628" lon="6.64011">
        <ele>343.799988</ele>
        <time>2017-06-11T08:23:28Z</time>
      </trkpt>
      <trkpt lat="47.42636" lon="6.64019">
        <ele>343.799988</ele>
        <time>2017-06-11T08:23:32Z</time>
      </trkpt>
      <trkpt lat="47.42649" lon="6.64028">
        <ele>343.799988</ele>
        <time>2017-06-11T08:23:37Z</time>
      </trkpt>
      <trkpt lat="47.42658" lon="6.64032">
        <ele>344.200012</ele>
        <time>2017-06-11T08:23:40Z</time>
      </trkpt>
      <trkpt lat="47.42661" lon="6.64034">
        <ele>344.600006</ele>
        <time>2017-06-11T08:23:41Z</time>
      </trkpt>
      <trkpt lat="47.42664" lon="6.64035">
        <ele>345.200012</ele>
        <time>2017-06-11T08:23:42Z</time>
      </trkpt>
      <trkpt lat="47.42669" lon="6.64036">
        <ele>346</ele>
        <time>2017-06-11T08:23:44Z</time>
      </trkpt>
      <trkpt lat="47.42675" lon="6.64039">
        <ele>346</ele>
        <time>2017-06-11T08:23:47Z</time>
      </trkpt>
      <trkpt lat="47.42695" lon="6.64049">
        <ele>346</ele>
        <time>2017-06-11T08:23:52Z</time>
      </trkpt>
      <trkpt lat="47.42705" lon="6.64053">
        <ele>346</ele>
        <time>2017-06-11T08:23:56Z</time>
      </trkpt>
      <trkpt lat="47.42724" lon="6.64062">
        <ele>346</ele>
        <time>2017-06-11T08:24:01Z</time>
      </trkpt>
      <trkpt lat="47.42737" lon="6.64066">
        <ele>346</ele>
        <time>2017-06-11T08:24:06Z</time>
      </trkpt>
      <trkpt lat="47.42751" lon="6.64073">
        <ele>346</ele>
        <time>2017-06-11T08:24:10Z</time>
      </trkpt>
      <trkpt lat="47.42757" lon="6.64077">
        <ele>345.600006</ele>
        <time>2017-06-11T08:24:12Z</time>
      </trkpt>
      <trkpt lat="47.4276" lon="6.64079">
        <ele>345.200012</ele>
        <time>2017-06-11T08:24:13Z</time>
      </trkpt>
      <trkpt lat="47.42762" lon="6.64081">
        <ele>344.799988</ele>
        <time>2017-06-11T08:24:14Z</time>
      </trkpt>
      <trkpt lat="47.42764" lon="6.64084">
        <ele>344.200012</ele>
        <time>2017-06-11T08:24:15Z</time>
      </trkpt>
      <trkpt lat="47.42766" lon="6.64086">
        <ele>343.799988</ele>
        <time>2017-06-11T08:24:16Z</time>
      </trkpt>
      <trkpt lat="47.42777" lon="6.64096">
        <ele>343.799988</ele>
        <time>2017-06-11T08:24:22Z</time>
      </trkpt>
      <trkpt lat="47.42784" lon="6.641">
        <ele>343.799988</ele>
        <time>2017-06-11T08:24:25Z</time>
      </trkpt>
      <trkpt lat="47.42791" lon="6.64099">
        <ele>343.799988</ele>
        <time>2017-06-11T08:24:29Z</time>
      </trkpt>
      <trkpt lat="47.42796" lon="6.64097">
        <ele>343.799988</ele>
        <time>2017-06-11T08:24:31Z</time>
      </trkpt>
      <trkpt lat="47.42799" lon="6.64099">
        <ele>343.799988</ele>
        <time>2017-06-11T08:24:32Z</time>
      </trkpt>
      <trkpt lat="47.42806" lon="6.64098">
        <ele>343.399994</ele>
        <time>2017-06-11T08:24:34Z</time>
      </trkpt>
      <trkpt lat="47.42809" lon="6.64096">
        <ele>343</ele>
        <time>2017-06-11T08:24:35Z</time>
      </trkpt>
      <trkpt lat="47.42812" lon="6.64093">
        <ele>342.600006</ele>
        <time>2017-06-11T08:24:36Z</time>
      </trkpt>
      <trkpt lat="47.42816" lon="6.64089">
        <ele>341.799988</ele>
        <time>2017-06-11T08:24:38Z</time>
      </trkpt>
      <trkpt lat="47.42817" lon="6.64086">
        <ele>341.200012</ele>
        <time>2017-06-11T08:24:39Z</time>
      </trkpt>
      <trkpt lat="47.42821" lon="6.64085">
        <ele>340.799988</ele>
        <time>2017-06-11T08:24:40Z</time>
      </trkpt>
      <trkpt lat="47.42823" lon="6.64083">
        <ele>340.399994</ele>
        <time>2017-06-11T08:24:41Z</time>
      </trkpt>
      <trkpt lat="47.42827" lon="6.64083">
        <ele>340</ele>
        <time>2017-06-11T08:24:42Z</time>
      </trkpt>
      <trkpt lat="47.4283" lon="6.64081">
        <ele>339.600006</ele>
        <time>2017-06-11T08:24:43Z</time>
      </trkpt>
      <trkpt lat="47.42841" lon="6.64075">
        <ele>337.600006</ele>
        <time>2017-06-11T08:24:46Z</time>
      </trkpt>
      <trkpt lat="47.42846" lon="6.64073">
        <ele>337.200012</ele>
        <time>2017-06-11T08:24:47Z</time>
      </trkpt>
      <trkpt lat="47.4285" lon="6.64069">
        <ele>336.799988</ele>
        <time>2017-06-11T08:24:48Z</time>
      </trkpt>
      <trkpt lat="47.42854" lon="6.64062">
        <ele>336</ele>
        <time>2017-06-11T08:24:50Z</time>
      </trkpt>
      <trkpt lat="47.42858" lon="6.6406">
        <ele>335.399994</ele>
        <time>2017-06-11T08:24:51Z</time>
      </trkpt>
      <trkpt lat="47.42861" lon="6.64056">
        <ele>335</ele>
        <time>2017-06-11T08:24:52Z</time>
      </trkpt>
      <trkpt lat="47.42867" lon="6.64052">
        <ele>334.600006</ele>
        <time>2017-06-11T08:24:54Z</time>
      </trkpt>
      <trkpt lat="47.4287" lon="6.64051">
        <ele>334</ele>
        <time>2017-06-11T08:24:55Z</time>
      </trkpt>
      <trkpt lat="47.42877" lon="6.64046">
        <ele>333.200012</ele>
        <time>2017-06-11T08:24:57Z</time>
      </trkpt>
      <trkpt lat="47.42881" lon="6.64044">
        <ele>332.600006</ele>
        <time>2017-06-11T08:24:58Z</time>
      </trkpt>
      <trkpt lat="47.4289" lon="6.64036">
        <ele>331.799988</ele>
        <time>2017-06-11T08:25:01Z</time>
      </trkpt>
      <trkpt lat="47.42893" lon="6.64033">
        <ele>331.399994</ele>
        <time>2017-06-11T08:25:02Z</time>
      </trkpt>
      <trkpt lat="47.42897" lon="6.64031">
        <ele>331</ele>
        <time>2017-06-11T08:25:03Z</time>
      </trkpt>
      <trkpt lat="47.429" lon="6.64029">
        <ele>330.600006</ele>
        <time>2017-06-11T08:25:04Z</time>
      </trkpt>
      <trkpt lat="47.42906" lon="6.64027">
        <ele>330.600006</ele>
        <time>2017-06-11T08:25:06Z</time>
      </trkpt>
      <trkpt lat="47.42914" lon="6.64022">
        <ele>330.600006</ele>
        <time>2017-06-11T08:25:10Z</time>
      </trkpt>
      <trkpt lat="47.42919" lon="6.64015">
        <ele>330.600006</ele>
        <time>2017-06-11T08:25:14Z</time>
      </trkpt>
      <trkpt lat="47.42926" lon="6.64007">
        <ele>331</ele>
        <time>2017-06-11T08:25:20Z</time>
      </trkpt>
      <trkpt lat="47.42928" lon="6.64005">
        <ele>331.399994</ele>
        <time>2017-06-11T08:25:21Z</time>
      </trkpt>
      <trkpt lat="47.42932" lon="6.64002">
        <ele>332.200012</ele>
        <time>2017-06-11T08:25:23Z</time>
      </trkpt>
      <trkpt lat="47.42938" lon="6.63996">
        <ele>332.600006</ele>
        <time>2017-06-11T08:25:25Z</time>
      </trkpt>
      <trkpt lat="47.42944" lon="6.63985">
        <ele>332.600006</ele>
        <time>2017-06-11T08:25:29Z</time>
      </trkpt>
      <trkpt lat="47.42947" lon="6.63977">
        <ele>332.600006</ele>
        <time>2017-06-11T08:25:31Z</time>
      </trkpt>
      <trkpt lat="47.4295" lon="6.63974">
        <ele>332.600006</ele>
        <time>2017-06-11T08:25:32Z</time>
      </trkpt>
      <trkpt lat="47.42958" lon="6.63973">
        <ele>332.600006</ele>
        <time>2017-06-11T08:25:34Z</time>
      </trkpt>
      <trkpt lat="47.42968" lon="6.63972">
        <ele>332.600006</ele>
        <time>2017-06-11T08:25:37Z</time>
      </trkpt>
      <trkpt lat="47.42975" lon="6.63973">
        <ele>332.600006</ele>
        <time>2017-06-11T08:25:39Z</time>
      </trkpt>
      <trkpt lat="47.42987" lon="6.63979">
        <ele>332.600006</ele>
        <time>2017-06-11T08:25:44Z</time>
      </trkpt>
      <trkpt lat="47.42989" lon="6.63981">
        <ele>332.600006</ele>
        <time>2017-06-11T08:25:45Z</time>
      </trkpt>
      <trkpt lat="47.42997" lon="6.63986">
        <ele>332.600006</ele>
        <time>2017-06-11T08:25:49Z</time>
      </trkpt>
      <trkpt lat="47.43004" lon="6.63994">
        <ele>332.600006</ele>
        <time>2017-06-11T08:25:59Z</time>
      </trkpt>
      <trkpt lat="47.43007" lon="6.64002">
        <ele>332.600006</ele>
        <time>2017-06-11T08:26:05Z</time>
      </trkpt>
      <trkpt lat="47.43016" lon="6.64013">
        <ele>332.600006</ele>
        <time>2017-06-11T08:26:10Z</time>
      </trkpt>
      <trkpt lat="47.43031" lon="6.64037">
        <ele>332.600006</ele>
        <time>2017-06-11T08:26:17Z</time>
      </trkpt>
      <trkpt lat="47.43039" lon="6.64042">
        <ele>332.600006</ele>
        <time>2017-06-11T08:26:20Z</time>
      </trkpt>
      <trkpt lat="47.43045" lon="6.64039">
        <ele>332.600006</ele>
        <time>2017-06-11T08:26:22Z</time>
      </trkpt>
      <trkpt lat="47.4305" lon="6.64033">
        <ele>332.600006</ele>
        <time>2017-06-11T08:26:24Z</time>
      </trkpt>
      <trkpt lat="47.43087" lon="6.63993">
        <ele>332.600006</ele>
        <time>2017-06-11T08:26:36Z</time>
      </trkpt>
      <trkpt lat="47.43105" lon="6.6397">
        <ele>332.600006</ele>
        <time>2017-06-11T08:26:42Z</time>
      </trkpt>
      <trkpt lat="47.43109" lon="6.63965">
        <ele>332.600006</ele>
        <time>2017-06-11T08:26:43Z</time>
      </trkpt>
      <trkpt lat="47.43121" lon="6.63948">
        <ele>331.200012</ele>
        <time>2017-06-11T08:26:46Z</time>
      </trkpt>
      <trkpt lat="47.4313" lon="6.63936">
        <ele>330.399994</ele>
        <time>2017-06-11T08:26:48Z</time>
      </trkpt>
      <trkpt lat="47.43136" lon="6.6393">
        <ele>330.399994</ele>
        <time>2017-06-11T08:26:49Z</time>
      </trkpt>
      <trkpt lat="47.43141" lon="6.63923">
        <ele>329.799988</ele>
        <time>2017-06-11T08:26:50Z</time>
      </trkpt>
      <trkpt lat="47.43152" lon="6.6391">
        <ele>329</ele>
        <time>2017-06-11T08:26:52Z</time>
      </trkpt>
      <trkpt lat="47.43159" lon="6.63903">
        <ele>328.399994</ele>
        <time>2017-06-11T08:26:53Z</time>
      </trkpt>
      <trkpt lat="47.43165" lon="6.63896">
        <ele>328</ele>
        <time>2017-06-11T08:26:54Z</time>
      </trkpt>
      <trkpt lat="47.43172" lon="6.63889">
        <ele>327.399994</ele>
        <time>2017-06-11T08:26:55Z</time>
      </trkpt>
      <trkpt lat="47.43187" lon="6.63875">
        <ele>326.399994</ele>
        <time>2017-06-11T08:26:57Z</time>
      </trkpt>
      <trkpt lat="47.43194" lon="6.63868">
        <ele>325.799988</ele>
        <time>2017-06-11T08:26:58Z</time>
      </trkpt>
      <trkpt lat="47.43202" lon="6.6386">
        <ele>325.200012</ele>
        <time>2017-06-11T08:26:59Z</time>
      </trkpt>
      <trkpt lat="47.43208" lon="6.63852">
        <ele>324.799988</ele>
        <time>2017-06-11T08:27:00Z</time>
      </trkpt>
      <trkpt lat="47.43214" lon="6.63842">
        <ele>324.200012</ele>
        <time>2017-06-11T08:27:01Z</time>
      </trkpt>
      <trkpt lat="47.43221" lon="6.63833">
        <ele>323.600006</ele>
        <time>2017-06-11T08:27:02Z</time>
      </trkpt>
      <trkpt lat="47.43226" lon="6.63823">
        <ele>323</ele>
        <time>2017-06-11T08:27:03Z</time>
      </trkpt>
      <trkpt lat="47.43239" lon="6.63802">
        <ele>322</ele>
        <time>2017-06-11T08:27:05Z</time>
      </trkpt>
      <trkpt lat="47.43252" lon="6.6378">
        <ele>320.799988</ele>
        <time>2017-06-11T08:27:07Z</time>
      </trkpt>
      <trkpt lat="47.43258" lon="6.63768">
        <ele>320.399994</ele>
        <time>2017-06-11T08:27:08Z</time>
      </trkpt>
      <trkpt lat="47.43268" lon="6.63743">
        <ele>318.799988</ele>
        <time>2017-06-11T08:27:10Z</time>
      </trkpt>
      <trkpt lat="47.43273" lon="6.6373">
        <ele>318</ele>
        <time>2017-06-11T08:27:11Z</time>
      </trkpt>
      <trkpt lat="47.43278" lon="6.63717">
        <ele>317.399994</ele>
        <time>2017-06-11T08:27:12Z</time>
      </trkpt>
      <trkpt lat="47.43284" lon="6.63705">
        <ele>316.799988</ele>
        <time>2017-06-11T08:27:13Z</time>
      </trkpt>
      <trkpt lat="47.4329" lon="6.63693">
        <ele>315.399994</ele>
        <time>2017-06-11T08:27:14Z</time>
      </trkpt>
      <trkpt lat="47.43296" lon="6.63683">
        <ele>314.799988</ele>
        <time>2017-06-11T08:27:15Z</time>
      </trkpt>
      <trkpt lat="47.43319" lon="6.63657">
        <ele>312.799988</ele>
        <time>2017-06-11T08:27:18Z</time>
      </trkpt>
      <trkpt lat="47.43326" lon="6.63646">
        <ele>312</ele>
        <time>2017-06-11T08:27:19Z</time>
      </trkpt>
      <trkpt lat="47.43331" lon="6.63635">
        <ele>311.600006</ele>
        <time>2017-06-11T08:27:20Z</time>
      </trkpt>
      <trkpt lat="47.43342" lon="6.63614">
        <ele>310.799988</ele>
        <time>2017-06-11T08:27:22Z</time>
      </trkpt>
      <trkpt lat="47.43348" lon="6.63604">
        <ele>310.399994</ele>
        <time>2017-06-11T08:27:23Z</time>
      </trkpt>
      <trkpt lat="47.43354" lon="6.63596">
        <ele>310</ele>
        <time>2017-06-11T08:27:24Z</time>
      </trkpt>
      <trkpt lat="47.43368" lon="6.63584">
        <ele>310</ele>
        <time>2017-06-11T08:27:26Z</time>
      </trkpt>
      <trkpt lat="47.43388" lon="6.63573">
        <ele>310</ele>
        <time>2017-06-11T08:27:29Z</time>
      </trkpt>
      <trkpt lat="47.43395" lon="6.63571">
        <ele>310</ele>
        <time>2017-06-11T08:27:30Z</time>
      </trkpt>
      <trkpt lat="47.43423" lon="6.63563">
        <ele>310</ele>
        <time>2017-06-11T08:27:35Z</time>
      </trkpt>
      <trkpt lat="47.43433" lon="6.63557">
        <ele>310</ele>
        <time>2017-06-11T08:27:37Z</time>
      </trkpt>
      <trkpt lat="47.43442" lon="6.63553">
        <ele>310</ele>
        <time>2017-06-11T08:27:39Z</time>
      </trkpt>
      <trkpt lat="47.4346" lon="6.63557">
        <ele>310</ele>
        <time>2017-06-11T08:27:44Z</time>
      </trkpt>
      <trkpt lat="47.43468" lon="6.63572">
        <ele>310</ele>
        <time>2017-06-11T08:27:48Z</time>
      </trkpt>
      <trkpt lat="47.43482" lon="6.63598">
        <ele>310</ele>
        <time>2017-06-11T08:27:55Z</time>
      </trkpt>
      <trkpt lat="47.43483" lon="6.63601">
        <ele>310.399994</ele>
        <time>2017-06-11T08:27:56Z</time>
      </trkpt>
      <trkpt lat="47.43485" lon="6.63604">
        <ele>310.799988</ele>
        <time>2017-06-11T08:27:57Z</time>
      </trkpt>
      <trkpt lat="47.43488" lon="6.6361">
        <ele>311.799988</ele>
        <time>2017-06-11T08:27:59Z</time>
      </trkpt>
      <trkpt lat="47.43491" lon="6.63615">
        <ele>312.200012</ele>
        <time>2017-06-11T08:28:01Z</time>
      </trkpt>
      <trkpt lat="47.43494" lon="6.63621">
        <ele>312.600006</ele>
        <time>2017-06-11T08:28:03Z</time>
      </trkpt>
      <trkpt lat="47.43503" lon="6.63635">
        <ele>314.200012</ele>
        <time>2017-06-11T08:28:08Z</time>
      </trkpt>
      <trkpt lat="47.43513" lon="6.63642">
        <ele>314.200012</ele>
        <time>2017-06-11T08:28:13Z</time>
      </trkpt>
      <trkpt lat="47.43515" lon="6.63643">
        <ele>314.600006</ele>
        <time>2017-06-11T08:28:14Z</time>
      </trkpt>
      <trkpt lat="47.43517" lon="6.63643">
        <ele>315.200012</ele>
        <time>2017-06-11T08:28:15Z</time>
      </trkpt>
      <trkpt lat="47.43521" lon="6.63645">
        <ele>316</ele>
        <time>2017-06-11T08:28:17Z</time>
      </trkpt>
      <trkpt lat="47.43523" lon="6.63647">
        <ele>316.399994</ele>
        <time>2017-06-11T08:28:18Z</time>
      </trkpt>
      <trkpt lat="47.43537" lon="6.63658">
        <ele>318</ele>
        <time>2017-06-11T08:28:25Z</time>
      </trkpt>
      <trkpt lat="47.43538" lon="6.6366">
        <ele>318.399994</ele>
        <time>2017-06-11T08:28:26Z</time>
      </trkpt>
      <trkpt lat="47.43541" lon="6.63663">
        <ele>318.399994</ele>
        <time>2017-06-11T08:28:28Z</time>
      </trkpt>
      <trkpt lat="47.43543" lon="6.63666">
        <ele>318.799988</ele>
        <time>2017-06-11T08:28:29Z</time>
      </trkpt>
      <trkpt lat="47.43546" lon="6.63668">
        <ele>319.200012</ele>
        <time>2017-06-11T08:28:30Z</time>
      </trkpt>
      <trkpt lat="47.43551" lon="6.6367">
        <ele>320</ele>
        <time>2017-06-11T08:28:32Z</time>
      </trkpt>
      <trkpt lat="47.43566" lon="6.63684">
        <ele>320.799988</ele>
        <time>2017-06-11T08:28:38Z</time>
      </trkpt>
      <trkpt lat="47.43569" lon="6.63685">
        <ele>321.200012</ele>
        <time>2017-06-11T08:28:39Z</time>
      </trkpt>
      <trkpt lat="47.43574" lon="6.63689">
        <ele>322</ele>
        <time>2017-06-11T08:28:41Z</time>
      </trkpt>
      <trkpt lat="47.43585" lon="6.63698">
        <ele>322.399994</ele>
        <time>2017-06-11T08:28:45Z</time>
      </trkpt>
      <trkpt lat="47.43596" lon="6.63706">
        <ele>322.799988</ele>
        <time>2017-06-11T08:28:49Z</time>
      </trkpt>
      <trkpt lat="47.43598" lon="6.63708">
        <ele>323.200012</ele>
        <time>2017-06-11T08:28:50Z</time>
      </trkpt>
      <trkpt lat="47.43604" lon="6.63712">
        <ele>324</ele>
        <time>2017-06-11T08:28:52Z</time>
      </trkpt>
      <trkpt lat="47.43607" lon="6.63714">
        <ele>324.399994</ele>
        <time>2017-06-11T08:28:53Z</time>
      </trkpt>
      <trkpt lat="47.43625" lon="6.63721">
        <ele>324.399994</ele>
        <time>2017-06-11T08:28:59Z</time>
      </trkpt>
      <trkpt lat="47.43643" lon="6.63726">
        <ele>325.399994</ele>
        <time>2017-06-11T08:29:05Z</time>
      </trkpt>
      <trkpt lat="47.43646" lon="6.63727">
        <ele>325.799988</ele>
        <time>2017-06-11T08:29:06Z</time>
      </trkpt>
      <trkpt lat="47.43651" lon="6.6373">
        <ele>326.600006</ele>
        <time>2017-06-11T08:29:08Z</time>
      </trkpt>
      <trkpt lat="47.43669" lon="6.63748">
        <ele>327</ele>
        <time>2017-06-11T08:29:15Z</time>
      </trkpt>
      <trkpt lat="47.43674" lon="6.63755">
        <ele>328.399994</ele>
        <time>2017-06-11T08:29:17Z</time>
      </trkpt>
      <trkpt lat="47.43676" lon="6.63758">
        <ele>328.799988</ele>
        <time>2017-06-11T08:29:18Z</time>
      </trkpt>
      <trkpt lat="47.43697" lon="6.63785">
        <ele>329.200012</ele>
        <time>2017-06-11T08:29:27Z</time>
      </trkpt>
      <trkpt lat="47.43702" lon="6.6379">
        <ele>330</ele>
        <time>2017-06-11T08:29:29Z</time>
      </trkpt>
      <trkpt lat="47.43706" lon="6.63797">
        <ele>330.799988</ele>
        <time>2017-06-11T08:29:31Z</time>
      </trkpt>
      <trkpt lat="47.43721" lon="6.63815">
        <ele>331.200012</ele>
        <time>2017-06-11T08:29:37Z</time>
      </trkpt>
      <trkpt lat="47.43726" lon="6.63821">
        <ele>332</ele>
        <time>2017-06-11T08:29:39Z</time>
      </trkpt>
      <trkpt lat="47.4374" lon="6.6384">
        <ele>332.799988</ele>
        <time>2017-06-11T08:29:44Z</time>
      </trkpt>
      <trkpt lat="47.43749" lon="6.63851">
        <ele>332.799988</ele>
        <time>2017-06-11T08:29:47Z</time>
      </trkpt>
      <trkpt lat="47.43762" lon="6.63868">
        <ele>332.799988</ele>
        <time>2017-06-11T08:29:51Z</time>
      </trkpt>
      <trkpt lat="47.43775" lon="6.63884">
        <ele>332.799988</ele>
        <time>2017-06-11T08:29:55Z</time>
      </trkpt>
      <trkpt lat="47.43782" lon="6.63892">
        <ele>332.799988</ele>
        <time>2017-06-11T08:29:57Z</time>
      </trkpt>
      <trkpt lat="47.43786" lon="6.63896">
        <ele>332.799988</ele>
        <time>2017-06-11T08:29:58Z</time>
      </trkpt>
      <trkpt lat="47.43854" lon="6.63982">
        <ele>332.799988</ele>
        <time>2017-06-11T08:30:18Z</time>
      </trkpt>
      <trkpt lat="47.43904" lon="6.64045">
        <ele>332.799988</ele>
        <time>2017-06-11T08:30:33Z</time>
      </trkpt>
      <trkpt lat="47.43919" lon="6.64062">
        <ele>332.799988</ele>
        <time>2017-06-11T08:30:37Z</time>
      </trkpt>
      <trkpt lat="47.43933" lon="6.64074">
        <ele>332.799988</ele>
        <time>2017-06-11T08:30:41Z</time>
      </trkpt>
      <trkpt lat="47.43945" lon="6.64084">
        <ele>332.799988</ele>
        <time>2017-06-11T08:30:44Z</time>
      </trkpt>
      <trkpt lat="47.43953" lon="6.64094">
        <ele>332.799988</ele>
        <time>2017-06-11T08:30:46Z</time>
      </trkpt>
      <trkpt lat="47.43965" lon="6.64115">
        <ele>332.799988</ele>
        <time>2017-06-11T08:30:50Z</time>
      </trkpt>
      <trkpt lat="47.43971" lon="6.64126">
        <ele>332.799988</ele>
        <time>2017-06-11T08:30:52Z</time>
      </trkpt>
      <trkpt lat="47.43981" lon="6.64148">
        <ele>332.799988</ele>
        <time>2017-06-11T08:30:56Z</time>
      </trkpt>
      <trkpt lat="47.43999" lon="6.64196">
        <ele>332.799988</ele>
        <time>2017-06-11T08:31:03Z</time>
      </trkpt>
      <trkpt lat="47.44003" lon="6.64211">
        <ele>332.399994</ele>
        <time>2017-06-11T08:31:05Z</time>
      </trkpt>
      <trkpt lat="47.44006" lon="6.64225">
        <ele>331.600006</ele>
        <time>2017-06-11T08:31:07Z</time>
      </trkpt>
      <trkpt lat="47.44009" lon="6.64238">
        <ele>330.600006</ele>
        <time>2017-06-11T08:31:09Z</time>
      </trkpt>
      <trkpt lat="47.44019" lon="6.64303">
        <ele>331</ele>
        <time>2017-06-11T08:31:19Z</time>
      </trkpt>
      <trkpt lat="47.4402" lon="6.64323">
        <ele>332.600006</ele>
        <time>2017-06-11T08:31:22Z</time>
      </trkpt>
      <trkpt lat="47.44023" lon="6.64358">
        <ele>332.600006</ele>
        <time>2017-06-11T08:31:27Z</time>
      </trkpt>
      <trkpt lat="47.44026" lon="6.644">
        <ele>332.600006</ele>
        <time>2017-06-11T08:31:33Z</time>
      </trkpt>
      <trkpt lat="47.44028" lon="6.64451">
        <ele>332.600006</ele>
        <time>2017-06-11T08:31:40Z</time>
      </trkpt>
      <trkpt lat="47.44034" lon="6.645">
        <ele>332.600006</ele>
        <time>2017-06-11T08:31:47Z</time>
      </trkpt>
      <trkpt lat="47.44038" lon="6.64549">
        <ele>332.600006</ele>
        <time>2017-06-11T08:31:54Z</time>
      </trkpt>
      <trkpt lat="47.44043" lon="6.64583">
        <ele>332.600006</ele>
        <time>2017-06-11T08:31:59Z</time>
      </trkpt>
      <trkpt lat="47.44043" lon="6.6459">
        <ele>333</ele>
        <time>2017-06-11T08:32:00Z</time>
      </trkpt>
      <trkpt lat="47.44043" lon="6.64597">
        <ele>333.399994</ele>
        <time>2017-06-11T08:32:01Z</time>
      </trkpt>
      <trkpt lat="47.44042" lon="6.64604">
        <ele>333.799988</ele>
        <time>2017-06-11T08:32:02Z</time>
      </trkpt>
      <trkpt lat="47.44041" lon="6.6461">
        <ele>334.200012</ele>
        <time>2017-06-11T08:32:03Z</time>
      </trkpt>
      <trkpt lat="47.44039" lon="6.64617">
        <ele>334.600006</ele>
        <time>2017-06-11T08:32:04Z</time>
      </trkpt>
      <trkpt lat="47.44027" lon="6.64648">
        <ele>334.600006</ele>
        <time>2017-06-11T08:32:09Z</time>
      </trkpt>
      <trkpt lat="47.44008" lon="6.64685">
        <ele>334.600006</ele>
        <time>2017-06-11T08:32:16Z</time>
      </trkpt>
      <trkpt lat="47.43978" lon="6.64727">
        <ele>336.799988</ele>
        <time>2017-06-11T08:32:27Z</time>
      </trkpt>
      <trkpt lat="47.43962" lon="6.64745">
        <ele>338.200012</ele>
        <time>2017-06-11T08:32:34Z</time>
      </trkpt>
      <trkpt lat="47.43958" lon="6.64749">
        <ele>339</ele>
        <time>2017-06-11T08:32:36Z</time>
      </trkpt>
      <trkpt lat="47.43946" lon="6.64761">
        <ele>339.399994</ele>
        <time>2017-06-11T08:32:41Z</time>
      </trkpt>
      <trkpt lat="47.43938" lon="6.64771">
        <ele>340.799988</ele>
        <time>2017-06-11T08:32:44Z</time>
      </trkpt>
      <trkpt lat="47.43929" lon="6.6478">
        <ele>341.200012</ele>
        <time>2017-06-11T08:32:48Z</time>
      </trkpt>
      <trkpt lat="47.43917" lon="6.64795">
        <ele>342.399994</ele>
        <time>2017-06-11T08:32:53Z</time>
      </trkpt>
      <trkpt lat="47.43914" lon="6.64798">
        <ele>342.799988</ele>
        <time>2017-06-11T08:32:54Z</time>
      </trkpt>
      <trkpt lat="47.43911" lon="6.648">
        <ele>343.200012</ele>
        <time>2017-06-11T08:32:55Z</time>
      </trkpt>
      <trkpt lat="47.43897" lon="6.64815">
        <ele>343.600006</ele>
        <time>2017-06-11T08:33:00Z</time>
      </trkpt>
      <trkpt lat="47.43893" lon="6.64818">
        <ele>344</ele>
        <time>2017-06-11T08:33:01Z</time>
      </trkpt>
      <trkpt lat="47.43882" lon="6.64826">
        <ele>345.200012</ele>
        <time>2017-06-11T08:33:04Z</time>
      </trkpt>
      <trkpt lat="47.43874" lon="6.6483">
        <ele>345.200012</ele>
        <time>2017-06-11T08:33:06Z</time>
      </trkpt>
      <trkpt lat="47.43846" lon="6.64842">
        <ele>345.200012</ele>
        <time>2017-06-11T08:33:14Z</time>
      </trkpt>
      <trkpt lat="47.43829" lon="6.64845">
        <ele>345.600006</ele>
        <time>2017-06-11T08:33:19Z</time>
      </trkpt>
      <trkpt lat="47.43804" lon="6.64844">
        <ele>347.399994</ele>
        <time>2017-06-11T08:33:26Z</time>
      </trkpt>
      <trkpt lat="47.43784" lon="6.64843">
        <ele>347.799988</ele>
        <time>2017-06-11T08:33:32Z</time>
      </trkpt>
      <trkpt lat="47.43777" lon="6.64841">
        <ele>348.600006</ele>
        <time>2017-06-11T08:33:34Z</time>
      </trkpt>
      <trkpt lat="47.4377" lon="6.64839">
        <ele>349.399994</ele>
        <time>2017-06-11T08:33:36Z</time>
      </trkpt>
      <trkpt lat="47.43741" lon="6.6483">
        <ele>350.200012</ele>
        <time>2017-06-11T08:33:45Z</time>
      </trkpt>
      <trkpt lat="47.43734" lon="6.64829">
        <ele>351</ele>
        <time>2017-06-11T08:33:47Z</time>
      </trkpt>
      <trkpt lat="47.43718" lon="6.64828">
        <ele>351.399994</ele>
        <time>2017-06-11T08:33:52Z</time>
      </trkpt>
      <trkpt lat="47.43705" lon="6.64826">
        <ele>352</ele>
        <time>2017-06-11T08:33:56Z</time>
      </trkpt>
      <trkpt lat="47.43695" lon="6.64825">
        <ele>353.200012</ele>
        <time>2017-06-11T08:33:59Z</time>
      </trkpt>
      <trkpt lat="47.43664" lon="6.6482">
        <ele>353.600006</ele>
        <time>2017-06-11T08:34:08Z</time>
      </trkpt>
      <trkpt lat="47.43637" lon="6.64821">
        <ele>355.799988</ele>
        <time>2017-06-11T08:34:16Z</time>
      </trkpt>
      <trkpt lat="47.4362" lon="6.64823">
        <ele>355.799988</ele>
        <time>2017-06-11T08:34:21Z</time>
      </trkpt>
      <trkpt lat="47.43595" lon="6.64828">
        <ele>356.200012</ele>
        <time>2017-06-11T08:34:28Z</time>
      </trkpt>
      <trkpt lat="47.43548" lon="6.6484">
        <ele>358</ele>
        <time>2017-06-11T08:34:41Z</time>
      </trkpt>
      <trkpt lat="47.43533" lon="6.64845">
        <ele>359.200012</ele>
        <time>2017-06-11T08:34:45Z</time>
      </trkpt>
      <trkpt lat="47.43526" lon="6.64847">
        <ele>360</ele>
        <time>2017-06-11T08:34:47Z</time>
      </trkpt>
      <trkpt lat="47.43482" lon="6.64855">
        <ele>360.399994</ele>
        <time>2017-06-11T08:34:59Z</time>
      </trkpt>
      <trkpt lat="47.43475" lon="6.64855">
        <ele>361.399994</ele>
        <time>2017-06-11T08:35:01Z</time>
      </trkpt>
      <trkpt lat="47.4346" lon="6.64857">
        <ele>362.200012</ele>
        <time>2017-06-11T08:35:05Z</time>
      </trkpt>
      <trkpt lat="47.4344" lon="6.64859">
        <ele>362.200012</ele>
        <time>2017-06-11T08:35:10Z</time>
      </trkpt>
      <trkpt lat="47.43419" lon="6.64857">
        <ele>363</ele>
        <time>2017-06-11T08:35:16Z</time>
      </trkpt>
      <trkpt lat="47.43411" lon="6.64853">
        <ele>364.200012</ele>
        <time>2017-06-11T08:35:19Z</time>
      </trkpt>
      <trkpt lat="47.43402" lon="6.64851">
        <ele>364.200012</ele>
        <time>2017-06-11T08:35:22Z</time>
      </trkpt>
      <trkpt lat="47.43379" lon="6.64841">
        <ele>364.200012</ele>
        <time>2017-06-11T08:35:28Z</time>
      </trkpt>
      <trkpt lat="47.43364" lon="6.64839">
        <ele>364.200012</ele>
        <time>2017-06-11T08:35:33Z</time>
      </trkpt>
      <trkpt lat="47.43362" lon="6.64838">
        <ele>364.200012</ele>
        <time>2017-06-11T08:35:34Z</time>
      </trkpt>
      <trkpt lat="47.4336" lon="6.64835">
        <ele>364.200012</ele>
        <time>2017-06-11T08:35:36Z</time>
      </trkpt>
      <trkpt lat="47.43358" lon="6.64833">
        <ele>364.799988</ele>
        <time>2017-06-11T08:35:37Z</time>
      </trkpt>
      <trkpt lat="47.43355" lon="6.64832">
        <ele>365.200012</ele>
        <time>2017-06-11T08:35:38Z</time>
      </trkpt>
      <trkpt lat="47.43352" lon="6.64831">
        <ele>365.600006</ele>
        <time>2017-06-11T08:35:39Z</time>
      </trkpt>
      <trkpt lat="47.43349" lon="6.64831">
        <ele>366.399994</ele>
        <time>2017-06-11T08:35:41Z</time>
      </trkpt>
      <trkpt lat="47.43333" lon="6.64829">
        <ele>366.399994</ele>
        <time>2017-06-11T08:35:47Z</time>
      </trkpt>
      <trkpt lat="47.4331" lon="6.64841">
        <ele>366.799988</ele>
        <time>2017-06-11T08:35:49Z</time>
      </trkpt>
      <trkpt lat="47.43306" lon="6.64842">
        <ele>367.399994</ele>
        <time>2017-06-11T08:35:50Z</time>
      </trkpt>
      <trkpt lat="47.43302" lon="6.64843">
        <ele>367.799988</ele>
        <time>2017-06-11T08:35:51Z</time>
      </trkpt>
      <trkpt lat="47.43294" lon="6.64844">
        <ele>368.600006</ele>
        <time>2017-06-11T08:35:53Z</time>
      </trkpt>
      <trkpt lat="47.43285" lon="6.64843">
        <ele>368.600006</ele>
        <time>2017-06-11T08:35:56Z</time>
      </trkpt>
      <trkpt lat="47.43283" lon="6.64842">
        <ele>369</ele>
        <time>2017-06-11T08:35:57Z</time>
      </trkpt>
      <trkpt lat="47.43282" lon="6.64841">
        <ele>369.399994</ele>
        <time>2017-06-11T08:35:58Z</time>
      </trkpt>
      <trkpt lat="47.43281" lon="6.64839">
        <ele>370.399994</ele>
        <time>2017-06-11T08:36:00Z</time>
      </trkpt>
      <trkpt lat="47.43279" lon="6.64836">
        <ele>370.799988</ele>
        <time>2017-06-11T08:36:01Z</time>
      </trkpt>
      <trkpt lat="47.43273" lon="6.64833">
        <ele>370.799988</ele>
        <time>2017-06-11T08:36:04Z</time>
      </trkpt>
      <trkpt lat="47.43266" lon="6.64832">
        <ele>371.200012</ele>
        <time>2017-06-11T08:36:07Z</time>
      </trkpt>
      <trkpt lat="47.43262" lon="6.6483">
        <ele>372.200012</ele>
        <time>2017-06-11T08:36:09Z</time>
      </trkpt>
      <trkpt lat="47.43259" lon="6.6483">
        <ele>373</ele>
        <time>2017-06-11T08:36:11Z</time>
      </trkpt>
      <trkpt lat="47.43255" lon="6.64828">
        <ele>373</ele>
        <time>2017-06-11T08:36:14Z</time>
      </trkpt>
      <trkpt lat="47.43253" lon="6.64828">
        <ele>373.399994</ele>
        <time>2017-06-11T08:36:16Z</time>
      </trkpt>
      <trkpt lat="47.43251" lon="6.64828">
        <ele>374.200012</ele>
        <time>2017-06-11T08:36:17Z</time>
      </trkpt>
      <trkpt lat="47.43241" lon="6.64836">
        <ele>375.399994</ele>
        <time>2017-06-11T08:36:23Z</time>
      </trkpt>
      <trkpt lat="47.43235" lon="6.64838">
        <ele>376.399994</ele>
        <time>2017-06-11T08:36:25Z</time>
      </trkpt>
      <trkpt lat="47.43232" lon="6.64839">
        <ele>376.799988</ele>
        <time>2017-06-11T08:36:26Z</time>
      </trkpt>
      <trkpt lat="47.43229" lon="6.64838">
        <ele>377.200012</ele>
        <time>2017-06-11T08:36:27Z</time>
      </trkpt>
      <trkpt lat="47.43215" lon="6.64838">
        <ele>377.600006</ele>
        <time>2017-06-11T08:36:32Z</time>
      </trkpt>
      <trkpt lat="47.43213" lon="6.64837">
        <ele>378</ele>
        <time>2017-06-11T08:36:33Z</time>
      </trkpt>
      <trkpt lat="47.43211" lon="6.64836">
        <ele>378.399994</ele>
        <time>2017-06-11T08:36:34Z</time>
      </trkpt>
      <trkpt lat="47.43205" lon="6.64829">
        <ele>379.200012</ele>
        <time>2017-06-11T08:36:37Z</time>
      </trkpt>
      <trkpt lat="47.43193" lon="6.64818">
        <ele>379.600006</ele>
        <time>2017-06-11T08:36:43Z</time>
      </trkpt>
      <trkpt lat="47.4319" lon="6.64815">
        <ele>380</ele>
        <time>2017-06-11T08:36:44Z</time>
      </trkpt>
      <trkpt lat="47.43185" lon="6.64813">
        <ele>380.799988</ele>
        <time>2017-06-11T08:36:46Z</time>
      </trkpt>
      <trkpt lat="47.43183" lon="6.64811">
        <ele>381.200012</ele>
        <time>2017-06-11T08:36:47Z</time>
      </trkpt>
      <trkpt lat="47.43179" lon="6.64808">
        <ele>381.200012</ele>
        <time>2017-06-11T08:36:49Z</time>
      </trkpt>
      <trkpt lat="47.43166" lon="6.648">
        <ele>381.200012</ele>
        <time>2017-06-11T08:36:55Z</time>
      </trkpt>
      <trkpt lat="47.43157" lon="6.6479">
        <ele>382.200012</ele>
        <time>2017-06-11T08:37:00Z</time>
      </trkpt>
      <trkpt lat="47.43153" lon="6.64788">
        <ele>383</ele>
        <time>2017-06-11T08:37:02Z</time>
      </trkpt>
      <trkpt lat="47.43151" lon="6.64786">
        <ele>383.399994</ele>
        <time>2017-06-11T08:37:03Z</time>
      </trkpt>
      <trkpt lat="47.43147" lon="6.64781">
        <ele>383.399994</ele>
        <time>2017-06-11T08:37:05Z</time>
      </trkpt>
      <trkpt lat="47.43133" lon="6.64773">
        <ele>383.399994</ele>
        <time>2017-06-11T08:37:11Z</time>
      </trkpt>
      <trkpt lat="47.43123" lon="6.64764">
        <ele>385.600006</ele>
        <time>2017-06-11T08:37:16Z</time>
      </trkpt>
      <trkpt lat="47.43109" lon="6.6475">
        <ele>385.600006</ele>
        <time>2017-06-11T08:37:22Z</time>
      </trkpt>
      <trkpt lat="47.43106" lon="6.64747">
        <ele>386</ele>
        <time>2017-06-11T08:37:23Z</time>
      </trkpt>
      <trkpt lat="47.43103" lon="6.64745">
        <ele>386.399994</ele>
        <time>2017-06-11T08:37:24Z</time>
      </trkpt>
      <trkpt lat="47.43101" lon="6.64743">
        <ele>386.799988</ele>
        <time>2017-06-11T08:37:25Z</time>
      </trkpt>
      <trkpt lat="47.43096" lon="6.64738">
        <ele>387.600006</ele>
        <time>2017-06-11T08:37:27Z</time>
      </trkpt>
      <trkpt lat="47.43094" lon="6.64737">
        <ele>387.600006</ele>
        <time>2017-06-11T08:37:28Z</time>
      </trkpt>
      <trkpt lat="47.43084" lon="6.64728">
        <ele>387.600006</ele>
        <time>2017-06-11T08:37:32Z</time>
      </trkpt>
      <trkpt lat="47.43069" lon="6.64716">
        <ele>387.600006</ele>
        <time>2017-06-11T08:37:37Z</time>
      </trkpt>
      <trkpt lat="47.43057" lon="6.64711">
        <ele>388</ele>
        <time>2017-06-11T08:37:41Z</time>
      </trkpt>
      <trkpt lat="47.43052" lon="6.64708">
        <ele>388.799988</ele>
        <time>2017-06-11T08:37:43Z</time>
      </trkpt>
      <trkpt lat="47.43047" lon="6.64704">
        <ele>389.600006</ele>
        <time>2017-06-11T08:37:45Z</time>
      </trkpt>
      <trkpt lat="47.4304" lon="6.64697">
        <ele>389.600006</ele>
        <time>2017-06-11T08:37:48Z</time>
      </trkpt>
      <trkpt lat="47.43031" lon="6.64683">
        <ele>389.600006</ele>
        <time>2017-06-11T08:37:52Z</time>
      </trkpt>
      <trkpt lat="47.43019" lon="6.64669">
        <ele>389.200012</ele>
        <time>2017-06-11T08:37:56Z</time>
      </trkpt>
      <trkpt lat="47.43009" lon="6.64668">
        <ele>388.399994</ele>
        <time>2017-06-11T08:37:58Z</time>
      </trkpt>
      <trkpt lat="47.43003" lon="6.64666">
        <ele>388</ele>
        <time>2017-06-11T08:37:59Z</time>
      </trkpt>
      <trkpt lat="47.42997" lon="6.64664">
        <ele>387.600006</ele>
        <time>2017-06-11T08:38:00Z</time>
      </trkpt>
      <trkpt lat="47.42987" lon="6.64659">
        <ele>387.200012</ele>
        <time>2017-06-11T08:38:02Z</time>
      </trkpt>
      <trkpt lat="47.42981" lon="6.64658">
        <ele>386.799988</ele>
        <time>2017-06-11T08:38:03Z</time>
      </trkpt>
      <trkpt lat="47.42975" lon="6.64659">
        <ele>386.399994</ele>
        <time>2017-06-11T08:38:04Z</time>
      </trkpt>
      <trkpt lat="47.4297" lon="6.64663">
        <ele>386</ele>
        <time>2017-06-11T08:38:05Z</time>
      </trkpt>
      <trkpt lat="47.42967" lon="6.64669">
        <ele>385.399994</ele>
        <time>2017-06-11T08:38:06Z</time>
      </trkpt>
      <trkpt lat="47.42965" lon="6.64677">
        <ele>385</ele>
        <time>2017-06-11T08:38:07Z</time>
      </trkpt>
      <trkpt lat="47.42963" lon="6.64695">
        <ele>383.600006</ele>
        <time>2017-06-11T08:38:10Z</time>
      </trkpt>
      <trkpt lat="47.4296" lon="6.64705">
        <ele>383.200012</ele>
        <time>2017-06-11T08:38:12Z</time>
      </trkpt>
      <trkpt lat="47.42956" lon="6.64735">
        <ele>383.200012</ele>
        <time>2017-06-11T08:38:18Z</time>
      </trkpt>
      <trkpt lat="47.42953" lon="6.64749">
        <ele>383.200012</ele>
        <time>2017-06-11T08:38:21Z</time>
      </trkpt>
      <trkpt lat="47.42939" lon="6.64762">
        <ele>383.200012</ele>
        <time>2017-06-11T08:38:27Z</time>
      </trkpt>
      <trkpt lat="47.42924" lon="6.64777">
        <ele>383.200012</ele>
        <time>2017-06-11T08:38:32Z</time>
      </trkpt>
      <trkpt lat="47.4291" lon="6.64789">
        <ele>381.799988</ele>
        <time>2017-06-11T08:38:36Z</time>
      </trkpt>
      <trkpt lat="47.42906" lon="6.64791">
        <ele>381.399994</ele>
        <time>2017-06-11T08:38:37Z</time>
      </trkpt>
      <trkpt lat="47.42887" lon="6.64794">
        <ele>379.600006</ele>
        <time>2017-06-11T08:38:41Z</time>
      </trkpt>
      <trkpt lat="47.42882" lon="6.64797">
        <ele>379.200012</ele>
        <time>2017-06-11T08:38:42Z</time>
      </trkpt>
      <trkpt lat="47.42879" lon="6.64801">
        <ele>378.600006</ele>
        <time>2017-06-11T08:38:43Z</time>
      </trkpt>
      <trkpt lat="47.42877" lon="6.64805">
        <ele>377.399994</ele>
        <time>2017-06-11T08:38:44Z</time>
      </trkpt>
      <trkpt lat="47.42876" lon="6.6481">
        <ele>377</ele>
        <time>2017-06-11T08:38:45Z</time>
      </trkpt>
      <trkpt lat="47.42875" lon="6.64824">
        <ele>376.399994</ele>
        <time>2017-06-11T08:38:48Z</time>
      </trkpt>
      <trkpt lat="47.42873" lon="6.64852">
        <ele>376.399994</ele>
        <time>2017-06-11T08:38:54Z</time>
      </trkpt>
      <trkpt lat="47.42871" lon="6.64883">
        <ele>376.399994</ele>
        <time>2017-06-11T08:39:01Z</time>
      </trkpt>
      <trkpt lat="47.42868" lon="6.64905">
        <ele>376.399994</ele>
        <time>2017-06-11T08:39:06Z</time>
      </trkpt>
      <trkpt lat="47.42859" lon="6.64949">
        <ele>376.399994</ele>
        <time>2017-06-11T08:39:19Z</time>
      </trkpt>
      <trkpt lat="47.42859" lon="6.64953">
        <ele>377.200012</ele>
        <time>2017-06-11T08:39:21Z</time>
      </trkpt>
      <trkpt lat="47.42859" lon="6.64956">
        <ele>378</ele>
        <time>2017-06-11T08:39:23Z</time>
      </trkpt>
      <trkpt lat="47.42859" lon="6.64957">
        <ele>378.399994</ele>
        <time>2017-06-11T08:39:24Z</time>
      </trkpt>
      <trkpt lat="47.42862" lon="6.64958">
        <ele>378.399994</ele>
        <time>2017-06-11T08:39:26Z</time>
      </trkpt>
      <trkpt lat="47.42865" lon="6.64962">
        <ele>378.399994</ele>
        <time>2017-06-11T08:39:29Z</time>
      </trkpt>
      <trkpt lat="47.42867" lon="6.64964">
        <ele>378.399994</ele>
        <time>2017-06-11T08:39:31Z</time>
      </trkpt>
      <trkpt lat="47.42873" lon="6.64965">
        <ele>378.399994</ele>
        <time>2017-06-11T08:39:36Z</time>
      </trkpt>
      <trkpt lat="47.42874" lon="6.64965">
        <ele>378.399994</ele>
        <time>2017-06-11T08:39:37Z</time>
      </trkpt>
      <trkpt lat="47.42882" lon="6.64967">
        <ele>378.399994</ele>
        <time>2017-06-11T08:39:43Z</time>
      </trkpt>
      <trkpt lat="47.42887" lon="6.6497">
        <ele>378.399994</ele>
        <time>2017-06-11T08:39:47Z</time>
      </trkpt>
      <trkpt lat="47.42897" lon="6.64969">
        <ele>378.399994</ele>
        <time>2017-06-11T08:39:52Z</time>
      </trkpt>
      <trkpt lat="47.42904" lon="6.64972">
        <ele>378.399994</ele>
        <time>2017-06-11T08:39:57Z</time>
      </trkpt>
      <trkpt lat="47.42909" lon="6.64974">
        <ele>378.799988</ele>
        <time>2017-06-11T08:39:59Z</time>
      </trkpt>
      <trkpt lat="47.42913" lon="6.64974">
        <ele>379.600006</ele>
        <time>2017-06-11T08:40:01Z</time>
      </trkpt>
      <trkpt lat="47.42917" lon="6.64976">
        <ele>380.399994</ele>
        <time>2017-06-11T08:40:03Z</time>
      </trkpt>
      <trkpt lat="47.42926" lon="6.64978">
        <ele>380.399994</ele>
        <time>2017-06-11T08:40:08Z</time>
      </trkpt>
      <trkpt lat="47.42929" lon="6.64979">
        <ele>380.399994</ele>
        <time>2017-06-11T08:40:26Z</time>
      </trkpt>
      <trkpt lat="47.42934" lon="6.64983">
        <ele>380.399994</ele>
        <time>2017-06-11T08:40:28Z</time>
      </trkpt>
      <trkpt lat="47.4295" lon="6.65">
        <ele>380.399994</ele>
        <time>2017-06-11T08:40:33Z</time>
      </trkpt>
      <trkpt lat="47.42964" lon="6.65021">
        <ele>380.399994</ele>
        <time>2017-06-11T08:40:38Z</time>
      </trkpt>
      <trkpt lat="47.42977" lon="6.65045">
        <ele>380.399994</ele>
        <time>2017-06-11T08:40:43Z</time>
      </trkpt>
      <trkpt lat="47.42992" lon="6.65057">
        <ele>380.399994</ele>
        <time>2017-06-11T08:40:47Z</time>
      </trkpt>
      <trkpt lat="47.43016" lon="6.65072">
        <ele>380.399994</ele>
        <time>2017-06-11T08:40:53Z</time>
      </trkpt>
      <trkpt lat="47.4303" lon="6.6509">
        <ele>380.399994</ele>
        <time>2017-06-11T08:40:57Z</time>
      </trkpt>
      <trkpt lat="47.43048" lon="6.65118">
        <ele>380</ele>
        <time>2017-06-11T08:41:02Z</time>
      </trkpt>
      <trkpt lat="47.43052" lon="6.65121">
        <ele>379.600006</ele>
        <time>2017-06-11T08:41:03Z</time>
      </trkpt>
      <trkpt lat="47.43056" lon="6.65123">
        <ele>379.200012</ele>
        <time>2017-06-11T08:41:04Z</time>
      </trkpt>
      <trkpt lat="47.43061" lon="6.65124">
        <ele>378.200012</ele>
        <time>2017-06-11T08:41:06Z</time>
      </trkpt>
      <trkpt lat="47.43065" lon="6.65119">
        <ele>377.799988</ele>
        <time>2017-06-11T08:41:08Z</time>
      </trkpt>
      <trkpt lat="47.43069" lon="6.65112">
        <ele>377</ele>
        <time>2017-06-11T08:41:10Z</time>
      </trkpt>
      <trkpt lat="47.43071" lon="6.65108">
        <ele>376.600006</ele>
        <time>2017-06-11T08:41:11Z</time>
      </trkpt>
      <trkpt lat="47.43074" lon="6.65106">
        <ele>375.399994</ele>
        <time>2017-06-11T08:41:12Z</time>
      </trkpt>
      <trkpt lat="47.43078" lon="6.65105">
        <ele>374.799988</ele>
        <time>2017-06-11T08:41:13Z</time>
      </trkpt>
      <trkpt lat="47.43082" lon="6.65105">
        <ele>374.200012</ele>
        <time>2017-06-11T08:41:14Z</time>
      </trkpt>
      <trkpt lat="47.43086" lon="6.65106">
        <ele>373.600006</ele>
        <time>2017-06-11T08:41:15Z</time>
      </trkpt>
      <trkpt lat="47.4309" lon="6.65108">
        <ele>373</ele>
        <time>2017-06-11T08:41:16Z</time>
      </trkpt>
      <trkpt lat="47.43094" lon="6.65111">
        <ele>372.600006</ele>
        <time>2017-06-11T08:41:17Z</time>
      </trkpt>
      <trkpt lat="47.43101" lon="6.65119">
        <ele>371.799988</ele>
        <time>2017-06-11T08:41:19Z</time>
      </trkpt>
      <trkpt lat="47.43105" lon="6.65123">
        <ele>371.399994</ele>
        <time>2017-06-11T08:41:20Z</time>
      </trkpt>
      <trkpt lat="47.43108" lon="6.65129">
        <ele>371.399994</ele>
        <time>2017-06-11T08:41:21Z</time>
      </trkpt>
      <trkpt lat="47.43123" lon="6.65151">
        <ele>371.399994</ele>
        <time>2017-06-11T08:41:25Z</time>
      </trkpt>
      <trkpt lat="47.4313" lon="6.65163">
        <ele>370.799988</ele>
        <time>2017-06-11T08:41:27Z</time>
      </trkpt>
      <trkpt lat="47.43134" lon="6.65168">
        <ele>370.399994</ele>
        <time>2017-06-11T08:41:28Z</time>
      </trkpt>
      <trkpt lat="47.43145" lon="6.65178">
        <ele>369.600006</ele>
        <time>2017-06-11T08:41:30Z</time>
      </trkpt>
      <trkpt lat="47.4315" lon="6.65184">
        <ele>369.200012</ele>
        <time>2017-06-11T08:41:31Z</time>
      </trkpt>
      <trkpt lat="47.43169" lon="6.65211">
        <ele>369.200012</ele>
        <time>2017-06-11T08:41:35Z</time>
      </trkpt>
      <trkpt lat="47.43176" lon="6.65226">
        <ele>368.600006</ele>
        <time>2017-06-11T08:41:37Z</time>
      </trkpt>
      <trkpt lat="47.4318" lon="6.65232">
        <ele>367.600006</ele>
        <time>2017-06-11T08:41:38Z</time>
      </trkpt>
      <trkpt lat="47.43184" lon="6.65239">
        <ele>367.200012</ele>
        <time>2017-06-11T08:41:39Z</time>
      </trkpt>
      <trkpt lat="47.43188" lon="6.65246">
        <ele>366.600006</ele>
        <time>2017-06-11T08:41:40Z</time>
      </trkpt>
      <trkpt lat="47.43206" lon="6.65282">
        <ele>366.200012</ele>
        <time>2017-06-11T08:41:45Z</time>
      </trkpt>
      <trkpt lat="47.43214" lon="6.65303">
        <ele>364.799988</ele>
        <time>2017-06-11T08:41:48Z</time>
      </trkpt>
      <trkpt lat="47.43221" lon="6.65317">
        <ele>364.399994</ele>
        <time>2017-06-11T08:41:50Z</time>
      </trkpt>
      <trkpt lat="47.43225" lon="6.65323">
        <ele>364</ele>
        <time>2017-06-11T08:41:51Z</time>
      </trkpt>
      <trkpt lat="47.43232" lon="6.65337">
        <ele>363</ele>
        <time>2017-06-11T08:41:53Z</time>
      </trkpt>
      <trkpt lat="47.43235" lon="6.65344">
        <ele>362.600006</ele>
        <time>2017-06-11T08:41:54Z</time>
      </trkpt>
      <trkpt lat="47.43242" lon="6.65363">
        <ele>361.200012</ele>
        <time>2017-06-11T08:41:57Z</time>
      </trkpt>
      <trkpt lat="47.43245" lon="6.65369">
        <ele>360.600006</ele>
        <time>2017-06-11T08:41:58Z</time>
      </trkpt>
      <trkpt lat="47.43252" lon="6.65383">
        <ele>359.600006</ele>
        <time>2017-06-11T08:42:00Z</time>
      </trkpt>
      <trkpt lat="47.43257" lon="6.65391">
        <ele>359</ele>
        <time>2017-06-11T08:42:01Z</time>
      </trkpt>
      <trkpt lat="47.43274" lon="6.65424">
        <ele>356.799988</ele>
        <time>2017-06-11T08:42:05Z</time>
      </trkpt>
      <trkpt lat="47.43277" lon="6.65433">
        <ele>356.399994</ele>
        <time>2017-06-11T08:42:06Z</time>
      </trkpt>
      <trkpt lat="47.43283" lon="6.65449">
        <ele>355.200012</ele>
        <time>2017-06-11T08:42:08Z</time>
      </trkpt>
      <trkpt lat="47.43293" lon="6.65473">
        <ele>353.399994</ele>
        <time>2017-06-11T08:42:11Z</time>
      </trkpt>
      <trkpt lat="47.43296" lon="6.65479">
        <ele>353</ele>
        <time>2017-06-11T08:42:12Z</time>
      </trkpt>
      <trkpt lat="47.433" lon="6.65483">
        <ele>352.600006</ele>
        <time>2017-06-11T08:42:13Z</time>
      </trkpt>
      <trkpt lat="47.43303" lon="6.65485">
        <ele>352.200012</ele>
        <time>2017-06-11T08:42:14Z</time>
      </trkpt>
      <trkpt lat="47.43306" lon="6.65485">
        <ele>351.799988</ele>
        <time>2017-06-11T08:42:15Z</time>
      </trkpt>
      <trkpt lat="47.43308" lon="6.65484">
        <ele>351.399994</ele>
        <time>2017-06-11T08:42:16Z</time>
      </trkpt>
      <trkpt lat="47.43315" lon="6.65479">
        <ele>351.399994</ele>
        <time>2017-06-11T08:42:21Z</time>
      </trkpt>
      <trkpt lat="47.43316" lon="6.65479">
        <ele>351.399994</ele>
        <time>2017-06-11T08:42:22Z</time>
      </trkpt>
      <trkpt lat="47.43318" lon="6.65478">
        <ele>351.399994</ele>
        <time>2017-06-11T08:42:23Z</time>
      </trkpt>
      <trkpt lat="47.43323" lon="6.65472">
        <ele>350.200012</ele>
        <time>2017-06-11T08:42:28Z</time>
      </trkpt>
      <trkpt lat="47.43324" lon="6.6547">
        <ele>349.799988</ele>
        <time>2017-06-11T08:42:29Z</time>
      </trkpt>
      <trkpt lat="47.43335" lon="6.65456">
        <ele>349.399994</ele>
        <time>2017-06-11T08:42:33Z</time>
      </trkpt>
      <trkpt lat="47.43361" lon="6.65427">
        <ele>347.399994</ele>
        <time>2017-06-11T08:42:39Z</time>
      </trkpt>
      <trkpt lat="47.43365" lon="6.65422">
        <ele>347</ele>
        <time>2017-06-11T08:42:40Z</time>
      </trkpt>
      <trkpt lat="47.43386" lon="6.65404">
        <ele>347</ele>
        <time>2017-06-11T08:42:44Z</time>
      </trkpt>
      <trkpt lat="47.43401" lon="6.65394">
        <ele>346.600006</ele>
        <time>2017-06-11T08:42:47Z</time>
      </trkpt>
      <trkpt lat="47.43406" lon="6.65392">
        <ele>346.200012</ele>
        <time>2017-06-11T08:42:48Z</time>
      </trkpt>
      <trkpt lat="47.43411" lon="6.65391">
        <ele>345.799988</ele>
        <time>2017-06-11T08:42:49Z</time>
      </trkpt>
      <trkpt lat="47.43417" lon="6.65391">
        <ele>345.399994</ele>
        <time>2017-06-11T08:42:50Z</time>
      </trkpt>
      <trkpt lat="47.43423" lon="6.65394">
        <ele>345</ele>
        <time>2017-06-11T08:42:51Z</time>
      </trkpt>
      <trkpt lat="47.43429" lon="6.65398">
        <ele>345</ele>
        <time>2017-06-11T08:42:52Z</time>
      </trkpt>
      <trkpt lat="47.43439" lon="6.65409">
        <ele>345</ele>
        <time>2017-06-11T08:42:54Z</time>
      </trkpt>
      <trkpt lat="47.43443" lon="6.65413">
        <ele>345</ele>
        <time>2017-06-11T08:42:55Z</time>
      </trkpt>
      <trkpt lat="47.43449" lon="6.65417">
        <ele>345</ele>
        <time>2017-06-11T08:42:56Z</time>
      </trkpt>
      <trkpt lat="47.43471" lon="6.6542">
        <ele>345</ele>
        <time>2017-06-11T08:43:00Z</time>
      </trkpt>
      <trkpt lat="47.43481" lon="6.65414">
        <ele>344.600006</ele>
        <time>2017-06-11T08:43:02Z</time>
      </trkpt>
      <trkpt lat="47.4349" lon="6.65405">
        <ele>343.600006</ele>
        <time>2017-06-11T08:43:04Z</time>
      </trkpt>
      <trkpt lat="47.435" lon="6.65396">
        <ele>342.600006</ele>
        <time>2017-06-11T08:43:06Z</time>
      </trkpt>
      <trkpt lat="47.43519" lon="6.65377">
        <ele>342.600006</ele>
        <time>2017-06-11T08:43:10Z</time>
      </trkpt>
      <trkpt lat="47.43552" lon="6.65346">
        <ele>342.600006</ele>
        <time>2017-06-11T08:43:17Z</time>
      </trkpt>
      <trkpt lat="47.4358" lon="6.65315">
        <ele>342.600006</ele>
        <time>2017-06-11T08:43:23Z</time>
      </trkpt>
      <trkpt lat="47.43594" lon="6.653">
        <ele>342.200012</ele>
        <time>2017-06-11T08:43:26Z</time>
      </trkpt>
      <trkpt lat="47.436" lon="6.65295">
        <ele>341.799988</ele>
        <time>2017-06-11T08:43:27Z</time>
      </trkpt>
      <trkpt lat="47.43605" lon="6.65292">
        <ele>341.399994</ele>
        <time>2017-06-11T08:43:28Z</time>
      </trkpt>
      <trkpt lat="47.43611" lon="6.65289">
        <ele>341</ele>
        <time>2017-06-11T08:43:29Z</time>
      </trkpt>
      <trkpt lat="47.43617" lon="6.65288">
        <ele>340.600006</ele>
        <time>2017-06-11T08:43:30Z</time>
      </trkpt>
      <trkpt lat="47.43634" lon="6.65286">
        <ele>340.600006</ele>
        <time>2017-06-11T08:43:33Z</time>
      </trkpt>
      <trkpt lat="47.43669" lon="6.65278">
        <ele>340.600006</ele>
        <time>2017-06-11T08:43:39Z</time>
      </trkpt>
      <trkpt lat="47.4369" lon="6.65264">
        <ele>340.200012</ele>
        <time>2017-06-11T08:43:43Z</time>
      </trkpt>
      <trkpt lat="47.43694" lon="6.6526">
        <ele>339.799988</ele>
        <time>2017-06-11T08:43:44Z</time>
      </trkpt>
      <trkpt lat="47.43709" lon="6.6524">
        <ele>338.600006</ele>
        <time>2017-06-11T08:43:48Z</time>
      </trkpt>
      <trkpt lat="47.43727" lon="6.6522">
        <ele>338.600006</ele>
        <time>2017-06-11T08:43:52Z</time>
      </trkpt>
      <trkpt lat="47.43754" lon="6.65196">
        <ele>337.200012</ele>
        <time>2017-06-11T08:43:57Z</time>
      </trkpt>
      <trkpt lat="47.43761" lon="6.6519">
        <ele>336.600006</ele>
        <time>2017-06-11T08:43:58Z</time>
      </trkpt>
      <trkpt lat="47.43766" lon="6.65184">
        <ele>336</ele>
        <time>2017-06-11T08:43:59Z</time>
      </trkpt>
      <trkpt lat="47.43771" lon="6.65177">
        <ele>335.399994</ele>
        <time>2017-06-11T08:44:00Z</time>
      </trkpt>
      <trkpt lat="47.43798" lon="6.65137">
        <ele>332.600006</ele>
        <time>2017-06-11T08:44:05Z</time>
      </trkpt>
      <trkpt lat="47.43811" lon="6.65121">
        <ele>330.799988</ele>
        <time>2017-06-11T08:44:07Z</time>
      </trkpt>
      <trkpt lat="47.43816" lon="6.65113">
        <ele>330</ele>
        <time>2017-06-11T08:44:08Z</time>
      </trkpt>
      <trkpt lat="47.43828" lon="6.65096">
        <ele>328.600006</ele>
        <time>2017-06-11T08:44:10Z</time>
      </trkpt>
      <trkpt lat="47.43834" lon="6.65087">
        <ele>328</ele>
        <time>2017-06-11T08:44:11Z</time>
      </trkpt>
      <trkpt lat="47.43847" lon="6.65069">
        <ele>327</ele>
        <time>2017-06-11T08:44:13Z</time>
      </trkpt>
      <trkpt lat="47.43865" lon="6.65046">
        <ele>325.200012</ele>
        <time>2017-06-11T08:44:16Z</time>
      </trkpt>
      <trkpt lat="47.43884" lon="6.65024">
        <ele>323.200012</ele>
        <time>2017-06-11T08:44:19Z</time>
      </trkpt>
      <trkpt lat="47.43891" lon="6.65016">
        <ele>322.600006</ele>
        <time>2017-06-11T08:44:20Z</time>
      </trkpt>
      <trkpt lat="47.4392" lon="6.64991">
        <ele>320</ele>
        <time>2017-06-11T08:44:24Z</time>
      </trkpt>
      <trkpt lat="47.43934" lon="6.64976">
        <ele>319</ele>
        <time>2017-06-11T08:44:26Z</time>
      </trkpt>
      <trkpt lat="47.43943" lon="6.64966">
        <ele>318.600006</ele>
        <time>2017-06-11T08:44:27Z</time>
      </trkpt>
      <trkpt lat="47.43957" lon="6.64947">
        <ele>317.600006</ele>
        <time>2017-06-11T08:44:29Z</time>
      </trkpt>
      <trkpt lat="47.43963" lon="6.64939">
        <ele>317</ele>
        <time>2017-06-11T08:44:30Z</time>
      </trkpt>
      <trkpt lat="47.43977" lon="6.64926">
        <ele>315.600006</ele>
        <time>2017-06-11T08:44:32Z</time>
      </trkpt>
      <trkpt lat="47.43985" lon="6.64918">
        <ele>315.200012</ele>
        <time>2017-06-11T08:44:33Z</time>
      </trkpt>
      <trkpt lat="47.43992" lon="6.64909">
        <ele>314.799988</ele>
        <time>2017-06-11T08:44:34Z</time>
      </trkpt>
      <trkpt lat="47.44" lon="6.64899">
        <ele>314.399994</ele>
        <time>2017-06-11T08:44:35Z</time>
      </trkpt>
      <trkpt lat="47.44008" lon="6.6489">
        <ele>314</ele>
        <time>2017-06-11T08:44:36Z</time>
      </trkpt>
      <trkpt lat="47.44015" lon="6.6488">
        <ele>313.399994</ele>
        <time>2017-06-11T08:44:37Z</time>
      </trkpt>
      <trkpt lat="47.44024" lon="6.64862">
        <ele>312.399994</ele>
        <time>2017-06-11T08:44:39Z</time>
      </trkpt>
      <trkpt lat="47.44029" lon="6.64853">
        <ele>311.799988</ele>
        <time>2017-06-11T08:44:40Z</time>
      </trkpt>
      <trkpt lat="47.44046" lon="6.6482">
        <ele>311.799988</ele>
        <time>2017-06-11T08:44:44Z</time>
      </trkpt>
      <trkpt lat="47.44055" lon="6.64806">
        <ele>311.799988</ele>
        <time>2017-06-11T08:44:46Z</time>
      </trkpt>
      <trkpt lat="47.44068" lon="6.64786">
        <ele>311.799988</ele>
        <time>2017-06-11T08:44:49Z</time>
      </trkpt>
      <trkpt lat="47.44083" lon="6.64761">
        <ele>311.799988</ele>
        <time>2017-06-11T08:44:53Z</time>
      </trkpt>
      <trkpt lat="47.44095" lon="6.64757">
        <ele>311.399994</ele>
        <time>2017-06-11T08:44:55Z</time>
      </trkpt>
      <trkpt lat="47.44102" lon="6.64754">
        <ele>311</ele>
        <time>2017-06-11T08:44:56Z</time>
      </trkpt>
      <trkpt lat="47.44108" lon="6.64749">
        <ele>310.399994</ele>
        <time>2017-06-11T08:44:57Z</time>
      </trkpt>
      <trkpt lat="47.44112" lon="6.6474">
        <ele>310</ele>
        <time>2017-06-11T08:44:58Z</time>
      </trkpt>
      <trkpt lat="47.44114" lon="6.64731">
        <ele>309.600006</ele>
        <time>2017-06-11T08:44:59Z</time>
      </trkpt>
      <trkpt lat="47.4412" lon="6.64715">
        <ele>309.600006</ele>
        <time>2017-06-11T08:45:01Z</time>
      </trkpt>
      <trkpt lat="47.4414" lon="6.64696">
        <ele>309.600006</ele>
        <time>2017-06-11T08:45:05Z</time>
      </trkpt>
      <trkpt lat="47.4415" lon="6.64679">
        <ele>309.600006</ele>
        <time>2017-06-11T08:45:08Z</time>
      </trkpt>
      <trkpt lat="47.44153" lon="6.64653">
        <ele>309.600006</ele>
        <time>2017-06-11T08:45:12Z</time>
      </trkpt>
      <trkpt lat="47.44155" lon="6.64634">
        <ele>309.600006</ele>
        <time>2017-06-11T08:45:15Z</time>
      </trkpt>
      <trkpt lat="47.44155" lon="6.64616">
        <ele>309.600006</ele>
        <time>2017-06-11T08:45:18Z</time>
      </trkpt>
      <trkpt lat="47.44159" lon="6.6461">
        <ele>309.600006</ele>
        <time>2017-06-11T08:45:20Z</time>
      </trkpt>
      <trkpt lat="47.44161" lon="6.64612">
        <ele>309.600006</ele>
        <time>2017-06-11T08:45:21Z</time>
      </trkpt>
      <trkpt lat="47.44174" lon="6.64615">
        <ele>309.600006</ele>
        <time>2017-06-11T08:45:25Z</time>
      </trkpt>
      <trkpt lat="47.44189" lon="6.64618">
        <ele>309.600006</ele>
        <time>2017-06-11T08:45:30Z</time>
      </trkpt>
      <trkpt lat="47.4421" lon="6.64622">
        <ele>309.600006</ele>
        <time>2017-06-11T08:45:36Z</time>
      </trkpt>
      <trkpt lat="47.44227" lon="6.64624">
        <ele>309.600006</ele>
        <time>2017-06-11T08:45:41Z</time>
      </trkpt>
      <trkpt lat="47.44247" lon="6.64624">
        <ele>310</ele>
        <time>2017-06-11T08:45:47Z</time>
      </trkpt>
      <trkpt lat="47.44257" lon="6.64622">
        <ele>311.799988</ele>
        <time>2017-06-11T08:45:51Z</time>
      </trkpt>
      <trkpt lat="47.44265" lon="6.64619">
        <ele>312.200012</ele>
        <time>2017-06-11T08:45:55Z</time>
      </trkpt>
      <trkpt lat="47.4427" lon="6.64619">
        <ele>313</ele>
        <time>2017-06-11T08:45:57Z</time>
      </trkpt>
      <trkpt lat="47.44281" lon="6.64616">
        <ele>314.399994</ele>
        <time>2017-06-11T08:46:02Z</time>
      </trkpt>
      <trkpt lat="47.44285" lon="6.64614">
        <ele>315.600006</ele>
        <time>2017-06-11T08:46:05Z</time>
      </trkpt>
      <trkpt lat="47.44301" lon="6.64604">
        <ele>316.399994</ele>
        <time>2017-06-11T08:46:11Z</time>
      </trkpt>
      <trkpt lat="47.44304" lon="6.64603">
        <ele>317</ele>
        <time>2017-06-11T08:46:12Z</time>
      </trkpt>
      <trkpt lat="47.44308" lon="6.64599">
        <ele>317.799988</ele>
        <time>2017-06-11T08:46:14Z</time>
      </trkpt>
      <trkpt lat="47.44311" lon="6.64598">
        <ele>318.200012</ele>
        <time>2017-06-11T08:46:15Z</time>
      </trkpt>
      <trkpt lat="47.44313" lon="6.64597">
        <ele>318.600006</ele>
        <time>2017-06-11T08:46:17Z</time>
      </trkpt>
      <trkpt lat="47.44315" lon="6.64597">
        <ele>320</ele>
        <time>2017-06-11T08:46:20Z</time>
      </trkpt>
      <trkpt lat="47.44321" lon="6.64592">
        <ele>320.399994</ele>
        <time>2017-06-11T08:46:34Z</time>
      </trkpt>
      <trkpt lat="47.44326" lon="6.64594">
        <ele>320.399994</ele>
        <time>2017-06-11T08:46:37Z</time>
      </trkpt>
      <trkpt lat="47.44334" lon="6.64599">
        <ele>321.200012</ele>
        <time>2017-06-11T08:46:41Z</time>
      </trkpt>
      <trkpt lat="47.44339" lon="6.646">
        <ele>322</ele>
        <time>2017-06-11T08:46:43Z</time>
      </trkpt>
      <trkpt lat="47.44341" lon="6.64601">
        <ele>322.399994</ele>
        <time>2017-06-11T08:46:44Z</time>
      </trkpt>
      <trkpt lat="47.44352" lon="6.646">
        <ele>322.399994</ele>
        <time>2017-06-11T08:46:49Z</time>
      </trkpt>
      <trkpt lat="47.44359" lon="6.64599">
        <ele>322.799988</ele>
        <time>2017-06-11T08:46:52Z</time>
      </trkpt>
      <trkpt lat="47.44361" lon="6.64599">
        <ele>323.200012</ele>
        <time>2017-06-11T08:46:54Z</time>
      </trkpt>
      <trkpt lat="47.44363" lon="6.64598">
        <ele>323.600006</ele>
        <time>2017-06-11T08:46:55Z</time>
      </trkpt>
      <trkpt lat="47.44366" lon="6.64598">
        <ele>324</ele>
        <time>2017-06-11T08:46:56Z</time>
      </trkpt>
      <trkpt lat="47.44375" lon="6.64593">
        <ele>324.600006</ele>
        <time>2017-06-11T08:47:00Z</time>
      </trkpt>
      <trkpt lat="47.4439" lon="6.64584">
        <ele>325</ele>
        <time>2017-06-11T08:47:07Z</time>
      </trkpt>
      <trkpt lat="47.44392" lon="6.64583">
        <ele>325.399994</ele>
        <time>2017-06-11T08:47:08Z</time>
      </trkpt>
      <trkpt lat="47.44394" lon="6.64582">
        <ele>325.799988</ele>
        <time>2017-06-11T08:47:09Z</time>
      </trkpt>
      <trkpt lat="47.444" lon="6.64579">
        <ele>326.600006</ele>
        <time>2017-06-11T08:47:11Z</time>
      </trkpt>
      <trkpt lat="47.44411" lon="6.6457">
        <ele>326.600006</ele>
        <time>2017-06-11T08:47:16Z</time>
      </trkpt>
      <trkpt lat="47.4442" lon="6.64562">
        <ele>327</ele>
        <time>2017-06-11T08:47:20Z</time>
      </trkpt>
      <trkpt lat="47.44428" lon="6.64558">
        <ele>328.200012</ele>
        <time>2017-06-11T08:47:23Z</time>
      </trkpt>
      <trkpt lat="47.4443" lon="6.64556">
        <ele>328.600006</ele>
        <time>2017-06-11T08:47:24Z</time>
      </trkpt>
      <trkpt lat="47.4444" lon="6.64551">
        <ele>328.600006</ele>
        <time>2017-06-11T08:47:28Z</time>
      </trkpt>
      <trkpt lat="47.44451" lon="6.64558">
        <ele>328.600006</ele>
        <time>2017-06-11T08:47:31Z</time>
      </trkpt>
      <trkpt lat="47.44462" lon="6.64581">
        <ele>328.600006</ele>
        <time>2017-06-11T08:47:35Z</time>
      </trkpt>
      <trkpt lat="47.44477" lon="6.64621">
        <ele>327.799988</ele>
        <time>2017-06-11T08:47:40Z</time>
      </trkpt>
      <trkpt lat="47.44504" lon="6.64703">
        <ele>324.399994</ele>
        <time>2017-06-11T08:47:48Z</time>
      </trkpt>
      <trkpt lat="47.44515" lon="6.64739">
        <ele>322.799988</ele>
        <time>2017-06-11T08:47:51Z</time>
      </trkpt>
      <trkpt lat="47.44519" lon="6.64751">
        <ele>322.200012</ele>
        <time>2017-06-11T08:47:52Z</time>
      </trkpt>
      <trkpt lat="47.44527" lon="6.64777">
        <ele>321</ele>
        <time>2017-06-11T08:47:54Z</time>
      </trkpt>
      <trkpt lat="47.44532" lon="6.6479">
        <ele>320.399994</ele>
        <time>2017-06-11T08:47:55Z</time>
      </trkpt>
      <trkpt lat="47.44542" lon="6.64816">
        <ele>319.399994</ele>
        <time>2017-06-11T08:47:57Z</time>
      </trkpt>
      <trkpt lat="47.44559" lon="6.64855">
        <ele>317.399994</ele>
        <time>2017-06-11T08:48:00Z</time>
      </trkpt>
      <trkpt lat="47.44571" lon="6.64882">
        <ele>316</ele>
        <time>2017-06-11T08:48:02Z</time>
      </trkpt>
      <trkpt lat="47.44576" lon="6.64896">
        <ele>315.200012</ele>
        <time>2017-06-11T08:48:03Z</time>
      </trkpt>
      <trkpt lat="47.44581" lon="6.6491">
        <ele>314.399994</ele>
        <time>2017-06-11T08:48:04Z</time>
      </trkpt>
      <trkpt lat="47.4459" lon="6.64939">
        <ele>312.799988</ele>
        <time>2017-06-11T08:48:06Z</time>
      </trkpt>
      <trkpt lat="47.44595" lon="6.64953">
        <ele>312.200012</ele>
        <time>2017-06-11T08:48:07Z</time>
      </trkpt>
      <trkpt lat="47.44603" lon="6.64964">
        <ele>311.399994</ele>
        <time>2017-06-11T08:48:08Z</time>
      </trkpt>
      <trkpt lat="47.44611" lon="6.64976">
        <ele>310.600006</ele>
        <time>2017-06-11T08:48:09Z</time>
      </trkpt>
      <trkpt lat="47.44621" lon="6.64986">
        <ele>310</ele>
        <time>2017-06-11T08:48:10Z</time>
      </trkpt>
      <trkpt lat="47.44638" lon="6.65007">
        <ele>308.399994</ele>
        <time>2017-06-11T08:48:12Z</time>
      </trkpt>
      <trkpt lat="47.44646" lon="6.65015">
        <ele>307.600006</ele>
        <time>2017-06-11T08:48:13Z</time>
      </trkpt>
      <trkpt lat="47.44653" lon="6.65019">
        <ele>306.200012</ele>
        <time>2017-06-11T08:48:14Z</time>
      </trkpt>
      <trkpt lat="47.4466" lon="6.65017">
        <ele>305.399994</ele>
        <time>2017-06-11T08:48:15Z</time>
      </trkpt>
      <trkpt lat="47.44665" lon="6.65011">
        <ele>304.799988</ele>
        <time>2017-06-11T08:48:16Z</time>
      </trkpt>
      <trkpt lat="47.44668" lon="6.65004">
        <ele>304</ele>
        <time>2017-06-11T08:48:17Z</time>
      </trkpt>
      <trkpt lat="47.44674" lon="6.64992">
        <ele>304</ele>
        <time>2017-06-11T08:48:19Z</time>
      </trkpt>
      <trkpt lat="47.44691" lon="6.64981">
        <ele>303.600006</ele>
        <time>2017-06-11T08:48:22Z</time>
      </trkpt>
      <trkpt lat="47.44697" lon="6.64978">
        <ele>303.200012</ele>
        <time>2017-06-11T08:48:23Z</time>
      </trkpt>
      <trkpt lat="47.44717" lon="6.64974">
        <ele>302</ele>
        <time>2017-06-11T08:48:26Z</time>
      </trkpt>
      <trkpt lat="47.44723" lon="6.64974">
        <ele>302</ele>
        <time>2017-06-11T08:48:27Z</time>
      </trkpt>
      <trkpt lat="47.44754" lon="6.64967">
        <ele>302</ele>
        <time>2017-06-11T08:48:33Z</time>
      </trkpt>
      <trkpt lat="47.44773" lon="6.64963">
        <ele>302</ele>
        <time>2017-06-11T08:48:38Z</time>
      </trkpt>
      <trkpt lat="47.44794" lon="6.64958">
        <ele>302</ele>
        <time>2017-06-11T08:48:44Z</time>
      </trkpt>
      <trkpt lat="47.44815" lon="6.6496">
        <ele>302</ele>
        <time>2017-06-11T08:48:50Z</time>
      </trkpt>
      <trkpt lat="47.44836" lon="6.64966">
        <ele>302</ele>
        <time>2017-06-11T08:48:55Z</time>
      </trkpt>
      <trkpt lat="47.44861" lon="6.64973">
        <ele>302</ele>
        <time>2017-06-11T08:49:01Z</time>
      </trkpt>
      <trkpt lat="47.44867" lon="6.64978">
        <ele>302</ele>
        <time>2017-06-11T08:49:03Z</time>
      </trkpt>
      <trkpt lat="47.44902" lon="6.64991">
        <ele>302</ele>
        <time>2017-06-11T08:49:11Z</time>
      </trkpt>
      <trkpt lat="47.44945" lon="6.65003">
        <ele>302</ele>
        <time>2017-06-11T08:49:20Z</time>
      </trkpt>
      <trkpt lat="47.44969" lon="6.65005">
        <ele>302</ele>
        <time>2017-06-11T08:49:26Z</time>
      </trkpt>
      <trkpt lat="47.4499" lon="6.65001">
        <ele>302</ele>
        <time>2017-06-11T08:49:31Z</time>
      </trkpt>
      <trkpt lat="47.45018" lon="6.64996">
        <ele>302</ele>
        <time>2017-06-11T08:49:37Z</time>
      </trkpt>
      <trkpt lat="47.45023" lon="6.64995">
        <ele>302</ele>
        <time>2017-06-11T08:49:38Z</time>
      </trkpt>
      <trkpt lat="47.45062" lon="6.64989">
        <ele>302</ele>
        <time>2017-06-11T08:49:46Z</time>
      </trkpt>
      <trkpt lat="47.45127" lon="6.64976">
        <ele>302</ele>
        <time>2017-06-11T08:50:00Z</time>
      </trkpt>
      <trkpt lat="47.45135" lon="6.64975">
        <ele>302</ele>
        <time>2017-06-11T08:50:02Z</time>
      </trkpt>
      <trkpt lat="47.4515" lon="6.64978">
        <ele>302</ele>
        <time>2017-06-11T08:50:10Z</time>
      </trkpt>
      <trkpt lat="47.45155" lon="6.64981">
        <ele>302</ele>
        <time>2017-06-11T08:50:15Z</time>
      </trkpt>
      <trkpt lat="47.45158" lon="6.64982">
        <ele>302</ele>
        <time>2017-06-11T08:50:16Z</time>
      </trkpt>
      <trkpt lat="47.45173" lon="6.64977">
        <ele>302</ele>
        <time>2017-06-11T08:50:20Z</time>
      </trkpt>
      <trkpt lat="47.45197" lon="6.64965">
        <ele>302</ele>
        <time>2017-06-11T08:50:25Z</time>
      </trkpt>
      <trkpt lat="47.45201" lon="6.64964">
        <ele>302</ele>
        <time>2017-06-11T08:50:26Z</time>
      </trkpt>
      <trkpt lat="47.45216" lon="6.64962">
        <ele>302</ele>
        <time>2017-06-11T08:50:29Z</time>
      </trkpt>
      <trkpt lat="47.4522" lon="6.64962">
        <ele>302</ele>
        <time>2017-06-11T08:50:30Z</time>
      </trkpt>
      <trkpt lat="47.45243" lon="6.64958">
        <ele>302</ele>
        <time>2017-06-11T08:50:35Z</time>
      </trkpt>
      <trkpt lat="47.45264" lon="6.64956">
        <ele>302</ele>
        <time>2017-06-11T08:50:40Z</time>
      </trkpt>
      <trkpt lat="47.45275" lon="6.64954">
        <ele>303.200012</ele>
        <time>2017-06-11T08:50:43Z</time>
      </trkpt>
      <trkpt lat="47.45278" lon="6.64952">
        <ele>303.600006</ele>
        <time>2017-06-11T08:50:44Z</time>
      </trkpt>
      <trkpt lat="47.45283" lon="6.64947">
        <ele>304</ele>
        <time>2017-06-11T08:50:46Z</time>
      </trkpt>
      <trkpt lat="47.45288" lon="6.64937">
        <ele>304.600006</ele>
        <time>2017-06-11T08:50:49Z</time>
      </trkpt>
      <trkpt lat="47.45291" lon="6.6493">
        <ele>305.399994</ele>
        <time>2017-06-11T08:50:51Z</time>
      </trkpt>
      <trkpt lat="47.45292" lon="6.64927">
        <ele>305.799988</ele>
        <time>2017-06-11T08:50:52Z</time>
      </trkpt>
      <trkpt lat="47.45293" lon="6.64923">
        <ele>306.200012</ele>
        <time>2017-06-11T08:50:53Z</time>
      </trkpt>
      <trkpt lat="47.45297" lon="6.64916">
        <ele>306.200012</ele>
        <time>2017-06-11T08:50:56Z</time>
      </trkpt>
      <trkpt lat="47.45298" lon="6.64914">
        <ele>306.799988</ele>
        <time>2017-06-11T08:50:57Z</time>
      </trkpt>
      <trkpt lat="47.453" lon="6.6491">
        <ele>307.200012</ele>
        <time>2017-06-11T08:50:58Z</time>
      </trkpt>
      <trkpt lat="47.45303" lon="6.64901">
        <ele>308.399994</ele>
        <time>2017-06-11T08:51:01Z</time>
      </trkpt>
      <trkpt lat="47.45307" lon="6.64894">
        <ele>309</ele>
        <time>2017-06-11T08:51:04Z</time>
      </trkpt>
      <trkpt lat="47.45309" lon="6.64888">
        <ele>309.799988</ele>
        <time>2017-06-11T08:51:06Z</time>
      </trkpt>
      <trkpt lat="47.45315" lon="6.64879">
        <ele>311.200012</ele>
        <time>2017-06-11T08:51:10Z</time>
      </trkpt>
      <trkpt lat="47.45317" lon="6.64876">
        <ele>311.600006</ele>
        <time>2017-06-11T08:51:11Z</time>
      </trkpt>
      <trkpt lat="47.45319" lon="6.64874">
        <ele>312</ele>
        <time>2017-06-11T08:51:12Z</time>
      </trkpt>
      <trkpt lat="47.45323" lon="6.6487">
        <ele>312.799988</ele>
        <time>2017-06-11T08:51:14Z</time>
      </trkpt>
      <trkpt lat="47.45329" lon="6.64863">
        <ele>313.200012</ele>
        <time>2017-06-11T08:51:17Z</time>
      </trkpt>
      <trkpt lat="47.45333" lon="6.6486">
        <ele>314</ele>
        <time>2017-06-11T08:51:19Z</time>
      </trkpt>
      <trkpt lat="47.45336" lon="6.64858">
        <ele>314.399994</ele>
        <time>2017-06-11T08:51:20Z</time>
      </trkpt>
      <trkpt lat="47.45342" lon="6.6485">
        <ele>314.799988</ele>
        <time>2017-06-11T08:51:24Z</time>
      </trkpt>
      <trkpt lat="47.45347" lon="6.64843">
        <ele>316.200012</ele>
        <time>2017-06-11T08:51:27Z</time>
      </trkpt>
      <trkpt lat="47.45349" lon="6.6484">
        <ele>316.600006</ele>
        <time>2017-06-11T08:51:28Z</time>
      </trkpt>
      <trkpt lat="47.45352" lon="6.64834">
        <ele>317</ele>
        <time>2017-06-11T08:51:30Z</time>
      </trkpt>
      <trkpt lat="47.45357" lon="6.6482">
        <ele>317.399994</ele>
        <time>2017-06-11T08:51:34Z</time>
      </trkpt>
      <trkpt lat="47.45359" lon="6.64817">
        <ele>317.799988</ele>
        <time>2017-06-11T08:51:35Z</time>
      </trkpt>
      <trkpt lat="47.45362" lon="6.64812">
        <ele>318.799988</ele>
        <time>2017-06-11T08:51:37Z</time>
      </trkpt>
      <trkpt lat="47.45373" lon="6.64803">
        <ele>319.200012</ele>
        <time>2017-06-11T08:51:42Z</time>
      </trkpt>
      <trkpt lat="47.45375" lon="6.64802">
        <ele>319.600006</ele>
        <time>2017-06-11T08:51:43Z</time>
      </trkpt>
      <trkpt lat="47.45377" lon="6.64801">
        <ele>320</ele>
        <time>2017-06-11T08:51:44Z</time>
      </trkpt>
      <trkpt lat="47.4538" lon="6.64801">
        <ele>320.399994</ele>
        <time>2017-06-11T08:51:45Z</time>
      </trkpt>
      <trkpt lat="47.45383" lon="6.64801">
        <ele>320.799988</ele>
        <time>2017-06-11T08:51:46Z</time>
      </trkpt>
      <trkpt lat="47.45385" lon="6.648">
        <ele>321.200012</ele>
        <time>2017-06-11T08:51:47Z</time>
      </trkpt>
      <trkpt lat="47.45404" lon="6.64797">
        <ele>321.600006</ele>
        <time>2017-06-11T08:51:54Z</time>
      </trkpt>
      <trkpt lat="47.45407" lon="6.64797">
        <ele>322</ele>
        <time>2017-06-11T08:51:55Z</time>
      </trkpt>
      <trkpt lat="47.4541" lon="6.64797">
        <ele>322.600006</ele>
        <time>2017-06-11T08:51:56Z</time>
      </trkpt>
      <trkpt lat="47.45418" lon="6.64795">
        <ele>323.399994</ele>
        <time>2017-06-11T08:51:59Z</time>
      </trkpt>
      <trkpt lat="47.45431" lon="6.64794">
        <ele>323.799988</ele>
        <time>2017-06-11T08:52:04Z</time>
      </trkpt>
      <trkpt lat="47.45434" lon="6.64794">
        <ele>324.200012</ele>
        <time>2017-06-11T08:52:05Z</time>
      </trkpt>
      <trkpt lat="47.4544" lon="6.64796">
        <ele>325</ele>
        <time>2017-06-11T08:52:07Z</time>
      </trkpt>
      <trkpt lat="47.45443" lon="6.64796">
        <ele>325.399994</ele>
        <time>2017-06-11T08:52:08Z</time>
      </trkpt>
      <trkpt lat="47.45445" lon="6.64795">
        <ele>325.399994</ele>
        <time>2017-06-11T08:52:09Z</time>
      </trkpt>
      <trkpt lat="47.45446" lon="6.64791">
        <ele>325.399994</ele>
        <time>2017-06-11T08:52:10Z</time>
      </trkpt>
      <trkpt lat="47.45462" lon="6.64769">
        <ele>325.799988</ele>
        <time>2017-06-11T08:52:17Z</time>
      </trkpt>
      <trkpt lat="47.45464" lon="6.64766">
        <ele>326.200012</ele>
        <time>2017-06-11T08:52:18Z</time>
      </trkpt>
      <trkpt lat="47.45468" lon="6.6476">
        <ele>327</ele>
        <time>2017-06-11T08:52:20Z</time>
      </trkpt>
      <trkpt lat="47.4547" lon="6.64757">
        <ele>327.399994</ele>
        <time>2017-06-11T08:52:21Z</time>
      </trkpt>
      <trkpt lat="47.4548" lon="6.64737">
        <ele>328.399994</ele>
        <time>2017-06-11T08:52:27Z</time>
      </trkpt>
      <trkpt lat="47.45482" lon="6.64734">
        <ele>328.799988</ele>
        <time>2017-06-11T08:52:28Z</time>
      </trkpt>
      <trkpt lat="47.45485" lon="6.64728">
        <ele>329.799988</ele>
        <time>2017-06-11T08:52:30Z</time>
      </trkpt>
      <trkpt lat="47.45497" lon="6.64707">
        <ele>330.799988</ele>
        <time>2017-06-11T08:52:37Z</time>
      </trkpt>
      <trkpt lat="47.45499" lon="6.64704">
        <ele>331.200012</ele>
        <time>2017-06-11T08:52:38Z</time>
      </trkpt>
      <trkpt lat="47.45502" lon="6.64701">
        <ele>331.600006</ele>
        <time>2017-06-11T08:52:39Z</time>
      </trkpt>
      <trkpt lat="47.45504" lon="6.64701">
        <ele>332</ele>
        <time>2017-06-11T08:52:40Z</time>
      </trkpt>
      <trkpt lat="47.45506" lon="6.64701">
        <ele>332</ele>
        <time>2017-06-11T08:52:41Z</time>
      </trkpt>
      <trkpt lat="47.4552" lon="6.64701">
        <ele>332.399994</ele>
        <time>2017-06-11T08:52:46Z</time>
      </trkpt>
      <trkpt lat="47.45522" lon="6.647">
        <ele>332.799988</ele>
        <time>2017-06-11T08:52:47Z</time>
      </trkpt>
      <trkpt lat="47.45526" lon="6.64701">
        <ele>333.600006</ele>
        <time>2017-06-11T08:52:49Z</time>
      </trkpt>
      <trkpt lat="47.45529" lon="6.64701">
        <ele>334.200012</ele>
        <time>2017-06-11T08:52:50Z</time>
      </trkpt>
      <trkpt lat="47.45536" lon="6.647">
        <ele>334.200012</ele>
        <time>2017-06-11T08:52:53Z</time>
      </trkpt>
      <trkpt lat="47.45557" lon="6.64699">
        <ele>334.200012</ele>
        <time>2017-06-11T08:53:01Z</time>
      </trkpt>
      <trkpt lat="47.45563" lon="6.64698">
        <ele>334.600006</ele>
        <time>2017-06-11T08:53:03Z</time>
      </trkpt>
      <trkpt lat="47.45572" lon="6.64698">
        <ele>335.799988</ele>
        <time>2017-06-11T08:53:06Z</time>
      </trkpt>
      <trkpt lat="47.45575" lon="6.64699">
        <ele>336.200012</ele>
        <time>2017-06-11T08:53:07Z</time>
      </trkpt>
      <trkpt lat="47.45586" lon="6.64699">
        <ele>336.200012</ele>
        <time>2017-06-11T08:53:11Z</time>
      </trkpt>
      <trkpt lat="47.45596" lon="6.64698">
        <ele>336.600006</ele>
        <time>2017-06-11T08:53:15Z</time>
      </trkpt>
      <trkpt lat="47.45601" lon="6.64699">
        <ele>337.399994</ele>
        <time>2017-06-11T08:53:17Z</time>
      </trkpt>
      <trkpt lat="47.45607" lon="6.64699">
        <ele>338.200012</ele>
        <time>2017-06-11T08:53:19Z</time>
      </trkpt>
      <trkpt lat="47.45618" lon="6.64697">
        <ele>338.200012</ele>
        <time>2017-06-11T08:53:23Z</time>
      </trkpt>
      <trkpt lat="47.45636" lon="6.64698">
        <ele>338.200012</ele>
        <time>2017-06-11T08:53:30Z</time>
      </trkpt>
      <trkpt lat="47.45649" lon="6.64696">
        <ele>340</ele>
        <time>2017-06-11T08:53:35Z</time>
      </trkpt>
      <trkpt lat="47.45651" lon="6.64696">
        <ele>340.399994</ele>
        <time>2017-06-11T08:53:36Z</time>
      </trkpt>
      <trkpt lat="47.45654" lon="6.64696">
        <ele>340.399994</ele>
        <time>2017-06-11T08:53:37Z</time>
      </trkpt>
      <trkpt lat="47.45667" lon="6.64697">
        <ele>340.399994</ele>
        <time>2017-06-11T08:53:42Z</time>
      </trkpt>
      <trkpt lat="47.45681" lon="6.64697">
        <ele>340.799988</ele>
        <time>2017-06-11T08:53:47Z</time>
      </trkpt>
      <trkpt lat="47.45683" lon="6.64696">
        <ele>341.200012</ele>
        <time>2017-06-11T08:53:48Z</time>
      </trkpt>
      <trkpt lat="47.45692" lon="6.64696">
        <ele>342.399994</ele>
        <time>2017-06-11T08:53:51Z</time>
      </trkpt>
      <trkpt lat="47.45703" lon="6.64696">
        <ele>342.399994</ele>
        <time>2017-06-11T08:53:55Z</time>
      </trkpt>
      <trkpt lat="47.45711" lon="6.64697">
        <ele>342.799988</ele>
        <time>2017-06-11T08:53:58Z</time>
      </trkpt>
      <trkpt lat="47.45713" lon="6.64696">
        <ele>343.200012</ele>
        <time>2017-06-11T08:53:59Z</time>
      </trkpt>
      <trkpt lat="47.45731" lon="6.64696">
        <ele>344.600006</ele>
        <time>2017-06-11T08:54:06Z</time>
      </trkpt>
      <trkpt lat="47.45733" lon="6.64695">
        <ele>345</ele>
        <time>2017-06-11T08:54:07Z</time>
      </trkpt>
      <trkpt lat="47.4574" lon="6.64695">
        <ele>346.200012</ele>
        <time>2017-06-11T08:54:10Z</time>
      </trkpt>
      <trkpt lat="47.45746" lon="6.64694">
        <ele>346.600006</ele>
        <time>2017-06-11T08:54:12Z</time>
      </trkpt>
      <trkpt lat="47.4576" lon="6.64693">
        <ele>347</ele>
        <time>2017-06-11T08:54:18Z</time>
      </trkpt>
      <trkpt lat="47.45767" lon="6.64694">
        <ele>348.200012</ele>
        <time>2017-06-11T08:54:21Z</time>
      </trkpt>
      <trkpt lat="47.45776" lon="6.64692">
        <ele>348.600006</ele>
        <time>2017-06-11T08:54:25Z</time>
      </trkpt>
      <trkpt lat="47.4578" lon="6.64692">
        <ele>349</ele>
        <time>2017-06-11T08:54:27Z</time>
      </trkpt>
      <trkpt lat="47.45784" lon="6.64692">
        <ele>350</ele>
        <time>2017-06-11T08:54:29Z</time>
      </trkpt>
      <trkpt lat="47.45786" lon="6.64693">
        <ele>350.399994</ele>
        <time>2017-06-11T08:54:30Z</time>
      </trkpt>
      <trkpt lat="47.45788" lon="6.64694">
        <ele>350.799988</ele>
        <time>2017-06-11T08:54:31Z</time>
      </trkpt>
      <trkpt lat="47.45792" lon="6.64694">
        <ele>350.799988</ele>
        <time>2017-06-11T08:54:33Z</time>
      </trkpt>
      <trkpt lat="47.45797" lon="6.64695">
        <ele>351.200012</ele>
        <time>2017-06-11T08:54:35Z</time>
      </trkpt>
      <trkpt lat="47.458" lon="6.64697">
        <ele>352</ele>
        <time>2017-06-11T08:54:37Z</time>
      </trkpt>
      <trkpt lat="47.45804" lon="6.647">
        <ele>352.799988</ele>
        <time>2017-06-11T08:54:39Z</time>
      </trkpt>
      <trkpt lat="47.4581" lon="6.64703">
        <ele>352.799988</ele>
        <time>2017-06-11T08:54:42Z</time>
      </trkpt>
      <trkpt lat="47.45812" lon="6.64703">
        <ele>353.399994</ele>
        <time>2017-06-11T08:54:44Z</time>
      </trkpt>
      <trkpt lat="47.45813" lon="6.64701">
        <ele>353.799988</ele>
        <time>2017-06-11T08:54:45Z</time>
      </trkpt>
      <trkpt lat="47.45812" lon="6.64699">
        <ele>354.600006</ele>
        <time>2017-06-11T08:54:47Z</time>
      </trkpt>
      <trkpt lat="47.45812" lon="6.64697">
        <ele>355</ele>
        <time>2017-06-11T08:54:48Z</time>
      </trkpt>
      <trkpt lat="47.45808" lon="6.64687">
        <ele>355</ele>
        <time>2017-06-11T08:54:52Z</time>
      </trkpt>
      <trkpt lat="47.45803" lon="6.64671">
        <ele>355</ele>
        <time>2017-06-11T08:54:57Z</time>
      </trkpt>
      <trkpt lat="47.45797" lon="6.64648">
        <ele>355</ele>
        <time>2017-06-11T08:55:01Z</time>
      </trkpt>
      <trkpt lat="47.45792" lon="6.64614">
        <ele>354.600006</ele>
        <time>2017-06-11T08:55:06Z</time>
      </trkpt>
      <trkpt lat="47.45787" lon="6.64597">
        <ele>353.399994</ele>
        <time>2017-06-11T08:55:09Z</time>
      </trkpt>
      <trkpt lat="47.4578" lon="6.64559">
        <ele>352.799988</ele>
        <time>2017-06-11T08:55:15Z</time>
      </trkpt>
      <trkpt lat="47.45772" lon="6.64536">
        <ele>352</ele>
        <time>2017-06-11T08:55:19Z</time>
      </trkpt>
      <trkpt lat="47.4577" lon="6.64531">
        <ele>351.600006</ele>
        <time>2017-06-11T08:55:20Z</time>
      </trkpt>
      <trkpt lat="47.45766" lon="6.6452">
        <ele>350.600006</ele>
        <time>2017-06-11T08:55:22Z</time>
      </trkpt>
      <trkpt lat="47.45765" lon="6.64513">
        <ele>350.600006</ele>
        <time>2017-06-11T08:55:23Z</time>
      </trkpt>
      <trkpt lat="47.45762" lon="6.64499">
        <ele>350.600006</ele>
        <time>2017-06-11T08:55:25Z</time>
      </trkpt>
      <trkpt lat="47.4576" lon="6.64485">
        <ele>350.200012</ele>
        <time>2017-06-11T08:55:27Z</time>
      </trkpt>
      <trkpt lat="47.45757" lon="6.64472">
        <ele>349.200012</ele>
        <time>2017-06-11T08:55:29Z</time>
      </trkpt>
      <trkpt lat="47.45755" lon="6.64458">
        <ele>348.200012</ele>
        <time>2017-06-11T08:55:31Z</time>
      </trkpt>
      <trkpt lat="47.45751" lon="6.64449">
        <ele>347.799988</ele>
        <time>2017-06-11T08:55:33Z</time>
      </trkpt>
      <trkpt lat="47.45749" lon="6.64443">
        <ele>347.399994</ele>
        <time>2017-06-11T08:55:34Z</time>
      </trkpt>
      <trkpt lat="47.45752" lon="6.64433">
        <ele>346.200012</ele>
        <time>2017-06-11T08:55:37Z</time>
      </trkpt>
      <trkpt lat="47.4576" lon="6.64417">
        <ele>346.200012</ele>
        <time>2017-06-11T08:55:41Z</time>
      </trkpt>
      <trkpt lat="47.45767" lon="6.64395">
        <ele>346.200012</ele>
        <time>2017-06-11T08:55:46Z</time>
      </trkpt>
      <trkpt lat="47.45775" lon="6.64352">
        <ele>346.200012</ele>
        <time>2017-06-11T08:55:55Z</time>
      </trkpt>
      <trkpt lat="47.45779" lon="6.64341">
        <ele>346.200012</ele>
        <time>2017-06-11T08:55:57Z</time>
      </trkpt>
      <trkpt lat="47.45786" lon="6.64323">
        <ele>346.200012</ele>
        <time>2017-06-11T08:56:01Z</time>
      </trkpt>
      <trkpt lat="47.45794" lon="6.64292">
        <ele>346.200012</ele>
        <time>2017-06-11T08:56:07Z</time>
      </trkpt>
      <trkpt lat="47.45796" lon="6.64282">
        <ele>346.600006</ele>
        <time>2017-06-11T08:56:09Z</time>
      </trkpt>
      <trkpt lat="47.45797" lon="6.64277">
        <ele>347.399994</ele>
        <time>2017-06-11T08:56:11Z</time>
      </trkpt>
      <trkpt lat="47.45797" lon="6.64274">
        <ele>347.799988</ele>
        <time>2017-06-11T08:56:12Z</time>
      </trkpt>
      <trkpt lat="47.45803" lon="6.64258">
        <ele>348.200012</ele>
        <time>2017-06-11T08:56:16Z</time>
      </trkpt>
      <trkpt lat="47.4581" lon="6.64246">
        <ele>348.600006</ele>
        <time>2017-06-11T08:56:19Z</time>
      </trkpt>
      <trkpt lat="47.45813" lon="6.64239">
        <ele>349.600006</ele>
        <time>2017-06-11T08:56:21Z</time>
      </trkpt>
      <trkpt lat="47.4582" lon="6.6421">
        <ele>351.200012</ele>
        <time>2017-06-11T08:56:29Z</time>
      </trkpt>
      <trkpt lat="47.4582" lon="6.64205">
        <ele>351.600006</ele>
        <time>2017-06-11T08:56:30Z</time>
      </trkpt>
      <trkpt lat="47.45821" lon="6.64202">
        <ele>352</ele>
        <time>2017-06-11T08:56:31Z</time>
      </trkpt>
      <trkpt lat="47.45822" lon="6.64198">
        <ele>352.399994</ele>
        <time>2017-06-11T08:56:32Z</time>
      </trkpt>
      <trkpt lat="47.4582" lon="6.64178">
        <ele>352.399994</ele>
        <time>2017-06-11T08:56:37Z</time>
      </trkpt>
      <trkpt lat="47.45813" lon="6.64156">
        <ele>352.399994</ele>
        <time>2017-06-11T08:56:42Z</time>
      </trkpt>
      <trkpt lat="47.45807" lon="6.64128">
        <ele>352.399994</ele>
        <time>2017-06-11T08:56:47Z</time>
      </trkpt>
      <trkpt lat="47.45807" lon="6.64074">
        <ele>352.399994</ele>
        <time>2017-06-11T08:56:57Z</time>
      </trkpt>
      <trkpt lat="47.45804" lon="6.64051">
        <ele>352.399994</ele>
        <time>2017-06-11T08:57:02Z</time>
      </trkpt>
      <trkpt lat="47.45804" lon="6.64029">
        <ele>352.399994</ele>
        <time>2017-06-11T08:57:06Z</time>
      </trkpt>
      <trkpt lat="47.45804" lon="6.63998">
        <ele>352.399994</ele>
        <time>2017-06-11T08:57:11Z</time>
      </trkpt>
      <trkpt lat="47.45803" lon="6.63973">
        <ele>352.399994</ele>
        <time>2017-06-11T08:57:15Z</time>
      </trkpt>
      <trkpt lat="47.45803" lon="6.63961">
        <ele>352.399994</ele>
        <time>2017-06-11T08:57:17Z</time>
      </trkpt>
      <trkpt lat="47.45802" lon="6.63954">
        <ele>352.399994</ele>
        <time>2017-06-11T08:57:18Z</time>
      </trkpt>
      <trkpt lat="47.458" lon="6.63915">
        <ele>352.399994</ele>
        <time>2017-06-11T08:57:25Z</time>
      </trkpt>
      <trkpt lat="47.458" lon="6.63908">
        <ele>352.399994</ele>
        <time>2017-06-11T08:57:26Z</time>
      </trkpt>
      <trkpt lat="47.45802" lon="6.63893">
        <ele>352.399994</ele>
        <time>2017-06-11T08:57:29Z</time>
      </trkpt>
      <trkpt lat="47.45804" lon="6.63868">
        <ele>352.399994</ele>
        <time>2017-06-11T08:57:34Z</time>
      </trkpt>
      <trkpt lat="47.45808" lon="6.63851">
        <ele>352.399994</ele>
        <time>2017-06-11T08:57:38Z</time>
      </trkpt>
      <trkpt lat="47.45807" lon="6.63837">
        <ele>352</ele>
        <time>2017-06-11T08:57:41Z</time>
      </trkpt>
      <trkpt lat="47.45804" lon="6.63828">
        <ele>350.799988</ele>
        <time>2017-06-11T08:57:43Z</time>
      </trkpt>
      <trkpt lat="47.45804" lon="6.63823">
        <ele>350.200012</ele>
        <time>2017-06-11T08:57:44Z</time>
      </trkpt>
      <trkpt lat="47.45802" lon="6.63819">
        <ele>349.799988</ele>
        <time>2017-06-11T08:57:45Z</time>
      </trkpt>
      <trkpt lat="47.45802" lon="6.63814">
        <ele>349.200012</ele>
        <time>2017-06-11T08:57:46Z</time>
      </trkpt>
      <trkpt lat="47.458" lon="6.63809">
        <ele>348.799988</ele>
        <time>2017-06-11T08:57:47Z</time>
      </trkpt>
      <trkpt lat="47.45799" lon="6.63803">
        <ele>348.200012</ele>
        <time>2017-06-11T08:57:48Z</time>
      </trkpt>
      <trkpt lat="47.45796" lon="6.63793">
        <ele>346.799988</ele>
        <time>2017-06-11T08:57:50Z</time>
      </trkpt>
      <trkpt lat="47.45795" lon="6.63789">
        <ele>346</ele>
        <time>2017-06-11T08:57:51Z</time>
      </trkpt>
      <trkpt lat="47.45794" lon="6.63784">
        <ele>345.200012</ele>
        <time>2017-06-11T08:57:52Z</time>
      </trkpt>
      <trkpt lat="47.4579" lon="6.63772">
        <ele>343.600006</ele>
        <time>2017-06-11T08:57:54Z</time>
      </trkpt>
      <trkpt lat="47.45789" lon="6.63767">
        <ele>342.799988</ele>
        <time>2017-06-11T08:57:55Z</time>
      </trkpt>
      <trkpt lat="47.45787" lon="6.63755">
        <ele>341.200012</ele>
        <time>2017-06-11T08:57:57Z</time>
      </trkpt>
      <trkpt lat="47.45786" lon="6.63739">
        <ele>339.600006</ele>
        <time>2017-06-11T08:57:59Z</time>
      </trkpt>
      <trkpt lat="47.45784" lon="6.63732">
        <ele>338.799988</ele>
        <time>2017-06-11T08:58:00Z</time>
      </trkpt>
      <trkpt lat="47.45781" lon="6.63729">
        <ele>338</ele>
        <time>2017-06-11T08:58:01Z</time>
      </trkpt>
      <trkpt lat="47.45777" lon="6.63723">
        <ele>337.200012</ele>
        <time>2017-06-11T08:58:03Z</time>
      </trkpt>
      <trkpt lat="47.45775" lon="6.63719">
        <ele>336.600006</ele>
        <time>2017-06-11T08:58:04Z</time>
      </trkpt>
      <trkpt lat="47.45772" lon="6.63714">
        <ele>336.200012</ele>
        <time>2017-06-11T08:58:05Z</time>
      </trkpt>
      <trkpt lat="47.45769" lon="6.6371">
        <ele>335.799988</ele>
        <time>2017-06-11T08:58:06Z</time>
      </trkpt>
      <trkpt lat="47.45762" lon="6.63702">
        <ele>335</ele>
        <time>2017-06-11T08:58:09Z</time>
      </trkpt>
      <trkpt lat="47.45756" lon="6.63699">
        <ele>334.200012</ele>
        <time>2017-06-11T08:58:11Z</time>
      </trkpt>
      <trkpt lat="47.45749" lon="6.63695">
        <ele>333.799988</ele>
        <time>2017-06-11T08:58:13Z</time>
      </trkpt>
      <trkpt lat="47.45745" lon="6.63693">
        <ele>333.200012</ele>
        <time>2017-06-11T08:58:14Z</time>
      </trkpt>
      <trkpt lat="47.45739" lon="6.63687">
        <ele>332.399994</ele>
        <time>2017-06-11T08:58:16Z</time>
      </trkpt>
      <trkpt lat="47.45735" lon="6.63682">
        <ele>332</ele>
        <time>2017-06-11T08:58:17Z</time>
      </trkpt>
      <trkpt lat="47.45729" lon="6.63677">
        <ele>331.600006</ele>
        <time>2017-06-11T08:58:18Z</time>
      </trkpt>
      <trkpt lat="47.45722" lon="6.63672">
        <ele>330.399994</ele>
        <time>2017-06-11T08:58:20Z</time>
      </trkpt>
      <trkpt lat="47.45719" lon="6.63671">
        <ele>330</ele>
        <time>2017-06-11T08:58:21Z</time>
      </trkpt>
      <trkpt lat="47.45715" lon="6.63669">
        <ele>329.399994</ele>
        <time>2017-06-11T08:58:22Z</time>
      </trkpt>
      <trkpt lat="47.45709" lon="6.63666">
        <ele>328.600006</ele>
        <time>2017-06-11T08:58:24Z</time>
      </trkpt>
      <trkpt lat="47.45703" lon="6.6366">
        <ele>328.200012</ele>
        <time>2017-06-11T08:58:25Z</time>
      </trkpt>
      <trkpt lat="47.45697" lon="6.63655">
        <ele>327.799988</ele>
        <time>2017-06-11T08:58:26Z</time>
      </trkpt>
      <trkpt lat="47.45692" lon="6.6365">
        <ele>327.200012</ele>
        <time>2017-06-11T08:58:27Z</time>
      </trkpt>
      <trkpt lat="47.45686" lon="6.63649">
        <ele>326.799988</ele>
        <time>2017-06-11T08:58:28Z</time>
      </trkpt>
      <trkpt lat="47.45667" lon="6.6364">
        <ele>326.799988</ele>
        <time>2017-06-11T08:58:32Z</time>
      </trkpt>
      <trkpt lat="47.45648" lon="6.63626">
        <ele>326.799988</ele>
        <time>2017-06-11T08:58:37Z</time>
      </trkpt>
      <trkpt lat="47.45626" lon="6.63615">
        <ele>326.399994</ele>
        <time>2017-06-11T08:58:41Z</time>
      </trkpt>
      <trkpt lat="47.45621" lon="6.63612">
        <ele>326</ele>
        <time>2017-06-11T08:58:42Z</time>
      </trkpt>
      <trkpt lat="47.45616" lon="6.6361">
        <ele>325.600006</ele>
        <time>2017-06-11T08:58:43Z</time>
      </trkpt>
      <trkpt lat="47.4561" lon="6.63609">
        <ele>325.200012</ele>
        <time>2017-06-11T08:58:44Z</time>
      </trkpt>
      <trkpt lat="47.45606" lon="6.63608">
        <ele>324.799988</ele>
        <time>2017-06-11T08:58:45Z</time>
      </trkpt>
      <trkpt lat="47.45601" lon="6.63607">
        <ele>324.799988</ele>
        <time>2017-06-11T08:58:46Z</time>
      </trkpt>
      <trkpt lat="47.45588" lon="6.63601">
        <ele>324.799988</ele>
        <time>2017-06-11T08:58:49Z</time>
      </trkpt>
      <trkpt lat="47.45584" lon="6.63598">
        <ele>324.799988</ele>
        <time>2017-06-11T08:58:50Z</time>
      </trkpt>
      <trkpt lat="47.45577" lon="6.63596">
        <ele>324</ele>
        <time>2017-06-11T08:58:52Z</time>
      </trkpt>
      <trkpt lat="47.45569" lon="6.63599">
        <ele>323.200012</ele>
        <time>2017-06-11T08:58:54Z</time>
      </trkpt>
      <trkpt lat="47.45564" lon="6.636">
        <ele>322.799988</ele>
        <time>2017-06-11T08:58:55Z</time>
      </trkpt>
      <trkpt lat="47.45538" lon="6.63596">
        <ele>322.399994</ele>
        <time>2017-06-11T08:59:00Z</time>
      </trkpt>
      <trkpt lat="47.45535" lon="6.63596">
        <ele>322</ele>
        <time>2017-06-11T08:59:01Z</time>
      </trkpt>
      <trkpt lat="47.4553" lon="6.63598">
        <ele>320.600006</ele>
        <time>2017-06-11T08:59:04Z</time>
      </trkpt>
      <trkpt lat="47.45527" lon="6.636">
        <ele>320.600006</ele>
        <time>2017-06-11T08:59:05Z</time>
      </trkpt>
      <trkpt lat="47.45517" lon="6.63604">
        <ele>319.799988</ele>
        <time>2017-06-11T08:59:08Z</time>
      </trkpt>
      <trkpt lat="47.45515" lon="6.63602">
        <ele>319.200012</ele>
        <time>2017-06-11T08:59:09Z</time>
      </trkpt>
      <trkpt lat="47.45516" lon="6.636">
        <ele>318.600006</ele>
        <time>2017-06-11T08:59:10Z</time>
      </trkpt>
      <trkpt lat="47.45515" lon="6.63598">
        <ele>318.200012</ele>
        <time>2017-06-11T08:59:11Z</time>
      </trkpt>
      <trkpt lat="47.45514" lon="6.63595">
        <ele>317.399994</ele>
        <time>2017-06-11T08:59:12Z</time>
      </trkpt>
      <trkpt lat="47.45512" lon="6.63594">
        <ele>316.399994</ele>
        <time>2017-06-11T08:59:13Z</time>
      </trkpt>
      <trkpt lat="47.45511" lon="6.63591">
        <ele>315.600006</ele>
        <time>2017-06-11T08:59:14Z</time>
      </trkpt>
      <trkpt lat="47.45509" lon="6.63589">
        <ele>314.799988</ele>
        <time>2017-06-11T08:59:15Z</time>
      </trkpt>
      <trkpt lat="47.45508" lon="6.63587">
        <ele>314.200012</ele>
        <time>2017-06-11T08:59:16Z</time>
      </trkpt>
      <trkpt lat="47.45506" lon="6.63586">
        <ele>313.399994</ele>
        <time>2017-06-11T08:59:17Z</time>
      </trkpt>
      <trkpt lat="47.45504" lon="6.63584">
        <ele>312.600006</ele>
        <time>2017-06-11T08:59:18Z</time>
      </trkpt>
      <trkpt lat="47.45503" lon="6.63583">
        <ele>311.799988</ele>
        <time>2017-06-11T08:59:19Z</time>
      </trkpt>
      <trkpt lat="47.45503" lon="6.6358">
        <ele>310.799988</ele>
        <time>2017-06-11T08:59:20Z</time>
      </trkpt>
      <trkpt lat="47.45503" lon="6.63576">
        <ele>309</ele>
        <time>2017-06-11T08:59:21Z</time>
      </trkpt>
      <trkpt lat="47.45502" lon="6.63575">
        <ele>308.200012</ele>
        <time>2017-06-11T08:59:22Z</time>
      </trkpt>
      <trkpt lat="47.455" lon="6.63577">
        <ele>307.200012</ele>
        <time>2017-06-11T08:59:23Z</time>
      </trkpt>
      <trkpt lat="47.45489" lon="6.6358">
        <ele>306.200012</ele>
        <time>2017-06-11T08:59:24Z</time>
      </trkpt>
      <trkpt lat="47.45476" lon="6.63581">
        <ele>305.799988</ele>
        <time>2017-06-11T08:59:27Z</time>
      </trkpt>
      <trkpt lat="47.4546" lon="6.63587">
        <ele>304.200012</ele>
        <time>2017-06-11T08:59:47Z</time>
      </trkpt>
      <trkpt lat="47.45448" lon="6.63583">
        <ele>304.200012</ele>
        <time>2017-06-11T09:01:17Z</time>
      </trkpt>
      <trkpt lat="47.45441" lon="6.6358">
        <ele>304.200012</ele>
        <time>2017-06-11T09:01:19Z</time>
      </trkpt>
      <trkpt lat="47.45439" lon="6.6358">
        <ele>304.200012</ele>
        <time>2017-06-11T09:01:20Z</time>
      </trkpt>
      <trkpt lat="47.45431" lon="6.63584">
        <ele>304.200012</ele>
        <time>2017-06-11T09:01:23Z</time>
      </trkpt>
      <trkpt lat="47.4541" lon="6.63594">
        <ele>304.200012</ele>
        <time>2017-06-11T09:01:29Z</time>
      </trkpt>
      <trkpt lat="47.45384" lon="6.63612">
        <ele>304.200012</ele>
        <time>2017-06-11T09:01:36Z</time>
      </trkpt>
      <trkpt lat="47.45354" lon="6.63629">
        <ele>304.200012</ele>
        <time>2017-06-11T09:01:43Z</time>
      </trkpt>
      <trkpt lat="47.45349" lon="6.63631">
        <ele>303.799988</ele>
        <time>2017-06-11T09:01:44Z</time>
      </trkpt>
      <trkpt lat="47.4534" lon="6.63633">
        <ele>303</ele>
        <time>2017-06-11T09:01:46Z</time>
      </trkpt>
      <trkpt lat="47.45336" lon="6.63633">
        <ele>302.600006</ele>
        <time>2017-06-11T09:01:47Z</time>
      </trkpt>
      <trkpt lat="47.45328" lon="6.63634">
        <ele>302.200012</ele>
        <time>2017-06-11T09:01:49Z</time>
      </trkpt>
      <trkpt lat="47.45309" lon="6.63642">
        <ele>302.200012</ele>
        <time>2017-06-11T09:01:54Z</time>
      </trkpt>
      <trkpt lat="47.45302" lon="6.6364">
        <ele>302.200012</ele>
        <time>2017-06-11T09:01:56Z</time>
      </trkpt>
      <trkpt lat="47.45299" lon="6.63629">
        <ele>302.200012</ele>
        <time>2017-06-11T09:01:58Z</time>
      </trkpt>
      <trkpt lat="47.45303" lon="6.63617">
        <ele>302.200012</ele>
        <time>2017-06-11T09:02:00Z</time>
      </trkpt>
      <trkpt lat="47.4532" lon="6.6356">
        <ele>302.200012</ele>
        <time>2017-06-11T09:02:10Z</time>
      </trkpt>
      <trkpt lat="47.45327" lon="6.63539">
        <ele>303</ele>
        <time>2017-06-11T09:02:14Z</time>
      </trkpt>
      <trkpt lat="47.45333" lon="6.63524">
        <ele>304.200012</ele>
        <time>2017-06-11T09:02:17Z</time>
      </trkpt>
      <trkpt lat="47.45348" lon="6.6349">
        <ele>304.200012</ele>
        <time>2017-06-11T09:02:24Z</time>
      </trkpt>
      <trkpt lat="47.45354" lon="6.63475">
        <ele>305</ele>
        <time>2017-06-11T09:02:27Z</time>
      </trkpt>
      <trkpt lat="47.45358" lon="6.63465">
        <ele>305.799988</ele>
        <time>2017-06-11T09:02:29Z</time>
      </trkpt>
      <trkpt lat="47.45379" lon="6.63412">
        <ele>307.399994</ele>
        <time>2017-06-11T09:02:40Z</time>
      </trkpt>
      <trkpt lat="47.45381" lon="6.63407">
        <ele>307.799988</ele>
        <time>2017-06-11T09:02:41Z</time>
      </trkpt>
      <trkpt lat="47.45401" lon="6.63357">
        <ele>308.200012</ele>
        <time>2017-06-11T09:02:51Z</time>
      </trkpt>
      <trkpt lat="47.45404" lon="6.63346">
        <ele>308.600006</ele>
        <time>2017-06-11T09:02:53Z</time>
      </trkpt>
      <trkpt lat="47.45408" lon="6.63337">
        <ele>309.600006</ele>
        <time>2017-06-11T09:02:55Z</time>
      </trkpt>
      <trkpt lat="47.45411" lon="6.63333">
        <ele>310</ele>
        <time>2017-06-11T09:02:56Z</time>
      </trkpt>
      <trkpt lat="47.45419" lon="6.63328">
        <ele>310.399994</ele>
        <time>2017-06-11T09:02:58Z</time>
      </trkpt>
      <trkpt lat="47.45435" lon="6.63323">
        <ele>310.399994</ele>
        <time>2017-06-11T09:03:02Z</time>
      </trkpt>
      <trkpt lat="47.45452" lon="6.6331">
        <ele>310.399994</ele>
        <time>2017-06-11T09:03:07Z</time>
      </trkpt>
      <trkpt lat="47.45453" lon="6.63305">
        <ele>310.399994</ele>
        <time>2017-06-11T09:03:08Z</time>
      </trkpt>
      <trkpt lat="47.45453" lon="6.63294">
        <ele>310.399994</ele>
        <time>2017-06-11T09:03:12Z</time>
      </trkpt>
      <trkpt lat="47.45455" lon="6.63289">
        <ele>310.799988</ele>
        <time>2017-06-11T09:03:14Z</time>
      </trkpt>
      <trkpt lat="47.45456" lon="6.63285">
        <ele>311.200012</ele>
        <time>2017-06-11T09:03:15Z</time>
      </trkpt>
      <trkpt lat="47.45457" lon="6.63278">
        <ele>312</ele>
        <time>2017-06-11T09:03:17Z</time>
      </trkpt>
      <trkpt lat="47.45459" lon="6.63274">
        <ele>312.399994</ele>
        <time>2017-06-11T09:03:18Z</time>
      </trkpt>
      <trkpt lat="47.45461" lon="6.63268">
        <ele>312.399994</ele>
        <time>2017-06-11T09:03:21Z</time>
      </trkpt>
      <trkpt lat="47.45462" lon="6.63266">
        <ele>312.399994</ele>
        <time>2017-06-11T09:03:23Z</time>
      </trkpt>
      <trkpt lat="47.45462" lon="6.63265">
        <ele>312.399994</ele>
        <time>2017-06-11T09:03:27Z</time>
      </trkpt>
      <trkpt lat="47.45462" lon="6.63269">
        <ele>312.399994</ele>
        <time>2017-06-11T09:03:30Z</time>
      </trkpt>
      <trkpt lat="47.45461" lon="6.63269">
        <ele>312.399994</ele>
        <time>2017-06-11T09:03:31Z</time>
      </trkpt>
      <trkpt lat="47.45455" lon="6.63285">
        <ele>312.399994</ele>
        <time>2017-06-11T09:03:36Z</time>
      </trkpt>
      <trkpt lat="47.45454" lon="6.63311">
        <ele>312.399994</ele>
        <time>2017-06-11T09:03:42Z</time>
      </trkpt>
      <trkpt lat="47.45458" lon="6.63309">
        <ele>312.399994</ele>
        <time>2017-06-11T09:03:45Z</time>
      </trkpt>
      <trkpt lat="47.45454" lon="6.63301">
        <ele>312.399994</ele>
        <time>2017-06-11T09:03:48Z</time>
      </trkpt>
      <trkpt lat="47.45455" lon="6.63289">
        <ele>312.399994</ele>
        <time>2017-06-11T09:03:52Z</time>
      </trkpt>
      <trkpt lat="47.45457" lon="6.63283">
        <ele>312.399994</ele>
        <time>2017-06-11T09:03:54Z</time>
      </trkpt>
      <trkpt lat="47.45461" lon="6.63271">
        <ele>312.399994</ele>
        <time>2017-06-11T09:03:58Z</time>
      </trkpt>
      <trkpt lat="47.45468" lon="6.63257">
        <ele>312.399994</ele>
        <time>2017-06-11T09:04:03Z</time>
      </trkpt>
      <trkpt lat="47.45482" lon="6.63225">
        <ele>313.799988</ele>
        <time>2017-06-11T09:04:13Z</time>
      </trkpt>
      <trkpt lat="47.45484" lon="6.63222">
        <ele>314.200012</ele>
        <time>2017-06-11T09:04:14Z</time>
      </trkpt>
      <trkpt lat="47.45492" lon="6.63209">
        <ele>314.799988</ele>
        <time>2017-06-11T09:04:19Z</time>
      </trkpt>
      <trkpt lat="47.45496" lon="6.63206">
        <ele>315.200012</ele>
        <time>2017-06-11T09:04:21Z</time>
      </trkpt>
      <trkpt lat="47.45497" lon="6.63205">
        <ele>315.600006</ele>
        <time>2017-06-11T09:04:22Z</time>
      </trkpt>
      <trkpt lat="47.45499" lon="6.63203">
        <ele>316</ele>
        <time>2017-06-11T09:04:23Z</time>
      </trkpt>
      <trkpt lat="47.455" lon="6.632">
        <ele>316.600006</ele>
        <time>2017-06-11T09:04:24Z</time>
      </trkpt>
      <trkpt lat="47.45501" lon="6.63199">
        <ele>317</ele>
        <time>2017-06-11T09:04:25Z</time>
      </trkpt>
      <trkpt lat="47.45505" lon="6.63194">
        <ele>317</ele>
        <time>2017-06-11T09:04:29Z</time>
      </trkpt>
      <trkpt lat="47.45512" lon="6.63188">
        <ele>317.399994</ele>
        <time>2017-06-11T09:04:32Z</time>
      </trkpt>
      <trkpt lat="47.45514" lon="6.63187">
        <ele>317.799988</ele>
        <time>2017-06-11T09:04:33Z</time>
      </trkpt>
      <trkpt lat="47.45515" lon="6.63183">
        <ele>318.799988</ele>
        <time>2017-06-11T09:04:35Z</time>
      </trkpt>
      <trkpt lat="47.45516" lon="6.63179">
        <ele>319.200012</ele>
        <time>2017-06-11T09:04:36Z</time>
      </trkpt>
      <trkpt lat="47.45521" lon="6.63169">
        <ele>319.200012</ele>
        <time>2017-06-11T09:04:39Z</time>
      </trkpt>
      <trkpt lat="47.45526" lon="6.63162">
        <ele>320.600006</ele>
        <time>2017-06-11T09:04:43Z</time>
      </trkpt>
      <trkpt lat="47.45528" lon="6.63155">
        <ele>321.600006</ele>
        <time>2017-06-11T09:04:45Z</time>
      </trkpt>
      <trkpt lat="47.4553" lon="6.63146">
        <ele>321.600006</ele>
        <time>2017-06-11T09:04:48Z</time>
      </trkpt>
      <trkpt lat="47.45531" lon="6.63144">
        <ele>322</ele>
        <time>2017-06-11T09:04:49Z</time>
      </trkpt>
      <trkpt lat="47.45532" lon="6.6314">
        <ele>322.399994</ele>
        <time>2017-06-11T09:04:50Z</time>
      </trkpt>
      <trkpt lat="47.45534" lon="6.63133">
        <ele>323.200012</ele>
        <time>2017-06-11T09:04:52Z</time>
      </trkpt>
      <trkpt lat="47.45535" lon="6.63129">
        <ele>323.600006</ele>
        <time>2017-06-11T09:04:53Z</time>
      </trkpt>
      <trkpt lat="47.45539" lon="6.63118">
        <ele>324.200012</ele>
        <time>2017-06-11T09:04:56Z</time>
      </trkpt>
      <trkpt lat="47.45541" lon="6.63112">
        <ele>325</ele>
        <time>2017-06-11T09:04:58Z</time>
      </trkpt>
      <trkpt lat="47.45542" lon="6.6311">
        <ele>325.399994</ele>
        <time>2017-06-11T09:04:59Z</time>
      </trkpt>
      <trkpt lat="47.45545" lon="6.63098">
        <ele>325.799988</ele>
        <time>2017-06-11T09:05:03Z</time>
      </trkpt>
      <trkpt lat="47.45546" lon="6.6309">
        <ele>326.600006</ele>
        <time>2017-06-11T09:05:05Z</time>
      </trkpt>
      <trkpt lat="47.45546" lon="6.63076">
        <ele>327.799988</ele>
        <time>2017-06-11T09:05:09Z</time>
      </trkpt>
      <trkpt lat="47.45545" lon="6.63058">
        <ele>327.799988</ele>
        <time>2017-06-11T09:05:14Z</time>
      </trkpt>
      <trkpt lat="47.45543" lon="6.63054">
        <ele>327.799988</ele>
        <time>2017-06-11T09:05:15Z</time>
      </trkpt>
      <trkpt lat="47.45544" lon="6.63047">
        <ele>328.200012</ele>
        <time>2017-06-11T09:05:17Z</time>
      </trkpt>
      <trkpt lat="47.45543" lon="6.63041">
        <ele>329</ele>
        <time>2017-06-11T09:05:19Z</time>
      </trkpt>
      <trkpt lat="47.45544" lon="6.63033">
        <ele>330</ele>
        <time>2017-06-11T09:05:21Z</time>
      </trkpt>
      <trkpt lat="47.45546" lon="6.63015">
        <ele>330</ele>
        <time>2017-06-11T09:05:26Z</time>
      </trkpt>
      <trkpt lat="47.45547" lon="6.63012">
        <ele>330.399994</ele>
        <time>2017-06-11T09:05:27Z</time>
      </trkpt>
      <trkpt lat="47.45548" lon="6.63008">
        <ele>330.799988</ele>
        <time>2017-06-11T09:05:28Z</time>
      </trkpt>
      <trkpt lat="47.45549" lon="6.63006">
        <ele>331.200012</ele>
        <time>2017-06-11T09:05:29Z</time>
      </trkpt>
      <trkpt lat="47.4555" lon="6.63">
        <ele>332</ele>
        <time>2017-06-11T09:05:31Z</time>
      </trkpt>
      <trkpt lat="47.45558" lon="6.62988">
        <ele>332.399994</ele>
        <time>2017-06-11T09:05:36Z</time>
      </trkpt>
      <trkpt lat="47.4556" lon="6.62986">
        <ele>332.799988</ele>
        <time>2017-06-11T09:05:37Z</time>
      </trkpt>
      <trkpt lat="47.45562" lon="6.62986">
        <ele>333.200012</ele>
        <time>2017-06-11T09:05:38Z</time>
      </trkpt>
      <trkpt lat="47.45568" lon="6.62983">
        <ele>334</ele>
        <time>2017-06-11T09:05:40Z</time>
      </trkpt>
      <trkpt lat="47.45569" lon="6.62982">
        <ele>334</ele>
        <time>2017-06-11T09:05:41Z</time>
      </trkpt>
      <trkpt lat="47.45577" lon="6.62977">
        <ele>334.399994</ele>
        <time>2017-06-11T09:05:47Z</time>
      </trkpt>
      <trkpt lat="47.4558" lon="6.62974">
        <ele>334.799988</ele>
        <time>2017-06-11T09:05:48Z</time>
      </trkpt>
      <trkpt lat="47.45585" lon="6.62971">
        <ele>335.600006</ele>
        <time>2017-06-11T09:05:50Z</time>
      </trkpt>
      <trkpt lat="47.45587" lon="6.62971">
        <ele>336</ele>
        <time>2017-06-11T09:05:51Z</time>
      </trkpt>
      <trkpt lat="47.45594" lon="6.62966">
        <ele>336</ele>
        <time>2017-06-11T09:05:54Z</time>
      </trkpt>
      <trkpt lat="47.45601" lon="6.62963">
        <ele>336.399994</ele>
        <time>2017-06-11T09:05:56Z</time>
      </trkpt>
      <trkpt lat="47.45607" lon="6.62962">
        <ele>337.399994</ele>
        <time>2017-06-11T09:05:58Z</time>
      </trkpt>
      <trkpt lat="47.45611" lon="6.6296">
        <ele>337.799988</ele>
        <time>2017-06-11T09:05:59Z</time>
      </trkpt>
      <trkpt lat="47.45613" lon="6.62959">
        <ele>338.200012</ele>
        <time>2017-06-11T09:06:00Z</time>
      </trkpt>
      <trkpt lat="47.45629" lon="6.62952">
        <ele>338.600006</ele>
        <time>2017-06-11T09:06:06Z</time>
      </trkpt>
      <trkpt lat="47.45635" lon="6.62949">
        <ele>340</ele>
        <time>2017-06-11T09:06:09Z</time>
      </trkpt>
      <trkpt lat="47.45655" lon="6.62945">
        <ele>341.200012</ele>
        <time>2017-06-11T09:06:16Z</time>
      </trkpt>
      <trkpt lat="47.45657" lon="6.62944">
        <ele>341.600006</ele>
        <time>2017-06-11T09:06:17Z</time>
      </trkpt>
      <trkpt lat="47.4566" lon="6.62943">
        <ele>342</ele>
        <time>2017-06-11T09:06:18Z</time>
      </trkpt>
      <trkpt lat="47.45662" lon="6.62942">
        <ele>342.399994</ele>
        <time>2017-06-11T09:06:19Z</time>
      </trkpt>
      <trkpt lat="47.45668" lon="6.62939">
        <ele>342.399994</ele>
        <time>2017-06-11T09:06:22Z</time>
      </trkpt>
      <trkpt lat="47.45674" lon="6.62935">
        <ele>343.399994</ele>
        <time>2017-06-11T09:06:25Z</time>
      </trkpt>
      <trkpt lat="47.45677" lon="6.62933">
        <ele>343.799988</ele>
        <time>2017-06-11T09:06:26Z</time>
      </trkpt>
      <trkpt lat="47.45681" lon="6.62929">
        <ele>344.799988</ele>
        <time>2017-06-11T09:06:28Z</time>
      </trkpt>
      <trkpt lat="47.45693" lon="6.62921">
        <ele>344.799988</ele>
        <time>2017-06-11T09:06:34Z</time>
      </trkpt>
      <trkpt lat="47.457" lon="6.62917">
        <ele>345.600006</ele>
        <time>2017-06-11T09:06:37Z</time>
      </trkpt>
      <trkpt lat="47.45704" lon="6.62914">
        <ele>346.399994</ele>
        <time>2017-06-11T09:06:39Z</time>
      </trkpt>
      <trkpt lat="47.45707" lon="6.62913">
        <ele>346.799988</ele>
        <time>2017-06-11T09:06:40Z</time>
      </trkpt>
      <trkpt lat="47.45716" lon="6.62905">
        <ele>346.799988</ele>
        <time>2017-06-11T09:06:45Z</time>
      </trkpt>
      <trkpt lat="47.45717" lon="6.62902">
        <ele>347.200012</ele>
        <time>2017-06-11T09:06:46Z</time>
      </trkpt>
      <trkpt lat="47.45719" lon="6.629">
        <ele>347.600006</ele>
        <time>2017-06-11T09:06:47Z</time>
      </trkpt>
      <trkpt lat="47.45723" lon="6.62896">
        <ele>348.399994</ele>
        <time>2017-06-11T09:06:49Z</time>
      </trkpt>
      <trkpt lat="47.45727" lon="6.62893">
        <ele>348.799988</ele>
        <time>2017-06-11T09:06:51Z</time>
      </trkpt>
      <trkpt lat="47.45734" lon="6.62882">
        <ele>348.799988</ele>
        <time>2017-06-11T09:06:56Z</time>
      </trkpt>
      <trkpt lat="47.4574" lon="6.62871">
        <ele>349.600006</ele>
        <time>2017-06-11T09:07:00Z</time>
      </trkpt>
      <trkpt lat="47.45745" lon="6.62863">
        <ele>350.799988</ele>
        <time>2017-06-11T09:07:03Z</time>
      </trkpt>
      <trkpt lat="47.45754" lon="6.62847">
        <ele>350.799988</ele>
        <time>2017-06-11T09:07:09Z</time>
      </trkpt>
      <trkpt lat="47.45755" lon="6.62845">
        <ele>351.200012</ele>
        <time>2017-06-11T09:07:10Z</time>
      </trkpt>
      <trkpt lat="47.45759" lon="6.62838">
        <ele>352.399994</ele>
        <time>2017-06-11T09:07:13Z</time>
      </trkpt>
      <trkpt lat="47.4576" lon="6.62835">
        <ele>352.799988</ele>
        <time>2017-06-11T09:07:14Z</time>
      </trkpt>
      <trkpt lat="47.45766" lon="6.62822">
        <ele>352.799988</ele>
        <time>2017-06-11T09:07:20Z</time>
      </trkpt>
      <trkpt lat="47.45771" lon="6.6281">
        <ele>353.200012</ele>
        <time>2017-06-11T09:07:25Z</time>
      </trkpt>
      <trkpt lat="47.45775" lon="6.62803">
        <ele>354.399994</ele>
        <time>2017-06-11T09:07:28Z</time>
      </trkpt>
      <trkpt lat="47.45788" lon="6.62785">
        <ele>355.200012</ele>
        <time>2017-06-11T09:07:35Z</time>
      </trkpt>
      <trkpt lat="47.45792" lon="6.62778">
        <ele>356.600006</ele>
        <time>2017-06-11T09:07:38Z</time>
      </trkpt>
      <trkpt lat="47.45793" lon="6.62775">
        <ele>357</ele>
        <time>2017-06-11T09:07:39Z</time>
      </trkpt>
      <trkpt lat="47.45804" lon="6.62747">
        <ele>357.399994</ele>
        <time>2017-06-11T09:07:49Z</time>
      </trkpt>
      <trkpt lat="47.45806" lon="6.62745">
        <ele>357.799988</ele>
        <time>2017-06-11T09:07:50Z</time>
      </trkpt>
      <trkpt lat="47.45809" lon="6.62738">
        <ele>359</ele>
        <time>2017-06-11T09:07:53Z</time>
      </trkpt>
      <trkpt lat="47.45811" lon="6.62732">
        <ele>359</ele>
        <time>2017-06-11T09:07:55Z</time>
      </trkpt>
      <trkpt lat="47.45815" lon="6.62714">
        <ele>359.399994</ele>
        <time>2017-06-11T09:08:03Z</time>
      </trkpt>
      <trkpt lat="47.45817" lon="6.6271">
        <ele>360.399994</ele>
        <time>2017-06-11T09:08:05Z</time>
      </trkpt>
      <trkpt lat="47.45818" lon="6.62707">
        <ele>360.799988</ele>
        <time>2017-06-11T09:08:06Z</time>
      </trkpt>
      <trkpt lat="47.45818" lon="6.62705">
        <ele>361.399994</ele>
        <time>2017-06-11T09:08:07Z</time>
      </trkpt>
      <trkpt lat="47.4582" lon="6.62691">
        <ele>361.399994</ele>
        <time>2017-06-11T09:08:13Z</time>
      </trkpt>
      <trkpt lat="47.45824" lon="6.62682">
        <ele>363</ele>
        <time>2017-06-11T09:08:18Z</time>
      </trkpt>
      <trkpt lat="47.45829" lon="6.6267">
        <ele>363.799988</ele>
        <time>2017-06-11T09:08:24Z</time>
      </trkpt>
      <trkpt lat="47.4583" lon="6.62668">
        <ele>364.600006</ele>
        <time>2017-06-11T09:08:25Z</time>
      </trkpt>
      <trkpt lat="47.45831" lon="6.62667">
        <ele>365.200012</ele>
        <time>2017-06-11T09:08:26Z</time>
      </trkpt>
      <trkpt lat="47.45832" lon="6.62666">
        <ele>365.600006</ele>
        <time>2017-06-11T09:08:27Z</time>
      </trkpt>
      <trkpt lat="47.45834" lon="6.62657">
        <ele>365.600006</ele>
        <time>2017-06-11T09:08:31Z</time>
      </trkpt>
      <trkpt lat="47.45836" lon="6.62651">
        <ele>366.399994</ele>
        <time>2017-06-11T09:08:33Z</time>
      </trkpt>
      <trkpt lat="47.4584" lon="6.62629">
        <ele>367.600006</ele>
        <time>2017-06-11T09:08:42Z</time>
      </trkpt>
      <trkpt lat="47.45842" lon="6.62622">
        <ele>368.399994</ele>
        <time>2017-06-11T09:08:45Z</time>
      </trkpt>
      <trkpt lat="47.45842" lon="6.6262">
        <ele>368.799988</ele>
        <time>2017-06-11T09:08:46Z</time>
      </trkpt>
      <trkpt lat="47.45844" lon="6.62615">
        <ele>369.600006</ele>
        <time>2017-06-11T09:08:48Z</time>
      </trkpt>
      <trkpt lat="47.45848" lon="6.62596">
        <ele>370.600006</ele>
        <time>2017-06-11T09:08:56Z</time>
      </trkpt>
      <trkpt lat="47.4585" lon="6.62591">
        <ele>371.399994</ele>
        <time>2017-06-11T09:08:58Z</time>
      </trkpt>
      <trkpt lat="47.4585" lon="6.62589">
        <ele>371.799988</ele>
        <time>2017-06-11T09:08:59Z</time>
      </trkpt>
      <trkpt lat="47.45853" lon="6.62579">
        <ele>371.799988</ele>
        <time>2017-06-11T09:09:05Z</time>
      </trkpt>
      <trkpt lat="47.45855" lon="6.62575">
        <ele>373</ele>
        <time>2017-06-11T09:09:08Z</time>
      </trkpt>
      <trkpt lat="47.45859" lon="6.6256">
        <ele>374.200012</ele>
        <time>2017-06-11T09:09:14Z</time>
      </trkpt>
      <trkpt lat="47.4586" lon="6.62558">
        <ele>374.799988</ele>
        <time>2017-06-11T09:09:15Z</time>
      </trkpt>
      <trkpt lat="47.45866" lon="6.62535">
        <ele>376.399994</ele>
        <time>2017-06-11T09:09:25Z</time>
      </trkpt>
      <trkpt lat="47.4587" lon="6.62525">
        <ele>378.200012</ele>
        <time>2017-06-11T09:09:29Z</time>
      </trkpt>
      <trkpt lat="47.45874" lon="6.62514">
        <ele>378.200012</ele>
        <time>2017-06-11T09:09:33Z</time>
      </trkpt>
      <trkpt lat="47.45875" lon="6.62511">
        <ele>378.600006</ele>
        <time>2017-06-11T09:09:34Z</time>
      </trkpt>
      <trkpt lat="47.45876" lon="6.62509">
        <ele>379</ele>
        <time>2017-06-11T09:09:35Z</time>
      </trkpt>
      <trkpt lat="47.45877" lon="6.62502">
        <ele>380.200012</ele>
        <time>2017-06-11T09:09:38Z</time>
      </trkpt>
      <trkpt lat="47.4588" lon="6.62493">
        <ele>380.200012</ele>
        <time>2017-06-11T09:09:42Z</time>
      </trkpt>
      <trkpt lat="47.45883" lon="6.62482">
        <ele>381.399994</ele>
        <time>2017-06-11T09:09:46Z</time>
      </trkpt>
      <trkpt lat="47.45885" lon="6.62476">
        <ele>382.200012</ele>
        <time>2017-06-11T09:09:48Z</time>
      </trkpt>
      <trkpt lat="47.45889" lon="6.62461">
        <ele>382.200012</ele>
        <time>2017-06-11T09:09:53Z</time>
      </trkpt>
      <trkpt lat="47.45895" lon="6.62444">
        <ele>383</ele>
        <time>2017-06-11T09:09:58Z</time>
      </trkpt>
      <trkpt lat="47.45902" lon="6.62435">
        <ele>384.200012</ele>
        <time>2017-06-11T09:10:02Z</time>
      </trkpt>
      <trkpt lat="47.45905" lon="6.62434">
        <ele>384.200012</ele>
        <time>2017-06-11T09:10:05Z</time>
      </trkpt>
      <trkpt lat="47.45907" lon="6.62433">
        <ele>384.200012</ele>
        <time>2017-06-11T09:10:06Z</time>
      </trkpt>
      <trkpt lat="47.45911" lon="6.62429">
        <ele>384.600006</ele>
        <time>2017-06-11T09:10:09Z</time>
      </trkpt>
      <trkpt lat="47.45913" lon="6.62427">
        <ele>385</ele>
        <time>2017-06-11T09:10:10Z</time>
      </trkpt>
      <trkpt lat="47.45917" lon="6.62422">
        <ele>386.399994</ele>
        <time>2017-06-11T09:10:13Z</time>
      </trkpt>
      <trkpt lat="47.45918" lon="6.6242">
        <ele>386.399994</ele>
        <time>2017-06-11T09:10:15Z</time>
      </trkpt>
      <trkpt lat="47.45918" lon="6.62418">
        <ele>386.399994</ele>
        <time>2017-06-11T09:10:16Z</time>
      </trkpt>
      <trkpt lat="47.45921" lon="6.62416">
        <ele>386.399994</ele>
        <time>2017-06-11T09:10:19Z</time>
      </trkpt>
      <trkpt lat="47.45929" lon="6.62409">
        <ele>386.399994</ele>
        <time>2017-06-11T09:10:23Z</time>
      </trkpt>
      <trkpt lat="47.45936" lon="6.62405">
        <ele>387.600006</ele>
        <time>2017-06-11T09:10:26Z</time>
      </trkpt>
      <trkpt lat="47.4594" lon="6.62401">
        <ele>388.399994</ele>
        <time>2017-06-11T09:10:28Z</time>
      </trkpt>
      <trkpt lat="47.45943" lon="6.62398">
        <ele>388.399994</ele>
        <time>2017-06-11T09:10:30Z</time>
      </trkpt>
      <trkpt lat="47.45955" lon="6.62389">
        <ele>388.399994</ele>
        <time>2017-06-11T09:10:36Z</time>
      </trkpt>
      <trkpt lat="47.45962" lon="6.62382">
        <ele>390.200012</ele>
        <time>2017-06-11T09:10:40Z</time>
      </trkpt>
      <trkpt lat="47.45965" lon="6.62379">
        <ele>390.600006</ele>
        <time>2017-06-11T09:10:41Z</time>
      </trkpt>
      <trkpt lat="47.45978" lon="6.62366">
        <ele>390.600006</ele>
        <time>2017-06-11T09:10:48Z</time>
      </trkpt>
      <trkpt lat="47.45982" lon="6.62364">
        <ele>391</ele>
        <time>2017-06-11T09:10:50Z</time>
      </trkpt>
      <trkpt lat="47.45984" lon="6.62363">
        <ele>391.399994</ele>
        <time>2017-06-11T09:10:51Z</time>
      </trkpt>
      <trkpt lat="47.45988" lon="6.62359">
        <ele>392.600006</ele>
        <time>2017-06-11T09:10:53Z</time>
      </trkpt>
      <trkpt lat="47.45997" lon="6.62353">
        <ele>392.600006</ele>
        <time>2017-06-11T09:10:59Z</time>
      </trkpt>
      <trkpt lat="47.46003" lon="6.62347">
        <ele>393</ele>
        <time>2017-06-11T09:11:05Z</time>
      </trkpt>
      <trkpt lat="47.46004" lon="6.62344">
        <ele>393.399994</ele>
        <time>2017-06-11T09:11:06Z</time>
      </trkpt>
      <trkpt lat="47.46007" lon="6.62339">
        <ele>394.200012</ele>
        <time>2017-06-11T09:11:08Z</time>
      </trkpt>
      <trkpt lat="47.46017" lon="6.62329">
        <ele>394.600006</ele>
        <time>2017-06-11T09:11:13Z</time>
      </trkpt>
      <trkpt lat="47.46025" lon="6.62321">
        <ele>395.600006</ele>
        <time>2017-06-11T09:11:18Z</time>
      </trkpt>
      <trkpt lat="47.46031" lon="6.62315">
        <ele>396.799988</ele>
        <time>2017-06-11T09:11:22Z</time>
      </trkpt>
      <trkpt lat="47.46036" lon="6.62307">
        <ele>396.799988</ele>
        <time>2017-06-11T09:11:26Z</time>
      </trkpt>
      <trkpt lat="47.46062" lon="6.62276">
        <ele>398.399994</ele>
        <time>2017-06-11T09:11:35Z</time>
      </trkpt>
      <trkpt lat="47.46064" lon="6.62273">
        <ele>398.799988</ele>
        <time>2017-06-11T09:11:36Z</time>
      </trkpt>
      <trkpt lat="47.46065" lon="6.6227">
        <ele>398.799988</ele>
        <time>2017-06-11T09:11:37Z</time>
      </trkpt>
      <trkpt lat="47.46067" lon="6.6225">
        <ele>398.799988</ele>
        <time>2017-06-11T09:11:42Z</time>
      </trkpt>
      <trkpt lat="47.46074" lon="6.62233">
        <ele>398.799988</ele>
        <time>2017-06-11T09:11:48Z</time>
      </trkpt>
      <trkpt lat="47.46079" lon="6.62222">
        <ele>400</ele>
        <time>2017-06-11T09:11:52Z</time>
      </trkpt>
      <trkpt lat="47.4608" lon="6.62219">
        <ele>400.799988</ele>
        <time>2017-06-11T09:11:54Z</time>
      </trkpt>
      <trkpt lat="47.46083" lon="6.62206">
        <ele>400.799988</ele>
        <time>2017-06-11T09:11:58Z</time>
      </trkpt>
      <trkpt lat="47.46086" lon="6.6219">
        <ele>400.799988</ele>
        <time>2017-06-11T09:12:03Z</time>
      </trkpt>
      <trkpt lat="47.46085" lon="6.62182">
        <ele>401.600006</ele>
        <time>2017-06-11T09:12:05Z</time>
      </trkpt>
      <trkpt lat="47.46085" lon="6.62172">
        <ele>402.799988</ele>
        <time>2017-06-11T09:12:08Z</time>
      </trkpt>
      <trkpt lat="47.46084" lon="6.62168">
        <ele>402.799988</ele>
        <time>2017-06-11T09:12:10Z</time>
      </trkpt>
      <trkpt lat="47.46079" lon="6.62165">
        <ele>402.799988</ele>
        <time>2017-06-11T09:12:12Z</time>
      </trkpt>
      <trkpt lat="47.46069" lon="6.62157">
        <ele>402.799988</ele>
        <time>2017-06-11T09:12:18Z</time>
      </trkpt>
      <trkpt lat="47.46063" lon="6.62155">
        <ele>402.799988</ele>
        <time>2017-06-11T09:12:21Z</time>
      </trkpt>
      <trkpt lat="47.46051" lon="6.62147">
        <ele>402.399994</ele>
        <time>2017-06-11T09:12:25Z</time>
      </trkpt>
      <trkpt lat="47.46047" lon="6.62145">
        <ele>402</ele>
        <time>2017-06-11T09:12:26Z</time>
      </trkpt>
      <trkpt lat="47.46044" lon="6.62143">
        <ele>401.600006</ele>
        <time>2017-06-11T09:12:27Z</time>
      </trkpt>
      <trkpt lat="47.46041" lon="6.62141">
        <ele>401.200012</ele>
        <time>2017-06-11T09:12:28Z</time>
      </trkpt>
      <trkpt lat="47.46034" lon="6.62134">
        <ele>400.799988</ele>
        <time>2017-06-11T09:12:31Z</time>
      </trkpt>
      <trkpt lat="47.46027" lon="6.62126">
        <ele>400.799988</ele>
        <time>2017-06-11T09:12:33Z</time>
      </trkpt>
      <trkpt lat="47.46012" lon="6.62113">
        <ele>400.799988</ele>
        <time>2017-06-11T09:12:37Z</time>
      </trkpt>
      <trkpt lat="47.4599" lon="6.62102">
        <ele>400.799988</ele>
        <time>2017-06-11T09:12:42Z</time>
      </trkpt>
      <trkpt lat="47.45979" lon="6.62095">
        <ele>400.799988</ele>
        <time>2017-06-11T09:12:45Z</time>
      </trkpt>
      <trkpt lat="47.45967" lon="6.62091">
        <ele>400.799988</ele>
        <time>2017-06-11T09:12:49Z</time>
      </trkpt>
      <trkpt lat="47.45955" lon="6.62086">
        <ele>400.799988</ele>
        <time>2017-06-11T09:12:54Z</time>
      </trkpt>
      <trkpt lat="47.45948" lon="6.62084">
        <ele>400.799988</ele>
        <time>2017-06-11T09:12:56Z</time>
      </trkpt>
      <trkpt lat="47.45923" lon="6.62076">
        <ele>400.799988</ele>
        <time>2017-06-11T09:13:02Z</time>
      </trkpt>
      <trkpt lat="47.4591" lon="6.62072">
        <ele>401.200012</ele>
        <time>2017-06-11T09:13:05Z</time>
      </trkpt>
      <trkpt lat="47.45907" lon="6.6207">
        <ele>401.600006</ele>
        <time>2017-06-11T09:13:06Z</time>
      </trkpt>
      <trkpt lat="47.45902" lon="6.62066">
        <ele>402</ele>
        <time>2017-06-11T09:13:07Z</time>
      </trkpt>
      <trkpt lat="47.45897" lon="6.62062">
        <ele>402.399994</ele>
        <time>2017-06-11T09:13:08Z</time>
      </trkpt>
      <trkpt lat="47.45886" lon="6.62056">
        <ele>403</ele>
        <time>2017-06-11T09:13:11Z</time>
      </trkpt>
      <trkpt lat="47.45877" lon="6.6205">
        <ele>403</ele>
        <time>2017-06-11T09:13:16Z</time>
      </trkpt>
      <trkpt lat="47.45865" lon="6.62047">
        <ele>403</ele>
        <time>2017-06-11T09:13:20Z</time>
      </trkpt>
      <trkpt lat="47.4586" lon="6.62042">
        <ele>403</ele>
        <time>2017-06-11T09:13:22Z</time>
      </trkpt>
      <trkpt lat="47.45847" lon="6.62034">
        <ele>403.399994</ele>
        <time>2017-06-11T09:13:26Z</time>
      </trkpt>
      <trkpt lat="47.45843" lon="6.62033">
        <ele>403.799988</ele>
        <time>2017-06-11T09:13:27Z</time>
      </trkpt>
      <trkpt lat="47.4584" lon="6.62032">
        <ele>404.200012</ele>
        <time>2017-06-11T09:13:28Z</time>
      </trkpt>
      <trkpt lat="47.45837" lon="6.62033">
        <ele>404.600006</ele>
        <time>2017-06-11T09:13:29Z</time>
      </trkpt>
      <trkpt lat="47.45828" lon="6.62026">
        <ele>405</ele>
        <time>2017-06-11T09:13:32Z</time>
      </trkpt>
      <trkpt lat="47.45811" lon="6.62018">
        <ele>405</ele>
        <time>2017-06-11T09:13:36Z</time>
      </trkpt>
      <trkpt lat="47.45785" lon="6.62008">
        <ele>405</ele>
        <time>2017-06-11T09:13:41Z</time>
      </trkpt>
      <trkpt lat="47.45766" lon="6.61995">
        <ele>405</ele>
        <time>2017-06-11T09:13:46Z</time>
      </trkpt>
      <trkpt lat="47.45751" lon="6.61989">
        <ele>405</ele>
        <time>2017-06-11T09:13:50Z</time>
      </trkpt>
      <trkpt lat="47.45722" lon="6.61969">
        <ele>405</ele>
        <time>2017-06-11T09:13:58Z</time>
      </trkpt>
      <trkpt lat="47.45713" lon="6.61966">
        <ele>405</ele>
        <time>2017-06-11T09:14:00Z</time>
      </trkpt>
      <trkpt lat="47.45681" lon="6.61957">
        <ele>404.600006</ele>
        <time>2017-06-11T09:14:07Z</time>
      </trkpt>
      <trkpt lat="47.45672" lon="6.61956">
        <ele>403.600006</ele>
        <time>2017-06-11T09:14:09Z</time>
      </trkpt>
      <trkpt lat="47.45669" lon="6.61955">
        <ele>403.200012</ele>
        <time>2017-06-11T09:14:10Z</time>
      </trkpt>
      <trkpt lat="47.45668" lon="6.61953">
        <ele>402.799988</ele>
        <time>2017-06-11T09:14:11Z</time>
      </trkpt>
      <trkpt lat="47.45661" lon="6.61937">
        <ele>402.799988</ele>
        <time>2017-06-11T09:14:16Z</time>
      </trkpt>
      <trkpt lat="47.45654" lon="6.61934">
        <ele>402.799988</ele>
        <time>2017-06-11T09:14:18Z</time>
      </trkpt>
      <trkpt lat="47.45651" lon="6.61935">
        <ele>402.399994</ele>
        <time>2017-06-11T09:14:19Z</time>
      </trkpt>
      <trkpt lat="47.45649" lon="6.61937">
        <ele>402</ele>
        <time>2017-06-11T09:14:20Z</time>
      </trkpt>
      <trkpt lat="47.45646" lon="6.61939">
        <ele>401</ele>
        <time>2017-06-11T09:14:22Z</time>
      </trkpt>
      <trkpt lat="47.45645" lon="6.6194">
        <ele>400.600006</ele>
        <time>2017-06-11T09:14:23Z</time>
      </trkpt>
      <trkpt lat="47.45638" lon="6.61943">
        <ele>400.600006</ele>
        <time>2017-06-11T09:14:26Z</time>
      </trkpt>
      <trkpt lat="47.45626" lon="6.61937">
        <ele>400.600006</ele>
        <time>2017-06-11T09:14:30Z</time>
      </trkpt>
      <trkpt lat="47.45618" lon="6.61936">
        <ele>400.600006</ele>
        <time>2017-06-11T09:14:33Z</time>
      </trkpt>
      <trkpt lat="47.45615" lon="6.61934">
        <ele>400.600006</ele>
        <time>2017-06-11T09:14:34Z</time>
      </trkpt>
      <trkpt lat="47.45604" lon="6.61927">
        <ele>399.200012</ele>
        <time>2017-06-11T09:14:38Z</time>
      </trkpt>
      <trkpt lat="47.45603" lon="6.61925">
        <ele>398.799988</ele>
        <time>2017-06-11T09:14:39Z</time>
      </trkpt>
      <trkpt lat="47.45599" lon="6.61916">
        <ele>398.200012</ele>
        <time>2017-06-11T09:14:42Z</time>
      </trkpt>
      <trkpt lat="47.45593" lon="6.61914">
        <ele>397.799988</ele>
        <time>2017-06-11T09:14:44Z</time>
      </trkpt>
      <trkpt lat="47.4559" lon="6.61914">
        <ele>397.399994</ele>
        <time>2017-06-11T09:14:45Z</time>
      </trkpt>
      <trkpt lat="47.45584" lon="6.61911">
        <ele>396.399994</ele>
        <time>2017-06-11T09:14:47Z</time>
      </trkpt>
      <trkpt lat="47.45578" lon="6.61908">
        <ele>396</ele>
        <time>2017-06-11T09:14:49Z</time>
      </trkpt>
      <trkpt lat="47.45568" lon="6.61901">
        <ele>394.200012</ele>
        <time>2017-06-11T09:14:53Z</time>
      </trkpt>
      <trkpt lat="47.45565" lon="6.619">
        <ele>393.799988</ele>
        <time>2017-06-11T09:14:54Z</time>
      </trkpt>
      <trkpt lat="47.45561" lon="6.61899">
        <ele>393.799988</ele>
        <time>2017-06-11T09:14:55Z</time>
      </trkpt>
      <trkpt lat="47.45556" lon="6.61897">
        <ele>392.600006</ele>
        <time>2017-06-11T09:14:57Z</time>
      </trkpt>
      <trkpt lat="47.45551" lon="6.61895">
        <ele>391.600006</ele>
        <time>2017-06-11T09:14:59Z</time>
      </trkpt>
      <trkpt lat="47.45546" lon="6.6189">
        <ele>390</ele>
        <time>2017-06-11T09:15:01Z</time>
      </trkpt>
      <trkpt lat="47.45543" lon="6.61888">
        <ele>389.600006</ele>
        <time>2017-06-11T09:15:02Z</time>
      </trkpt>
      <trkpt lat="47.45537" lon="6.61885">
        <ele>387.799988</ele>
        <time>2017-06-11T09:15:05Z</time>
      </trkpt>
      <trkpt lat="47.45532" lon="6.61882">
        <ele>386.200012</ele>
        <time>2017-06-11T09:15:08Z</time>
      </trkpt>
      <trkpt lat="47.4553" lon="6.61881">
        <ele>385.399994</ele>
        <time>2017-06-11T09:15:10Z</time>
      </trkpt>
      <trkpt lat="47.45528" lon="6.61881">
        <ele>385</ele>
        <time>2017-06-11T09:15:11Z</time>
      </trkpt>
      <trkpt lat="47.4552" lon="6.61884">
        <ele>383.200012</ele>
        <time>2017-06-11T09:15:15Z</time>
      </trkpt>
      <trkpt lat="47.45514" lon="6.61886">
        <ele>382.200012</ele>
        <time>2017-06-11T09:15:17Z</time>
      </trkpt>
      <trkpt lat="47.45507" lon="6.61888">
        <ele>381.799988</ele>
        <time>2017-06-11T09:15:19Z</time>
      </trkpt>
      <trkpt lat="47.45502" lon="6.6189">
        <ele>381.200012</ele>
        <time>2017-06-11T09:15:20Z</time>
      </trkpt>
      <trkpt lat="47.45489" lon="6.61891">
        <ele>379.799988</ele>
        <time>2017-06-11T09:15:23Z</time>
      </trkpt>
      <trkpt lat="47.45487" lon="6.61891">
        <ele>379.200012</ele>
        <time>2017-06-11T09:15:24Z</time>
      </trkpt>
      <trkpt lat="47.45483" lon="6.6189">
        <ele>378</ele>
        <time>2017-06-11T09:15:25Z</time>
      </trkpt>
      <trkpt lat="47.45473" lon="6.61887">
        <ele>375.200012</ele>
        <time>2017-06-11T09:15:30Z</time>
      </trkpt>
      <trkpt lat="47.4547" lon="6.61887">
        <ele>374.600006</ele>
        <time>2017-06-11T09:15:31Z</time>
      </trkpt>
      <trkpt lat="47.45466" lon="6.61889">
        <ele>374</ele>
        <time>2017-06-11T09:15:32Z</time>
      </trkpt>
      <trkpt lat="47.4546" lon="6.61889">
        <ele>372.399994</ele>
        <time>2017-06-11T09:15:34Z</time>
      </trkpt>
      <trkpt lat="47.45454" lon="6.61887">
        <ele>371.600006</ele>
        <time>2017-06-11T09:15:35Z</time>
      </trkpt>
      <trkpt lat="47.45452" lon="6.61886">
        <ele>370.600006</ele>
        <time>2017-06-11T09:15:36Z</time>
      </trkpt>
      <trkpt lat="47.4545" lon="6.61886">
        <ele>369.600006</ele>
        <time>2017-06-11T09:15:37Z</time>
      </trkpt>
      <trkpt lat="47.4545" lon="6.61888">
        <ele>368.799988</ele>
        <time>2017-06-11T09:15:38Z</time>
      </trkpt>
      <trkpt lat="47.45445" lon="6.61892">
        <ele>366.799988</ele>
        <time>2017-06-11T09:15:40Z</time>
      </trkpt>
      <trkpt lat="47.45442" lon="6.61896">
        <ele>365.600006</ele>
        <time>2017-06-11T09:15:41Z</time>
      </trkpt>
      <trkpt lat="47.45431" lon="6.61902">
        <ele>364.600006</ele>
        <time>2017-06-11T09:15:42Z</time>
      </trkpt>
      <trkpt lat="47.45412" lon="6.61901">
        <ele>361.399994</ele>
        <time>2017-06-11T09:15:45Z</time>
      </trkpt>
      <trkpt lat="47.45407" lon="6.61899">
        <ele>360.399994</ele>
        <time>2017-06-11T09:15:46Z</time>
      </trkpt>
      <trkpt lat="47.45401" lon="6.61897">
        <ele>359.399994</ele>
        <time>2017-06-11T09:15:47Z</time>
      </trkpt>
      <trkpt lat="47.4539" lon="6.61899">
        <ele>358.200012</ele>
        <time>2017-06-11T09:15:48Z</time>
      </trkpt>
      <trkpt lat="47.45379" lon="6.61902">
        <ele>357.200012</ele>
        <time>2017-06-11T09:15:49Z</time>
      </trkpt>
      <trkpt lat="47.45365" lon="6.61903">
        <ele>355</ele>
        <time>2017-06-11T09:15:51Z</time>
      </trkpt>
      <trkpt lat="47.45359" lon="6.61904">
        <ele>354.399994</ele>
        <time>2017-06-11T09:15:52Z</time>
      </trkpt>
      <trkpt lat="47.45353" lon="6.61908">
        <ele>353.600006</ele>
        <time>2017-06-11T09:15:53Z</time>
      </trkpt>
      <trkpt lat="47.45348" lon="6.61913">
        <ele>353.200012</ele>
        <time>2017-06-11T09:15:54Z</time>
      </trkpt>
      <trkpt lat="47.45336" lon="6.61913">
        <ele>352.799988</ele>
        <time>2017-06-11T09:15:55Z</time>
      </trkpt>
      <trkpt lat="47.45325" lon="6.61916">
        <ele>352.399994</ele>
        <time>2017-06-11T09:15:56Z</time>
      </trkpt>
      <trkpt lat="47.45317" lon="6.61916">
        <ele>351.799988</ele>
        <time>2017-06-11T09:15:57Z</time>
      </trkpt>
      <trkpt lat="47.45307" lon="6.61917">
        <ele>351.399994</ele>
        <time>2017-06-11T09:15:58Z</time>
      </trkpt>
      <trkpt lat="47.45287" lon="6.61913">
        <ele>351</ele>
        <time>2017-06-11T09:16:01Z</time>
      </trkpt>
      <trkpt lat="47.45274" lon="6.6191">
        <ele>350</ele>
        <time>2017-06-11T09:16:03Z</time>
      </trkpt>
      <trkpt lat="47.45253" lon="6.61908">
        <ele>348.399994</ele>
        <time>2017-06-11T09:16:06Z</time>
      </trkpt>
      <trkpt lat="47.45247" lon="6.61907">
        <ele>348</ele>
        <time>2017-06-11T09:16:07Z</time>
      </trkpt>
      <trkpt lat="47.45233" lon="6.61911">
        <ele>346.799988</ele>
        <time>2017-06-11T09:16:09Z</time>
      </trkpt>
      <trkpt lat="47.45227" lon="6.61911">
        <ele>346.200012</ele>
        <time>2017-06-11T09:16:10Z</time>
      </trkpt>
      <trkpt lat="47.45221" lon="6.6191">
        <ele>345.600006</ele>
        <time>2017-06-11T09:16:11Z</time>
      </trkpt>
      <trkpt lat="47.45214" lon="6.6191">
        <ele>345.200012</ele>
        <time>2017-06-11T09:16:12Z</time>
      </trkpt>
      <trkpt lat="47.45208" lon="6.61909">
        <ele>344.600006</ele>
        <time>2017-06-11T09:16:13Z</time>
      </trkpt>
      <trkpt lat="47.45185" lon="6.61909">
        <ele>342.200012</ele>
        <time>2017-06-11T09:16:16Z</time>
      </trkpt>
      <trkpt lat="47.4518" lon="6.61911">
        <ele>341.600006</ele>
        <time>2017-06-11T09:16:17Z</time>
      </trkpt>
      <trkpt lat="47.45167" lon="6.61921">
        <ele>340.399994</ele>
        <time>2017-06-11T09:16:19Z</time>
      </trkpt>
      <trkpt lat="47.45162" lon="6.61923">
        <ele>339.799988</ele>
        <time>2017-06-11T09:16:20Z</time>
      </trkpt>
      <trkpt lat="47.45156" lon="6.61925">
        <ele>339.799988</ele>
        <time>2017-06-11T09:16:21Z</time>
      </trkpt>
      <trkpt lat="47.4515" lon="6.61929">
        <ele>339.799988</ele>
        <time>2017-06-11T09:16:22Z</time>
      </trkpt>
      <trkpt lat="47.45135" lon="6.61943">
        <ele>339.799988</ele>
        <time>2017-06-11T09:16:24Z</time>
      </trkpt>
      <trkpt lat="47.45128" lon="6.61948">
        <ele>339.799988</ele>
        <time>2017-06-11T09:16:25Z</time>
      </trkpt>
      <trkpt lat="47.45123" lon="6.6195">
        <ele>339.799988</ele>
        <time>2017-06-11T09:16:28Z</time>
      </trkpt>
      <trkpt lat="47.45116" lon="6.61952">
        <ele>339.799988</ele>
        <time>2017-06-11T09:18:15Z</time>
      </trkpt>
      <trkpt lat="47.45111" lon="6.61949">
        <ele>340.600006</ele>
        <time>2017-06-11T09:18:17Z</time>
      </trkpt>
      <trkpt lat="47.45104" lon="6.61947">
        <ele>342</ele>
        <time>2017-06-11T09:18:19Z</time>
      </trkpt>
      <trkpt lat="47.45101" lon="6.61945">
        <ele>342</ele>
        <time>2017-06-11T09:18:20Z</time>
      </trkpt>
      <trkpt lat="47.4509" lon="6.61942">
        <ele>342</ele>
        <time>2017-06-11T09:18:23Z</time>
      </trkpt>
      <trkpt lat="47.45034" lon="6.61947">
        <ele>342</ele>
        <time>2017-06-11T09:18:34Z</time>
      </trkpt>
      <trkpt lat="47.45004" lon="6.61947">
        <ele>342</ele>
        <time>2017-06-11T09:18:39Z</time>
      </trkpt>
      <trkpt lat="47.45001" lon="6.61942">
        <ele>342</ele>
        <time>2017-06-11T09:18:40Z</time>
      </trkpt>
      <trkpt lat="47.44998" lon="6.61928">
        <ele>342</ele>
        <time>2017-06-11T09:18:42Z</time>
      </trkpt>
      <trkpt lat="47.44994" lon="6.61913">
        <ele>342</ele>
        <time>2017-06-11T09:18:45Z</time>
      </trkpt>
      <trkpt lat="47.44986" lon="6.61893">
        <ele>342</ele>
        <time>2017-06-11T09:18:49Z</time>
      </trkpt>
      <trkpt lat="47.44985" lon="6.61887">
        <ele>342</ele>
        <time>2017-06-11T09:18:50Z</time>
      </trkpt>
      <trkpt lat="47.44983" lon="6.61874">
        <ele>342</ele>
        <time>2017-06-11T09:18:52Z</time>
      </trkpt>
      <trkpt lat="47.44979" lon="6.61863">
        <ele>342</ele>
        <time>2017-06-11T09:18:54Z</time>
      </trkpt>
      <trkpt lat="47.44964" lon="6.61845">
        <ele>342</ele>
        <time>2017-06-11T09:18:59Z</time>
      </trkpt>
      <trkpt lat="47.44952" lon="6.61828">
        <ele>342</ele>
        <time>2017-06-11T09:19:04Z</time>
      </trkpt>
      <trkpt lat="47.44935" lon="6.61822">
        <ele>342</ele>
        <time>2017-06-11T09:19:09Z</time>
      </trkpt>
      <trkpt lat="47.44931" lon="6.61822">
        <ele>342.399994</ele>
        <time>2017-06-11T09:19:10Z</time>
      </trkpt>
      <trkpt lat="47.44929" lon="6.6182">
        <ele>342.799988</ele>
        <time>2017-06-11T09:19:11Z</time>
      </trkpt>
      <trkpt lat="47.44922" lon="6.6182">
        <ele>343.600006</ele>
        <time>2017-06-11T09:19:13Z</time>
      </trkpt>
      <trkpt lat="47.44919" lon="6.61819">
        <ele>344</ele>
        <time>2017-06-11T09:19:14Z</time>
      </trkpt>
      <trkpt lat="47.44913" lon="6.61811">
        <ele>344</ele>
        <time>2017-06-11T09:19:17Z</time>
      </trkpt>
      <trkpt lat="47.44909" lon="6.61803">
        <ele>344.399994</ele>
        <time>2017-06-11T09:19:20Z</time>
      </trkpt>
      <trkpt lat="47.44908" lon="6.618">
        <ele>344.799988</ele>
        <time>2017-06-11T09:19:21Z</time>
      </trkpt>
      <trkpt lat="47.44908" lon="6.61796">
        <ele>345.200012</ele>
        <time>2017-06-11T09:19:22Z</time>
      </trkpt>
      <trkpt lat="47.44907" lon="6.61793">
        <ele>345.600006</ele>
        <time>2017-06-11T09:19:23Z</time>
      </trkpt>
      <trkpt lat="47.44907" lon="6.6179">
        <ele>346</ele>
        <time>2017-06-11T09:19:24Z</time>
      </trkpt>
      <trkpt lat="47.44905" lon="6.61786">
        <ele>346</ele>
        <time>2017-06-11T09:19:26Z</time>
      </trkpt>
      <trkpt lat="47.44902" lon="6.61767">
        <ele>346</ele>
        <time>2017-06-11T09:19:31Z</time>
      </trkpt>
      <trkpt lat="47.44902" lon="6.6174">
        <ele>346</ele>
        <time>2017-06-11T09:19:37Z</time>
      </trkpt>
      <trkpt lat="47.44904" lon="6.61732">
        <ele>346</ele>
        <time>2017-06-11T09:19:39Z</time>
      </trkpt>
      <trkpt lat="47.44906" lon="6.6173">
        <ele>346.399994</ele>
        <time>2017-06-11T09:19:40Z</time>
      </trkpt>
      <trkpt lat="47.44908" lon="6.61724">
        <ele>347.200012</ele>
        <time>2017-06-11T09:19:42Z</time>
      </trkpt>
      <trkpt lat="47.4491" lon="6.61722">
        <ele>347.600006</ele>
        <time>2017-06-11T09:19:43Z</time>
      </trkpt>
      <trkpt lat="47.44912" lon="6.61718">
        <ele>348</ele>
        <time>2017-06-11T09:19:44Z</time>
      </trkpt>
      <trkpt lat="47.4492" lon="6.61702">
        <ele>348</ele>
        <time>2017-06-11T09:19:48Z</time>
      </trkpt>
      <trkpt lat="47.44922" lon="6.61683">
        <ele>348</ele>
        <time>2017-06-11T09:19:52Z</time>
      </trkpt>
      <trkpt lat="47.44916" lon="6.6168">
        <ele>348</ele>
        <time>2017-06-11T09:19:55Z</time>
      </trkpt>
      <trkpt lat="47.44903" lon="6.61678">
        <ele>348</ele>
        <time>2017-06-11T09:20:00Z</time>
      </trkpt>
      <trkpt lat="47.44891" lon="6.61663">
        <ele>348</ele>
        <time>2017-06-11T09:20:05Z</time>
      </trkpt>
      <trkpt lat="47.44885" lon="6.61652">
        <ele>348</ele>
        <time>2017-06-11T09:20:08Z</time>
      </trkpt>
      <trkpt lat="47.44879" lon="6.61631">
        <ele>348</ele>
        <time>2017-06-11T09:20:12Z</time>
      </trkpt>
      <trkpt lat="47.44868" lon="6.61613">
        <ele>348</ele>
        <time>2017-06-11T09:20:17Z</time>
      </trkpt>
      <trkpt lat="47.4486" lon="6.61604">
        <ele>348</ele>
        <time>2017-06-11T09:20:20Z</time>
      </trkpt>
      <trkpt lat="47.44845" lon="6.61602">
        <ele>347.600006</ele>
        <time>2017-06-11T09:20:24Z</time>
      </trkpt>
      <trkpt lat="47.4484" lon="6.61602">
        <ele>347.200012</ele>
        <time>2017-06-11T09:20:25Z</time>
      </trkpt>
      <trkpt lat="47.44836" lon="6.61604">
        <ele>346.799988</ele>
        <time>2017-06-11T09:20:26Z</time>
      </trkpt>
      <trkpt lat="47.4483" lon="6.61605">
        <ele>346.399994</ele>
        <time>2017-06-11T09:20:27Z</time>
      </trkpt>
      <trkpt lat="47.44826" lon="6.61606">
        <ele>345.799988</ele>
        <time>2017-06-11T09:20:28Z</time>
      </trkpt>
      <trkpt lat="47.44823" lon="6.61607">
        <ele>345.399994</ele>
        <time>2017-06-11T09:20:29Z</time>
      </trkpt>
      <trkpt lat="47.44821" lon="6.61605">
        <ele>345</ele>
        <time>2017-06-11T09:20:30Z</time>
      </trkpt>
      <trkpt lat="47.44814" lon="6.61594">
        <ele>344</ele>
        <time>2017-06-11T09:20:35Z</time>
      </trkpt>
      <trkpt lat="47.44811" lon="6.61592">
        <ele>344</ele>
        <time>2017-06-11T09:20:42Z</time>
      </trkpt>
      <trkpt lat="47.44807" lon="6.61584">
        <ele>343.600006</ele>
        <time>2017-06-11T09:20:45Z</time>
      </trkpt>
      <trkpt lat="47.44803" lon="6.61579">
        <ele>342.399994</ele>
        <time>2017-06-11T09:20:47Z</time>
      </trkpt>
      <trkpt lat="47.44802" lon="6.61576">
        <ele>341.799988</ele>
        <time>2017-06-11T09:20:48Z</time>
      </trkpt>
      <trkpt lat="47.448" lon="6.61574">
        <ele>341.799988</ele>
        <time>2017-06-11T09:20:49Z</time>
      </trkpt>
      <trkpt lat="47.44796" lon="6.61567">
        <ele>341.799988</ele>
        <time>2017-06-11T09:20:51Z</time>
      </trkpt>
      <trkpt lat="47.44789" lon="6.6155">
        <ele>341.799988</ele>
        <time>2017-06-11T09:20:56Z</time>
      </trkpt>
      <trkpt lat="47.44786" lon="6.61547">
        <ele>341.399994</ele>
        <time>2017-06-11T09:20:57Z</time>
      </trkpt>
      <trkpt lat="47.44785" lon="6.61543">
        <ele>341</ele>
        <time>2017-06-11T09:20:58Z</time>
      </trkpt>
      <trkpt lat="47.44784" lon="6.61539">
        <ele>340.600006</ele>
        <time>2017-06-11T09:20:59Z</time>
      </trkpt>
      <trkpt lat="47.44784" lon="6.61535">
        <ele>340.200012</ele>
        <time>2017-06-11T09:21:00Z</time>
      </trkpt>
      <trkpt lat="47.44785" lon="6.6153">
        <ele>339.799988</ele>
        <time>2017-06-11T09:21:02Z</time>
      </trkpt>
      <trkpt lat="47.44787" lon="6.61509">
        <ele>339.799988</ele>
        <time>2017-06-11T09:21:07Z</time>
      </trkpt>
      <trkpt lat="47.4479" lon="6.615">
        <ele>339.799988</ele>
        <time>2017-06-11T09:21:10Z</time>
      </trkpt>
      <trkpt lat="47.44791" lon="6.61492">
        <ele>339.799988</ele>
        <time>2017-06-11T09:21:12Z</time>
      </trkpt>
      <trkpt lat="47.44793" lon="6.61481">
        <ele>339.799988</ele>
        <time>2017-06-11T09:21:15Z</time>
      </trkpt>
      <trkpt lat="47.44795" lon="6.61474">
        <ele>339.799988</ele>
        <time>2017-06-11T09:21:17Z</time>
      </trkpt>
      <trkpt lat="47.44803" lon="6.61446">
        <ele>340.200012</ele>
        <time>2017-06-11T09:21:25Z</time>
      </trkpt>
      <trkpt lat="47.44805" lon="6.61443">
        <ele>340.600006</ele>
        <time>2017-06-11T09:21:26Z</time>
      </trkpt>
      <trkpt lat="47.44806" lon="6.61435">
        <ele>341.600006</ele>
        <time>2017-06-11T09:21:28Z</time>
      </trkpt>
      <trkpt lat="47.44806" lon="6.61431">
        <ele>342</ele>
        <time>2017-06-11T09:21:29Z</time>
      </trkpt>
      <trkpt lat="47.44807" lon="6.61406">
        <ele>342</ele>
        <time>2017-06-11T09:21:34Z</time>
      </trkpt>
      <trkpt lat="47.4481" lon="6.61388">
        <ele>342</ele>
        <time>2017-06-11T09:21:38Z</time>
      </trkpt>
      <trkpt lat="47.44816" lon="6.61372">
        <ele>342</ele>
        <time>2017-06-11T09:21:42Z</time>
      </trkpt>
      <trkpt lat="47.44823" lon="6.61359">
        <ele>342.399994</ele>
        <time>2017-06-11T09:21:46Z</time>
      </trkpt>
      <trkpt lat="47.44825" lon="6.61355">
        <ele>342.799988</ele>
        <time>2017-06-11T09:21:47Z</time>
      </trkpt>
      <trkpt lat="47.44827" lon="6.61353">
        <ele>343.200012</ele>
        <time>2017-06-11T09:21:48Z</time>
      </trkpt>
      <trkpt lat="47.44832" lon="6.61348">
        <ele>344</ele>
        <time>2017-06-11T09:21:50Z</time>
      </trkpt>
      <trkpt lat="47.44839" lon="6.61342">
        <ele>344</ele>
        <time>2017-06-11T09:21:53Z</time>
      </trkpt>
      <trkpt lat="47.44845" lon="6.61334">
        <ele>344.399994</ele>
        <time>2017-06-11T09:21:56Z</time>
      </trkpt>
      <trkpt lat="47.44856" lon="6.61322">
        <ele>346</ele>
        <time>2017-06-11T09:22:01Z</time>
      </trkpt>
      <trkpt lat="47.44866" lon="6.61309">
        <ele>346.600006</ele>
        <time>2017-06-11T09:22:06Z</time>
      </trkpt>
      <trkpt lat="47.44868" lon="6.61305">
        <ele>347</ele>
        <time>2017-06-11T09:22:07Z</time>
      </trkpt>
      <trkpt lat="47.4487" lon="6.61302">
        <ele>347.399994</ele>
        <time>2017-06-11T09:22:08Z</time>
      </trkpt>
      <trkpt lat="47.44875" lon="6.61294">
        <ele>348.200012</ele>
        <time>2017-06-11T09:22:10Z</time>
      </trkpt>
      <trkpt lat="47.44891" lon="6.61264">
        <ele>349.399994</ele>
        <time>2017-06-11T09:22:19Z</time>
      </trkpt>
      <trkpt lat="47.44892" lon="6.61262">
        <ele>349.799988</ele>
        <time>2017-06-11T09:22:20Z</time>
      </trkpt>
      <trkpt lat="47.44893" lon="6.61259">
        <ele>350.200012</ele>
        <time>2017-06-11T09:22:21Z</time>
      </trkpt>
      <trkpt lat="47.44896" lon="6.61254">
        <ele>350.200012</ele>
        <time>2017-06-11T09:22:23Z</time>
      </trkpt>
      <trkpt lat="47.44911" lon="6.61235">
        <ele>350.200012</ele>
        <time>2017-06-11T09:22:29Z</time>
      </trkpt>
      <trkpt lat="47.4492" lon="6.61219">
        <ele>350.600006</ele>
        <time>2017-06-11T09:22:34Z</time>
      </trkpt>
      <trkpt lat="47.44921" lon="6.61216">
        <ele>351</ele>
        <time>2017-06-11T09:22:35Z</time>
      </trkpt>
      <trkpt lat="47.44923" lon="6.61213">
        <ele>351.399994</ele>
        <time>2017-06-11T09:22:36Z</time>
      </trkpt>
      <trkpt lat="47.44927" lon="6.6121">
        <ele>352.399994</ele>
        <time>2017-06-11T09:22:38Z</time>
      </trkpt>
      <trkpt lat="47.44933" lon="6.61203">
        <ele>352.399994</ele>
        <time>2017-06-11T09:22:41Z</time>
      </trkpt>
      <trkpt lat="47.44938" lon="6.6119">
        <ele>352.399994</ele>
        <time>2017-06-11T09:22:44Z</time>
      </trkpt>
      <trkpt lat="47.44943" lon="6.61181">
        <ele>352.399994</ele>
        <time>2017-06-11T09:22:46Z</time>
      </trkpt>
      <trkpt lat="47.4495" lon="6.61162">
        <ele>352.399994</ele>
        <time>2017-06-11T09:22:50Z</time>
      </trkpt>
      <trkpt lat="47.44954" lon="6.61144">
        <ele>353.200012</ele>
        <time>2017-06-11T09:22:54Z</time>
      </trkpt>
      <trkpt lat="47.44956" lon="6.6114">
        <ele>353.600006</ele>
        <time>2017-06-11T09:22:55Z</time>
      </trkpt>
      <trkpt lat="47.4496" lon="6.61128">
        <ele>354.399994</ele>
        <time>2017-06-11T09:22:58Z</time>
      </trkpt>
      <trkpt lat="47.44965" lon="6.61117">
        <ele>354.799988</ele>
        <time>2017-06-11T09:23:02Z</time>
      </trkpt>
      <trkpt lat="47.44966" lon="6.61114">
        <ele>355.200012</ele>
        <time>2017-06-11T09:23:03Z</time>
      </trkpt>
      <trkpt lat="47.44968" lon="6.61111">
        <ele>355.600006</ele>
        <time>2017-06-11T09:23:04Z</time>
      </trkpt>
      <trkpt lat="47.44971" lon="6.61107">
        <ele>356</ele>
        <time>2017-06-11T09:23:05Z</time>
      </trkpt>
      <trkpt lat="47.44975" lon="6.61105">
        <ele>356.399994</ele>
        <time>2017-06-11T09:23:06Z</time>
      </trkpt>
      <trkpt lat="47.44978" lon="6.611">
        <ele>356.399994</ele>
        <time>2017-06-11T09:23:08Z</time>
      </trkpt>
      <trkpt lat="47.44986" lon="6.61086">
        <ele>357</ele>
        <time>2017-06-11T09:23:12Z</time>
      </trkpt>
      <trkpt lat="47.44988" lon="6.61084">
        <ele>357.799988</ele>
        <time>2017-06-11T09:23:13Z</time>
      </trkpt>
      <trkpt lat="47.4499" lon="6.61081">
        <ele>358.200012</ele>
        <time>2017-06-11T09:23:14Z</time>
      </trkpt>
      <trkpt lat="47.44999" lon="6.61069">
        <ele>358.600006</ele>
        <time>2017-06-11T09:23:19Z</time>
      </trkpt>
      <trkpt lat="47.45007" lon="6.61058">
        <ele>359</ele>
        <time>2017-06-11T09:23:24Z</time>
      </trkpt>
      <trkpt lat="47.45009" lon="6.61057">
        <ele>359.399994</ele>
        <time>2017-06-11T09:23:25Z</time>
      </trkpt>
      <trkpt lat="47.45011" lon="6.61053">
        <ele>359.799988</ele>
        <time>2017-06-11T09:23:26Z</time>
      </trkpt>
      <trkpt lat="47.45015" lon="6.61046">
        <ele>360.600006</ele>
        <time>2017-06-11T09:23:28Z</time>
      </trkpt>
      <trkpt lat="47.45017" lon="6.61041">
        <ele>360.600006</ele>
        <time>2017-06-11T09:23:29Z</time>
      </trkpt>
      <trkpt lat="47.4502" lon="6.6103">
        <ele>360.600006</ele>
        <time>2017-06-11T09:23:33Z</time>
      </trkpt>
      <trkpt lat="47.45024" lon="6.61027">
        <ele>360.600006</ele>
        <time>2017-06-11T09:23:35Z</time>
      </trkpt>
      <trkpt lat="47.45028" lon="6.61024">
        <ele>360.600006</ele>
        <time>2017-06-11T09:23:37Z</time>
      </trkpt>
      <trkpt lat="47.45038" lon="6.61013">
        <ele>360.600006</ele>
        <time>2017-06-11T09:23:41Z</time>
      </trkpt>
      <trkpt lat="47.45039" lon="6.61009">
        <ele>360.600006</ele>
        <time>2017-06-11T09:23:42Z</time>
      </trkpt>
      <trkpt lat="47.45044" lon="6.60988">
        <ele>360.600006</ele>
        <time>2017-06-11T09:23:47Z</time>
      </trkpt>
      <trkpt lat="47.45048" lon="6.60971">
        <ele>360.600006</ele>
        <time>2017-06-11T09:23:52Z</time>
      </trkpt>
      <trkpt lat="47.45055" lon="6.60965">
        <ele>360.600006</ele>
        <time>2017-06-11T09:23:55Z</time>
      </trkpt>
      <trkpt lat="47.45058" lon="6.60958">
        <ele>360.600006</ele>
        <time>2017-06-11T09:23:58Z</time>
      </trkpt>
      <trkpt lat="47.45064" lon="6.60946">
        <ele>360.600006</ele>
        <time>2017-06-11T09:24:02Z</time>
      </trkpt>
      <trkpt lat="47.45075" lon="6.60929">
        <ele>360.600006</ele>
        <time>2017-06-11T09:24:07Z</time>
      </trkpt>
      <trkpt lat="47.45082" lon="6.60921">
        <ele>360.600006</ele>
        <time>2017-06-11T09:24:11Z</time>
      </trkpt>
      <trkpt lat="47.45093" lon="6.60911">
        <ele>360.600006</ele>
        <time>2017-06-11T09:24:15Z</time>
      </trkpt>
      <trkpt lat="47.45103" lon="6.60899">
        <ele>360.600006</ele>
        <time>2017-06-11T09:24:19Z</time>
      </trkpt>
      <trkpt lat="47.45106" lon="6.60897">
        <ele>360.600006</ele>
        <time>2017-06-11T09:24:20Z</time>
      </trkpt>
      <trkpt lat="47.45116" lon="6.60884">
        <ele>360.600006</ele>
        <time>2017-06-11T09:24:24Z</time>
      </trkpt>
      <trkpt lat="47.45122" lon="6.60877">
        <ele>360.600006</ele>
        <time>2017-06-11T09:24:26Z</time>
      </trkpt>
      <trkpt lat="47.45125" lon="6.60876">
        <ele>360.600006</ele>
        <time>2017-06-11T09:24:27Z</time>
      </trkpt>
      <trkpt lat="47.45134" lon="6.60868">
        <ele>360.200012</ele>
        <time>2017-06-11T09:24:30Z</time>
      </trkpt>
      <trkpt lat="47.45136" lon="6.60866">
        <ele>359.799988</ele>
        <time>2017-06-11T09:24:31Z</time>
      </trkpt>
      <trkpt lat="47.4514" lon="6.6086">
        <ele>359</ele>
        <time>2017-06-11T09:24:33Z</time>
      </trkpt>
      <trkpt lat="47.45152" lon="6.60849">
        <ele>358.600006</ele>
        <time>2017-06-11T09:24:39Z</time>
      </trkpt>
      <trkpt lat="47.45155" lon="6.60847">
        <ele>358.600006</ele>
        <time>2017-06-11T09:24:41Z</time>
      </trkpt>
      <trkpt lat="47.45168" lon="6.6084">
        <ele>358.600006</ele>
        <time>2017-06-11T09:24:47Z</time>
      </trkpt>
      <trkpt lat="47.45183" lon="6.60828">
        <ele>358.600006</ele>
        <time>2017-06-11T09:24:51Z</time>
      </trkpt>
      <trkpt lat="47.45196" lon="6.60815">
        <ele>358.600006</ele>
        <time>2017-06-11T09:24:55Z</time>
      </trkpt>
      <trkpt lat="47.45203" lon="6.60808">
        <ele>357.799988</ele>
        <time>2017-06-11T09:24:57Z</time>
      </trkpt>
      <trkpt lat="47.45207" lon="6.60805">
        <ele>357.399994</ele>
        <time>2017-06-11T09:24:58Z</time>
      </trkpt>
      <trkpt lat="47.4521" lon="6.60803">
        <ele>357</ele>
        <time>2017-06-11T09:24:59Z</time>
      </trkpt>
      <trkpt lat="47.45214" lon="6.608">
        <ele>356.600006</ele>
        <time>2017-06-11T09:25:00Z</time>
      </trkpt>
      <trkpt lat="47.45227" lon="6.60788">
        <ele>356.600006</ele>
        <time>2017-06-11T09:25:04Z</time>
      </trkpt>
      <trkpt lat="47.45229" lon="6.60784">
        <ele>356.600006</ele>
        <time>2017-06-11T09:25:05Z</time>
      </trkpt>
      <trkpt lat="47.45244" lon="6.6077">
        <ele>356.600006</ele>
        <time>2017-06-11T09:25:11Z</time>
      </trkpt>
      <trkpt lat="47.4525" lon="6.60764">
        <ele>356.200012</ele>
        <time>2017-06-11T09:25:13Z</time>
      </trkpt>
      <trkpt lat="47.45252" lon="6.60762">
        <ele>355.799988</ele>
        <time>2017-06-11T09:25:14Z</time>
      </trkpt>
      <trkpt lat="47.45256" lon="6.60761">
        <ele>355.399994</ele>
        <time>2017-06-11T09:25:15Z</time>
      </trkpt>
      <trkpt lat="47.45267" lon="6.60752">
        <ele>354.600006</ele>
        <time>2017-06-11T09:25:18Z</time>
      </trkpt>
      <trkpt lat="47.4528" lon="6.60745">
        <ele>354</ele>
        <time>2017-06-11T09:25:21Z</time>
      </trkpt>
      <trkpt lat="47.45283" lon="6.60743">
        <ele>353.600006</ele>
        <time>2017-06-11T09:25:22Z</time>
      </trkpt>
      <trkpt lat="47.45291" lon="6.60738">
        <ele>352.600006</ele>
        <time>2017-06-11T09:25:24Z</time>
      </trkpt>
      <trkpt lat="47.453" lon="6.6073">
        <ele>352</ele>
        <time>2017-06-11T09:25:27Z</time>
      </trkpt>
      <trkpt lat="47.45306" lon="6.60722">
        <ele>351.600006</ele>
        <time>2017-06-11T09:25:29Z</time>
      </trkpt>
      <trkpt lat="47.4531" lon="6.60718">
        <ele>351.200012</ele>
        <time>2017-06-11T09:25:30Z</time>
      </trkpt>
      <trkpt lat="47.45315" lon="6.60713">
        <ele>350.200012</ele>
        <time>2017-06-11T09:25:32Z</time>
      </trkpt>
      <trkpt lat="47.45317" lon="6.60709">
        <ele>349.799988</ele>
        <time>2017-06-11T09:25:33Z</time>
      </trkpt>
      <trkpt lat="47.45325" lon="6.607">
        <ele>349.799988</ele>
        <time>2017-06-11T09:25:35Z</time>
      </trkpt>
      <trkpt lat="47.45349" lon="6.60681">
        <ele>350.200012</ele>
        <time>2017-06-11T09:25:42Z</time>
      </trkpt>
      <trkpt lat="47.45355" lon="6.60676">
        <ele>351.399994</ele>
        <time>2017-06-11T09:25:44Z</time>
      </trkpt>
      <trkpt lat="47.45366" lon="6.60664">
        <ele>351.799988</ele>
        <time>2017-06-11T09:25:48Z</time>
      </trkpt>
      <trkpt lat="47.45385" lon="6.60649">
        <ele>351.799988</ele>
        <time>2017-06-11T09:25:55Z</time>
      </trkpt>
      <trkpt lat="47.45404" lon="6.60638">
        <ele>351.799988</ele>
        <time>2017-06-11T09:26:00Z</time>
      </trkpt>
      <trkpt lat="47.4542" lon="6.60618">
        <ele>351</ele>
        <time>2017-06-11T09:26:04Z</time>
      </trkpt>
      <trkpt lat="47.45423" lon="6.60612">
        <ele>350.399994</ele>
        <time>2017-06-11T09:26:05Z</time>
      </trkpt>
      <trkpt lat="47.45424" lon="6.60606">
        <ele>350</ele>
        <time>2017-06-11T09:26:06Z</time>
      </trkpt>
      <trkpt lat="47.45426" lon="6.606">
        <ele>349.600006</ele>
        <time>2017-06-11T09:26:07Z</time>
      </trkpt>
      <trkpt lat="47.45432" lon="6.60577">
        <ele>349.600006</ele>
        <time>2017-06-11T09:26:11Z</time>
      </trkpt>
      <trkpt lat="47.45437" lon="6.60562">
        <ele>349.600006</ele>
        <time>2017-06-11T09:26:14Z</time>
      </trkpt>
      <trkpt lat="47.45449" lon="6.60543">
        <ele>349</ele>
        <time>2017-06-11T09:26:19Z</time>
      </trkpt>
      <trkpt lat="47.45459" lon="6.60529">
        <ele>347.799988</ele>
        <time>2017-06-11T09:26:22Z</time>
      </trkpt>
      <trkpt lat="47.45462" lon="6.60526">
        <ele>347.399994</ele>
        <time>2017-06-11T09:26:23Z</time>
      </trkpt>
      <trkpt lat="47.45467" lon="6.60519">
        <ele>347.399994</ele>
        <time>2017-06-11T09:26:25Z</time>
      </trkpt>
      <trkpt lat="47.45468" lon="6.60516">
        <ele>347.399994</ele>
        <time>2017-06-11T09:26:27Z</time>
      </trkpt>
      <trkpt lat="47.45466" lon="6.60514">
        <ele>347</ele>
        <time>2017-06-11T09:26:29Z</time>
      </trkpt>
      <trkpt lat="47.45463" lon="6.60509">
        <ele>346.200012</ele>
        <time>2017-06-11T09:26:31Z</time>
      </trkpt>
      <trkpt lat="47.4546" lon="6.60506">
        <ele>345.399994</ele>
        <time>2017-06-11T09:26:32Z</time>
      </trkpt>
      <trkpt lat="47.45458" lon="6.60504">
        <ele>345</ele>
        <time>2017-06-11T09:26:33Z</time>
      </trkpt>
      <trkpt lat="47.45457" lon="6.60499">
        <ele>344.399994</ele>
        <time>2017-06-11T09:26:34Z</time>
      </trkpt>
      <trkpt lat="47.45453" lon="6.60493">
        <ele>343.600006</ele>
        <time>2017-06-11T09:26:36Z</time>
      </trkpt>
      <trkpt lat="47.45452" lon="6.60489">
        <ele>343</ele>
        <time>2017-06-11T09:26:37Z</time>
      </trkpt>
      <trkpt lat="47.45452" lon="6.60486">
        <ele>341.799988</ele>
        <time>2017-06-11T09:26:39Z</time>
      </trkpt>
      <trkpt lat="47.45453" lon="6.60486">
        <ele>341.399994</ele>
        <time>2017-06-11T09:26:40Z</time>
      </trkpt>
      <trkpt lat="47.45456" lon="6.60485">
        <ele>340.799988</ele>
        <time>2017-06-11T09:26:42Z</time>
      </trkpt>
      <trkpt lat="47.45464" lon="6.60479">
        <ele>339.799988</ele>
        <time>2017-06-11T09:26:46Z</time>
      </trkpt>
      <trkpt lat="47.4547" lon="6.60473">
        <ele>339</ele>
        <time>2017-06-11T09:26:48Z</time>
      </trkpt>
      <trkpt lat="47.45473" lon="6.60469">
        <ele>338.600006</ele>
        <time>2017-06-11T09:26:49Z</time>
      </trkpt>
      <trkpt lat="47.45479" lon="6.60463">
        <ele>338.600006</ele>
        <time>2017-06-11T09:26:51Z</time>
      </trkpt>
      <trkpt lat="47.45485" lon="6.6045">
        <ele>338.600006</ele>
        <time>2017-06-11T09:26:55Z</time>
      </trkpt>
      <trkpt lat="47.4549" lon="6.60427">
        <ele>338</ele>
        <time>2017-06-11T09:27:00Z</time>
      </trkpt>
      <trkpt lat="47.4549" lon="6.60421">
        <ele>337.600006</ele>
        <time>2017-06-11T09:27:01Z</time>
      </trkpt>
      <trkpt lat="47.45492" lon="6.60412">
        <ele>336.799988</ele>
        <time>2017-06-11T09:27:03Z</time>
      </trkpt>
      <trkpt lat="47.45494" lon="6.60406">
        <ele>336.200012</ele>
        <time>2017-06-11T09:27:04Z</time>
      </trkpt>
      <trkpt lat="47.45499" lon="6.60396">
        <ele>336.200012</ele>
        <time>2017-06-11T09:27:06Z</time>
      </trkpt>
      <trkpt lat="47.45503" lon="6.60393">
        <ele>336.200012</ele>
        <time>2017-06-11T09:27:08Z</time>
      </trkpt>
      <trkpt lat="47.45512" lon="6.60392">
        <ele>336.200012</ele>
        <time>2017-06-11T09:27:13Z</time>
      </trkpt>
      <trkpt lat="47.45512" lon="6.60386">
        <ele>336.200012</ele>
        <time>2017-06-11T09:27:15Z</time>
      </trkpt>
      <trkpt lat="47.45512" lon="6.60381">
        <ele>336.200012</ele>
        <time>2017-06-11T09:27:16Z</time>
      </trkpt>
      <trkpt lat="47.45515" lon="6.6037">
        <ele>336.200012</ele>
        <time>2017-06-11T09:27:19Z</time>
      </trkpt>
      <trkpt lat="47.45518" lon="6.60365">
        <ele>336.200012</ele>
        <time>2017-06-11T09:27:20Z</time>
      </trkpt>
      <trkpt lat="47.45522" lon="6.60355">
        <ele>336.200012</ele>
        <time>2017-06-11T09:27:23Z</time>
      </trkpt>
      <trkpt lat="47.45522" lon="6.60353">
        <ele>336.200012</ele>
        <time>2017-06-11T09:27:24Z</time>
      </trkpt>
      <trkpt lat="47.45524" lon="6.6035">
        <ele>335.799988</ele>
        <time>2017-06-11T09:27:25Z</time>
      </trkpt>
      <trkpt lat="47.45524" lon="6.60347">
        <ele>335.399994</ele>
        <time>2017-06-11T09:27:26Z</time>
      </trkpt>
      <trkpt lat="47.45526" lon="6.60344">
        <ele>335</ele>
        <time>2017-06-11T09:27:27Z</time>
      </trkpt>
      <trkpt lat="47.45534" lon="6.60338">
        <ele>334.200012</ele>
        <time>2017-06-11T09:27:29Z</time>
      </trkpt>
      <trkpt lat="47.45546" lon="6.60326">
        <ele>334.200012</ele>
        <time>2017-06-11T09:27:32Z</time>
      </trkpt>
      <trkpt lat="47.45556" lon="6.60318">
        <ele>334.200012</ele>
        <time>2017-06-11T09:27:36Z</time>
      </trkpt>
      <trkpt lat="47.45557" lon="6.60313">
        <ele>334.200012</ele>
        <time>2017-06-11T09:27:38Z</time>
      </trkpt>
      <trkpt lat="47.45559" lon="6.60296">
        <ele>333.200012</ele>
        <time>2017-06-11T09:27:41Z</time>
      </trkpt>
      <trkpt lat="47.45561" lon="6.60289">
        <ele>332.799988</ele>
        <time>2017-06-11T09:27:42Z</time>
      </trkpt>
      <trkpt lat="47.45566" lon="6.60274">
        <ele>332</ele>
        <time>2017-06-11T09:27:44Z</time>
      </trkpt>
      <trkpt lat="47.45569" lon="6.60267">
        <ele>331.399994</ele>
        <time>2017-06-11T09:27:45Z</time>
      </trkpt>
      <trkpt lat="47.45572" lon="6.60262">
        <ele>330.600006</ele>
        <time>2017-06-11T09:27:46Z</time>
      </trkpt>
      <trkpt lat="47.45585" lon="6.60248">
        <ele>328.600006</ele>
        <time>2017-06-11T09:27:49Z</time>
      </trkpt>
      <trkpt lat="47.4559" lon="6.60244">
        <ele>327.799988</ele>
        <time>2017-06-11T09:27:50Z</time>
      </trkpt>
      <trkpt lat="47.45594" lon="6.60241">
        <ele>327.200012</ele>
        <time>2017-06-11T09:27:51Z</time>
      </trkpt>
      <trkpt lat="47.45599" lon="6.60238">
        <ele>326.600006</ele>
        <time>2017-06-11T09:27:52Z</time>
      </trkpt>
      <trkpt lat="47.45603" lon="6.60235">
        <ele>325.799988</ele>
        <time>2017-06-11T09:27:53Z</time>
      </trkpt>
      <trkpt lat="47.45614" lon="6.6023">
        <ele>324</ele>
        <time>2017-06-11T09:27:55Z</time>
      </trkpt>
      <trkpt lat="47.45623" lon="6.60223">
        <ele>322.200012</ele>
        <time>2017-06-11T09:27:57Z</time>
      </trkpt>
      <trkpt lat="47.45626" lon="6.60219">
        <ele>321.200012</ele>
        <time>2017-06-11T09:27:58Z</time>
      </trkpt>
      <trkpt lat="47.45628" lon="6.60213">
        <ele>320.200012</ele>
        <time>2017-06-11T09:27:59Z</time>
      </trkpt>
      <trkpt lat="47.45629" lon="6.60207">
        <ele>319.200012</ele>
        <time>2017-06-11T09:28:00Z</time>
      </trkpt>
      <trkpt lat="47.45629" lon="6.60201">
        <ele>318.399994</ele>
        <time>2017-06-11T09:28:01Z</time>
      </trkpt>
      <trkpt lat="47.45627" lon="6.60193">
        <ele>317.399994</ele>
        <time>2017-06-11T09:28:02Z</time>
      </trkpt>
      <trkpt lat="47.45625" lon="6.60185">
        <ele>316.600006</ele>
        <time>2017-06-11T09:28:03Z</time>
      </trkpt>
      <trkpt lat="47.45624" lon="6.60166">
        <ele>314.799988</ele>
        <time>2017-06-11T09:28:05Z</time>
      </trkpt>
      <trkpt lat="47.45623" lon="6.60155">
        <ele>314</ele>
        <time>2017-06-11T09:28:06Z</time>
      </trkpt>
      <trkpt lat="47.45623" lon="6.60145">
        <ele>313.200012</ele>
        <time>2017-06-11T09:28:07Z</time>
      </trkpt>
      <trkpt lat="47.45623" lon="6.60134">
        <ele>312.200012</ele>
        <time>2017-06-11T09:28:08Z</time>
      </trkpt>
      <trkpt lat="47.45625" lon="6.60123">
        <ele>311.399994</ele>
        <time>2017-06-11T09:28:09Z</time>
      </trkpt>
      <trkpt lat="47.45629" lon="6.601">
        <ele>308.799988</ele>
        <time>2017-06-11T09:28:11Z</time>
      </trkpt>
      <trkpt lat="47.45633" lon="6.60075">
        <ele>307</ele>
        <time>2017-06-11T09:28:13Z</time>
      </trkpt>
      <trkpt lat="47.45636" lon="6.60056">
        <ele>305.200012</ele>
        <time>2017-06-11T09:28:15Z</time>
      </trkpt>
      <trkpt lat="47.45639" lon="6.60043">
        <ele>303.600006</ele>
        <time>2017-06-11T09:28:17Z</time>
      </trkpt>
      <trkpt lat="47.4564" lon="6.60038">
        <ele>302.600006</ele>
        <time>2017-06-11T09:28:18Z</time>
      </trkpt>
      <trkpt lat="47.4564" lon="6.60035">
        <ele>302.200012</ele>
        <time>2017-06-11T09:28:19Z</time>
      </trkpt>
      <trkpt lat="47.45639" lon="6.60033">
        <ele>301.799988</ele>
        <time>2017-06-11T09:28:20Z</time>
      </trkpt>
      <trkpt lat="47.45637" lon="6.60029">
        <ele>301</ele>
        <time>2017-06-11T09:28:22Z</time>
      </trkpt>
      <trkpt lat="47.45634" lon="6.60023">
        <ele>300.600006</ele>
        <time>2017-06-11T09:28:24Z</time>
      </trkpt>
      <trkpt lat="47.45633" lon="6.60021">
        <ele>300.600006</ele>
        <time>2017-06-11T09:28:25Z</time>
      </trkpt>
      <trkpt lat="47.45631" lon="6.60017">
        <ele>300.600006</ele>
        <time>2017-06-11T09:28:29Z</time>
      </trkpt>
      <trkpt lat="47.4564" lon="6.60014">
        <ele>300.600006</ele>
        <time>2017-06-11T09:35:36Z</time>
      </trkpt>
      <trkpt lat="47.45641" lon="6.60015">
        <ele>300.600006</ele>
        <time>2017-06-11T09:35:37Z</time>
      </trkpt>
      <trkpt lat="47.45641" lon="6.6002">
        <ele>300.600006</ele>
        <time>2017-06-11T09:35:41Z</time>
      </trkpt>
      <trkpt lat="47.45645" lon="6.6003">
        <ele>300.600006</ele>
        <time>2017-06-11T09:35:46Z</time>
      </trkpt>
      <trkpt lat="47.45651" lon="6.60039">
        <ele>300.600006</ele>
        <time>2017-06-11T09:35:50Z</time>
      </trkpt>
      <trkpt lat="47.45654" lon="6.60045">
        <ele>300.600006</ele>
        <time>2017-06-11T09:35:52Z</time>
      </trkpt>
      <trkpt lat="47.45658" lon="6.60058">
        <ele>300.600006</ele>
        <time>2017-06-11T09:35:56Z</time>
      </trkpt>
      <trkpt lat="47.45671" lon="6.60076">
        <ele>300.600006</ele>
        <time>2017-06-11T09:36:02Z</time>
      </trkpt>
      <trkpt lat="47.45692" lon="6.60097">
        <ele>300.600006</ele>
        <time>2017-06-11T09:36:10Z</time>
      </trkpt>
      <trkpt lat="47.4571" lon="6.60117">
        <ele>300.600006</ele>
        <time>2017-06-11T09:36:17Z</time>
      </trkpt>
      <trkpt lat="47.45725" lon="6.60132">
        <ele>300.600006</ele>
        <time>2017-06-11T09:36:23Z</time>
      </trkpt>
      <trkpt lat="47.45736" lon="6.60146">
        <ele>300.600006</ele>
        <time>2017-06-11T09:36:28Z</time>
      </trkpt>
      <trkpt lat="47.45747" lon="6.60161">
        <ele>300.600006</ele>
        <time>2017-06-11T09:36:34Z</time>
      </trkpt>
      <trkpt lat="47.45762" lon="6.6018">
        <ele>300.600006</ele>
        <time>2017-06-11T09:36:41Z</time>
      </trkpt>
      <trkpt lat="47.45786" lon="6.60204">
        <ele>302.600006</ele>
        <time>2017-06-11T09:36:52Z</time>
      </trkpt>
      <trkpt lat="47.45795" lon="6.6021">
        <ele>302.600006</ele>
        <time>2017-06-11T09:36:56Z</time>
      </trkpt>
      <trkpt lat="47.45808" lon="6.60221">
        <ele>302.600006</ele>
        <time>2017-06-11T09:37:02Z</time>
      </trkpt>
      <trkpt lat="47.45816" lon="6.60227">
        <ele>303.399994</ele>
        <time>2017-06-11T09:37:06Z</time>
      </trkpt>
      <trkpt lat="47.45821" lon="6.60229">
        <ele>304.200012</ele>
        <time>2017-06-11T09:37:08Z</time>
      </trkpt>
      <trkpt lat="47.45822" lon="6.60231">
        <ele>304.799988</ele>
        <time>2017-06-11T09:37:09Z</time>
      </trkpt>
      <trkpt lat="47.4583" lon="6.60237">
        <ele>306</ele>
        <time>2017-06-11T09:37:14Z</time>
      </trkpt>
      <trkpt lat="47.45832" lon="6.60238">
        <ele>306.399994</ele>
        <time>2017-06-11T09:37:15Z</time>
      </trkpt>
      <trkpt lat="47.45834" lon="6.6024">
        <ele>306.799988</ele>
        <time>2017-06-11T09:37:16Z</time>
      </trkpt>
      <trkpt lat="47.45835" lon="6.6024">
        <ele>306.799988</ele>
        <time>2017-06-11T09:37:17Z</time>
      </trkpt>
      <trkpt lat="47.45841" lon="6.60246">
        <ele>307.200012</ele>
        <time>2017-06-11T09:37:21Z</time>
      </trkpt>
      <trkpt lat="47.45844" lon="6.60249">
        <ele>308</ele>
        <time>2017-06-11T09:37:23Z</time>
      </trkpt>
      <trkpt lat="47.45844" lon="6.6025">
        <ele>308.399994</ele>
        <time>2017-06-11T09:37:24Z</time>
      </trkpt>
      <trkpt lat="47.45846" lon="6.60251">
        <ele>309</ele>
        <time>2017-06-11T09:37:25Z</time>
      </trkpt>
      <trkpt lat="47.45849" lon="6.60254">
        <ele>309</ele>
        <time>2017-06-11T09:37:27Z</time>
      </trkpt>
      <trkpt lat="47.45851" lon="6.60256">
        <ele>309</ele>
        <time>2017-06-11T09:37:29Z</time>
      </trkpt>
      <trkpt lat="47.45857" lon="6.60261">
        <ele>310.600006</ele>
        <time>2017-06-11T09:37:35Z</time>
      </trkpt>
      <trkpt lat="47.45862" lon="6.60268">
        <ele>311</ele>
        <time>2017-06-11T09:37:39Z</time>
      </trkpt>
      <trkpt lat="47.45868" lon="6.60275">
        <ele>311.399994</ele>
        <time>2017-06-11T09:37:44Z</time>
      </trkpt>
      <trkpt lat="47.45869" lon="6.60276">
        <ele>311.799988</ele>
        <time>2017-06-11T09:37:45Z</time>
      </trkpt>
      <trkpt lat="47.45871" lon="6.60278">
        <ele>312.600006</ele>
        <time>2017-06-11T09:37:47Z</time>
      </trkpt>
      <trkpt lat="47.45872" lon="6.6028">
        <ele>313.200012</ele>
        <time>2017-06-11T09:37:48Z</time>
      </trkpt>
      <trkpt lat="47.45877" lon="6.60287">
        <ele>313.200012</ele>
        <time>2017-06-11T09:37:53Z</time>
      </trkpt>
      <trkpt lat="47.45878" lon="6.60291">
        <ele>313.200012</ele>
        <time>2017-06-11T09:37:55Z</time>
      </trkpt>
      <trkpt lat="47.4588" lon="6.60294">
        <ele>314</ele>
        <time>2017-06-11T09:37:57Z</time>
      </trkpt>
      <trkpt lat="47.45882" lon="6.60297">
        <ele>314.799988</ele>
        <time>2017-06-11T09:37:59Z</time>
      </trkpt>
      <trkpt lat="47.45882" lon="6.60299">
        <ele>315.200012</ele>
        <time>2017-06-11T09:38:00Z</time>
      </trkpt>
      <trkpt lat="47.45887" lon="6.60311">
        <ele>315.600006</ele>
        <time>2017-06-11T09:38:06Z</time>
      </trkpt>
      <trkpt lat="47.45889" lon="6.60314">
        <ele>316</ele>
        <time>2017-06-11T09:38:07Z</time>
      </trkpt>
      <trkpt lat="47.45889" lon="6.60318">
        <ele>316.799988</ele>
        <time>2017-06-11T09:38:09Z</time>
      </trkpt>
      <trkpt lat="47.4589" lon="6.6032">
        <ele>317.200012</ele>
        <time>2017-06-11T09:38:10Z</time>
      </trkpt>
      <trkpt lat="47.45896" lon="6.60337">
        <ele>318</ele>
        <time>2017-06-11T09:38:18Z</time>
      </trkpt>
      <trkpt lat="47.45898" lon="6.60342">
        <ele>319</ele>
        <time>2017-06-11T09:38:20Z</time>
      </trkpt>
      <trkpt lat="47.45903" lon="6.60358">
        <ele>319.399994</ele>
        <time>2017-06-11T09:38:27Z</time>
      </trkpt>
      <trkpt lat="47.45904" lon="6.60362">
        <ele>320.200012</ele>
        <time>2017-06-11T09:38:29Z</time>
      </trkpt>
      <trkpt lat="47.45905" lon="6.60371">
        <ele>321.600006</ele>
        <time>2017-06-11T09:38:33Z</time>
      </trkpt>
      <trkpt lat="47.45909" lon="6.60383">
        <ele>322</ele>
        <time>2017-06-11T09:38:39Z</time>
      </trkpt>
      <trkpt lat="47.45909" lon="6.60386">
        <ele>322.399994</ele>
        <time>2017-06-11T09:38:40Z</time>
      </trkpt>
      <trkpt lat="47.45909" lon="6.60388">
        <ele>322.799988</ele>
        <time>2017-06-11T09:38:41Z</time>
      </trkpt>
      <trkpt lat="47.45911" lon="6.60408">
        <ele>324</ele>
        <time>2017-06-11T09:38:50Z</time>
      </trkpt>
      <trkpt lat="47.45911" lon="6.6041">
        <ele>324.799988</ele>
        <time>2017-06-11T09:38:51Z</time>
      </trkpt>
      <trkpt lat="47.45911" lon="6.60412">
        <ele>325.399994</ele>
        <time>2017-06-11T09:38:52Z</time>
      </trkpt>
      <trkpt lat="47.45914" lon="6.60431">
        <ele>326.600006</ele>
        <time>2017-06-11T09:39:00Z</time>
      </trkpt>
      <trkpt lat="47.45914" lon="6.60432">
        <ele>327.200012</ele>
        <time>2017-06-11T09:39:01Z</time>
      </trkpt>
      <trkpt lat="47.45914" lon="6.60434">
        <ele>327.600006</ele>
        <time>2017-06-11T09:39:02Z</time>
      </trkpt>
      <trkpt lat="47.45916" lon="6.60438">
        <ele>328</ele>
        <time>2017-06-11T09:39:03Z</time>
      </trkpt>
      <trkpt lat="47.45918" lon="6.60444">
        <ele>328</ele>
        <time>2017-06-11T09:39:06Z</time>
      </trkpt>
      <trkpt lat="47.4592" lon="6.60449">
        <ele>328</ele>
        <time>2017-06-11T09:39:08Z</time>
      </trkpt>
      <trkpt lat="47.4592" lon="6.60452">
        <ele>328.399994</ele>
        <time>2017-06-11T09:39:09Z</time>
      </trkpt>
      <trkpt lat="47.45921" lon="6.60457">
        <ele>329.399994</ele>
        <time>2017-06-11T09:39:11Z</time>
      </trkpt>
      <trkpt lat="47.45923" lon="6.60462">
        <ele>330.200012</ele>
        <time>2017-06-11T09:39:13Z</time>
      </trkpt>
      <trkpt lat="47.45929" lon="6.60475">
        <ele>330.600006</ele>
        <time>2017-06-11T09:39:18Z</time>
      </trkpt>
      <trkpt lat="47.4593" lon="6.60478">
        <ele>331</ele>
        <time>2017-06-11T09:39:19Z</time>
      </trkpt>
      <trkpt lat="47.45933" lon="6.60486">
        <ele>332.200012</ele>
        <time>2017-06-11T09:39:22Z</time>
      </trkpt>
      <trkpt lat="47.45938" lon="6.60497">
        <ele>333</ele>
        <time>2017-06-11T09:39:27Z</time>
      </trkpt>
      <trkpt lat="47.45939" lon="6.60498">
        <ele>333.399994</ele>
        <time>2017-06-11T09:39:28Z</time>
      </trkpt>
      <trkpt lat="47.45939" lon="6.605">
        <ele>334</ele>
        <time>2017-06-11T09:39:29Z</time>
      </trkpt>
      <trkpt lat="47.45941" lon="6.60505">
        <ele>334.399994</ele>
        <time>2017-06-11T09:39:32Z</time>
      </trkpt>
      <trkpt lat="47.45942" lon="6.60511">
        <ele>334.799988</ele>
        <time>2017-06-11T09:39:35Z</time>
      </trkpt>
      <trkpt lat="47.45942" lon="6.60512">
        <ele>335.200012</ele>
        <time>2017-06-11T09:39:36Z</time>
      </trkpt>
      <trkpt lat="47.45944" lon="6.60518">
        <ele>336</ele>
        <time>2017-06-11T09:39:38Z</time>
      </trkpt>
      <trkpt lat="47.45946" lon="6.60521">
        <ele>336.399994</ele>
        <time>2017-06-11T09:39:39Z</time>
      </trkpt>
      <trkpt lat="47.4595" lon="6.60532">
        <ele>336.799988</ele>
        <time>2017-06-11T09:39:43Z</time>
      </trkpt>
      <trkpt lat="47.45955" lon="6.60538">
        <ele>338</ele>
        <time>2017-06-11T09:39:46Z</time>
      </trkpt>
      <trkpt lat="47.45956" lon="6.6054">
        <ele>338.399994</ele>
        <time>2017-06-11T09:39:47Z</time>
      </trkpt>
      <trkpt lat="47.45958" lon="6.60542">
        <ele>338.399994</ele>
        <time>2017-06-11T09:39:48Z</time>
      </trkpt>
      <trkpt lat="47.45964" lon="6.60544">
        <ele>338.799988</ele>
        <time>2017-06-11T09:39:53Z</time>
      </trkpt>
      <trkpt lat="47.45966" lon="6.60544">
        <ele>339.399994</ele>
        <time>2017-06-11T09:39:54Z</time>
      </trkpt>
      <trkpt lat="47.45967" lon="6.60544">
        <ele>339.799988</ele>
        <time>2017-06-11T09:39:55Z</time>
      </trkpt>
      <trkpt lat="47.45972" lon="6.60547">
        <ele>340.600006</ele>
        <time>2017-06-11T09:39:58Z</time>
      </trkpt>
      <trkpt lat="47.45979" lon="6.60548">
        <ele>341</ele>
        <time>2017-06-11T09:40:02Z</time>
      </trkpt>
      <trkpt lat="47.45981" lon="6.6055">
        <ele>341.399994</ele>
        <time>2017-06-11T09:40:03Z</time>
      </trkpt>
      <trkpt lat="47.45984" lon="6.6055">
        <ele>341.799988</ele>
        <time>2017-06-11T09:40:04Z</time>
      </trkpt>
      <trkpt lat="47.45994" lon="6.60559">
        <ele>343</ele>
        <time>2017-06-11T09:40:10Z</time>
      </trkpt>
      <trkpt lat="47.45998" lon="6.60561">
        <ele>343.799988</ele>
        <time>2017-06-11T09:40:12Z</time>
      </trkpt>
      <trkpt lat="47.46001" lon="6.60565">
        <ele>344.600006</ele>
        <time>2017-06-11T09:40:14Z</time>
      </trkpt>
      <trkpt lat="47.46002" lon="6.60567">
        <ele>344.600006</ele>
        <time>2017-06-11T09:40:15Z</time>
      </trkpt>
      <trkpt lat="47.46009" lon="6.60578">
        <ele>345.200012</ele>
        <time>2017-06-11T09:40:20Z</time>
      </trkpt>
      <trkpt lat="47.46012" lon="6.60586">
        <ele>346.399994</ele>
        <time>2017-06-11T09:40:23Z</time>
      </trkpt>
      <trkpt lat="47.46013" lon="6.60587">
        <ele>346.799988</ele>
        <time>2017-06-11T09:40:24Z</time>
      </trkpt>
      <trkpt lat="47.46014" lon="6.60589">
        <ele>346.799988</ele>
        <time>2017-06-11T09:40:25Z</time>
      </trkpt>
      <trkpt lat="47.46011" lon="6.606">
        <ele>347.600006</ele>
        <time>2017-06-11T09:40:29Z</time>
      </trkpt>
      <trkpt lat="47.46011" lon="6.60602">
        <ele>348</ele>
        <time>2017-06-11T09:40:30Z</time>
      </trkpt>
      <trkpt lat="47.46012" lon="6.60605">
        <ele>348.600006</ele>
        <time>2017-06-11T09:40:31Z</time>
      </trkpt>
      <trkpt lat="47.46012" lon="6.60615">
        <ele>349</ele>
        <time>2017-06-11T09:40:35Z</time>
      </trkpt>
      <trkpt lat="47.46007" lon="6.60628">
        <ele>349</ele>
        <time>2017-06-11T09:40:40Z</time>
      </trkpt>
      <trkpt lat="47.46009" lon="6.60633">
        <ele>349</ele>
        <time>2017-06-11T09:40:41Z</time>
      </trkpt>
      <trkpt lat="47.46012" lon="6.6064">
        <ele>349</ele>
        <time>2017-06-11T09:40:43Z</time>
      </trkpt>
      <trkpt lat="47.46015" lon="6.60648">
        <ele>349.399994</ele>
        <time>2017-06-11T09:40:45Z</time>
      </trkpt>
      <trkpt lat="47.46016" lon="6.60655">
        <ele>350.200012</ele>
        <time>2017-06-11T09:40:47Z</time>
      </trkpt>
      <trkpt lat="47.46019" lon="6.6066">
        <ele>350.600006</ele>
        <time>2017-06-11T09:40:48Z</time>
      </trkpt>
      <trkpt lat="47.46019" lon="6.60663">
        <ele>351</ele>
        <time>2017-06-11T09:40:49Z</time>
      </trkpt>
      <trkpt lat="47.46025" lon="6.60678">
        <ele>351</ele>
        <time>2017-06-11T09:40:53Z</time>
      </trkpt>
      <trkpt lat="47.4603" lon="6.60705">
        <ele>351</ele>
        <time>2017-06-11T09:40:59Z</time>
      </trkpt>
      <trkpt lat="47.46033" lon="6.60725">
        <ele>351</ele>
        <time>2017-06-11T09:41:03Z</time>
      </trkpt>
      <trkpt lat="47.46039" lon="6.60741">
        <ele>351.399994</ele>
        <time>2017-06-11T09:41:06Z</time>
      </trkpt>
      <trkpt lat="47.46042" lon="6.60746">
        <ele>351.799988</ele>
        <time>2017-06-11T09:41:07Z</time>
      </trkpt>
      <trkpt lat="47.46046" lon="6.60756">
        <ele>352.600006</ele>
        <time>2017-06-11T09:41:09Z</time>
      </trkpt>
      <trkpt lat="47.46047" lon="6.60761">
        <ele>353</ele>
        <time>2017-06-11T09:41:10Z</time>
      </trkpt>
      <trkpt lat="47.46055" lon="6.60781">
        <ele>353</ele>
        <time>2017-06-11T09:41:14Z</time>
      </trkpt>
      <trkpt lat="47.46061" lon="6.60805">
        <ele>353</ele>
        <time>2017-06-11T09:41:19Z</time>
      </trkpt>
      <trkpt lat="47.46073" lon="6.60846">
        <ele>353</ele>
        <time>2017-06-11T09:41:26Z</time>
      </trkpt>
      <trkpt lat="47.46093" lon="6.60928">
        <ele>353</ele>
        <time>2017-06-11T09:41:41Z</time>
      </trkpt>
      <trkpt lat="47.46097" lon="6.60957">
        <ele>353.399994</ele>
        <time>2017-06-11T09:41:46Z</time>
      </trkpt>
      <trkpt lat="47.461" lon="6.6097">
        <ele>354.600006</ele>
        <time>2017-06-11T09:41:49Z</time>
      </trkpt>
      <trkpt lat="47.46101" lon="6.60975">
        <ele>355</ele>
        <time>2017-06-11T09:41:50Z</time>
      </trkpt>
      <trkpt lat="47.46102" lon="6.60986">
        <ele>355</ele>
        <time>2017-06-11T09:41:53Z</time>
      </trkpt>
      <trkpt lat="47.46104" lon="6.6099">
        <ele>355</ele>
        <time>2017-06-11T09:41:54Z</time>
      </trkpt>
      <trkpt lat="47.46104" lon="6.61001">
        <ele>355.399994</ele>
        <time>2017-06-11T09:41:57Z</time>
      </trkpt>
      <trkpt lat="47.46104" lon="6.61004">
        <ele>355.799988</ele>
        <time>2017-06-11T09:41:58Z</time>
      </trkpt>
      <trkpt lat="47.46106" lon="6.61008">
        <ele>356.200012</ele>
        <time>2017-06-11T09:41:59Z</time>
      </trkpt>
      <trkpt lat="47.46107" lon="6.61013">
        <ele>356.600006</ele>
        <time>2017-06-11T09:42:00Z</time>
      </trkpt>
      <trkpt lat="47.46107" lon="6.61017">
        <ele>357</ele>
        <time>2017-06-11T09:42:02Z</time>
      </trkpt>
      <trkpt lat="47.46114" lon="6.61037">
        <ele>357</ele>
        <time>2017-06-11T09:42:07Z</time>
      </trkpt>
      <trkpt lat="47.46132" lon="6.61079">
        <ele>357.600006</ele>
        <time>2017-06-11T09:42:15Z</time>
      </trkpt>
      <trkpt lat="47.46136" lon="6.61093">
        <ele>358.799988</ele>
        <time>2017-06-11T09:42:18Z</time>
      </trkpt>
      <trkpt lat="47.46138" lon="6.61101">
        <ele>359.200012</ele>
        <time>2017-06-11T09:42:20Z</time>
      </trkpt>
      <trkpt lat="47.46147" lon="6.61132">
        <ele>360.200012</ele>
        <time>2017-06-11T09:42:28Z</time>
      </trkpt>
      <trkpt lat="47.4615" lon="6.61139">
        <ele>361</ele>
        <time>2017-06-11T09:42:30Z</time>
      </trkpt>
      <trkpt lat="47.46155" lon="6.6115">
        <ele>361.399994</ele>
        <time>2017-06-11T09:42:33Z</time>
      </trkpt>
      <trkpt lat="47.46164" lon="6.61163">
        <ele>361.799988</ele>
        <time>2017-06-11T09:42:37Z</time>
      </trkpt>
      <trkpt lat="47.46169" lon="6.61168">
        <ele>362.600006</ele>
        <time>2017-06-11T09:42:39Z</time>
      </trkpt>
      <trkpt lat="47.46171" lon="6.61171">
        <ele>363</ele>
        <time>2017-06-11T09:42:40Z</time>
      </trkpt>
      <trkpt lat="47.46173" lon="6.61173">
        <ele>363.399994</ele>
        <time>2017-06-11T09:42:41Z</time>
      </trkpt>
      <trkpt lat="47.46175" lon="6.61176">
        <ele>363.399994</ele>
        <time>2017-06-11T09:42:42Z</time>
      </trkpt>
      <trkpt lat="47.46188" lon="6.61185">
        <ele>363.399994</ele>
        <time>2017-06-11T09:42:47Z</time>
      </trkpt>
      <trkpt lat="47.46202" lon="6.61186">
        <ele>363.399994</ele>
        <time>2017-06-11T09:42:52Z</time>
      </trkpt>
      <trkpt lat="47.46217" lon="6.61186">
        <ele>363.399994</ele>
        <time>2017-06-11T09:42:57Z</time>
      </trkpt>
      <trkpt lat="47.46218" lon="6.61189">
        <ele>363.399994</ele>
        <time>2017-06-11T09:42:58Z</time>
      </trkpt>
      <trkpt lat="47.46222" lon="6.61193">
        <ele>363.399994</ele>
        <time>2017-06-11T09:43:01Z</time>
      </trkpt>
      <trkpt lat="47.46222" lon="6.61194">
        <ele>363.399994</ele>
        <time>2017-06-11T09:43:02Z</time>
      </trkpt>
      <trkpt lat="47.46224" lon="6.61199">
        <ele>364.600006</ele>
        <time>2017-06-11T09:43:06Z</time>
      </trkpt>
      <trkpt lat="47.46225" lon="6.61203">
        <ele>365.399994</ele>
        <time>2017-06-11T09:43:08Z</time>
      </trkpt>
      <trkpt lat="47.46226" lon="6.61204">
        <ele>365.399994</ele>
        <time>2017-06-11T09:43:09Z</time>
      </trkpt>
      <trkpt lat="47.46224" lon="6.6121">
        <ele>366</ele>
        <time>2017-06-11T09:43:15Z</time>
      </trkpt>
      <trkpt lat="47.46227" lon="6.61237">
        <ele>368.600006</ele>
        <time>2017-06-11T09:44:21Z</time>
      </trkpt>
      <trkpt lat="47.46227" lon="6.6124">
        <ele>369</ele>
        <time>2017-06-11T09:44:22Z</time>
      </trkpt>
      <trkpt lat="47.46226" lon="6.61244">
        <ele>369.799988</ele>
        <time>2017-06-11T09:44:24Z</time>
      </trkpt>
      <trkpt lat="47.46227" lon="6.61252">
        <ele>369.799988</ele>
        <time>2017-06-11T09:44:27Z</time>
      </trkpt>
      <trkpt lat="47.46228" lon="6.61255">
        <ele>369.799988</ele>
        <time>2017-06-11T09:44:28Z</time>
      </trkpt>
      <trkpt lat="47.46231" lon="6.61264">
        <ele>370.799988</ele>
        <time>2017-06-11T09:44:32Z</time>
      </trkpt>
      <trkpt lat="47.46233" lon="6.61271">
        <ele>371.799988</ele>
        <time>2017-06-11T09:44:34Z</time>
      </trkpt>
      <trkpt lat="47.46234" lon="6.61273">
        <ele>372.200012</ele>
        <time>2017-06-11T09:44:35Z</time>
      </trkpt>
      <trkpt lat="47.46236" lon="6.61276">
        <ele>372.200012</ele>
        <time>2017-06-11T09:44:36Z</time>
      </trkpt>
      <trkpt lat="47.46239" lon="6.61286">
        <ele>373</ele>
        <time>2017-06-11T09:44:39Z</time>
      </trkpt>
      <trkpt lat="47.4624" lon="6.61287">
        <ele>373.399994</ele>
        <time>2017-06-11T09:44:40Z</time>
      </trkpt>
      <trkpt lat="47.46241" lon="6.61289">
        <ele>374</ele>
        <time>2017-06-11T09:44:41Z</time>
      </trkpt>
      <trkpt lat="47.46241" lon="6.61291">
        <ele>374.399994</ele>
        <time>2017-06-11T09:44:42Z</time>
      </trkpt>
      <trkpt lat="47.46243" lon="6.61298">
        <ele>374.399994</ele>
        <time>2017-06-11T09:44:45Z</time>
      </trkpt>
      <trkpt lat="47.46244" lon="6.61301">
        <ele>374.399994</ele>
        <time>2017-06-11T09:44:46Z</time>
      </trkpt>
      <trkpt lat="47.46247" lon="6.61308">
        <ele>374.799988</ele>
        <time>2017-06-11T09:44:49Z</time>
      </trkpt>
      <trkpt lat="47.46248" lon="6.6131">
        <ele>375.200012</ele>
        <time>2017-06-11T09:44:50Z</time>
      </trkpt>
      <trkpt lat="47.4625" lon="6.61318">
        <ele>376.399994</ele>
        <time>2017-06-11T09:44:53Z</time>
      </trkpt>
      <trkpt lat="47.46248" lon="6.61339">
        <ele>376.399994</ele>
        <time>2017-06-11T09:45:00Z</time>
      </trkpt>
      <trkpt lat="47.46249" lon="6.61344">
        <ele>376.399994</ele>
        <time>2017-06-11T09:45:02Z</time>
      </trkpt>
      <trkpt lat="47.46248" lon="6.61349">
        <ele>376.399994</ele>
        <time>2017-06-11T09:45:04Z</time>
      </trkpt>
      <trkpt lat="47.46244" lon="6.61358">
        <ele>376.399994</ele>
        <time>2017-06-11T09:45:07Z</time>
      </trkpt>
      <trkpt lat="47.4624" lon="6.6137">
        <ele>376.399994</ele>
        <time>2017-06-11T09:45:11Z</time>
      </trkpt>
      <trkpt lat="47.46237" lon="6.61383">
        <ele>376.799988</ele>
        <time>2017-06-11T09:45:18Z</time>
      </trkpt>
      <trkpt lat="47.46237" lon="6.61385">
        <ele>377.200012</ele>
        <time>2017-06-11T09:45:19Z</time>
      </trkpt>
      <trkpt lat="47.46233" lon="6.61396">
        <ele>378.399994</ele>
        <time>2017-06-11T09:45:22Z</time>
      </trkpt>
      <trkpt lat="47.46231" lon="6.61405">
        <ele>378.399994</ele>
        <time>2017-06-11T09:45:24Z</time>
      </trkpt>
      <trkpt lat="47.46226" lon="6.61427">
        <ele>378.399994</ele>
        <time>2017-06-11T09:45:29Z</time>
      </trkpt>
      <trkpt lat="47.46226" lon="6.6143">
        <ele>378.399994</ele>
        <time>2017-06-11T09:45:30Z</time>
      </trkpt>
      <trkpt lat="47.46224" lon="6.61439">
        <ele>378.399994</ele>
        <time>2017-06-11T09:45:35Z</time>
      </trkpt>
      <trkpt lat="47.46224" lon="6.61442">
        <ele>378.399994</ele>
        <time>2017-06-11T09:45:36Z</time>
      </trkpt>
      <trkpt lat="47.46224" lon="6.61451">
        <ele>378.399994</ele>
        <time>2017-06-11T09:45:39Z</time>
      </trkpt>
      <trkpt lat="47.46224" lon="6.61469">
        <ele>378.799988</ele>
        <time>2017-06-11T09:45:43Z</time>
      </trkpt>
      <trkpt lat="47.46224" lon="6.61472">
        <ele>379.200012</ele>
        <time>2017-06-11T09:45:44Z</time>
      </trkpt>
      <trkpt lat="47.46223" lon="6.61476">
        <ele>379.600006</ele>
        <time>2017-06-11T09:45:45Z</time>
      </trkpt>
      <trkpt lat="47.46222" lon="6.61481">
        <ele>380</ele>
        <time>2017-06-11T09:45:46Z</time>
      </trkpt>
      <trkpt lat="47.46221" lon="6.61485">
        <ele>380.399994</ele>
        <time>2017-06-11T09:45:47Z</time>
      </trkpt>
      <trkpt lat="47.46222" lon="6.61496">
        <ele>380.399994</ele>
        <time>2017-06-11T09:45:51Z</time>
      </trkpt>
      <trkpt lat="47.46221" lon="6.61499">
        <ele>380.399994</ele>
        <time>2017-06-11T09:45:52Z</time>
      </trkpt>
      <trkpt lat="47.46216" lon="6.61535">
        <ele>380.399994</ele>
        <time>2017-06-11T09:46:04Z</time>
      </trkpt>
      <trkpt lat="47.46216" lon="6.61544">
        <ele>381.799988</ele>
        <time>2017-06-11T09:46:07Z</time>
      </trkpt>
      <trkpt lat="47.46216" lon="6.61548">
        <ele>382.200012</ele>
        <time>2017-06-11T09:46:08Z</time>
      </trkpt>
      <trkpt lat="47.46215" lon="6.61554">
        <ele>382.600006</ele>
        <time>2017-06-11T09:46:09Z</time>
      </trkpt>
      <trkpt lat="47.46213" lon="6.61564">
        <ele>382.600006</ele>
        <time>2017-06-11T09:46:11Z</time>
      </trkpt>
      <trkpt lat="47.46211" lon="6.61583">
        <ele>382.600006</ele>
        <time>2017-06-11T09:46:17Z</time>
      </trkpt>
      <trkpt lat="47.46212" lon="6.61585">
        <ele>382.600006</ele>
        <time>2017-06-11T09:46:18Z</time>
      </trkpt>
      <trkpt lat="47.46211" lon="6.61597">
        <ele>383.799988</ele>
        <time>2017-06-11T09:46:23Z</time>
      </trkpt>
      <trkpt lat="47.4621" lon="6.61601">
        <ele>384.200012</ele>
        <time>2017-06-11T09:46:24Z</time>
      </trkpt>
      <trkpt lat="47.46209" lon="6.61604">
        <ele>384.600006</ele>
        <time>2017-06-11T09:46:25Z</time>
      </trkpt>
      <trkpt lat="47.46208" lon="6.61608">
        <ele>384.600006</ele>
        <time>2017-06-11T09:46:27Z</time>
      </trkpt>
      <trkpt lat="47.46206" lon="6.61622">
        <ele>384.600006</ele>
        <time>2017-06-11T09:46:35Z</time>
      </trkpt>
      <trkpt lat="47.46206" lon="6.61625">
        <ele>384.600006</ele>
        <time>2017-06-11T09:46:36Z</time>
      </trkpt>
      <trkpt lat="47.46206" lon="6.6163">
        <ele>384.600006</ele>
        <time>2017-06-11T09:46:38Z</time>
      </trkpt>
      <trkpt lat="47.46205" lon="6.61661">
        <ele>384.600006</ele>
        <time>2017-06-11T09:46:44Z</time>
      </trkpt>
      <trkpt lat="47.46199" lon="6.61681">
        <ele>384.600006</ele>
        <time>2017-06-11T09:46:48Z</time>
      </trkpt>
      <trkpt lat="47.46197" lon="6.61686">
        <ele>384.600006</ele>
        <time>2017-06-11T09:46:49Z</time>
      </trkpt>
      <trkpt lat="47.46188" lon="6.61694">
        <ele>384.600006</ele>
        <time>2017-06-11T09:46:52Z</time>
      </trkpt>
      <trkpt lat="47.46174" lon="6.61697">
        <ele>384.600006</ele>
        <time>2017-06-11T09:46:57Z</time>
      </trkpt>
      <trkpt lat="47.46166" lon="6.61695">
        <ele>384.200012</ele>
        <time>2017-06-11T09:46:59Z</time>
      </trkpt>
      <trkpt lat="47.46162" lon="6.61694">
        <ele>383.600006</ele>
        <time>2017-06-11T09:47:00Z</time>
      </trkpt>
      <trkpt lat="47.46154" lon="6.61691">
        <ele>382.799988</ele>
        <time>2017-06-11T09:47:02Z</time>
      </trkpt>
      <trkpt lat="47.46151" lon="6.61688">
        <ele>382.200012</ele>
        <time>2017-06-11T09:47:03Z</time>
      </trkpt>
      <trkpt lat="47.46145" lon="6.61684">
        <ele>381.200012</ele>
        <time>2017-06-11T09:47:05Z</time>
      </trkpt>
      <trkpt lat="47.46143" lon="6.61681">
        <ele>380.799988</ele>
        <time>2017-06-11T09:47:06Z</time>
      </trkpt>
      <trkpt lat="47.46139" lon="6.61682">
        <ele>380.200012</ele>
        <time>2017-06-11T09:47:07Z</time>
      </trkpt>
      <trkpt lat="47.46133" lon="6.61681">
        <ele>379.200012</ele>
        <time>2017-06-11T09:47:09Z</time>
      </trkpt>
      <trkpt lat="47.4613" lon="6.61679">
        <ele>378.600006</ele>
        <time>2017-06-11T09:47:10Z</time>
      </trkpt>
      <trkpt lat="47.46127" lon="6.6168">
        <ele>378</ele>
        <time>2017-06-11T09:47:11Z</time>
      </trkpt>
      <trkpt lat="47.46124" lon="6.6168">
        <ele>377.399994</ele>
        <time>2017-06-11T09:47:12Z</time>
      </trkpt>
      <trkpt lat="47.46118" lon="6.61675">
        <ele>377</ele>
        <time>2017-06-11T09:47:14Z</time>
      </trkpt>
      <trkpt lat="47.46114" lon="6.61673">
        <ele>376.399994</ele>
        <time>2017-06-11T09:47:15Z</time>
      </trkpt>
      <trkpt lat="47.46108" lon="6.61672">
        <ele>376</ele>
        <time>2017-06-11T09:47:16Z</time>
      </trkpt>
      <trkpt lat="47.46095" lon="6.61668">
        <ele>374.399994</ele>
        <time>2017-06-11T09:47:19Z</time>
      </trkpt>
      <trkpt lat="47.4609" lon="6.61665">
        <ele>374</ele>
        <time>2017-06-11T09:47:20Z</time>
      </trkpt>
      <trkpt lat="47.46086" lon="6.61662">
        <ele>373.399994</ele>
        <time>2017-06-11T09:47:21Z</time>
      </trkpt>
      <trkpt lat="47.46077" lon="6.61652">
        <ele>372.600006</ele>
        <time>2017-06-11T09:47:23Z</time>
      </trkpt>
      <trkpt lat="47.46071" lon="6.61646">
        <ele>371.600006</ele>
        <time>2017-06-11T09:47:25Z</time>
      </trkpt>
      <trkpt lat="47.46068" lon="6.6164">
        <ele>370.799988</ele>
        <time>2017-06-11T09:47:27Z</time>
      </trkpt>
      <trkpt lat="47.46067" lon="6.61637">
        <ele>370.399994</ele>
        <time>2017-06-11T09:47:28Z</time>
      </trkpt>
      <trkpt lat="47.46066" lon="6.6163">
        <ele>370.399994</ele>
        <time>2017-06-11T09:47:30Z</time>
      </trkpt>
      <trkpt lat="47.46066" lon="6.61623">
        <ele>370</ele>
        <time>2017-06-11T09:47:33Z</time>
      </trkpt>
      <trkpt lat="47.46065" lon="6.61616">
        <ele>368.600006</ele>
        <time>2017-06-11T09:47:36Z</time>
      </trkpt>
      <trkpt lat="47.46066" lon="6.6161">
        <ele>368.200012</ele>
        <time>2017-06-11T09:47:37Z</time>
      </trkpt>
      <trkpt lat="47.46065" lon="6.61609">
        <ele>368.200012</ele>
        <time>2017-06-11T09:47:38Z</time>
      </trkpt>
      <trkpt lat="47.46062" lon="6.61601">
        <ele>368.200012</ele>
        <time>2017-06-11T09:47:47Z</time>
      </trkpt>
      <trkpt lat="47.46061" lon="6.61595">
        <ele>367.200012</ele>
        <time>2017-06-11T09:47:49Z</time>
      </trkpt>
      <trkpt lat="47.4606" lon="6.61593">
        <ele>366.799988</ele>
        <time>2017-06-11T09:47:50Z</time>
      </trkpt>
      <trkpt lat="47.4606" lon="6.6157">
        <ele>365.799988</ele>
        <time>2017-06-11T09:49:26Z</time>
      </trkpt>
      <trkpt lat="47.46064" lon="6.61556">
        <ele>365.799988</ele>
        <time>2017-06-11T09:49:32Z</time>
      </trkpt>
      <trkpt lat="47.4607" lon="6.61543">
        <ele>365.799988</ele>
        <time>2017-06-11T09:49:36Z</time>
      </trkpt>
      <trkpt lat="47.46074" lon="6.61536">
        <ele>365.799988</ele>
        <time>2017-06-11T09:49:40Z</time>
      </trkpt>
      <trkpt lat="47.46077" lon="6.6153">
        <ele>365.799988</ele>
        <time>2017-06-11T09:49:43Z</time>
      </trkpt>
      <trkpt lat="47.46075" lon="6.61521">
        <ele>365.799988</ele>
        <time>2017-06-11T09:49:47Z</time>
      </trkpt>
      <trkpt lat="47.46073" lon="6.6152">
        <ele>365.799988</ele>
        <time>2017-06-11T09:49:48Z</time>
      </trkpt>
      <trkpt lat="47.46065" lon="6.61522">
        <ele>365.799988</ele>
        <time>2017-06-11T09:49:52Z</time>
      </trkpt>
      <trkpt lat="47.46059" lon="6.61522">
        <ele>365</ele>
        <time>2017-06-11T09:49:55Z</time>
      </trkpt>
      <trkpt lat="47.46055" lon="6.61519">
        <ele>364.200012</ele>
        <time>2017-06-11T09:49:57Z</time>
      </trkpt>
      <trkpt lat="47.46054" lon="6.61517">
        <ele>363.799988</ele>
        <time>2017-06-11T09:49:58Z</time>
      </trkpt>
      <trkpt lat="47.46055" lon="6.61503">
        <ele>363.799988</ele>
        <time>2017-06-11T09:50:04Z</time>
      </trkpt>
      <trkpt lat="47.46056" lon="6.61497">
        <ele>363.799988</ele>
        <time>2017-06-11T09:50:42Z</time>
      </trkpt>
      <trkpt lat="47.46056" lon="6.61495">
        <ele>363.799988</ele>
        <time>2017-06-11T09:50:43Z</time>
      </trkpt>
      <trkpt lat="47.46055" lon="6.61483">
        <ele>363.799988</ele>
        <time>2017-06-11T09:50:48Z</time>
      </trkpt>
      <trkpt lat="47.46049" lon="6.61479">
        <ele>362.799988</ele>
        <time>2017-06-11T09:50:52Z</time>
      </trkpt>
      <trkpt lat="47.46048" lon="6.61476">
        <ele>362.399994</ele>
        <time>2017-06-11T09:50:53Z</time>
      </trkpt>
      <trkpt lat="47.46046" lon="6.61473">
        <ele>361.799988</ele>
        <time>2017-06-11T09:50:54Z</time>
      </trkpt>
      <trkpt lat="47.46046" lon="6.61465">
        <ele>361.399994</ele>
        <time>2017-06-11T09:50:56Z</time>
      </trkpt>
      <trkpt lat="47.46047" lon="6.61454">
        <ele>361.399994</ele>
        <time>2017-06-11T09:50:59Z</time>
      </trkpt>
      <trkpt lat="47.46048" lon="6.61443">
        <ele>361.399994</ele>
        <time>2017-06-11T09:51:02Z</time>
      </trkpt>
      <trkpt lat="47.46046" lon="6.61432">
        <ele>361.399994</ele>
        <time>2017-06-11T09:51:05Z</time>
      </trkpt>
      <trkpt lat="47.46046" lon="6.61415">
        <ele>361.399994</ele>
        <time>2017-06-11T09:51:09Z</time>
      </trkpt>
      <trkpt lat="47.46047" lon="6.61411">
        <ele>361.399994</ele>
        <time>2017-06-11T09:51:10Z</time>
      </trkpt>
      <trkpt lat="47.46047" lon="6.61387">
        <ele>360</ele>
        <time>2017-06-11T09:51:14Z</time>
      </trkpt>
      <trkpt lat="47.46044" lon="6.61376">
        <ele>359</ele>
        <time>2017-06-11T09:51:16Z</time>
      </trkpt>
      <trkpt lat="47.46042" lon="6.61352">
        <ele>359</ele>
        <time>2017-06-11T09:51:21Z</time>
      </trkpt>
      <trkpt lat="47.4604" lon="6.61339">
        <ele>358.600006</ele>
        <time>2017-06-11T09:51:24Z</time>
      </trkpt>
      <trkpt lat="47.4604" lon="6.61331">
        <ele>357.799988</ele>
        <time>2017-06-11T09:51:26Z</time>
      </trkpt>
      <trkpt lat="47.46038" lon="6.61324">
        <ele>357</ele>
        <time>2017-06-11T09:51:28Z</time>
      </trkpt>
      <trkpt lat="47.46031" lon="6.6131">
        <ele>356.399994</ele>
        <time>2017-06-11T09:51:32Z</time>
      </trkpt>
      <trkpt lat="47.46031" lon="6.61307">
        <ele>356</ele>
        <time>2017-06-11T09:51:33Z</time>
      </trkpt>
      <trkpt lat="47.46031" lon="6.61303">
        <ele>355.600006</ele>
        <time>2017-06-11T09:51:34Z</time>
      </trkpt>
      <trkpt lat="47.4603" lon="6.613">
        <ele>354.799988</ele>
        <time>2017-06-11T09:51:35Z</time>
      </trkpt>
      <trkpt lat="47.46028" lon="6.61296">
        <ele>354.200012</ele>
        <time>2017-06-11T09:51:36Z</time>
      </trkpt>
      <trkpt lat="47.46027" lon="6.61292">
        <ele>352.799988</ele>
        <time>2017-06-11T09:51:37Z</time>
      </trkpt>
      <trkpt lat="47.46026" lon="6.61288">
        <ele>352.200012</ele>
        <time>2017-06-11T09:51:38Z</time>
      </trkpt>
      <trkpt lat="47.46011" lon="6.61266">
        <ele>352.200012</ele>
        <time>2017-06-11T09:51:44Z</time>
      </trkpt>
      <trkpt lat="47.46002" lon="6.61251">
        <ele>352.200012</ele>
        <time>2017-06-11T09:51:50Z</time>
      </trkpt>
      <trkpt lat="47.45995" lon="6.61252">
        <ele>352.200012</ele>
        <time>2017-06-11T09:52:33Z</time>
      </trkpt>
      <trkpt lat="47.45994" lon="6.61253">
        <ele>352.200012</ele>
        <time>2017-06-11T09:52:34Z</time>
      </trkpt>
      <trkpt lat="47.45976" lon="6.61245">
        <ele>352.200012</ele>
        <time>2017-06-11T09:52:44Z</time>
      </trkpt>
      <trkpt lat="47.45973" lon="6.61245">
        <ele>352.200012</ele>
        <time>2017-06-11T09:52:46Z</time>
      </trkpt>
      <trkpt lat="47.45968" lon="6.61243">
        <ele>352.200012</ele>
        <time>2017-06-11T09:52:48Z</time>
      </trkpt>
      <trkpt lat="47.45964" lon="6.61241">
        <ele>352.600006</ele>
        <time>2017-06-11T09:52:50Z</time>
      </trkpt>
      <trkpt lat="47.45961" lon="6.61239">
        <ele>354</ele>
        <time>2017-06-11T09:52:52Z</time>
      </trkpt>
      <trkpt lat="47.45958" lon="6.6124">
        <ele>354.399994</ele>
        <time>2017-06-11T09:52:53Z</time>
      </trkpt>
      <trkpt lat="47.45956" lon="6.61241">
        <ele>354.399994</ele>
        <time>2017-06-11T09:52:54Z</time>
      </trkpt>
      <trkpt lat="47.45953" lon="6.61243">
        <ele>354.399994</ele>
        <time>2017-06-11T09:52:56Z</time>
      </trkpt>
      <trkpt lat="47.45951" lon="6.61249">
        <ele>354.399994</ele>
        <time>2017-06-11T09:52:59Z</time>
      </trkpt>
      <trkpt lat="47.45946" lon="6.61255">
        <ele>355.799988</ele>
        <time>2017-06-11T09:53:03Z</time>
      </trkpt>
      <trkpt lat="47.45944" lon="6.61257">
        <ele>356.200012</ele>
        <time>2017-06-11T09:53:04Z</time>
      </trkpt>
      <trkpt lat="47.4593" lon="6.61266">
        <ele>357</ele>
        <time>2017-06-11T09:53:11Z</time>
      </trkpt>
      <trkpt lat="47.45929" lon="6.61268">
        <ele>357.399994</ele>
        <time>2017-06-11T09:53:12Z</time>
      </trkpt>
      <trkpt lat="47.45927" lon="6.61269">
        <ele>357.799988</ele>
        <time>2017-06-11T09:53:13Z</time>
      </trkpt>
      <trkpt lat="47.45926" lon="6.6127">
        <ele>358.200012</ele>
        <time>2017-06-11T09:53:14Z</time>
      </trkpt>
      <trkpt lat="47.45924" lon="6.61272">
        <ele>358.600006</ele>
        <time>2017-06-11T09:53:15Z</time>
      </trkpt>
      <trkpt lat="47.45914" lon="6.61276">
        <ele>358.600006</ele>
        <time>2017-06-11T09:53:19Z</time>
      </trkpt>
      <trkpt lat="47.45908" lon="6.61277">
        <ele>359</ele>
        <time>2017-06-11T09:53:22Z</time>
      </trkpt>
      <trkpt lat="47.45906" lon="6.61276">
        <ele>359.399994</ele>
        <time>2017-06-11T09:53:23Z</time>
      </trkpt>
      <trkpt lat="47.45901" lon="6.61279">
        <ele>360.200012</ele>
        <time>2017-06-11T09:53:25Z</time>
      </trkpt>
      <trkpt lat="47.45898" lon="6.61279">
        <ele>360.600006</ele>
        <time>2017-06-11T09:53:26Z</time>
      </trkpt>
      <trkpt lat="47.45879" lon="6.61284">
        <ele>360.600006</ele>
        <time>2017-06-11T09:53:33Z</time>
      </trkpt>
      <trkpt lat="47.4586" lon="6.61299">
        <ele>360.600006</ele>
        <time>2017-06-11T09:53:39Z</time>
      </trkpt>
      <trkpt lat="47.45847" lon="6.6131">
        <ele>360.600006</ele>
        <time>2017-06-11T09:53:43Z</time>
      </trkpt>
      <trkpt lat="47.45828" lon="6.61325">
        <ele>360.600006</ele>
        <time>2017-06-11T09:53:48Z</time>
      </trkpt>
      <trkpt lat="47.45802" lon="6.61339">
        <ele>360.600006</ele>
        <time>2017-06-11T09:53:54Z</time>
      </trkpt>
      <trkpt lat="47.45793" lon="6.61344">
        <ele>360.600006</ele>
        <time>2017-06-11T09:53:56Z</time>
      </trkpt>
      <trkpt lat="47.45774" lon="6.61354">
        <ele>360.600006</ele>
        <time>2017-06-11T09:54:01Z</time>
      </trkpt>
      <trkpt lat="47.45768" lon="6.61361">
        <ele>360.600006</ele>
        <time>2017-06-11T09:54:04Z</time>
      </trkpt>
      <trkpt lat="47.45766" lon="6.61364">
        <ele>360.600006</ele>
        <time>2017-06-11T09:54:05Z</time>
      </trkpt>
      <trkpt lat="47.45757" lon="6.61378">
        <ele>360.600006</ele>
        <time>2017-06-11T09:54:10Z</time>
      </trkpt>
      <trkpt lat="47.45746" lon="6.6139">
        <ele>361.799988</ele>
        <time>2017-06-11T09:54:16Z</time>
      </trkpt>
      <trkpt lat="47.45745" lon="6.61391">
        <ele>362.200012</ele>
        <time>2017-06-11T09:54:17Z</time>
      </trkpt>
      <trkpt lat="47.45743" lon="6.61393">
        <ele>362.799988</ele>
        <time>2017-06-11T09:54:18Z</time>
      </trkpt>
      <trkpt lat="47.45739" lon="6.61398">
        <ele>362.799988</ele>
        <time>2017-06-11T09:54:20Z</time>
      </trkpt>
      <trkpt lat="47.45726" lon="6.61422">
        <ele>363.200012</ele>
        <time>2017-06-11T09:54:26Z</time>
      </trkpt>
      <trkpt lat="47.45721" lon="6.61433">
        <ele>364.399994</ele>
        <time>2017-06-11T09:54:29Z</time>
      </trkpt>
      <trkpt lat="47.45719" lon="6.6144">
        <ele>365</ele>
        <time>2017-06-11T09:54:30Z</time>
      </trkpt>
      <trkpt lat="47.45715" lon="6.61453">
        <ele>365</ele>
        <time>2017-06-11T09:54:32Z</time>
      </trkpt>
      <trkpt lat="47.4571" lon="6.61465">
        <ele>365</ele>
        <time>2017-06-11T09:54:34Z</time>
      </trkpt>
      <trkpt lat="47.45707" lon="6.61474">
        <ele>365</ele>
        <time>2017-06-11T09:54:36Z</time>
      </trkpt>
      <trkpt lat="47.45701" lon="6.61484">
        <ele>365.799988</ele>
        <time>2017-06-11T09:54:39Z</time>
      </trkpt>
      <trkpt lat="47.457" lon="6.61487">
        <ele>366.200012</ele>
        <time>2017-06-11T09:54:40Z</time>
      </trkpt>
      <trkpt lat="47.457" lon="6.61494">
        <ele>367</ele>
        <time>2017-06-11T09:54:42Z</time>
      </trkpt>
      <trkpt lat="47.45695" lon="6.61513">
        <ele>367.399994</ele>
        <time>2017-06-11T09:54:47Z</time>
      </trkpt>
      <trkpt lat="47.45694" lon="6.61518">
        <ele>367.799988</ele>
        <time>2017-06-11T09:54:48Z</time>
      </trkpt>
      <trkpt lat="47.45694" lon="6.61525">
        <ele>368.200012</ele>
        <time>2017-06-11T09:54:49Z</time>
      </trkpt>
      <trkpt lat="47.45697" lon="6.61532">
        <ele>369</ele>
        <time>2017-06-11T09:54:51Z</time>
      </trkpt>
      <trkpt lat="47.45706" lon="6.61544">
        <ele>369.399994</ele>
        <time>2017-06-11T09:54:55Z</time>
      </trkpt>
      <trkpt lat="47.4571" lon="6.61547">
        <ele>370.399994</ele>
        <time>2017-06-11T09:54:57Z</time>
      </trkpt>
      <trkpt lat="47.45714" lon="6.61553">
        <ele>371.200012</ele>
        <time>2017-06-11T09:54:59Z</time>
      </trkpt>
      <trkpt lat="47.45724" lon="6.61564">
        <ele>371.600006</ele>
        <time>2017-06-11T09:55:04Z</time>
      </trkpt>
      <trkpt lat="47.45728" lon="6.6157">
        <ele>372.399994</ele>
        <time>2017-06-11T09:55:06Z</time>
      </trkpt>
      <trkpt lat="47.45751" lon="6.61593">
        <ele>373.799988</ele>
        <time>2017-06-11T09:55:15Z</time>
      </trkpt>
      <trkpt lat="47.45754" lon="6.61598">
        <ele>374.600006</ele>
        <time>2017-06-11T09:55:17Z</time>
      </trkpt>
      <trkpt lat="47.4576" lon="6.61602">
        <ele>375.399994</ele>
        <time>2017-06-11T09:55:19Z</time>
      </trkpt>
      <trkpt lat="47.45765" lon="6.61607">
        <ele>375.399994</ele>
        <time>2017-06-11T09:55:21Z</time>
      </trkpt>
      <trkpt lat="47.45769" lon="6.61611">
        <ele>375.399994</ele>
        <time>2017-06-11T09:55:23Z</time>
      </trkpt>
      <trkpt lat="47.45791" lon="6.61634">
        <ele>375.399994</ele>
        <time>2017-06-11T09:55:32Z</time>
      </trkpt>
      <trkpt lat="47.45797" lon="6.61639">
        <ele>376.200012</ele>
        <time>2017-06-11T09:55:34Z</time>
      </trkpt>
      <trkpt lat="47.45801" lon="6.61641">
        <ele>376.799988</ele>
        <time>2017-06-11T09:55:35Z</time>
      </trkpt>
      <trkpt lat="47.45804" lon="6.61644">
        <ele>377.200012</ele>
        <time>2017-06-11T09:55:36Z</time>
      </trkpt>
      <trkpt lat="47.45807" lon="6.61647">
        <ele>377.600006</ele>
        <time>2017-06-11T09:55:37Z</time>
      </trkpt>
      <trkpt lat="47.4582" lon="6.6166">
        <ele>377.600006</ele>
        <time>2017-06-11T09:55:42Z</time>
      </trkpt>
      <trkpt lat="47.45832" lon="6.61677">
        <ele>377.600006</ele>
        <time>2017-06-11T09:55:47Z</time>
      </trkpt>
      <trkpt lat="47.45848" lon="6.61692">
        <ele>377.600006</ele>
        <time>2017-06-11T09:55:52Z</time>
      </trkpt>
      <trkpt lat="47.45857" lon="6.61704">
        <ele>377.600006</ele>
        <time>2017-06-11T09:55:56Z</time>
      </trkpt>
      <trkpt lat="47.45866" lon="6.61716">
        <ele>377.600006</ele>
        <time>2017-06-11T09:56:00Z</time>
      </trkpt>
      <trkpt lat="47.45882" lon="6.61739">
        <ele>377.600006</ele>
        <time>2017-06-11T09:56:09Z</time>
      </trkpt>
      <trkpt lat="47.45891" lon="6.61752">
        <ele>377.600006</ele>
        <time>2017-06-11T09:56:17Z</time>
      </trkpt>
      <trkpt lat="47.45906" lon="6.6177">
        <ele>377.600006</ele>
        <time>2017-06-11T09:56:22Z</time>
      </trkpt>
      <trkpt lat="47.45917" lon="6.61785">
        <ele>377.600006</ele>
        <time>2017-06-11T09:56:27Z</time>
      </trkpt>
      <trkpt lat="47.4592" lon="6.6179">
        <ele>378</ele>
        <time>2017-06-11T09:56:29Z</time>
      </trkpt>
      <trkpt lat="47.45924" lon="6.61794">
        <ele>378.799988</ele>
        <time>2017-06-11T09:56:31Z</time>
      </trkpt>
      <trkpt lat="47.45927" lon="6.61798">
        <ele>379.200012</ele>
        <time>2017-06-11T09:56:32Z</time>
      </trkpt>
      <trkpt lat="47.45934" lon="6.61807">
        <ele>379.600006</ele>
        <time>2017-06-11T09:56:35Z</time>
      </trkpt>
      <trkpt lat="47.45936" lon="6.6181">
        <ele>379.600006</ele>
        <time>2017-06-11T09:56:36Z</time>
      </trkpt>
      <trkpt lat="47.45954" lon="6.61834">
        <ele>379.600006</ele>
        <time>2017-06-11T09:56:45Z</time>
      </trkpt>
      <trkpt lat="47.45956" lon="6.61835">
        <ele>379.600006</ele>
        <time>2017-06-11T09:56:46Z</time>
      </trkpt>
      <trkpt lat="47.45963" lon="6.61842">
        <ele>379.600006</ele>
        <time>2017-06-11T09:56:49Z</time>
      </trkpt>
      <trkpt lat="47.45967" lon="6.61847">
        <ele>380.600006</ele>
        <time>2017-06-11T09:56:52Z</time>
      </trkpt>
      <trkpt lat="47.45971" lon="6.6185">
        <ele>381.799988</ele>
        <time>2017-06-11T09:56:55Z</time>
      </trkpt>
      <trkpt lat="47.45976" lon="6.61857">
        <ele>381.799988</ele>
        <time>2017-06-11T09:56:58Z</time>
      </trkpt>
      <trkpt lat="47.4598" lon="6.61864">
        <ele>381.799988</ele>
        <time>2017-06-11T09:57:01Z</time>
      </trkpt>
      <trkpt lat="47.45981" lon="6.61866">
        <ele>381.799988</ele>
        <time>2017-06-11T09:57:02Z</time>
      </trkpt>
      <trkpt lat="47.45992" lon="6.61877">
        <ele>384.200012</ele>
        <time>2017-06-11T09:57:07Z</time>
      </trkpt>
      <trkpt lat="47.46006" lon="6.61895">
        <ele>384.200012</ele>
        <time>2017-06-11T09:57:14Z</time>
      </trkpt>
      <trkpt lat="47.46011" lon="6.61901">
        <ele>384.200012</ele>
        <time>2017-06-11T09:57:17Z</time>
      </trkpt>
      <trkpt lat="47.46012" lon="6.61904">
        <ele>384.600006</ele>
        <time>2017-06-11T09:57:18Z</time>
      </trkpt>
      <trkpt lat="47.46016" lon="6.6191">
        <ele>385.399994</ele>
        <time>2017-06-11T09:57:20Z</time>
      </trkpt>
      <trkpt lat="47.46021" lon="6.61915">
        <ele>386.200012</ele>
        <time>2017-06-11T09:57:22Z</time>
      </trkpt>
      <trkpt lat="47.46027" lon="6.61921">
        <ele>386.600006</ele>
        <time>2017-06-11T09:57:25Z</time>
      </trkpt>
      <trkpt lat="47.46029" lon="6.61923">
        <ele>387</ele>
        <time>2017-06-11T09:57:26Z</time>
      </trkpt>
      <trkpt lat="47.46036" lon="6.61934">
        <ele>388.200012</ele>
        <time>2017-06-11T09:57:30Z</time>
      </trkpt>
      <trkpt lat="47.46048" lon="6.61943">
        <ele>389.200012</ele>
        <time>2017-06-11T09:57:35Z</time>
      </trkpt>
      <trkpt lat="47.46051" lon="6.61946">
        <ele>389.600006</ele>
        <time>2017-06-11T09:57:36Z</time>
      </trkpt>
      <trkpt lat="47.46052" lon="6.61948">
        <ele>390</ele>
        <time>2017-06-11T09:57:37Z</time>
      </trkpt>
      <trkpt lat="47.46059" lon="6.61956">
        <ele>390.399994</ele>
        <time>2017-06-11T09:57:41Z</time>
      </trkpt>
      <trkpt lat="47.4606" lon="6.61958">
        <ele>390.799988</ele>
        <time>2017-06-11T09:57:42Z</time>
      </trkpt>
      <trkpt lat="47.46067" lon="6.61966">
        <ele>392.399994</ele>
        <time>2017-06-11T09:57:46Z</time>
      </trkpt>
      <trkpt lat="47.4607" lon="6.61972">
        <ele>393.200012</ele>
        <time>2017-06-11T09:57:49Z</time>
      </trkpt>
      <trkpt lat="47.46075" lon="6.61979">
        <ele>394.399994</ele>
        <time>2017-06-11T09:57:52Z</time>
      </trkpt>
      <trkpt lat="47.46081" lon="6.61987">
        <ele>395.200012</ele>
        <time>2017-06-11T09:57:56Z</time>
      </trkpt>
      <trkpt lat="47.46082" lon="6.61987">
        <ele>395.799988</ele>
        <time>2017-06-11T09:57:57Z</time>
      </trkpt>
      <trkpt lat="47.46083" lon="6.61988">
        <ele>396.200012</ele>
        <time>2017-06-11T09:57:58Z</time>
      </trkpt>
      <trkpt lat="47.46093" lon="6.61995">
        <ele>396.600006</ele>
        <time>2017-06-11T09:58:02Z</time>
      </trkpt>
      <trkpt lat="47.46102" lon="6.61998">
        <ele>397</ele>
        <time>2017-06-11T09:58:07Z</time>
      </trkpt>
      <trkpt lat="47.46105" lon="6.61999">
        <ele>397.399994</ele>
        <time>2017-06-11T09:58:08Z</time>
      </trkpt>
      <trkpt lat="47.46107" lon="6.62001">
        <ele>397.799988</ele>
        <time>2017-06-11T09:58:09Z</time>
      </trkpt>
      <trkpt lat="47.46109" lon="6.62002">
        <ele>398.200012</ele>
        <time>2017-06-11T09:58:10Z</time>
      </trkpt>
      <trkpt lat="47.46112" lon="6.62003">
        <ele>398.600006</ele>
        <time>2017-06-11T09:58:11Z</time>
      </trkpt>
      <trkpt lat="47.46131" lon="6.62014">
        <ele>400.399994</ele>
        <time>2017-06-11T09:58:21Z</time>
      </trkpt>
      <trkpt lat="47.46134" lon="6.62015">
        <ele>400.799988</ele>
        <time>2017-06-11T09:58:22Z</time>
      </trkpt>
      <trkpt lat="47.46145" lon="6.6202">
        <ele>400.799988</ele>
        <time>2017-06-11T09:58:27Z</time>
      </trkpt>
      <trkpt lat="47.4615" lon="6.62021">
        <ele>401.200012</ele>
        <time>2017-06-11T09:58:29Z</time>
      </trkpt>
      <trkpt lat="47.46157" lon="6.62027">
        <ele>402.799988</ele>
        <time>2017-06-11T09:58:33Z</time>
      </trkpt>
      <trkpt lat="47.46167" lon="6.6203">
        <ele>402.799988</ele>
        <time>2017-06-11T09:58:38Z</time>
      </trkpt>
      <trkpt lat="47.46173" lon="6.62032">
        <ele>403.200012</ele>
        <time>2017-06-11T09:58:41Z</time>
      </trkpt>
      <trkpt lat="47.46175" lon="6.62032">
        <ele>403.600006</ele>
        <time>2017-06-11T09:58:42Z</time>
      </trkpt>
      <trkpt lat="47.46184" lon="6.62037">
        <ele>405</ele>
        <time>2017-06-11T09:58:49Z</time>
      </trkpt>
      <trkpt lat="47.4619" lon="6.62038">
        <ele>405.399994</ele>
        <time>2017-06-11T09:58:53Z</time>
      </trkpt>
      <trkpt lat="47.46196" lon="6.62042">
        <ele>406.600006</ele>
        <time>2017-06-11T09:58:56Z</time>
      </trkpt>
      <trkpt lat="47.46207" lon="6.62046">
        <ele>407</ele>
        <time>2017-06-11T09:59:04Z</time>
      </trkpt>
      <trkpt lat="47.4621" lon="6.62048">
        <ele>407.399994</ele>
        <time>2017-06-11T09:59:06Z</time>
      </trkpt>
      <trkpt lat="47.46212" lon="6.62051">
        <ele>408.399994</ele>
        <time>2017-06-11T09:59:08Z</time>
      </trkpt>
      <trkpt lat="47.46215" lon="6.62053">
        <ele>409.200012</ele>
        <time>2017-06-11T09:59:10Z</time>
      </trkpt>
      <trkpt lat="47.46221" lon="6.62055">
        <ele>409.200012</ele>
        <time>2017-06-11T09:59:13Z</time>
      </trkpt>
      <trkpt lat="47.46229" lon="6.62058">
        <ele>409.600006</ele>
        <time>2017-06-11T09:59:17Z</time>
      </trkpt>
      <trkpt lat="47.4623" lon="6.62059">
        <ele>410</ele>
        <time>2017-06-11T09:59:18Z</time>
      </trkpt>
      <trkpt lat="47.46231" lon="6.62059">
        <ele>410.399994</ele>
        <time>2017-06-11T09:59:19Z</time>
      </trkpt>
      <trkpt lat="47.46235" lon="6.62062">
        <ele>411.200012</ele>
        <time>2017-06-11T09:59:21Z</time>
      </trkpt>
      <trkpt lat="47.46255" lon="6.62068">
        <ele>412</ele>
        <time>2017-06-11T09:59:29Z</time>
      </trkpt>
      <trkpt lat="47.4626" lon="6.62069">
        <ele>412.799988</ele>
        <time>2017-06-11T09:59:31Z</time>
      </trkpt>
      <trkpt lat="47.46264" lon="6.62069">
        <ele>413.200012</ele>
        <time>2017-06-11T09:59:33Z</time>
      </trkpt>
      <trkpt lat="47.46265" lon="6.6207">
        <ele>413.200012</ele>
        <time>2017-06-11T09:59:34Z</time>
      </trkpt>
      <trkpt lat="47.46271" lon="6.62072">
        <ele>413.200012</ele>
        <time>2017-06-11T09:59:38Z</time>
      </trkpt>
      <trkpt lat="47.46282" lon="6.62073">
        <ele>413.799988</ele>
        <time>2017-06-11T09:59:43Z</time>
      </trkpt>
      <trkpt lat="47.46284" lon="6.62073">
        <ele>414.600006</ele>
        <time>2017-06-11T09:59:45Z</time>
      </trkpt>
      <trkpt lat="47.46291" lon="6.62076">
        <ele>415.399994</ele>
        <time>2017-06-11T09:59:49Z</time>
      </trkpt>
      <trkpt lat="47.46305" lon="6.62076">
        <ele>415.399994</ele>
        <time>2017-06-11T09:59:55Z</time>
      </trkpt>
      <trkpt lat="47.46313" lon="6.62077">
        <ele>416.600006</ele>
        <time>2017-06-11T09:59:59Z</time>
      </trkpt>
      <trkpt lat="47.46316" lon="6.62077">
        <ele>417</ele>
        <time>2017-06-11T10:00:00Z</time>
      </trkpt>
      <trkpt lat="47.46334" lon="6.62078">
        <ele>417.399994</ele>
        <time>2017-06-11T10:00:08Z</time>
      </trkpt>
      <trkpt lat="47.46337" lon="6.6208">
        <ele>418</ele>
        <time>2017-06-11T10:00:10Z</time>
      </trkpt>
      <trkpt lat="47.46342" lon="6.6208">
        <ele>419.200012</ele>
        <time>2017-06-11T10:00:13Z</time>
      </trkpt>
      <trkpt lat="47.46343" lon="6.62081">
        <ele>419.600006</ele>
        <time>2017-06-11T10:00:14Z</time>
      </trkpt>
      <trkpt lat="47.46352" lon="6.62082">
        <ele>419.600006</ele>
        <time>2017-06-11T10:00:18Z</time>
      </trkpt>
      <trkpt lat="47.46364" lon="6.62083">
        <ele>419.600006</ele>
        <time>2017-06-11T10:00:23Z</time>
      </trkpt>
      <trkpt lat="47.4638" lon="6.6208">
        <ele>420.399994</ele>
        <time>2017-06-11T10:00:28Z</time>
      </trkpt>
      <trkpt lat="47.46383" lon="6.62081">
        <ele>420.799988</ele>
        <time>2017-06-11T10:00:29Z</time>
      </trkpt>
      <trkpt lat="47.46393" lon="6.62079">
        <ele>421.799988</ele>
        <time>2017-06-11T10:00:31Z</time>
      </trkpt>
      <trkpt lat="47.46417" lon="6.6208">
        <ele>422.200012</ele>
        <time>2017-06-11T10:00:39Z</time>
      </trkpt>
      <trkpt lat="47.4642" lon="6.6208">
        <ele>423</ele>
        <time>2017-06-11T10:00:40Z</time>
      </trkpt>
      <trkpt lat="47.46422" lon="6.6208">
        <ele>423.399994</ele>
        <time>2017-06-11T10:00:41Z</time>
      </trkpt>
      <trkpt lat="47.46433" lon="6.62082">
        <ele>423.799988</ele>
        <time>2017-06-11T10:00:46Z</time>
      </trkpt>
      <trkpt lat="47.46443" lon="6.62084">
        <ele>423.799988</ele>
        <time>2017-06-11T10:00:52Z</time>
      </trkpt>
      <trkpt lat="47.4645" lon="6.62085">
        <ele>424.200012</ele>
        <time>2017-06-11T10:01:00Z</time>
      </trkpt>
      <trkpt lat="47.46454" lon="6.62085">
        <ele>425.399994</ele>
        <time>2017-06-11T10:01:04Z</time>
      </trkpt>
      <trkpt lat="47.46456" lon="6.62086">
        <ele>425.799988</ele>
        <time>2017-06-11T10:01:06Z</time>
      </trkpt>
      <trkpt lat="47.46471" lon="6.62089">
        <ele>425.799988</ele>
        <time>2017-06-11T10:01:14Z</time>
      </trkpt>
      <trkpt lat="47.46483" lon="6.62093">
        <ele>425.799988</ele>
        <time>2017-06-11T10:01:19Z</time>
      </trkpt>
      <trkpt lat="47.4649" lon="6.62094">
        <ele>426.200012</ele>
        <time>2017-06-11T10:01:22Z</time>
      </trkpt>
      <trkpt lat="47.46514" lon="6.62093">
        <ele>427.799988</ele>
        <time>2017-06-11T10:01:33Z</time>
      </trkpt>
      <trkpt lat="47.46526" lon="6.6209">
        <ele>428.200012</ele>
        <time>2017-06-11T10:01:38Z</time>
      </trkpt>
      <trkpt lat="47.46534" lon="6.6209">
        <ele>429.600006</ele>
        <time>2017-06-11T10:01:41Z</time>
      </trkpt>
      <trkpt lat="47.46537" lon="6.6209">
        <ele>430</ele>
        <time>2017-06-11T10:01:42Z</time>
      </trkpt>
      <trkpt lat="47.46554" lon="6.62095">
        <ele>430</ele>
        <time>2017-06-11T10:01:49Z</time>
      </trkpt>
      <trkpt lat="47.46568" lon="6.62106">
        <ele>430.399994</ele>
        <time>2017-06-11T10:01:55Z</time>
      </trkpt>
      <trkpt lat="47.4657" lon="6.62109">
        <ele>430.799988</ele>
        <time>2017-06-11T10:01:56Z</time>
      </trkpt>
      <trkpt lat="47.46571" lon="6.62113">
        <ele>431.200012</ele>
        <time>2017-06-11T10:01:57Z</time>
      </trkpt>
      <trkpt lat="47.46572" lon="6.62117">
        <ele>431.600006</ele>
        <time>2017-06-11T10:01:58Z</time>
      </trkpt>
      <trkpt lat="47.46574" lon="6.62121">
        <ele>432</ele>
        <time>2017-06-11T10:01:59Z</time>
      </trkpt>
      <trkpt lat="47.46585" lon="6.62134">
        <ele>432</ele>
        <time>2017-06-11T10:02:04Z</time>
      </trkpt>
      <trkpt lat="47.46596" lon="6.62139">
        <ele>432</ele>
        <time>2017-06-11T10:02:09Z</time>
      </trkpt>
      <trkpt lat="47.46606" lon="6.62131">
        <ele>432</ele>
        <time>2017-06-11T10:02:14Z</time>
      </trkpt>
      <trkpt lat="47.46618" lon="6.62124">
        <ele>432</ele>
        <time>2017-06-11T10:02:19Z</time>
      </trkpt>
      <trkpt lat="47.46629" lon="6.62117">
        <ele>432</ele>
        <time>2017-06-11T10:02:24Z</time>
      </trkpt>
      <trkpt lat="47.46632" lon="6.62113">
        <ele>432</ele>
        <time>2017-06-11T10:02:26Z</time>
      </trkpt>
      <trkpt lat="47.46641" lon="6.62106">
        <ele>432</ele>
        <time>2017-06-11T10:02:31Z</time>
      </trkpt>
      <trkpt lat="47.46648" lon="6.62099">
        <ele>432</ele>
        <time>2017-06-11T10:02:34Z</time>
      </trkpt>
      <trkpt lat="47.4666" lon="6.62088">
        <ele>432</ele>
        <time>2017-06-11T10:02:39Z</time>
      </trkpt>
      <trkpt lat="47.46672" lon="6.6208">
        <ele>432</ele>
        <time>2017-06-11T10:02:44Z</time>
      </trkpt>
      <trkpt lat="47.46682" lon="6.62068">
        <ele>432</ele>
        <time>2017-06-11T10:02:49Z</time>
      </trkpt>
      <trkpt lat="47.46689" lon="6.62067">
        <ele>432</ele>
        <time>2017-06-11T10:02:51Z</time>
      </trkpt>
      <trkpt lat="47.46699" lon="6.6206">
        <ele>432</ele>
        <time>2017-06-11T10:02:54Z</time>
      </trkpt>
      <trkpt lat="47.4671" lon="6.62049">
        <ele>432</ele>
        <time>2017-06-11T10:02:58Z</time>
      </trkpt>
      <trkpt lat="47.46728" lon="6.62036">
        <ele>432</ele>
        <time>2017-06-11T10:03:03Z</time>
      </trkpt>
      <trkpt lat="47.46737" lon="6.62025">
        <ele>432</ele>
        <time>2017-06-11T10:03:06Z</time>
      </trkpt>
      <trkpt lat="47.46743" lon="6.62022">
        <ele>432</ele>
        <time>2017-06-11T10:03:08Z</time>
      </trkpt>
      <trkpt lat="47.46758" lon="6.62007">
        <ele>432</ele>
        <time>2017-06-11T10:03:13Z</time>
      </trkpt>
      <trkpt lat="47.46766" lon="6.61993">
        <ele>432</ele>
        <time>2017-06-11T10:03:19Z</time>
      </trkpt>
      <trkpt lat="47.46783" lon="6.61979">
        <ele>432</ele>
        <time>2017-06-11T10:03:24Z</time>
      </trkpt>
      <trkpt lat="47.46802" lon="6.61966">
        <ele>430.799988</ele>
        <time>2017-06-11T10:03:31Z</time>
      </trkpt>
      <trkpt lat="47.46805" lon="6.61964">
        <ele>430.399994</ele>
        <time>2017-06-11T10:03:32Z</time>
      </trkpt>
      <trkpt lat="47.46808" lon="6.6196">
        <ele>430</ele>
        <time>2017-06-11T10:03:34Z</time>
      </trkpt>
      <trkpt lat="47.4682" lon="6.61951">
        <ele>430</ele>
        <time>2017-06-11T10:03:39Z</time>
      </trkpt>
      <trkpt lat="47.46838" lon="6.61935">
        <ele>429.200012</ele>
        <time>2017-06-11T10:03:45Z</time>
      </trkpt>
      <trkpt lat="47.46841" lon="6.61932">
        <ele>428.600006</ele>
        <time>2017-06-11T10:03:46Z</time>
      </trkpt>
      <trkpt lat="47.46848" lon="6.61926">
        <ele>428.200012</ele>
        <time>2017-06-11T10:03:47Z</time>
      </trkpt>
      <trkpt lat="47.46854" lon="6.61921">
        <ele>427.799988</ele>
        <time>2017-06-11T10:03:48Z</time>
      </trkpt>
      <trkpt lat="47.46869" lon="6.61911">
        <ele>427.399994</ele>
        <time>2017-06-11T10:03:51Z</time>
      </trkpt>
      <trkpt lat="47.46874" lon="6.61908">
        <ele>427</ele>
        <time>2017-06-11T10:03:52Z</time>
      </trkpt>
      <trkpt lat="47.4688" lon="6.61906">
        <ele>426.600006</ele>
        <time>2017-06-11T10:03:53Z</time>
      </trkpt>
      <trkpt lat="47.4689" lon="6.619">
        <ele>425.799988</ele>
        <time>2017-06-11T10:03:55Z</time>
      </trkpt>
      <trkpt lat="47.46905" lon="6.61894">
        <ele>425.799988</ele>
        <time>2017-06-11T10:03:57Z</time>
      </trkpt>
      <trkpt lat="47.46918" lon="6.61888">
        <ele>425</ele>
        <time>2017-06-11T10:03:59Z</time>
      </trkpt>
      <trkpt lat="47.46927" lon="6.6188">
        <ele>424.200012</ele>
        <time>2017-06-11T10:04:01Z</time>
      </trkpt>
      <trkpt lat="47.46931" lon="6.61876">
        <ele>423.600006</ele>
        <time>2017-06-11T10:04:02Z</time>
      </trkpt>
      <trkpt lat="47.46941" lon="6.61869">
        <ele>422.600006</ele>
        <time>2017-06-11T10:04:04Z</time>
      </trkpt>
      <trkpt lat="47.46944" lon="6.61866">
        <ele>422</ele>
        <time>2017-06-11T10:04:05Z</time>
      </trkpt>
      <trkpt lat="47.46947" lon="6.61862">
        <ele>421.399994</ele>
        <time>2017-06-11T10:04:06Z</time>
      </trkpt>
      <trkpt lat="47.46952" lon="6.61859">
        <ele>420.600006</ele>
        <time>2017-06-11T10:04:07Z</time>
      </trkpt>
      <trkpt lat="47.46967" lon="6.61846">
        <ele>417.600006</ele>
        <time>2017-06-11T10:04:10Z</time>
      </trkpt>
      <trkpt lat="47.46978" lon="6.61836">
        <ele>414.200012</ele>
        <time>2017-06-11T10:04:13Z</time>
      </trkpt>
      <trkpt lat="47.46983" lon="6.61832">
        <ele>413.200012</ele>
        <time>2017-06-11T10:04:14Z</time>
      </trkpt>
      <trkpt lat="47.46991" lon="6.61825">
        <ele>410.799988</ele>
        <time>2017-06-11T10:04:16Z</time>
      </trkpt>
      <trkpt lat="47.46996" lon="6.61822">
        <ele>409.799988</ele>
        <time>2017-06-11T10:04:17Z</time>
      </trkpt>
      <trkpt lat="47.47001" lon="6.61818">
        <ele>408.600006</ele>
        <time>2017-06-11T10:04:18Z</time>
      </trkpt>
      <trkpt lat="47.4702" lon="6.61807">
        <ele>405</ele>
        <time>2017-06-11T10:04:22Z</time>
      </trkpt>
      <trkpt lat="47.47023" lon="6.61804">
        <ele>403.200012</ele>
        <time>2017-06-11T10:04:23Z</time>
      </trkpt>
      <trkpt lat="47.47026" lon="6.618">
        <ele>402.600006</ele>
        <time>2017-06-11T10:04:24Z</time>
      </trkpt>
      <trkpt lat="47.4703" lon="6.61794">
        <ele>401</ele>
        <time>2017-06-11T10:04:26Z</time>
      </trkpt>
      <trkpt lat="47.47031" lon="6.6179">
        <ele>400.200012</ele>
        <time>2017-06-11T10:04:27Z</time>
      </trkpt>
      <trkpt lat="47.47034" lon="6.61784">
        <ele>399.399994</ele>
        <time>2017-06-11T10:04:28Z</time>
      </trkpt>
      <trkpt lat="47.47055" lon="6.61767">
        <ele>399.399994</ele>
        <time>2017-06-11T10:04:33Z</time>
      </trkpt>
      <trkpt lat="47.47068" lon="6.61759">
        <ele>399.399994</ele>
        <time>2017-06-11T10:04:38Z</time>
      </trkpt>
      <trkpt lat="47.47069" lon="6.61759">
        <ele>399.399994</ele>
        <time>2017-06-11T10:04:39Z</time>
      </trkpt>
      <trkpt lat="47.47075" lon="6.61752">
        <ele>399.399994</ele>
        <time>2017-06-11T10:04:44Z</time>
      </trkpt>
      <trkpt lat="47.47105" lon="6.61731">
        <ele>399.399994</ele>
        <time>2017-06-11T10:04:55Z</time>
      </trkpt>
      <trkpt lat="47.47113" lon="6.61723">
        <ele>399.399994</ele>
        <time>2017-06-11T10:05:00Z</time>
      </trkpt>
      <trkpt lat="47.47114" lon="6.61722">
        <ele>399.399994</ele>
        <time>2017-06-11T10:05:01Z</time>
      </trkpt>
      <trkpt lat="47.4712" lon="6.61715">
        <ele>399.399994</ele>
        <time>2017-06-11T10:05:06Z</time>
      </trkpt>
      <trkpt lat="47.47121" lon="6.61714">
        <ele>399.399994</ele>
        <time>2017-06-11T10:05:07Z</time>
      </trkpt>
      <trkpt lat="47.47141" lon="6.61698">
        <ele>401.399994</ele>
        <time>2017-06-11T10:05:58Z</time>
      </trkpt>
      <trkpt lat="47.47144" lon="6.61697">
        <ele>401.399994</ele>
        <time>2017-06-11T10:06:00Z</time>
      </trkpt>
      <trkpt lat="47.47149" lon="6.61691">
        <ele>401.399994</ele>
        <time>2017-06-11T10:06:04Z</time>
      </trkpt>
      <trkpt lat="47.47161" lon="6.61679">
        <ele>401.399994</ele>
        <time>2017-06-11T10:06:09Z</time>
      </trkpt>
      <trkpt lat="47.47186" lon="6.61661">
        <ele>401</ele>
        <time>2017-06-11T10:06:16Z</time>
      </trkpt>
      <trkpt lat="47.472" lon="6.6165">
        <ele>399.600006</ele>
        <time>2017-06-11T10:06:19Z</time>
      </trkpt>
      <trkpt lat="47.47216" lon="6.61636">
        <ele>397.799988</ele>
        <time>2017-06-11T10:06:23Z</time>
      </trkpt>
      <trkpt lat="47.47218" lon="6.61633">
        <ele>396.799988</ele>
        <time>2017-06-11T10:06:25Z</time>
      </trkpt>
      <trkpt lat="47.4722" lon="6.6163">
        <ele>396.799988</ele>
        <time>2017-06-11T10:06:27Z</time>
      </trkpt>
      <trkpt lat="47.47223" lon="6.61622">
        <ele>396.799988</ele>
        <time>2017-06-11T10:06:31Z</time>
      </trkpt>
      <trkpt lat="47.4723" lon="6.61619">
        <ele>396.799988</ele>
        <time>2017-06-11T10:06:34Z</time>
      </trkpt>
      <trkpt lat="47.47236" lon="6.61621">
        <ele>396.799988</ele>
        <time>2017-06-11T10:06:36Z</time>
      </trkpt>
      <trkpt lat="47.47241" lon="6.61622">
        <ele>396.799988</ele>
        <time>2017-06-11T10:06:38Z</time>
      </trkpt>
      <trkpt lat="47.47243" lon="6.61622">
        <ele>396.799988</ele>
        <time>2017-06-11T10:06:39Z</time>
      </trkpt>
      <trkpt lat="47.47246" lon="6.61624">
        <ele>397.200012</ele>
        <time>2017-06-11T10:06:41Z</time>
      </trkpt>
      <trkpt lat="47.47256" lon="6.61628">
        <ele>399</ele>
        <time>2017-06-11T10:06:45Z</time>
      </trkpt>
      <trkpt lat="47.47269" lon="6.6163">
        <ele>399</ele>
        <time>2017-06-11T10:06:51Z</time>
      </trkpt>
      <trkpt lat="47.47276" lon="6.61636">
        <ele>399</ele>
        <time>2017-06-11T10:06:56Z</time>
      </trkpt>
      <trkpt lat="47.47285" lon="6.61641">
        <ele>399</ele>
        <time>2017-06-11T10:07:00Z</time>
      </trkpt>
      <trkpt lat="47.47299" lon="6.61645">
        <ele>399</ele>
        <time>2017-06-11T10:07:06Z</time>
      </trkpt>
      <trkpt lat="47.47312" lon="6.61647">
        <ele>399</ele>
        <time>2017-06-11T10:07:11Z</time>
      </trkpt>
      <trkpt lat="47.47333" lon="6.61652">
        <ele>398.200012</ele>
        <time>2017-06-11T10:07:19Z</time>
      </trkpt>
      <trkpt lat="47.47339" lon="6.61654">
        <ele>396.799988</ele>
        <time>2017-06-11T10:07:22Z</time>
      </trkpt>
      <trkpt lat="47.47356" lon="6.61656">
        <ele>396.799988</ele>
        <time>2017-06-11T10:07:28Z</time>
      </trkpt>
      <trkpt lat="47.47372" lon="6.61656">
        <ele>396.799988</ele>
        <time>2017-06-11T10:07:32Z</time>
      </trkpt>
      <trkpt lat="47.47381" lon="6.61653">
        <ele>396.399994</ele>
        <time>2017-06-11T10:07:35Z</time>
      </trkpt>
      <trkpt lat="47.47384" lon="6.61653">
        <ele>396</ele>
        <time>2017-06-11T10:07:36Z</time>
      </trkpt>
      <trkpt lat="47.47387" lon="6.61652">
        <ele>395.600006</ele>
        <time>2017-06-11T10:07:37Z</time>
      </trkpt>
      <trkpt lat="47.4739" lon="6.6165">
        <ele>395.200012</ele>
        <time>2017-06-11T10:07:38Z</time>
      </trkpt>
      <trkpt lat="47.47394" lon="6.61649">
        <ele>394.600006</ele>
        <time>2017-06-11T10:07:39Z</time>
      </trkpt>
      <trkpt lat="47.47402" lon="6.61645">
        <ele>393.200012</ele>
        <time>2017-06-11T10:07:41Z</time>
      </trkpt>
      <trkpt lat="47.47406" lon="6.61644">
        <ele>392.799988</ele>
        <time>2017-06-11T10:07:42Z</time>
      </trkpt>
      <trkpt lat="47.4741" lon="6.61643">
        <ele>392.200012</ele>
        <time>2017-06-11T10:07:43Z</time>
      </trkpt>
      <trkpt lat="47.47413" lon="6.61644">
        <ele>391.799988</ele>
        <time>2017-06-11T10:07:44Z</time>
      </trkpt>
      <trkpt lat="47.47416" lon="6.61646">
        <ele>391.399994</ele>
        <time>2017-06-11T10:07:45Z</time>
      </trkpt>
      <trkpt lat="47.47419" lon="6.61648">
        <ele>391</ele>
        <time>2017-06-11T10:07:46Z</time>
      </trkpt>
      <trkpt lat="47.47421" lon="6.61651">
        <ele>390.600006</ele>
        <time>2017-06-11T10:07:47Z</time>
      </trkpt>
      <trkpt lat="47.47421" lon="6.61654">
        <ele>390.200012</ele>
        <time>2017-06-11T10:07:48Z</time>
      </trkpt>
      <trkpt lat="47.47419" lon="6.61664">
        <ele>390.200012</ele>
        <time>2017-06-11T10:07:53Z</time>
      </trkpt>
      <trkpt lat="47.47423" lon="6.61671">
        <ele>389.799988</ele>
        <time>2017-06-11T10:07:56Z</time>
      </trkpt>
      <trkpt lat="47.47424" lon="6.61676">
        <ele>389.200012</ele>
        <time>2017-06-11T10:07:57Z</time>
      </trkpt>
      <trkpt lat="47.47427" lon="6.61683">
        <ele>388.799988</ele>
        <time>2017-06-11T10:07:58Z</time>
      </trkpt>
      <trkpt lat="47.47432" lon="6.61694">
        <ele>387.799988</ele>
        <time>2017-06-11T10:08:00Z</time>
      </trkpt>
      <trkpt lat="47.47439" lon="6.61701">
        <ele>386.799988</ele>
        <time>2017-06-11T10:08:02Z</time>
      </trkpt>
      <trkpt lat="47.47442" lon="6.61704">
        <ele>386.399994</ele>
        <time>2017-06-11T10:08:03Z</time>
      </trkpt>
      <trkpt lat="47.4745" lon="6.61709">
        <ele>385</ele>
        <time>2017-06-11T10:08:05Z</time>
      </trkpt>
      <trkpt lat="47.47454" lon="6.61711">
        <ele>384.399994</ele>
        <time>2017-06-11T10:08:06Z</time>
      </trkpt>
      <trkpt lat="47.47457" lon="6.61712">
        <ele>384</ele>
        <time>2017-06-11T10:08:07Z</time>
      </trkpt>
      <trkpt lat="47.47459" lon="6.61714">
        <ele>383.399994</ele>
        <time>2017-06-11T10:08:08Z</time>
      </trkpt>
      <trkpt lat="47.47462" lon="6.61716">
        <ele>383</ele>
        <time>2017-06-11T10:08:09Z</time>
      </trkpt>
      <trkpt lat="47.47464" lon="6.61718">
        <ele>382.399994</ele>
        <time>2017-06-11T10:08:10Z</time>
      </trkpt>
      <trkpt lat="47.4747" lon="6.61726">
        <ele>381.600006</ele>
        <time>2017-06-11T10:08:12Z</time>
      </trkpt>
      <trkpt lat="47.47477" lon="6.61731">
        <ele>380.399994</ele>
        <time>2017-06-11T10:08:14Z</time>
      </trkpt>
      <trkpt lat="47.4748" lon="6.61734">
        <ele>379.799988</ele>
        <time>2017-06-11T10:08:15Z</time>
      </trkpt>
      <trkpt lat="47.47486" lon="6.61741">
        <ele>378.799988</ele>
        <time>2017-06-11T10:08:17Z</time>
      </trkpt>
      <trkpt lat="47.4749" lon="6.61744">
        <ele>378.200012</ele>
        <time>2017-06-11T10:08:18Z</time>
      </trkpt>
      <trkpt lat="47.47496" lon="6.61749">
        <ele>377</ele>
        <time>2017-06-11T10:08:20Z</time>
      </trkpt>
      <trkpt lat="47.47498" lon="6.61751">
        <ele>376.399994</ele>
        <time>2017-06-11T10:08:21Z</time>
      </trkpt>
      <trkpt lat="47.47501" lon="6.61754">
        <ele>375.799988</ele>
        <time>2017-06-11T10:08:22Z</time>
      </trkpt>
      <trkpt lat="47.47505" lon="6.61756">
        <ele>375.200012</ele>
        <time>2017-06-11T10:08:23Z</time>
      </trkpt>
      <trkpt lat="47.47507" lon="6.61757">
        <ele>374.799988</ele>
        <time>2017-06-11T10:08:24Z</time>
      </trkpt>
      <trkpt lat="47.47513" lon="6.6176">
        <ele>374.200012</ele>
        <time>2017-06-11T10:08:26Z</time>
      </trkpt>
      <trkpt lat="47.47519" lon="6.61766">
        <ele>373.200012</ele>
        <time>2017-06-11T10:08:28Z</time>
      </trkpt>
      <trkpt lat="47.47522" lon="6.61767">
        <ele>372.799988</ele>
        <time>2017-06-11T10:08:29Z</time>
      </trkpt>
      <trkpt lat="47.47525" lon="6.61768">
        <ele>372</ele>
        <time>2017-06-11T10:08:30Z</time>
      </trkpt>
      <trkpt lat="47.47533" lon="6.61772">
        <ele>371.399994</ele>
        <time>2017-06-11T10:08:32Z</time>
      </trkpt>
      <trkpt lat="47.47541" lon="6.61775">
        <ele>370.600006</ele>
        <time>2017-06-11T10:08:34Z</time>
      </trkpt>
      <trkpt lat="47.47548" lon="6.61777">
        <ele>369.600006</ele>
        <time>2017-06-11T10:08:36Z</time>
      </trkpt>
      <trkpt lat="47.47562" lon="6.61784">
        <ele>368.600006</ele>
        <time>2017-06-11T10:08:42Z</time>
      </trkpt>
      <trkpt lat="47.47566" lon="6.61785">
        <ele>368.200012</ele>
        <time>2017-06-11T10:08:43Z</time>
      </trkpt>
      <trkpt lat="47.47573" lon="6.61787">
        <ele>367.200012</ele>
        <time>2017-06-11T10:08:45Z</time>
      </trkpt>
      <trkpt lat="47.47576" lon="6.61788">
        <ele>366.799988</ele>
        <time>2017-06-11T10:08:46Z</time>
      </trkpt>
      <trkpt lat="47.47582" lon="6.61789">
        <ele>366.399994</ele>
        <time>2017-06-11T10:08:47Z</time>
      </trkpt>
      <trkpt lat="47.47589" lon="6.6179">
        <ele>365.600006</ele>
        <time>2017-06-11T10:08:49Z</time>
      </trkpt>
      <trkpt lat="47.47592" lon="6.61792">
        <ele>365.200012</ele>
        <time>2017-06-11T10:08:50Z</time>
      </trkpt>
      <trkpt lat="47.47594" lon="6.61796">
        <ele>364.600006</ele>
        <time>2017-06-11T10:08:51Z</time>
      </trkpt>
      <trkpt lat="47.47596" lon="6.61799">
        <ele>364</ele>
        <time>2017-06-11T10:08:52Z</time>
      </trkpt>
      <trkpt lat="47.47597" lon="6.61802">
        <ele>363.399994</ele>
        <time>2017-06-11T10:08:53Z</time>
      </trkpt>
      <trkpt lat="47.47599" lon="6.61805">
        <ele>361.799988</ele>
        <time>2017-06-11T10:08:54Z</time>
      </trkpt>
      <trkpt lat="47.476" lon="6.61808">
        <ele>360.799988</ele>
        <time>2017-06-11T10:08:55Z</time>
      </trkpt>
      <trkpt lat="47.47604" lon="6.61812">
        <ele>360</ele>
        <time>2017-06-11T10:08:56Z</time>
      </trkpt>
      <trkpt lat="47.47606" lon="6.61816">
        <ele>359</ele>
        <time>2017-06-11T10:08:57Z</time>
      </trkpt>
      <trkpt lat="47.47614" lon="6.61825">
        <ele>353.399994</ele>
        <time>2017-06-11T10:09:35Z</time>
      </trkpt>
      <trkpt lat="47.47615" lon="6.61827">
        <ele>353.399994</ele>
        <time>2017-06-11T10:09:36Z</time>
      </trkpt>
      <trkpt lat="47.47619" lon="6.61832">
        <ele>353</ele>
        <time>2017-06-11T10:09:38Z</time>
      </trkpt>
      <trkpt lat="47.47622" lon="6.61835">
        <ele>352.600006</ele>
        <time>2017-06-11T10:09:39Z</time>
      </trkpt>
      <trkpt lat="47.47624" lon="6.61838">
        <ele>352.200012</ele>
        <time>2017-06-11T10:09:40Z</time>
      </trkpt>
      <trkpt lat="47.47629" lon="6.61842">
        <ele>351.200012</ele>
        <time>2017-06-11T10:09:42Z</time>
      </trkpt>
      <trkpt lat="47.47636" lon="6.61846">
        <ele>351.200012</ele>
        <time>2017-06-11T10:09:46Z</time>
      </trkpt>
      <trkpt lat="47.47643" lon="6.61852">
        <ele>351.200012</ele>
        <time>2017-06-11T10:09:49Z</time>
      </trkpt>
      <trkpt lat="47.47646" lon="6.61853">
        <ele>351.200012</ele>
        <time>2017-06-11T10:09:50Z</time>
      </trkpt>
      <trkpt lat="47.47656" lon="6.61861">
        <ele>351.200012</ele>
        <time>2017-06-11T10:09:54Z</time>
      </trkpt>
      <trkpt lat="47.47672" lon="6.61869">
        <ele>351.200012</ele>
        <time>2017-06-11T10:10:00Z</time>
      </trkpt>
      <trkpt lat="47.47677" lon="6.61873">
        <ele>351.200012</ele>
        <time>2017-06-11T10:10:02Z</time>
      </trkpt>
      <trkpt lat="47.47684" lon="6.61885">
        <ele>350.799988</ele>
        <time>2017-06-11T10:10:05Z</time>
      </trkpt>
      <trkpt lat="47.47686" lon="6.61891">
        <ele>350.399994</ele>
        <time>2017-06-11T10:10:06Z</time>
      </trkpt>
      <trkpt lat="47.47688" lon="6.61895">
        <ele>350</ele>
        <time>2017-06-11T10:10:07Z</time>
      </trkpt>
      <trkpt lat="47.4769" lon="6.61897">
        <ele>349</ele>
        <time>2017-06-11T10:10:08Z</time>
      </trkpt>
      <trkpt lat="47.47695" lon="6.61901">
        <ele>347.799988</ele>
        <time>2017-06-11T10:10:10Z</time>
      </trkpt>
      <trkpt lat="47.47701" lon="6.61907">
        <ele>346.600006</ele>
        <time>2017-06-11T10:10:12Z</time>
      </trkpt>
      <trkpt lat="47.47705" lon="6.6191">
        <ele>346.600006</ele>
        <time>2017-06-11T10:10:13Z</time>
      </trkpt>
      <trkpt lat="47.47709" lon="6.61915">
        <ele>346.600006</ele>
        <time>2017-06-11T10:10:15Z</time>
      </trkpt>
      <trkpt lat="47.47711" lon="6.61925">
        <ele>346.600006</ele>
        <time>2017-06-11T10:10:17Z</time>
      </trkpt>
      <trkpt lat="47.47709" lon="6.61935">
        <ele>345.600006</ele>
        <time>2017-06-11T10:10:19Z</time>
      </trkpt>
      <trkpt lat="47.47709" lon="6.61939">
        <ele>345.200012</ele>
        <time>2017-06-11T10:10:20Z</time>
      </trkpt>
      <trkpt lat="47.47709" lon="6.61944">
        <ele>344.399994</ele>
        <time>2017-06-11T10:10:21Z</time>
      </trkpt>
      <trkpt lat="47.47708" lon="6.61947">
        <ele>343.799988</ele>
        <time>2017-06-11T10:10:22Z</time>
      </trkpt>
      <trkpt lat="47.47706" lon="6.61959">
        <ele>341.600006</ele>
        <time>2017-06-11T10:10:25Z</time>
      </trkpt>
      <trkpt lat="47.47702" lon="6.61966">
        <ele>340.200012</ele>
        <time>2017-06-11T10:10:28Z</time>
      </trkpt>
      <trkpt lat="47.47703" lon="6.6197">
        <ele>339.600006</ele>
        <time>2017-06-11T10:10:29Z</time>
      </trkpt>
      <trkpt lat="47.47706" lon="6.61978">
        <ele>338.399994</ele>
        <time>2017-06-11T10:10:32Z</time>
      </trkpt>
      <trkpt lat="47.47706" lon="6.61982">
        <ele>337.600006</ele>
        <time>2017-06-11T10:10:33Z</time>
      </trkpt>
      <trkpt lat="47.47708" lon="6.61984">
        <ele>337</ele>
        <time>2017-06-11T10:10:34Z</time>
      </trkpt>
      <trkpt lat="47.47711" lon="6.61994">
        <ele>335.799988</ele>
        <time>2017-06-11T10:10:36Z</time>
      </trkpt>
      <trkpt lat="47.47713" lon="6.61999">
        <ele>335.200012</ele>
        <time>2017-06-11T10:10:37Z</time>
      </trkpt>
      <trkpt lat="47.47715" lon="6.62002">
        <ele>334.399994</ele>
        <time>2017-06-11T10:10:38Z</time>
      </trkpt>
      <trkpt lat="47.47717" lon="6.62001">
        <ele>333.600006</ele>
        <time>2017-06-11T10:10:39Z</time>
      </trkpt>
      <trkpt lat="47.47718" lon="6.62001">
        <ele>333</ele>
        <time>2017-06-11T10:10:40Z</time>
      </trkpt>
      <trkpt lat="47.47719" lon="6.62003">
        <ele>332.200012</ele>
        <time>2017-06-11T10:10:41Z</time>
      </trkpt>
      <trkpt lat="47.47726" lon="6.62011">
        <ele>332.200012</ele>
        <time>2017-06-11T10:10:47Z</time>
      </trkpt>
      <trkpt lat="47.47733" lon="6.62022">
        <ele>332.200012</ele>
        <time>2017-06-11T10:10:53Z</time>
      </trkpt>
      <trkpt lat="47.47741" lon="6.62032">
        <ele>332.200012</ele>
        <time>2017-06-11T10:10:59Z</time>
      </trkpt>
      <trkpt lat="47.47751" lon="6.62043">
        <ele>332.200012</ele>
        <time>2017-06-11T10:11:06Z</time>
      </trkpt>
      <trkpt lat="47.47773" lon="6.6207">
        <ele>332.200012</ele>
        <time>2017-06-11T10:11:19Z</time>
      </trkpt>
      <trkpt lat="47.47791" lon="6.62087">
        <ele>332.200012</ele>
        <time>2017-06-11T10:11:30Z</time>
      </trkpt>
      <trkpt lat="47.47795" lon="6.62093">
        <ele>332.200012</ele>
        <time>2017-06-11T10:11:35Z</time>
      </trkpt>
      <trkpt lat="47.47797" lon="6.62095">
        <ele>332.200012</ele>
        <time>2017-06-11T10:11:38Z</time>
      </trkpt>
      <trkpt lat="47.47799" lon="6.62104">
        <ele>332.200012</ele>
        <time>2017-06-11T10:12:09Z</time>
      </trkpt>
      <trkpt lat="47.47799" lon="6.62107">
        <ele>332.200012</ele>
        <time>2017-06-11T10:12:10Z</time>
      </trkpt>
      <trkpt lat="47.47801" lon="6.62112">
        <ele>332.200012</ele>
        <time>2017-06-11T10:12:13Z</time>
      </trkpt>
      <trkpt lat="47.47803" lon="6.62113">
        <ele>332.200012</ele>
        <time>2017-06-11T10:12:14Z</time>
      </trkpt>
      <trkpt lat="47.47813" lon="6.62118">
        <ele>333.200012</ele>
        <time>2017-06-11T10:12:19Z</time>
      </trkpt>
      <trkpt lat="47.47815" lon="6.62117">
        <ele>333.600006</ele>
        <time>2017-06-11T10:12:20Z</time>
      </trkpt>
      <trkpt lat="47.47819" lon="6.62118">
        <ele>334.399994</ele>
        <time>2017-06-11T10:12:22Z</time>
      </trkpt>
      <trkpt lat="47.47822" lon="6.62117">
        <ele>335.399994</ele>
        <time>2017-06-11T10:12:24Z</time>
      </trkpt>
      <trkpt lat="47.47825" lon="6.62114">
        <ele>336.200012</ele>
        <time>2017-06-11T10:12:26Z</time>
      </trkpt>
      <trkpt lat="47.47826" lon="6.62114">
        <ele>336.600006</ele>
        <time>2017-06-11T10:12:27Z</time>
      </trkpt>
      <trkpt lat="47.47827" lon="6.62114">
        <ele>336.600006</ele>
        <time>2017-06-11T10:12:28Z</time>
      </trkpt>
      <trkpt lat="47.47834" lon="6.62109">
        <ele>337.600006</ele>
        <time>2017-06-11T10:12:33Z</time>
      </trkpt>
      <trkpt lat="47.47835" lon="6.62108">
        <ele>338</ele>
        <time>2017-06-11T10:12:34Z</time>
      </trkpt>
      <trkpt lat="47.47838" lon="6.62106">
        <ele>338.799988</ele>
        <time>2017-06-11T10:12:36Z</time>
      </trkpt>
      <trkpt lat="47.47843" lon="6.62104">
        <ele>339.200012</ele>
        <time>2017-06-11T10:12:39Z</time>
      </trkpt>
      <trkpt lat="47.47846" lon="6.62102">
        <ele>340</ele>
        <time>2017-06-11T10:12:41Z</time>
      </trkpt>
      <trkpt lat="47.47846" lon="6.62102">
        <ele>340.399994</ele>
        <time>2017-06-11T10:12:42Z</time>
      </trkpt>
      <trkpt lat="47.47848" lon="6.62101">
        <ele>340.799988</ele>
        <time>2017-06-11T10:12:43Z</time>
      </trkpt>
      <trkpt lat="47.47854" lon="6.62099">
        <ele>340.799988</ele>
        <time>2017-06-11T10:12:47Z</time>
      </trkpt>
      <trkpt lat="47.47864" lon="6.62096">
        <ele>341.799988</ele>
        <time>2017-06-11T10:12:54Z</time>
      </trkpt>
      <trkpt lat="47.47867" lon="6.62094">
        <ele>342.600006</ele>
        <time>2017-06-11T10:12:56Z</time>
      </trkpt>
      <trkpt lat="47.47868" lon="6.62093">
        <ele>343</ele>
        <time>2017-06-11T10:12:57Z</time>
      </trkpt>
      <trkpt lat="47.47895" lon="6.62087">
        <ele>347.200012</ele>
        <time>2017-06-11T10:13:16Z</time>
      </trkpt>
      <trkpt lat="47.47901" lon="6.62085">
        <ele>347.200012</ele>
        <time>2017-06-11T10:13:20Z</time>
      </trkpt>
      <trkpt lat="47.47913" lon="6.62076">
        <ele>349.399994</ele>
        <time>2017-06-11T10:13:31Z</time>
      </trkpt>
      <trkpt lat="47.47914" lon="6.62076">
        <ele>349.399994</ele>
        <time>2017-06-11T10:13:32Z</time>
      </trkpt>
      <trkpt lat="47.47915" lon="6.62075">
        <ele>349.799988</ele>
        <time>2017-06-11T10:13:33Z</time>
      </trkpt>
      <trkpt lat="47.47918" lon="6.62074">
        <ele>350.600006</ele>
        <time>2017-06-11T10:13:35Z</time>
      </trkpt>
      <trkpt lat="47.47922" lon="6.62071">
        <ele>351.399994</ele>
        <time>2017-06-11T10:13:38Z</time>
      </trkpt>
      <trkpt lat="47.47933" lon="6.62063">
        <ele>351.399994</ele>
        <time>2017-06-11T10:13:43Z</time>
      </trkpt>
      <trkpt lat="47.47944" lon="6.62061">
        <ele>351.399994</ele>
        <time>2017-06-11T10:13:48Z</time>
      </trkpt>
      <trkpt lat="47.47946" lon="6.62062">
        <ele>351.399994</ele>
        <time>2017-06-11T10:13:49Z</time>
      </trkpt>
      <trkpt lat="47.47954" lon="6.6206">
        <ele>351.399994</ele>
        <time>2017-06-11T10:13:53Z</time>
      </trkpt>
      <trkpt lat="47.47956" lon="6.62059">
        <ele>351.399994</ele>
        <time>2017-06-11T10:13:54Z</time>
      </trkpt>
      <trkpt lat="47.47964" lon="6.62049">
        <ele>351</ele>
        <time>2017-06-11T10:13:59Z</time>
      </trkpt>
      <trkpt lat="47.47967" lon="6.62045">
        <ele>350</ele>
        <time>2017-06-11T10:14:01Z</time>
      </trkpt>
      <trkpt lat="47.47971" lon="6.62041">
        <ele>348.799988</ele>
        <time>2017-06-11T10:14:03Z</time>
      </trkpt>
      <trkpt lat="47.47971" lon="6.62039">
        <ele>348.200012</ele>
        <time>2017-06-11T10:14:04Z</time>
      </trkpt>
      <trkpt lat="47.47973" lon="6.62038">
        <ele>347.600006</ele>
        <time>2017-06-11T10:14:05Z</time>
      </trkpt>
      <trkpt lat="47.47979" lon="6.62036">
        <ele>347</ele>
        <time>2017-06-11T10:14:06Z</time>
      </trkpt>
      <trkpt lat="47.47983" lon="6.62035">
        <ele>346.600006</ele>
        <time>2017-06-11T10:14:07Z</time>
      </trkpt>
      <trkpt lat="47.47986" lon="6.62034">
        <ele>346.200012</ele>
        <time>2017-06-11T10:14:08Z</time>
      </trkpt>
      <trkpt lat="47.47988" lon="6.62035">
        <ele>345.399994</ele>
        <time>2017-06-11T10:14:09Z</time>
      </trkpt>
      <trkpt lat="47.47989" lon="6.62036">
        <ele>344.799988</ele>
        <time>2017-06-11T10:14:10Z</time>
      </trkpt>
      <trkpt lat="47.47991" lon="6.62039">
        <ele>344.799988</ele>
        <time>2017-06-11T10:14:12Z</time>
      </trkpt>
      <trkpt lat="47.47994" lon="6.62048">
        <ele>344.799988</ele>
        <time>2017-06-11T10:14:16Z</time>
      </trkpt>
      <trkpt lat="47.48001" lon="6.6206">
        <ele>345.200012</ele>
        <time>2017-06-11T10:14:22Z</time>
      </trkpt>
      <trkpt lat="47.48003" lon="6.62067">
        <ele>346.600006</ele>
        <time>2017-06-11T10:14:25Z</time>
      </trkpt>
      <trkpt lat="47.48005" lon="6.62069">
        <ele>347</ele>
        <time>2017-06-11T10:14:26Z</time>
      </trkpt>
      <trkpt lat="47.4801" lon="6.6208">
        <ele>347.799988</ele>
        <time>2017-06-11T10:14:31Z</time>
      </trkpt>
      <trkpt lat="47.48012" lon="6.62083">
        <ele>348.600006</ele>
        <time>2017-06-11T10:14:33Z</time>
      </trkpt>
      <trkpt lat="47.48013" lon="6.62083">
        <ele>349</ele>
        <time>2017-06-11T10:14:34Z</time>
      </trkpt>
      <trkpt lat="47.48013" lon="6.62081">
        <ele>349</ele>
        <time>2017-06-11T10:14:35Z</time>
      </trkpt>
      <trkpt lat="47.48014" lon="6.62078">
        <ele>349</ele>
        <time>2017-06-11T10:14:37Z</time>
      </trkpt>
      <trkpt lat="47.48012" lon="6.62073">
        <ele>349</ele>
        <time>2017-06-11T10:14:40Z</time>
      </trkpt>
      <trkpt lat="47.48012" lon="6.6207">
        <ele>349.399994</ele>
        <time>2017-06-11T10:14:42Z</time>
      </trkpt>
      <trkpt lat="47.48012" lon="6.62064">
        <ele>351</ele>
        <time>2017-06-11T10:14:46Z</time>
      </trkpt>
      <trkpt lat="47.48014" lon="6.62054">
        <ele>351</ele>
        <time>2017-06-11T10:14:51Z</time>
      </trkpt>
      <trkpt lat="47.48014" lon="6.62053">
        <ele>351</ele>
        <time>2017-06-11T10:14:52Z</time>
      </trkpt>
      <trkpt lat="47.48015" lon="6.62037">
        <ele>351.399994</ele>
        <time>2017-06-11T10:14:59Z</time>
      </trkpt>
      <trkpt lat="47.48016" lon="6.62032">
        <ele>352.200012</ele>
        <time>2017-06-11T10:15:01Z</time>
      </trkpt>
      <trkpt lat="47.48018" lon="6.62024">
        <ele>353</ele>
        <time>2017-06-11T10:15:04Z</time>
      </trkpt>
      <trkpt lat="47.48021" lon="6.62018">
        <ele>353</ele>
        <time>2017-06-11T10:15:08Z</time>
      </trkpt>
      <trkpt lat="47.48025" lon="6.6201">
        <ele>353.399994</ele>
        <time>2017-06-11T10:15:13Z</time>
      </trkpt>
      <trkpt lat="47.48029" lon="6.62004">
        <ele>354.600006</ele>
        <time>2017-06-11T10:15:16Z</time>
      </trkpt>
      <trkpt lat="47.48033" lon="6.61996">
        <ele>355</ele>
        <time>2017-06-11T10:15:19Z</time>
      </trkpt>
      <trkpt lat="47.48034" lon="6.61995">
        <ele>355</ele>
        <time>2017-06-11T10:15:21Z</time>
      </trkpt>
      <trkpt lat="47.48039" lon="6.61986">
        <ele>355</ele>
        <time>2017-06-11T10:15:27Z</time>
      </trkpt>
      <trkpt lat="47.48046" lon="6.61965">
        <ele>355</ele>
        <time>2017-06-11T10:15:34Z</time>
      </trkpt>
      <trkpt lat="47.48062" lon="6.61925">
        <ele>355</ele>
        <time>2017-06-11T10:15:45Z</time>
      </trkpt>
      <trkpt lat="47.48066" lon="6.61917">
        <ele>355</ele>
        <time>2017-06-11T10:15:48Z</time>
      </trkpt>
      <trkpt lat="47.48068" lon="6.61913">
        <ele>355</ele>
        <time>2017-06-11T10:15:50Z</time>
      </trkpt>
      <trkpt lat="47.4808" lon="6.61895">
        <ele>355</ele>
        <time>2017-06-11T10:15:58Z</time>
      </trkpt>
      <trkpt lat="47.48087" lon="6.61885">
        <ele>355</ele>
        <time>2017-06-11T10:16:03Z</time>
      </trkpt>
      <trkpt lat="47.48094" lon="6.61873">
        <ele>355</ele>
        <time>2017-06-11T10:16:08Z</time>
      </trkpt>
      <trkpt lat="47.48094" lon="6.61872">
        <ele>355</ele>
        <time>2017-06-11T10:16:09Z</time>
      </trkpt>
      <trkpt lat="47.48094" lon="6.61868">
        <ele>355</ele>
        <time>2017-06-11T10:16:34Z</time>
      </trkpt>
      <trkpt lat="47.48093" lon="6.61862">
        <ele>355</ele>
        <time>2017-06-11T10:16:36Z</time>
      </trkpt>
      <trkpt lat="47.48088" lon="6.61838">
        <ele>355</ele>
        <time>2017-06-11T10:16:42Z</time>
      </trkpt>
      <trkpt lat="47.48085" lon="6.61814">
        <ele>355</ele>
        <time>2017-06-11T10:16:47Z</time>
      </trkpt>
      <trkpt lat="47.48087" lon="6.61809">
        <ele>354.600006</ele>
        <time>2017-06-11T10:16:48Z</time>
      </trkpt>
      <trkpt lat="47.48089" lon="6.61804">
        <ele>354.200012</ele>
        <time>2017-06-11T10:16:49Z</time>
      </trkpt>
      <trkpt lat="47.48092" lon="6.61799">
        <ele>353.600006</ele>
        <time>2017-06-11T10:16:50Z</time>
      </trkpt>
      <trkpt lat="47.48095" lon="6.61795">
        <ele>353.200012</ele>
        <time>2017-06-11T10:16:51Z</time>
      </trkpt>
      <trkpt lat="47.48102" lon="6.61788">
        <ele>352.799988</ele>
        <time>2017-06-11T10:16:53Z</time>
      </trkpt>
      <trkpt lat="47.48111" lon="6.61786">
        <ele>352.799988</ele>
        <time>2017-06-11T10:16:55Z</time>
      </trkpt>
      <trkpt lat="47.48131" lon="6.61793">
        <ele>352.799988</ele>
        <time>2017-06-11T10:17:00Z</time>
      </trkpt>
      <trkpt lat="47.48151" lon="6.61802">
        <ele>352.799988</ele>
        <time>2017-06-11T10:17:05Z</time>
      </trkpt>
      <trkpt lat="47.48169" lon="6.61811">
        <ele>352.799988</ele>
        <time>2017-06-11T10:17:10Z</time>
      </trkpt>
      <trkpt lat="47.4819" lon="6.61816">
        <ele>352.799988</ele>
        <time>2017-06-11T10:17:16Z</time>
      </trkpt>
      <trkpt lat="47.48215" lon="6.61813">
        <ele>352.799988</ele>
        <time>2017-06-11T10:17:23Z</time>
      </trkpt>
      <trkpt lat="47.48226" lon="6.61806">
        <ele>352.799988</ele>
        <time>2017-06-11T10:17:28Z</time>
      </trkpt>
      <trkpt lat="47.48228" lon="6.61803">
        <ele>352.799988</ele>
        <time>2017-06-11T10:17:32Z</time>
      </trkpt>
      <trkpt lat="47.48228" lon="6.61802">
        <ele>352.799988</ele>
        <time>2017-06-11T10:17:34Z</time>
      </trkpt>
      <trkpt lat="47.48229" lon="6.618">
        <ele>352.799988</ele>
        <time>2017-06-11T10:17:36Z</time>
      </trkpt>
      <trkpt lat="47.4823" lon="6.61793">
        <ele>352.799988</ele>
        <time>2017-06-11T10:17:38Z</time>
      </trkpt>
      <trkpt lat="47.48233" lon="6.61779">
        <ele>352.799988</ele>
        <time>2017-06-11T10:17:41Z</time>
      </trkpt>
      <trkpt lat="47.48236" lon="6.61774">
        <ele>352.799988</ele>
        <time>2017-06-11T10:17:42Z</time>
      </trkpt>
      <trkpt lat="47.4824" lon="6.61772">
        <ele>352.200012</ele>
        <time>2017-06-11T10:17:43Z</time>
      </trkpt>
      <trkpt lat="47.48246" lon="6.61771">
        <ele>351.799988</ele>
        <time>2017-06-11T10:17:44Z</time>
      </trkpt>
      <trkpt lat="47.48258" lon="6.6177">
        <ele>350.600006</ele>
        <time>2017-06-11T10:17:46Z</time>
      </trkpt>
      <trkpt lat="47.48274" lon="6.61768">
        <ele>350.200012</ele>
        <time>2017-06-11T10:17:49Z</time>
      </trkpt>
      <trkpt lat="47.48307" lon="6.61762">
        <ele>349.600006</ele>
        <time>2017-06-11T10:17:55Z</time>
      </trkpt>
      <trkpt lat="47.48323" lon="6.6176">
        <ele>348.200012</ele>
        <time>2017-06-11T10:17:58Z</time>
      </trkpt>
      <trkpt lat="47.48329" lon="6.61759">
        <ele>347.600006</ele>
        <time>2017-06-11T10:17:59Z</time>
      </trkpt>
      <trkpt lat="47.48352" lon="6.61753">
        <ele>347.600006</ele>
        <time>2017-06-11T10:18:03Z</time>
      </trkpt>
      <trkpt lat="47.48369" lon="6.61744">
        <ele>347.200012</ele>
        <time>2017-06-11T10:18:06Z</time>
      </trkpt>
      <trkpt lat="47.48374" lon="6.6174">
        <ele>346.799988</ele>
        <time>2017-06-11T10:18:07Z</time>
      </trkpt>
      <trkpt lat="47.48379" lon="6.61735">
        <ele>346.399994</ele>
        <time>2017-06-11T10:18:08Z</time>
      </trkpt>
      <trkpt lat="47.48383" lon="6.6173">
        <ele>345.799988</ele>
        <time>2017-06-11T10:18:09Z</time>
      </trkpt>
      <trkpt lat="47.48387" lon="6.61724">
        <ele>345.399994</ele>
        <time>2017-06-11T10:18:10Z</time>
      </trkpt>
      <trkpt lat="47.48397" lon="6.61703">
        <ele>345.399994</ele>
        <time>2017-06-11T10:18:13Z</time>
      </trkpt>
      <trkpt lat="47.48402" lon="6.61689">
        <ele>345.399994</ele>
        <time>2017-06-11T10:18:15Z</time>
      </trkpt>
      <trkpt lat="47.48408" lon="6.61655">
        <ele>346.200012</ele>
        <time>2017-06-11T10:18:21Z</time>
      </trkpt>
      <trkpt lat="47.48409" lon="6.6165">
        <ele>346.600006</ele>
        <time>2017-06-11T10:18:22Z</time>
      </trkpt>
      <trkpt lat="47.48409" lon="6.61646">
        <ele>347</ele>
        <time>2017-06-11T10:18:23Z</time>
      </trkpt>
      <trkpt lat="47.48408" lon="6.61642">
        <ele>347.399994</ele>
        <time>2017-06-11T10:18:24Z</time>
      </trkpt>
      <trkpt lat="47.48401" lon="6.61633">
        <ele>347.399994</ele>
        <time>2017-06-11T10:18:27Z</time>
      </trkpt>
      <trkpt lat="47.48396" lon="6.6162">
        <ele>347.399994</ele>
        <time>2017-06-11T10:18:30Z</time>
      </trkpt>
      <trkpt lat="47.48393" lon="6.61607">
        <ele>347.399994</ele>
        <time>2017-06-11T10:18:34Z</time>
      </trkpt>
      <trkpt lat="47.48398" lon="6.61583">
        <ele>347.399994</ele>
        <time>2017-06-11T10:18:38Z</time>
      </trkpt>
      <trkpt lat="47.48399" lon="6.61568">
        <ele>347.399994</ele>
        <time>2017-06-11T10:18:40Z</time>
      </trkpt>
      <trkpt lat="47.48401" lon="6.61546">
        <ele>347.399994</ele>
        <time>2017-06-11T10:18:43Z</time>
      </trkpt>
      <trkpt lat="47.48404" lon="6.61505">
        <ele>347</ele>
        <time>2017-06-11T10:18:48Z</time>
      </trkpt>
      <trkpt lat="47.48404" lon="6.61498">
        <ele>346.600006</ele>
        <time>2017-06-11T10:18:49Z</time>
      </trkpt>
      <trkpt lat="47.48405" lon="6.61475">
        <ele>345.399994</ele>
        <time>2017-06-11T10:18:52Z</time>
      </trkpt>
      <trkpt lat="47.48406" lon="6.61467">
        <ele>345.399994</ele>
        <time>2017-06-11T10:18:53Z</time>
      </trkpt>
      <trkpt lat="47.48407" lon="6.61449">
        <ele>345.399994</ele>
        <time>2017-06-11T10:18:55Z</time>
      </trkpt>
      <trkpt lat="47.48406" lon="6.61418">
        <ele>345</ele>
        <time>2017-06-11T10:18:59Z</time>
      </trkpt>
      <trkpt lat="47.48405" lon="6.61404">
        <ele>344</ele>
        <time>2017-06-11T10:19:01Z</time>
      </trkpt>
      <trkpt lat="47.48405" lon="6.61395">
        <ele>343.600006</ele>
        <time>2017-06-11T10:19:02Z</time>
      </trkpt>
      <trkpt lat="47.48405" lon="6.61385">
        <ele>343.200012</ele>
        <time>2017-06-11T10:19:03Z</time>
      </trkpt>
      <trkpt lat="47.48404" lon="6.61375">
        <ele>343.200012</ele>
        <time>2017-06-11T10:19:04Z</time>
      </trkpt>
      <trkpt lat="47.48403" lon="6.61364">
        <ele>342.799988</ele>
        <time>2017-06-11T10:19:05Z</time>
      </trkpt>
      <trkpt lat="47.48403" lon="6.61352">
        <ele>342.200012</ele>
        <time>2017-06-11T10:19:06Z</time>
      </trkpt>
      <trkpt lat="47.48402" lon="6.6134">
        <ele>341.799988</ele>
        <time>2017-06-11T10:19:07Z</time>
      </trkpt>
      <trkpt lat="47.484" lon="6.6133">
        <ele>341.399994</ele>
        <time>2017-06-11T10:19:08Z</time>
      </trkpt>
      <trkpt lat="47.48398" lon="6.61322">
        <ele>340.799988</ele>
        <time>2017-06-11T10:19:09Z</time>
      </trkpt>
      <trkpt lat="47.48398" lon="6.61308">
        <ele>340.799988</ele>
        <time>2017-06-11T10:19:11Z</time>
      </trkpt>
      <trkpt lat="47.48405" lon="6.61294">
        <ele>340.799988</ele>
        <time>2017-06-11T10:19:14Z</time>
      </trkpt>
      <trkpt lat="47.48427" lon="6.61287">
        <ele>340.399994</ele>
        <time>2017-06-11T10:19:21Z</time>
      </trkpt>
      <trkpt lat="47.48434" lon="6.61287">
        <ele>339.600006</ele>
        <time>2017-06-11T10:19:23Z</time>
      </trkpt>
      <trkpt lat="47.48459" lon="6.61289">
        <ele>338.799988</ele>
        <time>2017-06-11T10:19:32Z</time>
      </trkpt>
      <trkpt lat="47.48475" lon="6.6129">
        <ele>338.799988</ele>
        <time>2017-06-11T10:19:37Z</time>
      </trkpt>
      <trkpt lat="47.48492" lon="6.61291">
        <ele>338.799988</ele>
        <time>2017-06-11T10:19:43Z</time>
      </trkpt>
      <trkpt lat="47.4851" lon="6.6129">
        <ele>338.799988</ele>
        <time>2017-06-11T10:19:48Z</time>
      </trkpt>
      <trkpt lat="47.48528" lon="6.61291">
        <ele>339.600006</ele>
        <time>2017-06-11T10:19:52Z</time>
      </trkpt>
      <trkpt lat="47.48532" lon="6.61293">
        <ele>340</ele>
        <time>2017-06-11T10:19:53Z</time>
      </trkpt>
      <trkpt lat="47.48536" lon="6.61295">
        <ele>340.399994</ele>
        <time>2017-06-11T10:19:54Z</time>
      </trkpt>
      <trkpt lat="47.48539" lon="6.61298">
        <ele>340.799988</ele>
        <time>2017-06-11T10:19:55Z</time>
      </trkpt>
      <trkpt lat="47.48551" lon="6.61312">
        <ele>340.799988</ele>
        <time>2017-06-11T10:19:59Z</time>
      </trkpt>
      <trkpt lat="47.48561" lon="6.61331">
        <ele>341.600006</ele>
        <time>2017-06-11T10:20:04Z</time>
      </trkpt>
      <trkpt lat="47.48566" lon="6.61343">
        <ele>343</ele>
        <time>2017-06-11T10:20:07Z</time>
      </trkpt>
      <trkpt lat="47.48575" lon="6.61356">
        <ele>343</ele>
        <time>2017-06-11T10:20:11Z</time>
      </trkpt>
      <trkpt lat="47.48577" lon="6.61359">
        <ele>343.399994</ele>
        <time>2017-06-11T10:20:12Z</time>
      </trkpt>
      <trkpt lat="47.4858" lon="6.6136">
        <ele>343.799988</ele>
        <time>2017-06-11T10:20:13Z</time>
      </trkpt>
      <trkpt lat="47.48582" lon="6.61361">
        <ele>344.200012</ele>
        <time>2017-06-11T10:20:14Z</time>
      </trkpt>
      <trkpt lat="47.48585" lon="6.6136">
        <ele>344.600006</ele>
        <time>2017-06-11T10:20:15Z</time>
      </trkpt>
      <trkpt lat="47.48589" lon="6.61358">
        <ele>345</ele>
        <time>2017-06-11T10:20:16Z</time>
      </trkpt>
      <trkpt lat="47.48593" lon="6.61355">
        <ele>345</ele>
        <time>2017-06-11T10:20:17Z</time>
      </trkpt>
      <trkpt lat="47.486" lon="6.61348">
        <ele>345</ele>
        <time>2017-06-11T10:20:19Z</time>
      </trkpt>
      <trkpt lat="47.48623" lon="6.61322">
        <ele>345</ele>
        <time>2017-06-11T10:20:24Z</time>
      </trkpt>
      <trkpt lat="47.48634" lon="6.6131">
        <ele>344.600006</ele>
        <time>2017-06-11T10:20:26Z</time>
      </trkpt>
      <trkpt lat="47.4864" lon="6.61305">
        <ele>344</ele>
        <time>2017-06-11T10:20:27Z</time>
      </trkpt>
      <trkpt lat="47.48646" lon="6.61301">
        <ele>343.600006</ele>
        <time>2017-06-11T10:20:28Z</time>
      </trkpt>
      <trkpt lat="47.48653" lon="6.61298">
        <ele>343.200012</ele>
        <time>2017-06-11T10:20:29Z</time>
      </trkpt>
      <trkpt lat="47.4866" lon="6.61295">
        <ele>342.600006</ele>
        <time>2017-06-11T10:20:30Z</time>
      </trkpt>
      <trkpt lat="47.48674" lon="6.61293">
        <ele>342.200012</ele>
        <time>2017-06-11T10:20:32Z</time>
      </trkpt>
      <trkpt lat="47.4868" lon="6.61293">
        <ele>341.799988</ele>
        <time>2017-06-11T10:20:33Z</time>
      </trkpt>
      <trkpt lat="47.48686" lon="6.61294">
        <ele>341.399994</ele>
        <time>2017-06-11T10:20:34Z</time>
      </trkpt>
      <trkpt lat="47.48698" lon="6.61296">
        <ele>340.600006</ele>
        <time>2017-06-11T10:20:36Z</time>
      </trkpt>
      <trkpt lat="47.48726" lon="6.61305">
        <ele>340.600006</ele>
        <time>2017-06-11T10:20:41Z</time>
      </trkpt>
      <trkpt lat="47.48739" lon="6.61313">
        <ele>340.600006</ele>
        <time>2017-06-11T10:20:44Z</time>
      </trkpt>
      <trkpt lat="47.48747" lon="6.61321">
        <ele>340.600006</ele>
        <time>2017-06-11T10:20:46Z</time>
      </trkpt>
      <trkpt lat="47.4875" lon="6.61325">
        <ele>340.600006</ele>
        <time>2017-06-11T10:20:47Z</time>
      </trkpt>
      <trkpt lat="47.48754" lon="6.6133">
        <ele>340.600006</ele>
        <time>2017-06-11T10:20:48Z</time>
      </trkpt>
      <trkpt lat="47.48769" lon="6.61354">
        <ele>340.600006</ele>
        <time>2017-06-11T10:20:53Z</time>
      </trkpt>
      <trkpt lat="47.48787" lon="6.61371">
        <ele>340.600006</ele>
        <time>2017-06-11T10:20:58Z</time>
      </trkpt>
      <trkpt lat="47.48801" lon="6.6137">
        <ele>340.600006</ele>
        <time>2017-06-11T10:21:02Z</time>
      </trkpt>
      <trkpt lat="47.48804" lon="6.61367">
        <ele>341</ele>
        <time>2017-06-11T10:21:03Z</time>
      </trkpt>
      <trkpt lat="47.48808" lon="6.61363">
        <ele>341.399994</ele>
        <time>2017-06-11T10:21:04Z</time>
      </trkpt>
      <trkpt lat="47.48817" lon="6.6135">
        <ele>342.799988</ele>
        <time>2017-06-11T10:21:07Z</time>
      </trkpt>
      <trkpt lat="47.48827" lon="6.61329">
        <ele>342.799988</ele>
        <time>2017-06-11T10:21:11Z</time>
      </trkpt>
      <trkpt lat="47.48841" lon="6.61288">
        <ele>342.799988</ele>
        <time>2017-06-11T10:21:18Z</time>
      </trkpt>
      <trkpt lat="47.48845" lon="6.61266">
        <ele>342.799988</ele>
        <time>2017-06-11T10:21:22Z</time>
      </trkpt>
      <trkpt lat="47.48854" lon="6.61239">
        <ele>342.799988</ele>
        <time>2017-06-11T10:21:26Z</time>
      </trkpt>
      <trkpt lat="47.48871" lon="6.61191">
        <ele>342.799988</ele>
        <time>2017-06-11T10:21:33Z</time>
      </trkpt>
      <trkpt lat="47.48875" lon="6.61177">
        <ele>342.799988</ele>
        <time>2017-06-11T10:21:35Z</time>
      </trkpt>
      <trkpt lat="47.48878" lon="6.61162">
        <ele>342.799988</ele>
        <time>2017-06-11T10:21:37Z</time>
      </trkpt>
      <trkpt lat="47.48879" lon="6.61147">
        <ele>342.799988</ele>
        <time>2017-06-11T10:21:39Z</time>
      </trkpt>
      <trkpt lat="47.48879" lon="6.61105">
        <ele>342.799988</ele>
        <time>2017-06-11T10:21:45Z</time>
      </trkpt>
      <trkpt lat="47.48881" lon="6.61073">
        <ele>342.799988</ele>
        <time>2017-06-11T10:21:51Z</time>
      </trkpt>
      <trkpt lat="47.48885" lon="6.61065">
        <ele>342.799988</ele>
        <time>2017-06-11T10:21:55Z</time>
      </trkpt>
      <trkpt lat="47.48892" lon="6.61051">
        <ele>344</ele>
        <time>2017-06-11T10:22:01Z</time>
      </trkpt>
      <trkpt lat="47.48892" lon="6.61045">
        <ele>344.799988</ele>
        <time>2017-06-11T10:22:05Z</time>
      </trkpt>
      <trkpt lat="47.48893" lon="6.6104">
        <ele>344.799988</ele>
        <time>2017-06-11T10:22:07Z</time>
      </trkpt>
      <trkpt lat="47.48896" lon="6.61034">
        <ele>345.600006</ele>
        <time>2017-06-11T10:22:10Z</time>
      </trkpt>
      <trkpt lat="47.48896" lon="6.61031">
        <ele>346</ele>
        <time>2017-06-11T10:22:11Z</time>
      </trkpt>
      <trkpt lat="47.48898" lon="6.61018">
        <ele>346.799988</ele>
        <time>2017-06-11T10:22:16Z</time>
      </trkpt>
      <trkpt lat="47.489" lon="6.61012">
        <ele>347.600006</ele>
        <time>2017-06-11T10:22:18Z</time>
      </trkpt>
      <trkpt lat="47.48904" lon="6.61004">
        <ele>349</ele>
        <time>2017-06-11T10:22:21Z</time>
      </trkpt>
      <trkpt lat="47.48908" lon="6.61">
        <ele>349</ele>
        <time>2017-06-11T10:22:25Z</time>
      </trkpt>
      <trkpt lat="47.48909" lon="6.60999">
        <ele>349.399994</ele>
        <time>2017-06-11T10:22:26Z</time>
      </trkpt>
      <trkpt lat="47.4891" lon="6.60998">
        <ele>350.200012</ele>
        <time>2017-06-11T10:22:28Z</time>
      </trkpt>
      <trkpt lat="47.48913" lon="6.60997">
        <ele>351.200012</ele>
        <time>2017-06-11T10:22:30Z</time>
      </trkpt>
      <trkpt lat="47.48914" lon="6.60996">
        <ele>351.200012</ele>
        <time>2017-06-11T10:22:31Z</time>
      </trkpt>
      <trkpt lat="47.48919" lon="6.60992">
        <ele>351.600006</ele>
        <time>2017-06-11T10:22:35Z</time>
      </trkpt>
      <trkpt lat="47.48921" lon="6.60988">
        <ele>352.399994</ele>
        <time>2017-06-11T10:22:37Z</time>
      </trkpt>
      <trkpt lat="47.48924" lon="6.60985">
        <ele>353.200012</ele>
        <time>2017-06-11T10:22:39Z</time>
      </trkpt>
      <trkpt lat="47.48927" lon="6.60977">
        <ele>353.200012</ele>
        <time>2017-06-11T10:22:42Z</time>
      </trkpt>
      <trkpt lat="47.4893" lon="6.60954">
        <ele>353.200012</ele>
        <time>2017-06-11T10:22:49Z</time>
      </trkpt>
      <trkpt lat="47.48929" lon="6.60944">
        <ele>353.600006</ele>
        <time>2017-06-11T10:22:52Z</time>
      </trkpt>
      <trkpt lat="47.48928" lon="6.6094">
        <ele>354</ele>
        <time>2017-06-11T10:22:53Z</time>
      </trkpt>
      <trkpt lat="47.48927" lon="6.60929">
        <ele>355.200012</ele>
        <time>2017-06-11T10:22:56Z</time>
      </trkpt>
      <trkpt lat="47.48927" lon="6.60911">
        <ele>355.200012</ele>
        <time>2017-06-11T10:23:01Z</time>
      </trkpt>
      <trkpt lat="47.48925" lon="6.60887">
        <ele>355.200012</ele>
        <time>2017-06-11T10:23:06Z</time>
      </trkpt>
      <trkpt lat="47.48924" lon="6.60855">
        <ele>355.200012</ele>
        <time>2017-06-11T10:23:12Z</time>
      </trkpt>
      <trkpt lat="47.48921" lon="6.60818">
        <ele>355.200012</ele>
        <time>2017-06-11T10:23:19Z</time>
      </trkpt>
      <trkpt lat="47.48913" lon="6.6078">
        <ele>355.200012</ele>
        <time>2017-06-11T10:23:26Z</time>
      </trkpt>
      <trkpt lat="47.48905" lon="6.6075">
        <ele>355.200012</ele>
        <time>2017-06-11T10:23:32Z</time>
      </trkpt>
      <trkpt lat="47.489" lon="6.60716">
        <ele>355.200012</ele>
        <time>2017-06-11T10:23:39Z</time>
      </trkpt>
      <trkpt lat="47.48896" lon="6.60686">
        <ele>355.200012</ele>
        <time>2017-06-11T10:23:45Z</time>
      </trkpt>
      <trkpt lat="47.48892" lon="6.60658">
        <ele>355.200012</ele>
        <time>2017-06-11T10:23:51Z</time>
      </trkpt>
      <trkpt lat="47.4889" lon="6.60655">
        <ele>355.200012</ele>
        <time>2017-06-11T10:23:52Z</time>
      </trkpt>
      <trkpt lat="47.48881" lon="6.60652">
        <ele>355.200012</ele>
        <time>2017-06-11T10:23:55Z</time>
      </trkpt>
      <trkpt lat="47.48877" lon="6.60652">
        <ele>355.200012</ele>
        <time>2017-06-11T10:23:56Z</time>
      </trkpt>
      <trkpt lat="47.48859" lon="6.60645">
        <ele>355.200012</ele>
        <time>2017-06-11T10:24:01Z</time>
      </trkpt>
      <trkpt lat="47.48835" lon="6.60634">
        <ele>355.200012</ele>
        <time>2017-06-11T10:24:07Z</time>
      </trkpt>
      <trkpt lat="47.48819" lon="6.60618">
        <ele>355.200012</ele>
        <time>2017-06-11T10:24:13Z</time>
      </trkpt>
      <trkpt lat="47.48802" lon="6.60594">
        <ele>355.200012</ele>
        <time>2017-06-11T10:24:19Z</time>
      </trkpt>
      <trkpt lat="47.48796" lon="6.60584">
        <ele>355.200012</ele>
        <time>2017-06-11T10:24:21Z</time>
      </trkpt>
      <trkpt lat="47.48787" lon="6.60573">
        <ele>355.200012</ele>
        <time>2017-06-11T10:24:23Z</time>
      </trkpt>
      <trkpt lat="47.48771" lon="6.60559">
        <ele>355.200012</ele>
        <time>2017-06-11T10:24:26Z</time>
      </trkpt>
      <trkpt lat="47.48761" lon="6.60552">
        <ele>355.200012</ele>
        <time>2017-06-11T10:24:28Z</time>
      </trkpt>
      <trkpt lat="47.48748" lon="6.60543">
        <ele>355.200012</ele>
        <time>2017-06-11T10:24:31Z</time>
      </trkpt>
      <trkpt lat="47.4874" lon="6.60539">
        <ele>355.200012</ele>
        <time>2017-06-11T10:24:33Z</time>
      </trkpt>
      <trkpt lat="47.48726" lon="6.60535">
        <ele>355.200012</ele>
        <time>2017-06-11T10:24:38Z</time>
      </trkpt>
      <trkpt lat="47.48709" lon="6.60532">
        <ele>355.600006</ele>
        <time>2017-06-11T10:24:44Z</time>
      </trkpt>
      <trkpt lat="47.48704" lon="6.60532">
        <ele>356.600006</ele>
        <time>2017-06-11T10:24:46Z</time>
      </trkpt>
      <trkpt lat="47.48701" lon="6.60531">
        <ele>357</ele>
        <time>2017-06-11T10:24:47Z</time>
      </trkpt>
      <trkpt lat="47.48695" lon="6.60527">
        <ele>357.399994</ele>
        <time>2017-06-11T10:24:49Z</time>
      </trkpt>
      <trkpt lat="47.48687" lon="6.60524">
        <ele>357.799988</ele>
        <time>2017-06-11T10:24:52Z</time>
      </trkpt>
      <trkpt lat="47.48684" lon="6.60523">
        <ele>358.200012</ele>
        <time>2017-06-11T10:24:53Z</time>
      </trkpt>
      <trkpt lat="47.48675" lon="6.60524">
        <ele>359.399994</ele>
        <time>2017-06-11T10:24:56Z</time>
      </trkpt>
      <trkpt lat="47.48656" lon="6.60523">
        <ele>359.399994</ele>
        <time>2017-06-11T10:25:02Z</time>
      </trkpt>
      <trkpt lat="47.48643" lon="6.60525">
        <ele>360.200012</ele>
        <time>2017-06-11T10:25:06Z</time>
      </trkpt>
      <trkpt lat="47.48637" lon="6.60527">
        <ele>361</ele>
        <time>2017-06-11T10:25:08Z</time>
      </trkpt>
      <trkpt lat="47.48595" lon="6.60531">
        <ele>361.399994</ele>
        <time>2017-06-11T10:25:21Z</time>
      </trkpt>
      <trkpt lat="47.4858" lon="6.60532">
        <ele>361.399994</ele>
        <time>2017-06-11T10:25:25Z</time>
      </trkpt>
      <trkpt lat="47.48569" lon="6.60534">
        <ele>361.399994</ele>
        <time>2017-06-11T10:25:28Z</time>
      </trkpt>
      <trkpt lat="47.48548" lon="6.60536">
        <ele>361.399994</ele>
        <time>2017-06-11T10:25:34Z</time>
      </trkpt>
      <trkpt lat="47.48541" lon="6.60534">
        <ele>362.399994</ele>
        <time>2017-06-11T10:25:36Z</time>
      </trkpt>
      <trkpt lat="47.48534" lon="6.60533">
        <ele>363.200012</ele>
        <time>2017-06-11T10:25:38Z</time>
      </trkpt>
      <trkpt lat="47.48525" lon="6.6053">
        <ele>363.600006</ele>
        <time>2017-06-11T10:25:41Z</time>
      </trkpt>
      <trkpt lat="47.48509" lon="6.60523">
        <ele>363.600006</ele>
        <time>2017-06-11T10:25:46Z</time>
      </trkpt>
      <trkpt lat="47.48484" lon="6.60513">
        <ele>363.600006</ele>
        <time>2017-06-11T10:25:53Z</time>
      </trkpt>
      <trkpt lat="47.48456" lon="6.60504">
        <ele>364.799988</ele>
        <time>2017-06-11T10:26:01Z</time>
      </trkpt>
      <trkpt lat="47.48432" lon="6.60495">
        <ele>365.600006</ele>
        <time>2017-06-11T10:26:08Z</time>
      </trkpt>
      <trkpt lat="47.48405" lon="6.60484">
        <ele>365.600006</ele>
        <time>2017-06-11T10:26:15Z</time>
      </trkpt>
      <trkpt lat="47.48382" lon="6.60481">
        <ele>365.600006</ele>
        <time>2017-06-11T10:26:21Z</time>
      </trkpt>
      <trkpt lat="47.48368" lon="6.60477">
        <ele>365.600006</ele>
        <time>2017-06-11T10:26:26Z</time>
      </trkpt>
      <trkpt lat="47.48363" lon="6.60474">
        <ele>366.799988</ele>
        <time>2017-06-11T10:26:28Z</time>
      </trkpt>
      <trkpt lat="47.4836" lon="6.60472">
        <ele>367.200012</ele>
        <time>2017-06-11T10:26:29Z</time>
      </trkpt>
      <trkpt lat="47.4834" lon="6.60462">
        <ele>367.600006</ele>
        <time>2017-06-11T10:26:36Z</time>
      </trkpt>
      <trkpt lat="47.48322" lon="6.60448">
        <ele>368</ele>
        <time>2017-06-11T10:26:42Z</time>
      </trkpt>
      <trkpt lat="47.4832" lon="6.60447">
        <ele>368.399994</ele>
        <time>2017-06-11T10:26:43Z</time>
      </trkpt>
      <trkpt lat="47.48316" lon="6.60447">
        <ele>369.200012</ele>
        <time>2017-06-11T10:26:45Z</time>
      </trkpt>
      <trkpt lat="47.48312" lon="6.60448">
        <ele>369.600006</ele>
        <time>2017-06-11T10:26:47Z</time>
      </trkpt>
      <trkpt lat="47.48304" lon="6.60454">
        <ele>369.600006</ele>
        <time>2017-06-11T10:26:52Z</time>
      </trkpt>
      <trkpt lat="47.48303" lon="6.60456">
        <ele>370.600006</ele>
        <time>2017-06-11T10:26:53Z</time>
      </trkpt>
      <trkpt lat="47.483" lon="6.60457">
        <ele>371.399994</ele>
        <time>2017-06-11T10:26:55Z</time>
      </trkpt>
      <trkpt lat="47.48299" lon="6.60457">
        <ele>371.799988</ele>
        <time>2017-06-11T10:26:56Z</time>
      </trkpt>
      <trkpt lat="47.48294" lon="6.60458">
        <ele>371.799988</ele>
        <time>2017-06-11T10:26:58Z</time>
      </trkpt>
      <trkpt lat="47.48291" lon="6.6046">
        <ele>371.799988</ele>
        <time>2017-06-11T10:26:59Z</time>
      </trkpt>
      <trkpt lat="47.48279" lon="6.60469">
        <ele>372.200012</ele>
        <time>2017-06-11T10:27:04Z</time>
      </trkpt>
      <trkpt lat="47.48274" lon="6.60472">
        <ele>373</ele>
        <time>2017-06-11T10:27:06Z</time>
      </trkpt>
      <trkpt lat="47.48272" lon="6.60474">
        <ele>373.399994</ele>
        <time>2017-06-11T10:27:07Z</time>
      </trkpt>
      <trkpt lat="47.4827" lon="6.60475">
        <ele>373.799988</ele>
        <time>2017-06-11T10:27:08Z</time>
      </trkpt>
      <trkpt lat="47.4826" lon="6.60477">
        <ele>373.799988</ele>
        <time>2017-06-11T10:27:11Z</time>
      </trkpt>
      <trkpt lat="47.4824" lon="6.60484">
        <ele>373.799988</ele>
        <time>2017-06-11T10:27:17Z</time>
      </trkpt>
      <trkpt lat="47.48237" lon="6.60485">
        <ele>374.600006</ele>
        <time>2017-06-11T10:27:18Z</time>
      </trkpt>
      <trkpt lat="47.48231" lon="6.60484">
        <ele>375.399994</ele>
        <time>2017-06-11T10:27:20Z</time>
      </trkpt>
      <trkpt lat="47.48227" lon="6.60483">
        <ele>375.799988</ele>
        <time>2017-06-11T10:27:22Z</time>
      </trkpt>
      <trkpt lat="47.48212" lon="6.60473">
        <ele>376.200012</ele>
        <time>2017-06-11T10:27:29Z</time>
      </trkpt>
      <trkpt lat="47.48208" lon="6.60468">
        <ele>377.200012</ele>
        <time>2017-06-11T10:27:31Z</time>
      </trkpt>
      <trkpt lat="47.48202" lon="6.60463">
        <ele>378</ele>
        <time>2017-06-11T10:27:33Z</time>
      </trkpt>
      <trkpt lat="47.48189" lon="6.60446">
        <ele>378</ele>
        <time>2017-06-11T10:27:39Z</time>
      </trkpt>
      <trkpt lat="47.48183" lon="6.60438">
        <ele>379.200012</ele>
        <time>2017-06-11T10:27:42Z</time>
      </trkpt>
      <trkpt lat="47.4818" lon="6.60436">
        <ele>380</ele>
        <time>2017-06-11T10:27:43Z</time>
      </trkpt>
      <trkpt lat="47.48167" lon="6.60432">
        <ele>380</ele>
        <time>2017-06-11T10:27:48Z</time>
      </trkpt>
      <trkpt lat="47.48153" lon="6.60439">
        <ele>380.399994</ele>
        <time>2017-06-11T10:27:53Z</time>
      </trkpt>
      <trkpt lat="47.48145" lon="6.60441">
        <ele>381.600006</ele>
        <time>2017-06-11T10:27:56Z</time>
      </trkpt>
      <trkpt lat="47.48135" lon="6.60442">
        <ele>382</ele>
        <time>2017-06-11T10:27:59Z</time>
      </trkpt>
      <trkpt lat="47.48121" lon="6.60442">
        <ele>382</ele>
        <time>2017-06-11T10:28:04Z</time>
      </trkpt>
      <trkpt lat="47.48103" lon="6.60441">
        <ele>382.799988</ele>
        <time>2017-06-11T10:28:12Z</time>
      </trkpt>
      <trkpt lat="47.48101" lon="6.60441">
        <ele>383.200012</ele>
        <time>2017-06-11T10:28:13Z</time>
      </trkpt>
      <trkpt lat="47.48096" lon="6.60444">
        <ele>384</ele>
        <time>2017-06-11T10:28:15Z</time>
      </trkpt>
      <trkpt lat="47.48084" lon="6.60448">
        <ele>384</ele>
        <time>2017-06-11T10:28:19Z</time>
      </trkpt>
      <trkpt lat="47.48073" lon="6.6045">
        <ele>384.399994</ele>
        <time>2017-06-11T10:28:23Z</time>
      </trkpt>
      <trkpt lat="47.48058" lon="6.60452">
        <ele>386.200012</ele>
        <time>2017-06-11T10:28:27Z</time>
      </trkpt>
      <trkpt lat="47.48053" lon="6.60453">
        <ele>386.200012</ele>
        <time>2017-06-11T10:28:29Z</time>
      </trkpt>
      <trkpt lat="47.48044" lon="6.60452">
        <ele>386.600006</ele>
        <time>2017-06-11T10:28:32Z</time>
      </trkpt>
      <trkpt lat="47.4804" lon="6.60453">
        <ele>387.399994</ele>
        <time>2017-06-11T10:28:34Z</time>
      </trkpt>
      <trkpt lat="47.48035" lon="6.60452">
        <ele>388.200012</ele>
        <time>2017-06-11T10:28:36Z</time>
      </trkpt>
      <trkpt lat="47.48026" lon="6.60453">
        <ele>388.600006</ele>
        <time>2017-06-11T10:28:40Z</time>
      </trkpt>
      <trkpt lat="47.48024" lon="6.60454">
        <ele>389</ele>
        <time>2017-06-11T10:28:41Z</time>
      </trkpt>
      <trkpt lat="47.48022" lon="6.60455">
        <ele>389.399994</ele>
        <time>2017-06-11T10:28:42Z</time>
      </trkpt>
      <trkpt lat="47.4802" lon="6.60456">
        <ele>389.799988</ele>
        <time>2017-06-11T10:28:43Z</time>
      </trkpt>
      <trkpt lat="47.48006" lon="6.6046">
        <ele>390.600006</ele>
        <time>2017-06-11T10:28:49Z</time>
      </trkpt>
      <trkpt lat="47.48" lon="6.60459">
        <ele>391.399994</ele>
        <time>2017-06-11T10:28:51Z</time>
      </trkpt>
      <trkpt lat="47.47998" lon="6.6046">
        <ele>391.799988</ele>
        <time>2017-06-11T10:28:52Z</time>
      </trkpt>
      <trkpt lat="47.47985" lon="6.60461">
        <ele>393.200012</ele>
        <time>2017-06-11T10:28:58Z</time>
      </trkpt>
      <trkpt lat="47.47982" lon="6.60461">
        <ele>393.600006</ele>
        <time>2017-06-11T10:28:59Z</time>
      </trkpt>
      <trkpt lat="47.47972" lon="6.60459">
        <ele>394.399994</ele>
        <time>2017-06-11T10:29:02Z</time>
      </trkpt>
      <trkpt lat="47.47959" lon="6.60455">
        <ele>394.399994</ele>
        <time>2017-06-11T10:29:06Z</time>
      </trkpt>
      <trkpt lat="47.47945" lon="6.60445">
        <ele>394.399994</ele>
        <time>2017-06-11T10:29:10Z</time>
      </trkpt>
      <trkpt lat="47.47936" lon="6.60437">
        <ele>394.399994</ele>
        <time>2017-06-11T10:29:14Z</time>
      </trkpt>
      <trkpt lat="47.47935" lon="6.60435">
        <ele>394.399994</ele>
        <time>2017-06-11T10:29:15Z</time>
      </trkpt>
      <trkpt lat="47.47929" lon="6.60426">
        <ele>394.399994</ele>
        <time>2017-06-11T10:29:18Z</time>
      </trkpt>
      <trkpt lat="47.47927" lon="6.60422">
        <ele>394.799988</ele>
        <time>2017-06-11T10:29:19Z</time>
      </trkpt>
      <trkpt lat="47.47925" lon="6.60415">
        <ele>395.600006</ele>
        <time>2017-06-11T10:29:21Z</time>
      </trkpt>
      <trkpt lat="47.47924" lon="6.60412">
        <ele>396.600006</ele>
        <time>2017-06-11T10:29:22Z</time>
      </trkpt>
      <trkpt lat="47.47924" lon="6.60409">
        <ele>396.600006</ele>
        <time>2017-06-11T10:29:23Z</time>
      </trkpt>
      <trkpt lat="47.47919" lon="6.60395">
        <ele>397</ele>
        <time>2017-06-11T10:29:27Z</time>
      </trkpt>
      <trkpt lat="47.47917" lon="6.60392">
        <ele>397.399994</ele>
        <time>2017-06-11T10:29:28Z</time>
      </trkpt>
      <trkpt lat="47.47915" lon="6.60386">
        <ele>398.200012</ele>
        <time>2017-06-11T10:29:30Z</time>
      </trkpt>
      <trkpt lat="47.47914" lon="6.60383">
        <ele>398.600006</ele>
        <time>2017-06-11T10:29:31Z</time>
      </trkpt>
      <trkpt lat="47.47909" lon="6.60367">
        <ele>398.600006</ele>
        <time>2017-06-11T10:29:35Z</time>
      </trkpt>
      <trkpt lat="47.47903" lon="6.60353">
        <ele>398.600006</ele>
        <time>2017-06-11T10:29:39Z</time>
      </trkpt>
      <trkpt lat="47.47898" lon="6.60343">
        <ele>398.600006</ele>
        <time>2017-06-11T10:29:42Z</time>
      </trkpt>
      <trkpt lat="47.47894" lon="6.60336">
        <ele>398.600006</ele>
        <time>2017-06-11T10:29:45Z</time>
      </trkpt>
      <trkpt lat="47.47892" lon="6.60333">
        <ele>398.600006</ele>
        <time>2017-06-11T10:29:46Z</time>
      </trkpt>
      <trkpt lat="47.47859" lon="6.60293">
        <ele>398.600006</ele>
        <time>2017-06-11T10:29:56Z</time>
      </trkpt>
      <trkpt lat="47.47846" lon="6.60281">
        <ele>398.600006</ele>
        <time>2017-06-11T10:30:00Z</time>
      </trkpt>
      <trkpt lat="47.47837" lon="6.60275">
        <ele>398.600006</ele>
        <time>2017-06-11T10:30:02Z</time>
      </trkpt>
      <trkpt lat="47.47824" lon="6.60263">
        <ele>398.600006</ele>
        <time>2017-06-11T10:30:06Z</time>
      </trkpt>
      <trkpt lat="47.47808" lon="6.60252">
        <ele>398.600006</ele>
        <time>2017-06-11T10:30:12Z</time>
      </trkpt>
      <trkpt lat="47.47801" lon="6.60253">
        <ele>398.600006</ele>
        <time>2017-06-11T10:30:15Z</time>
      </trkpt>
      <trkpt lat="47.47798" lon="6.60254">
        <ele>398.600006</ele>
        <time>2017-06-11T10:30:17Z</time>
      </trkpt>
      <trkpt lat="47.47792" lon="6.60256">
        <ele>399.399994</ele>
        <time>2017-06-11T10:30:19Z</time>
      </trkpt>
      <trkpt lat="47.47789" lon="6.60259">
        <ele>400.200012</ele>
        <time>2017-06-11T10:30:21Z</time>
      </trkpt>
      <trkpt lat="47.47787" lon="6.60259">
        <ele>400.600006</ele>
        <time>2017-06-11T10:30:22Z</time>
      </trkpt>
      <trkpt lat="47.47779" lon="6.60265">
        <ele>401</ele>
        <time>2017-06-11T10:30:26Z</time>
      </trkpt>
      <trkpt lat="47.47774" lon="6.60266">
        <ele>402</ele>
        <time>2017-06-11T10:30:28Z</time>
      </trkpt>
      <trkpt lat="47.47769" lon="6.60269">
        <ele>402.799988</ele>
        <time>2017-06-11T10:30:30Z</time>
      </trkpt>
      <trkpt lat="47.47762" lon="6.60276">
        <ele>402.799988</ele>
        <time>2017-06-11T10:30:33Z</time>
      </trkpt>
      <trkpt lat="47.47754" lon="6.60283">
        <ele>403.200012</ele>
        <time>2017-06-11T10:30:36Z</time>
      </trkpt>
      <trkpt lat="47.47751" lon="6.60285">
        <ele>403.600006</ele>
        <time>2017-06-11T10:30:37Z</time>
      </trkpt>
      <trkpt lat="47.47745" lon="6.60288">
        <ele>404.399994</ele>
        <time>2017-06-11T10:30:39Z</time>
      </trkpt>
      <trkpt lat="47.47719" lon="6.603">
        <ele>404.799988</ele>
        <time>2017-06-11T10:30:47Z</time>
      </trkpt>
      <trkpt lat="47.477" lon="6.6031">
        <ele>404.799988</ele>
        <time>2017-06-11T10:30:53Z</time>
      </trkpt>
      <trkpt lat="47.47695" lon="6.60311">
        <ele>405.200012</ele>
        <time>2017-06-11T10:30:55Z</time>
      </trkpt>
      <trkpt lat="47.47693" lon="6.60311">
        <ele>405.600006</ele>
        <time>2017-06-11T10:30:56Z</time>
      </trkpt>
      <trkpt lat="47.47684" lon="6.60313">
        <ele>406.799988</ele>
        <time>2017-06-11T10:30:59Z</time>
      </trkpt>
      <trkpt lat="47.47681" lon="6.60316">
        <ele>406.799988</ele>
        <time>2017-06-11T10:31:00Z</time>
      </trkpt>
      <trkpt lat="47.47674" lon="6.60324">
        <ele>406.799988</ele>
        <time>2017-06-11T10:31:02Z</time>
      </trkpt>
      <trkpt lat="47.47659" lon="6.60341">
        <ele>407.200012</ele>
        <time>2017-06-11T10:31:07Z</time>
      </trkpt>
      <trkpt lat="47.47656" lon="6.60342">
        <ele>407.600006</ele>
        <time>2017-06-11T10:31:08Z</time>
      </trkpt>
      <trkpt lat="47.47649" lon="6.60345">
        <ele>408.600006</ele>
        <time>2017-06-11T10:31:10Z</time>
      </trkpt>
      <trkpt lat="47.47647" lon="6.60347">
        <ele>409</ele>
        <time>2017-06-11T10:31:11Z</time>
      </trkpt>
      <trkpt lat="47.47645" lon="6.60348">
        <ele>409</ele>
        <time>2017-06-11T10:31:12Z</time>
      </trkpt>
      <trkpt lat="47.47624" lon="6.60361">
        <ele>409.399994</ele>
        <time>2017-06-11T10:31:20Z</time>
      </trkpt>
      <trkpt lat="47.47622" lon="6.60362">
        <ele>409.799988</ele>
        <time>2017-06-11T10:31:21Z</time>
      </trkpt>
      <trkpt lat="47.47619" lon="6.60362">
        <ele>410.200012</ele>
        <time>2017-06-11T10:31:22Z</time>
      </trkpt>
      <trkpt lat="47.47617" lon="6.60362">
        <ele>410.600006</ele>
        <time>2017-06-11T10:31:23Z</time>
      </trkpt>
      <trkpt lat="47.47614" lon="6.60362">
        <ele>411</ele>
        <time>2017-06-11T10:31:24Z</time>
      </trkpt>
      <trkpt lat="47.47603" lon="6.60371">
        <ele>411</ele>
        <time>2017-06-11T10:31:29Z</time>
      </trkpt>
      <trkpt lat="47.47598" lon="6.60376">
        <ele>411</ele>
        <time>2017-06-11T10:31:32Z</time>
      </trkpt>
      <trkpt lat="47.47584" lon="6.60395">
        <ele>411.399994</ele>
        <time>2017-06-11T10:31:40Z</time>
      </trkpt>
      <trkpt lat="47.47583" lon="6.60396">
        <ele>411.799988</ele>
        <time>2017-06-11T10:31:41Z</time>
      </trkpt>
      <trkpt lat="47.47582" lon="6.604">
        <ele>412.200012</ele>
        <time>2017-06-11T10:31:42Z</time>
      </trkpt>
      <trkpt lat="47.47576" lon="6.60415">
        <ele>413</ele>
        <time>2017-06-11T10:31:50Z</time>
      </trkpt>
      <trkpt lat="47.47568" lon="6.60428">
        <ele>413</ele>
        <time>2017-06-11T10:31:55Z</time>
      </trkpt>
      <trkpt lat="47.47558" lon="6.60442">
        <ele>413.399994</ele>
        <time>2017-06-11T10:32:01Z</time>
      </trkpt>
      <trkpt lat="47.47554" lon="6.60449">
        <ele>414.600006</ele>
        <time>2017-06-11T10:32:04Z</time>
      </trkpt>
      <trkpt lat="47.47554" lon="6.60452">
        <ele>415</ele>
        <time>2017-06-11T10:32:05Z</time>
      </trkpt>
      <trkpt lat="47.47539" lon="6.60475">
        <ele>415</ele>
        <time>2017-06-11T10:32:15Z</time>
      </trkpt>
      <trkpt lat="47.47534" lon="6.60487">
        <ele>415.399994</ele>
        <time>2017-06-11T10:32:21Z</time>
      </trkpt>
      <trkpt lat="47.47534" lon="6.6049">
        <ele>416.200012</ele>
        <time>2017-06-11T10:32:23Z</time>
      </trkpt>
      <trkpt lat="47.47529" lon="6.60496">
        <ele>417</ele>
        <time>2017-06-11T10:32:25Z</time>
      </trkpt>
      <trkpt lat="47.47527" lon="6.60498">
        <ele>417</ele>
        <time>2017-06-11T10:32:26Z</time>
      </trkpt>
      <trkpt lat="47.47516" lon="6.6051">
        <ele>417</ele>
        <time>2017-06-11T10:32:32Z</time>
      </trkpt>
      <trkpt lat="47.47503" lon="6.60517">
        <ele>417</ele>
        <time>2017-06-11T10:32:38Z</time>
      </trkpt>
      <trkpt lat="47.475" lon="6.60521">
        <ele>417</ele>
        <time>2017-06-11T10:32:41Z</time>
      </trkpt>
      <trkpt lat="47.47498" lon="6.60522">
        <ele>417</ele>
        <time>2017-06-11T10:32:43Z</time>
      </trkpt>
      <trkpt lat="47.47497" lon="6.60524">
        <ele>417.399994</ele>
        <time>2017-06-11T10:32:44Z</time>
      </trkpt>
      <trkpt lat="47.47495" lon="6.60525">
        <ele>418</ele>
        <time>2017-06-11T10:32:45Z</time>
      </trkpt>
      <trkpt lat="47.47493" lon="6.60529">
        <ele>418.799988</ele>
        <time>2017-06-11T10:32:47Z</time>
      </trkpt>
      <trkpt lat="47.47491" lon="6.6053">
        <ele>419.200012</ele>
        <time>2017-06-11T10:32:48Z</time>
      </trkpt>
      <trkpt lat="47.47488" lon="6.60533">
        <ele>419.200012</ele>
        <time>2017-06-11T10:32:51Z</time>
      </trkpt>
      <trkpt lat="47.47486" lon="6.60536">
        <ele>419.200012</ele>
        <time>2017-06-11T10:32:54Z</time>
      </trkpt>
      <trkpt lat="47.47479" lon="6.60539">
        <ele>419.200012</ele>
        <time>2017-06-11T10:32:59Z</time>
      </trkpt>
      <trkpt lat="47.47476" lon="6.60542">
        <ele>420</ele>
        <time>2017-06-11T10:33:01Z</time>
      </trkpt>
      <trkpt lat="47.47474" lon="6.60543">
        <ele>420.799988</ele>
        <time>2017-06-11T10:33:03Z</time>
      </trkpt>
      <trkpt lat="47.47471" lon="6.60545">
        <ele>421.200012</ele>
        <time>2017-06-11T10:33:05Z</time>
      </trkpt>
      <trkpt lat="47.47469" lon="6.60548">
        <ele>421.200012</ele>
        <time>2017-06-11T10:33:08Z</time>
      </trkpt>
      <trkpt lat="47.47458" lon="6.60564">
        <ele>421.200012</ele>
        <time>2017-06-11T10:33:18Z</time>
      </trkpt>
      <trkpt lat="47.47458" lon="6.60567">
        <ele>421.200012</ele>
        <time>2017-06-11T10:33:20Z</time>
      </trkpt>
      <trkpt lat="47.47441" lon="6.60586">
        <ele>423.399994</ele>
        <time>2017-06-11T10:33:35Z</time>
      </trkpt>
      <trkpt lat="47.47439" lon="6.60592">
        <ele>423.399994</ele>
        <time>2017-06-11T10:33:38Z</time>
      </trkpt>
      <trkpt lat="47.47438" lon="6.606">
        <ele>423.799988</ele>
        <time>2017-06-11T10:33:42Z</time>
      </trkpt>
      <trkpt lat="47.47437" lon="6.60606">
        <ele>424.600006</ele>
        <time>2017-06-11T10:33:44Z</time>
      </trkpt>
      <trkpt lat="47.47437" lon="6.60611">
        <ele>425.399994</ele>
        <time>2017-06-11T10:33:46Z</time>
      </trkpt>
      <trkpt lat="47.47438" lon="6.60621">
        <ele>425.399994</ele>
        <time>2017-06-11T10:33:52Z</time>
      </trkpt>
      <trkpt lat="47.4744" lon="6.60633">
        <ele>425.399994</ele>
        <time>2017-06-11T10:34:39Z</time>
      </trkpt>
      <trkpt lat="47.47439" lon="6.60652">
        <ele>425</ele>
        <time>2017-06-11T10:34:45Z</time>
      </trkpt>
      <trkpt lat="47.4744" lon="6.60656">
        <ele>424.600006</ele>
        <time>2017-06-11T10:34:46Z</time>
      </trkpt>
      <trkpt lat="47.47441" lon="6.6066">
        <ele>424</ele>
        <time>2017-06-11T10:34:47Z</time>
      </trkpt>
      <trkpt lat="47.47442" lon="6.60664">
        <ele>423.600006</ele>
        <time>2017-06-11T10:34:48Z</time>
      </trkpt>
      <trkpt lat="47.47445" lon="6.60675">
        <ele>423.200012</ele>
        <time>2017-06-11T10:34:50Z</time>
      </trkpt>
      <trkpt lat="47.47446" lon="6.6068">
        <ele>422.600006</ele>
        <time>2017-06-11T10:34:51Z</time>
      </trkpt>
      <trkpt lat="47.47446" lon="6.60686">
        <ele>422</ele>
        <time>2017-06-11T10:34:52Z</time>
      </trkpt>
      <trkpt lat="47.47445" lon="6.6069">
        <ele>421.600006</ele>
        <time>2017-06-11T10:34:53Z</time>
      </trkpt>
      <trkpt lat="47.47437" lon="6.60702">
        <ele>420.399994</ele>
        <time>2017-06-11T10:34:58Z</time>
      </trkpt>
      <trkpt lat="47.47435" lon="6.60703">
        <ele>420.399994</ele>
        <time>2017-06-11T10:35:08Z</time>
      </trkpt>
      <trkpt lat="47.47428" lon="6.60712">
        <ele>420.399994</ele>
        <time>2017-06-11T10:35:12Z</time>
      </trkpt>
      <trkpt lat="47.4742" lon="6.60713">
        <ele>420.399994</ele>
        <time>2017-06-11T10:35:16Z</time>
      </trkpt>
      <trkpt lat="47.47407" lon="6.60719">
        <ele>420.399994</ele>
        <time>2017-06-11T10:35:21Z</time>
      </trkpt>
      <trkpt lat="47.47399" lon="6.6073">
        <ele>420.399994</ele>
        <time>2017-06-11T10:35:25Z</time>
      </trkpt>
      <trkpt lat="47.47396" lon="6.60736">
        <ele>420.399994</ele>
        <time>2017-06-11T10:35:28Z</time>
      </trkpt>
      <trkpt lat="47.47376" lon="6.60751">
        <ele>420.399994</ele>
        <time>2017-06-11T10:35:35Z</time>
      </trkpt>
      <trkpt lat="47.47363" lon="6.60757">
        <ele>420.399994</ele>
        <time>2017-06-11T10:35:40Z</time>
      </trkpt>
      <trkpt lat="47.47352" lon="6.60768">
        <ele>420.399994</ele>
        <time>2017-06-11T10:35:45Z</time>
      </trkpt>
      <trkpt lat="47.47335" lon="6.60783">
        <ele>420.399994</ele>
        <time>2017-06-11T10:35:50Z</time>
      </trkpt>
      <trkpt lat="47.47315" lon="6.60791">
        <ele>420.399994</ele>
        <time>2017-06-11T10:35:56Z</time>
      </trkpt>
      <trkpt lat="47.47312" lon="6.60792">
        <ele>420</ele>
        <time>2017-06-11T10:35:57Z</time>
      </trkpt>
      <trkpt lat="47.47309" lon="6.60792">
        <ele>419.600006</ele>
        <time>2017-06-11T10:35:58Z</time>
      </trkpt>
      <trkpt lat="47.47306" lon="6.60794">
        <ele>419</ele>
        <time>2017-06-11T10:35:59Z</time>
      </trkpt>
      <trkpt lat="47.47301" lon="6.60797">
        <ele>418.200012</ele>
        <time>2017-06-11T10:36:00Z</time>
      </trkpt>
      <trkpt lat="47.47293" lon="6.60805">
        <ele>417.799988</ele>
        <time>2017-06-11T10:36:02Z</time>
      </trkpt>
      <trkpt lat="47.47288" lon="6.6081">
        <ele>417.399994</ele>
        <time>2017-06-11T10:36:03Z</time>
      </trkpt>
      <trkpt lat="47.47282" lon="6.60823">
        <ele>416.600006</ele>
        <time>2017-06-11T10:36:05Z</time>
      </trkpt>
      <trkpt lat="47.47279" lon="6.60831">
        <ele>416</ele>
        <time>2017-06-11T10:36:06Z</time>
      </trkpt>
      <trkpt lat="47.47276" lon="6.60839">
        <ele>415.399994</ele>
        <time>2017-06-11T10:36:07Z</time>
      </trkpt>
      <trkpt lat="47.47272" lon="6.60847">
        <ele>414.799988</ele>
        <time>2017-06-11T10:36:08Z</time>
      </trkpt>
      <trkpt lat="47.47268" lon="6.60853">
        <ele>414.399994</ele>
        <time>2017-06-11T10:36:09Z</time>
      </trkpt>
      <trkpt lat="47.47264" lon="6.60859">
        <ele>413.799988</ele>
        <time>2017-06-11T10:36:10Z</time>
      </trkpt>
      <trkpt lat="47.47254" lon="6.60868">
        <ele>412.799988</ele>
        <time>2017-06-11T10:36:12Z</time>
      </trkpt>
      <trkpt lat="47.47245" lon="6.60876">
        <ele>411.600006</ele>
        <time>2017-06-11T10:36:14Z</time>
      </trkpt>
      <trkpt lat="47.4724" lon="6.60879">
        <ele>411.600006</ele>
        <time>2017-06-11T10:36:15Z</time>
      </trkpt>
      <trkpt lat="47.47231" lon="6.60887">
        <ele>410.799988</ele>
        <time>2017-06-11T10:36:17Z</time>
      </trkpt>
      <trkpt lat="47.47227" lon="6.6089">
        <ele>410.200012</ele>
        <time>2017-06-11T10:36:18Z</time>
      </trkpt>
      <trkpt lat="47.47222" lon="6.60893">
        <ele>409.799988</ele>
        <time>2017-06-11T10:36:19Z</time>
      </trkpt>
      <trkpt lat="47.47207" lon="6.60899">
        <ele>409</ele>
        <time>2017-06-11T10:36:22Z</time>
      </trkpt>
      <trkpt lat="47.47203" lon="6.60902">
        <ele>408.600006</ele>
        <time>2017-06-11T10:36:23Z</time>
      </trkpt>
      <trkpt lat="47.47197" lon="6.60905">
        <ele>407.200012</ele>
        <time>2017-06-11T10:36:25Z</time>
      </trkpt>
      <trkpt lat="47.47194" lon="6.60907">
        <ele>407.200012</ele>
        <time>2017-06-11T10:36:26Z</time>
      </trkpt>
      <trkpt lat="47.47192" lon="6.60911">
        <ele>407.200012</ele>
        <time>2017-06-11T10:36:28Z</time>
      </trkpt>
      <trkpt lat="47.47192" lon="6.60913">
        <ele>407.200012</ele>
        <time>2017-06-11T10:36:30Z</time>
      </trkpt>
      <trkpt lat="47.47192" lon="6.60914">
        <ele>407.200012</ele>
        <time>2017-06-11T10:36:31Z</time>
      </trkpt>
      <trkpt lat="47.47191" lon="6.60913">
        <ele>407.200012</ele>
        <time>2017-06-11T10:36:33Z</time>
      </trkpt>
      <trkpt lat="47.47191" lon="6.60912">
        <ele>407.200012</ele>
        <time>2017-06-11T10:36:34Z</time>
      </trkpt>
      <trkpt lat="47.47194" lon="6.60908">
        <ele>407.200012</ele>
        <time>2017-06-11T10:36:39Z</time>
      </trkpt>
      <trkpt lat="47.47195" lon="6.60905">
        <ele>407.200012</ele>
        <time>2017-06-11T10:36:43Z</time>
      </trkpt>
      <trkpt lat="47.472" lon="6.6084">
        <ele>411.600006</ele>
        <time>2017-06-11T10:37:16Z</time>
      </trkpt>
      <trkpt lat="47.47198" lon="6.60831">
        <ele>412</ele>
        <time>2017-06-11T10:37:19Z</time>
      </trkpt>
      <trkpt lat="47.47194" lon="6.6082">
        <ele>413.799988</ele>
        <time>2017-06-11T10:37:23Z</time>
      </trkpt>
      <trkpt lat="47.47189" lon="6.60806">
        <ele>413.799988</ele>
        <time>2017-06-11T10:37:28Z</time>
      </trkpt>
      <trkpt lat="47.47186" lon="6.60795">
        <ele>413.799988</ele>
        <time>2017-06-11T10:37:33Z</time>
      </trkpt>
      <trkpt lat="47.47185" lon="6.60789">
        <ele>413.799988</ele>
        <time>2017-06-11T10:37:36Z</time>
      </trkpt>
      <trkpt lat="47.47178" lon="6.60777">
        <ele>413.799988</ele>
        <time>2017-06-11T10:37:41Z</time>
      </trkpt>
      <trkpt lat="47.47174" lon="6.60767">
        <ele>414.200012</ele>
        <time>2017-06-11T10:37:44Z</time>
      </trkpt>
      <trkpt lat="47.47173" lon="6.60764">
        <ele>414.600006</ele>
        <time>2017-06-11T10:37:45Z</time>
      </trkpt>
      <trkpt lat="47.47173" lon="6.60761">
        <ele>415</ele>
        <time>2017-06-11T10:37:46Z</time>
      </trkpt>
      <trkpt lat="47.47172" lon="6.60758">
        <ele>415.399994</ele>
        <time>2017-06-11T10:37:47Z</time>
      </trkpt>
      <trkpt lat="47.47165" lon="6.60745">
        <ele>415.799988</ele>
        <time>2017-06-11T10:37:51Z</time>
      </trkpt>
      <trkpt lat="47.47163" lon="6.60739">
        <ele>415.799988</ele>
        <time>2017-06-11T10:37:54Z</time>
      </trkpt>
      <trkpt lat="47.47161" lon="6.60731">
        <ele>416.200012</ele>
        <time>2017-06-11T10:37:57Z</time>
      </trkpt>
      <trkpt lat="47.47161" lon="6.6073">
        <ele>416.600006</ele>
        <time>2017-06-11T10:37:58Z</time>
      </trkpt>
      <trkpt lat="47.4716" lon="6.60728">
        <ele>417.200012</ele>
        <time>2017-06-11T10:37:59Z</time>
      </trkpt>
      <trkpt lat="47.47159" lon="6.60725">
        <ele>417.600006</ele>
        <time>2017-06-11T10:38:00Z</time>
      </trkpt>
      <trkpt lat="47.47156" lon="6.60719">
        <ele>418</ele>
        <time>2017-06-11T10:38:02Z</time>
      </trkpt>
      <trkpt lat="47.47148" lon="6.60702">
        <ele>418</ele>
        <time>2017-06-11T10:38:09Z</time>
      </trkpt>
      <trkpt lat="47.47133" lon="6.60656">
        <ele>418</ele>
        <time>2017-06-11T10:38:23Z</time>
      </trkpt>
      <trkpt lat="47.47133" lon="6.60655">
        <ele>418</ele>
        <time>2017-06-11T10:38:25Z</time>
      </trkpt>
      <trkpt lat="47.47133" lon="6.60657">
        <ele>418</ele>
        <time>2017-06-11T10:38:27Z</time>
      </trkpt>
      <trkpt lat="47.47135" lon="6.60667">
        <ele>418</ele>
        <time>2017-06-11T10:38:31Z</time>
      </trkpt>
      <trkpt lat="47.47138" lon="6.60674">
        <ele>418</ele>
        <time>2017-06-11T10:38:34Z</time>
      </trkpt>
      <trkpt lat="47.47139" lon="6.6068">
        <ele>418</ele>
        <time>2017-06-11T10:38:36Z</time>
      </trkpt>
      <trkpt lat="47.47141" lon="6.60682">
        <ele>418</ele>
        <time>2017-06-11T10:38:38Z</time>
      </trkpt>
      <trkpt lat="47.47143" lon="6.60685">
        <ele>418</ele>
        <time>2017-06-11T10:38:39Z</time>
      </trkpt>
      <trkpt lat="47.47143" lon="6.60687">
        <ele>418</ele>
        <time>2017-06-11T10:38:41Z</time>
      </trkpt>
      <trkpt lat="47.47133" lon="6.60695">
        <ele>418</ele>
        <time>2017-06-11T10:38:49Z</time>
      </trkpt>
      <trkpt lat="47.47115" lon="6.60707">
        <ele>418</ele>
        <time>2017-06-11T10:38:55Z</time>
      </trkpt>
      <trkpt lat="47.47106" lon="6.60712">
        <ele>417.600006</ele>
        <time>2017-06-11T10:38:58Z</time>
      </trkpt>
      <trkpt lat="47.47102" lon="6.60714">
        <ele>417</ele>
        <time>2017-06-11T10:38:59Z</time>
      </trkpt>
      <trkpt lat="47.47098" lon="6.60717">
        <ele>416.600006</ele>
        <time>2017-06-11T10:39:00Z</time>
      </trkpt>
      <trkpt lat="47.47094" lon="6.60721">
        <ele>416.200012</ele>
        <time>2017-06-11T10:39:01Z</time>
      </trkpt>
      <trkpt lat="47.4709" lon="6.60723">
        <ele>415.600006</ele>
        <time>2017-06-11T10:39:02Z</time>
      </trkpt>
      <trkpt lat="47.47079" lon="6.6073">
        <ele>415.200012</ele>
        <time>2017-06-11T10:39:05Z</time>
      </trkpt>
      <trkpt lat="47.47076" lon="6.60731">
        <ele>414.799988</ele>
        <time>2017-06-11T10:39:06Z</time>
      </trkpt>
      <trkpt lat="47.47073" lon="6.60733">
        <ele>414.399994</ele>
        <time>2017-06-11T10:39:07Z</time>
      </trkpt>
      <trkpt lat="47.47069" lon="6.60735">
        <ele>414</ele>
        <time>2017-06-11T10:39:08Z</time>
      </trkpt>
      <trkpt lat="47.47066" lon="6.60736">
        <ele>413.399994</ele>
        <time>2017-06-11T10:39:09Z</time>
      </trkpt>
      <trkpt lat="47.47061" lon="6.60737">
        <ele>413.399994</ele>
        <time>2017-06-11T10:39:11Z</time>
      </trkpt>
      <trkpt lat="47.47058" lon="6.60738">
        <ele>413</ele>
        <time>2017-06-11T10:39:12Z</time>
      </trkpt>
      <trkpt lat="47.47056" lon="6.60738">
        <ele>412.600006</ele>
        <time>2017-06-11T10:39:13Z</time>
      </trkpt>
      <trkpt lat="47.47055" lon="6.60737">
        <ele>412.200012</ele>
        <time>2017-06-11T10:39:14Z</time>
      </trkpt>
      <trkpt lat="47.47052" lon="6.60738">
        <ele>411.799988</ele>
        <time>2017-06-11T10:39:15Z</time>
      </trkpt>
      <trkpt lat="47.47049" lon="6.60737">
        <ele>411.399994</ele>
        <time>2017-06-11T10:39:16Z</time>
      </trkpt>
      <trkpt lat="47.47029" lon="6.60737">
        <ele>411.399994</ele>
        <time>2017-06-11T10:39:22Z</time>
      </trkpt>
      <trkpt lat="47.47004" lon="6.60744">
        <ele>411.399994</ele>
        <time>2017-06-11T10:39:28Z</time>
      </trkpt>
      <trkpt lat="47.46998" lon="6.60741">
        <ele>410.799988</ele>
        <time>2017-06-11T10:39:30Z</time>
      </trkpt>
      <trkpt lat="47.46995" lon="6.60741">
        <ele>410.399994</ele>
        <time>2017-06-11T10:39:31Z</time>
      </trkpt>
      <trkpt lat="47.46991" lon="6.60741">
        <ele>410</ele>
        <time>2017-06-11T10:39:32Z</time>
      </trkpt>
      <trkpt lat="47.46984" lon="6.60739">
        <ele>409.200012</ele>
        <time>2017-06-11T10:39:34Z</time>
      </trkpt>
      <trkpt lat="47.46968" lon="6.60728">
        <ele>409.200012</ele>
        <time>2017-06-11T10:39:39Z</time>
      </trkpt>
      <trkpt lat="47.46959" lon="6.60723">
        <ele>409.200012</ele>
        <time>2017-06-11T10:39:43Z</time>
      </trkpt>
      <trkpt lat="47.46944" lon="6.60714">
        <ele>409.200012</ele>
        <time>2017-06-11T10:39:49Z</time>
      </trkpt>
      <trkpt lat="47.46929" lon="6.60702">
        <ele>409.200012</ele>
        <time>2017-06-11T10:39:53Z</time>
      </trkpt>
      <trkpt lat="47.46911" lon="6.60684">
        <ele>409.200012</ele>
        <time>2017-06-11T10:39:58Z</time>
      </trkpt>
      <trkpt lat="47.46905" lon="6.6068">
        <ele>409.200012</ele>
        <time>2017-06-11T10:40:00Z</time>
      </trkpt>
      <trkpt lat="47.469" lon="6.60674">
        <ele>409.200012</ele>
        <time>2017-06-11T10:40:02Z</time>
      </trkpt>
      <trkpt lat="47.46894" lon="6.60664">
        <ele>409.200012</ele>
        <time>2017-06-11T10:40:05Z</time>
      </trkpt>
      <trkpt lat="47.46887" lon="6.60652">
        <ele>409.200012</ele>
        <time>2017-06-11T10:40:08Z</time>
      </trkpt>
      <trkpt lat="47.46869" lon="6.60631">
        <ele>409.200012</ele>
        <time>2017-06-11T10:40:14Z</time>
      </trkpt>
      <trkpt lat="47.46855" lon="6.60611">
        <ele>409.200012</ele>
        <time>2017-06-11T10:40:19Z</time>
      </trkpt>
      <trkpt lat="47.4684" lon="6.60597">
        <ele>409.200012</ele>
        <time>2017-06-11T10:40:23Z</time>
      </trkpt>
      <trkpt lat="47.46836" lon="6.60595">
        <ele>409.200012</ele>
        <time>2017-06-11T10:40:24Z</time>
      </trkpt>
      <trkpt lat="47.46821" lon="6.60588">
        <ele>409.200012</ele>
        <time>2017-06-11T10:40:27Z</time>
      </trkpt>
      <trkpt lat="47.46812" lon="6.60581">
        <ele>409.200012</ele>
        <time>2017-06-11T10:40:29Z</time>
      </trkpt>
      <trkpt lat="47.468" lon="6.6057">
        <ele>409.200012</ele>
        <time>2017-06-11T10:40:32Z</time>
      </trkpt>
      <trkpt lat="47.46789" lon="6.60557">
        <ele>409.200012</ele>
        <time>2017-06-11T10:40:36Z</time>
      </trkpt>
      <trkpt lat="47.46773" lon="6.60534">
        <ele>409.200012</ele>
        <time>2017-06-11T10:40:42Z</time>
      </trkpt>
      <trkpt lat="47.4676" lon="6.60524">
        <ele>409.200012</ele>
        <time>2017-06-11T10:40:47Z</time>
      </trkpt>
      <trkpt lat="47.46754" lon="6.60516">
        <ele>409.200012</ele>
        <time>2017-06-11T10:40:53Z</time>
      </trkpt>
      <trkpt lat="47.46753" lon="6.60514">
        <ele>409.200012</ele>
        <time>2017-06-11T10:40:54Z</time>
      </trkpt>
      <trkpt lat="47.46747" lon="6.60507">
        <ele>409.200012</ele>
        <time>2017-06-11T10:41:02Z</time>
      </trkpt>
      <trkpt lat="47.4674" lon="6.60501">
        <ele>409.200012</ele>
        <time>2017-06-11T10:41:53Z</time>
      </trkpt>
      <trkpt lat="47.46739" lon="6.60499">
        <ele>409.200012</ele>
        <time>2017-06-11T10:41:55Z</time>
      </trkpt>
      <trkpt lat="47.46737" lon="6.60497">
        <ele>409.200012</ele>
        <time>2017-06-11T10:41:56Z</time>
      </trkpt>
      <trkpt lat="47.46729" lon="6.60493">
        <ele>409.200012</ele>
        <time>2017-06-11T10:41:59Z</time>
      </trkpt>
      <trkpt lat="47.46727" lon="6.60479">
        <ele>409.200012</ele>
        <time>2017-06-11T10:42:04Z</time>
      </trkpt>
      <trkpt lat="47.46724" lon="6.6047">
        <ele>409.200012</ele>
        <time>2017-06-11T10:42:06Z</time>
      </trkpt>
      <trkpt lat="47.4672" lon="6.60457">
        <ele>409.200012</ele>
        <time>2017-06-11T10:42:10Z</time>
      </trkpt>
      <trkpt lat="47.46719" lon="6.60454">
        <ele>409.200012</ele>
        <time>2017-06-11T10:42:11Z</time>
      </trkpt>
      <trkpt lat="47.46718" lon="6.60448">
        <ele>410.200012</ele>
        <time>2017-06-11T10:42:13Z</time>
      </trkpt>
      <trkpt lat="47.46719" lon="6.60447">
        <ele>410.600006</ele>
        <time>2017-06-11T10:42:14Z</time>
      </trkpt>
      <trkpt lat="47.46718" lon="6.60444">
        <ele>411</ele>
        <time>2017-06-11T10:42:15Z</time>
      </trkpt>
      <trkpt lat="47.46717" lon="6.6044">
        <ele>411.600006</ele>
        <time>2017-06-11T10:42:16Z</time>
      </trkpt>
      <trkpt lat="47.46715" lon="6.60411">
        <ele>411.600006</ele>
        <time>2017-06-11T10:42:25Z</time>
      </trkpt>
      <trkpt lat="47.46716" lon="6.60403">
        <ele>412.399994</ele>
        <time>2017-06-11T10:42:27Z</time>
      </trkpt>
      <trkpt lat="47.46716" lon="6.60395">
        <ele>413.200012</ele>
        <time>2017-06-11T10:42:29Z</time>
      </trkpt>
      <trkpt lat="47.46717" lon="6.60393">
        <ele>413.799988</ele>
        <time>2017-06-11T10:42:30Z</time>
      </trkpt>
      <trkpt lat="47.46717" lon="6.60382">
        <ele>413.799988</ele>
        <time>2017-06-11T10:42:33Z</time>
      </trkpt>
      <trkpt lat="47.4672" lon="6.60369">
        <ele>413.799988</ele>
        <time>2017-06-11T10:42:37Z</time>
      </trkpt>
      <trkpt lat="47.46727" lon="6.60354">
        <ele>413.799988</ele>
        <time>2017-06-11T10:42:42Z</time>
      </trkpt>
      <trkpt lat="47.46732" lon="6.60333">
        <ele>413.799988</ele>
        <time>2017-06-11T10:42:47Z</time>
      </trkpt>
      <trkpt lat="47.46734" lon="6.60321">
        <ele>413.799988</ele>
        <time>2017-06-11T10:42:50Z</time>
      </trkpt>
      <trkpt lat="47.46736" lon="6.60312">
        <ele>413.799988</ele>
        <time>2017-06-11T10:42:52Z</time>
      </trkpt>
      <trkpt lat="47.46742" lon="6.60297">
        <ele>414.200012</ele>
        <time>2017-06-11T10:42:56Z</time>
      </trkpt>
      <trkpt lat="47.46748" lon="6.60294">
        <ele>415</ele>
        <time>2017-06-11T10:42:58Z</time>
      </trkpt>
      <trkpt lat="47.4675" lon="6.60292">
        <ele>415.399994</ele>
        <time>2017-06-11T10:42:59Z</time>
      </trkpt>
      <trkpt lat="47.46758" lon="6.60283">
        <ele>415.799988</ele>
        <time>2017-06-11T10:43:03Z</time>
      </trkpt>
      <trkpt lat="47.46773" lon="6.60275">
        <ele>415.799988</ele>
        <time>2017-06-11T10:43:09Z</time>
      </trkpt>
      <trkpt lat="47.46789" lon="6.60262">
        <ele>415.799988</ele>
        <time>2017-06-11T10:43:14Z</time>
      </trkpt>
      <trkpt lat="47.46796" lon="6.60249">
        <ele>415.799988</ele>
        <time>2017-06-11T10:43:18Z</time>
      </trkpt>
      <trkpt lat="47.46796" lon="6.60246">
        <ele>415.799988</ele>
        <time>2017-06-11T10:43:19Z</time>
      </trkpt>
      <trkpt lat="47.46799" lon="6.60225">
        <ele>415.799988</ele>
        <time>2017-06-11T10:43:24Z</time>
      </trkpt>
      <trkpt lat="47.46813" lon="6.60175">
        <ele>415.799988</ele>
        <time>2017-06-11T10:43:35Z</time>
      </trkpt>
      <trkpt lat="47.46815" lon="6.60171">
        <ele>415.799988</ele>
        <time>2017-06-11T10:43:36Z</time>
      </trkpt>
      <trkpt lat="47.46819" lon="6.60151">
        <ele>415.799988</ele>
        <time>2017-06-11T10:43:40Z</time>
      </trkpt>
      <trkpt lat="47.46824" lon="6.60124">
        <ele>415.799988</ele>
        <time>2017-06-11T10:43:45Z</time>
      </trkpt>
      <trkpt lat="47.46824" lon="6.60118">
        <ele>415.399994</ele>
        <time>2017-06-11T10:43:46Z</time>
      </trkpt>
      <trkpt lat="47.46825" lon="6.60097">
        <ele>414.200012</ele>
        <time>2017-06-11T10:43:49Z</time>
      </trkpt>
      <trkpt lat="47.46825" lon="6.6009">
        <ele>413.799988</ele>
        <time>2017-06-11T10:43:50Z</time>
      </trkpt>
      <trkpt lat="47.46819" lon="6.60034">
        <ele>412.799988</ele>
        <time>2017-06-11T10:43:58Z</time>
      </trkpt>
      <trkpt lat="47.46818" lon="6.60027">
        <ele>412.399994</ele>
        <time>2017-06-11T10:43:59Z</time>
      </trkpt>
      <trkpt lat="47.46816" lon="6.60014">
        <ele>411.600006</ele>
        <time>2017-06-11T10:44:01Z</time>
      </trkpt>
      <trkpt lat="47.46816" lon="6.60007">
        <ele>411.600006</ele>
        <time>2017-06-11T10:44:02Z</time>
      </trkpt>
      <trkpt lat="47.46819" lon="6.59978">
        <ele>411.600006</ele>
        <time>2017-06-11T10:44:06Z</time>
      </trkpt>
      <trkpt lat="47.4682" lon="6.59972">
        <ele>411.200012</ele>
        <time>2017-06-11T10:44:07Z</time>
      </trkpt>
      <trkpt lat="47.46821" lon="6.59957">
        <ele>410.399994</ele>
        <time>2017-06-11T10:44:09Z</time>
      </trkpt>
      <trkpt lat="47.46822" lon="6.59948">
        <ele>409.799988</ele>
        <time>2017-06-11T10:44:10Z</time>
      </trkpt>
      <trkpt lat="47.46824" lon="6.59922">
        <ele>409.399994</ele>
        <time>2017-06-11T10:44:13Z</time>
      </trkpt>
      <trkpt lat="47.46827" lon="6.59905">
        <ele>408.600006</ele>
        <time>2017-06-11T10:44:15Z</time>
      </trkpt>
      <trkpt lat="47.46828" lon="6.5989">
        <ele>407.399994</ele>
        <time>2017-06-11T10:44:17Z</time>
      </trkpt>
      <trkpt lat="47.46829" lon="6.5988">
        <ele>407.399994</ele>
        <time>2017-06-11T10:44:19Z</time>
      </trkpt>
      <trkpt lat="47.46824" lon="6.5988">
        <ele>407.399994</ele>
        <time>2017-06-11T10:44:22Z</time>
      </trkpt>
      <trkpt lat="47.4682" lon="6.59881">
        <ele>407.399994</ele>
        <time>2017-06-11T10:44:24Z</time>
      </trkpt>
      <trkpt lat="47.46814" lon="6.59882">
        <ele>407.399994</ele>
        <time>2017-06-11T10:44:27Z</time>
      </trkpt>
      <trkpt lat="47.468" lon="6.5988">
        <ele>407.399994</ele>
        <time>2017-06-11T10:44:32Z</time>
      </trkpt>
      <trkpt lat="47.4679" lon="6.59881">
        <ele>407</ele>
        <time>2017-06-11T10:44:35Z</time>
      </trkpt>
      <trkpt lat="47.46786" lon="6.59885">
        <ele>406</ele>
        <time>2017-06-11T10:44:37Z</time>
      </trkpt>
      <trkpt lat="47.46781" lon="6.59887">
        <ele>405.200012</ele>
        <time>2017-06-11T10:44:39Z</time>
      </trkpt>
      <trkpt lat="47.4677" lon="6.59887">
        <ele>405.200012</ele>
        <time>2017-06-11T10:44:42Z</time>
      </trkpt>
      <trkpt lat="47.46755" lon="6.59889">
        <ele>405.200012</ele>
        <time>2017-06-11T10:44:47Z</time>
      </trkpt>
      <trkpt lat="47.4674" lon="6.5989">
        <ele>405.200012</ele>
        <time>2017-06-11T10:44:51Z</time>
      </trkpt>
      <trkpt lat="47.46719" lon="6.59882">
        <ele>405.200012</ele>
        <time>2017-06-11T10:44:57Z</time>
      </trkpt>
      <trkpt lat="47.46704" lon="6.59874">
        <ele>405.200012</ele>
        <time>2017-06-11T10:45:02Z</time>
      </trkpt>
      <trkpt lat="47.4669" lon="6.59861">
        <ele>405.200012</ele>
        <time>2017-06-11T10:45:07Z</time>
      </trkpt>
      <trkpt lat="47.46685" lon="6.59856">
        <ele>404.799988</ele>
        <time>2017-06-11T10:45:09Z</time>
      </trkpt>
      <trkpt lat="47.46683" lon="6.59852">
        <ele>404.399994</ele>
        <time>2017-06-11T10:45:10Z</time>
      </trkpt>
      <trkpt lat="47.46681" lon="6.59846">
        <ele>403.399994</ele>
        <time>2017-06-11T10:45:12Z</time>
      </trkpt>
      <trkpt lat="47.4668" lon="6.59844">
        <ele>403</ele>
        <time>2017-06-11T10:45:13Z</time>
      </trkpt>
      <trkpt lat="47.46678" lon="6.5983">
        <ele>403</ele>
        <time>2017-06-11T10:45:18Z</time>
      </trkpt>
      <trkpt lat="47.46677" lon="6.5983">
        <ele>403</ele>
        <time>2017-06-11T10:45:19Z</time>
      </trkpt>
      <trkpt lat="47.46678" lon="6.59827">
        <ele>403</ele>
        <time>2017-06-11T10:45:21Z</time>
      </trkpt>
      <trkpt lat="47.4668" lon="6.59822">
        <ele>403</ele>
        <time>2017-06-11T10:45:23Z</time>
      </trkpt>
      <trkpt lat="47.46682" lon="6.59817">
        <ele>403</ele>
        <time>2017-06-11T10:45:25Z</time>
      </trkpt>
      <trkpt lat="47.46681" lon="6.59807">
        <ele>403</ele>
        <time>2017-06-11T10:45:27Z</time>
      </trkpt>
      <trkpt lat="47.46687" lon="6.59794">
        <ele>403</ele>
        <time>2017-06-11T10:45:33Z</time>
      </trkpt>
      <trkpt lat="47.4669" lon="6.59779">
        <ele>403</ele>
        <time>2017-06-11T10:45:38Z</time>
      </trkpt>
      <trkpt lat="47.46698" lon="6.59768">
        <ele>403</ele>
        <time>2017-06-11T10:45:43Z</time>
      </trkpt>
      <trkpt lat="47.46705" lon="6.59759">
        <ele>403</ele>
        <time>2017-06-11T10:45:49Z</time>
      </trkpt>
      <trkpt lat="47.46717" lon="6.59753">
        <ele>403</ele>
        <time>2017-06-11T10:45:55Z</time>
      </trkpt>
      <trkpt lat="47.46718" lon="6.59751">
        <ele>403</ele>
        <time>2017-06-11T10:45:56Z</time>
      </trkpt>
      <trkpt lat="47.46726" lon="6.59748">
        <ele>403</ele>
        <time>2017-06-11T10:46:00Z</time>
      </trkpt>
      <trkpt lat="47.46729" lon="6.59743">
        <ele>403</ele>
        <time>2017-06-11T10:46:02Z</time>
      </trkpt>
      <trkpt lat="47.46727" lon="6.59742">
        <ele>403</ele>
        <time>2017-06-11T10:46:04Z</time>
      </trkpt>
      <trkpt lat="47.46722" lon="6.59742">
        <ele>403.399994</ele>
        <time>2017-06-11T10:46:08Z</time>
      </trkpt>
      <trkpt lat="47.4672" lon="6.59741">
        <ele>404.600006</ele>
        <time>2017-06-11T10:46:11Z</time>
      </trkpt>
      <trkpt lat="47.46719" lon="6.59742">
        <ele>405</ele>
        <time>2017-06-11T10:46:12Z</time>
      </trkpt>
      <trkpt lat="47.46717" lon="6.59739">
        <ele>405</ele>
        <time>2017-06-11T10:46:15Z</time>
      </trkpt>
      <trkpt lat="47.46716" lon="6.5974">
        <ele>405</ele>
        <time>2017-06-11T10:46:16Z</time>
      </trkpt>
      <trkpt lat="47.46711" lon="6.5974">
        <ele>405</ele>
        <time>2017-06-11T10:46:20Z</time>
      </trkpt>
      <trkpt lat="47.4671" lon="6.59739">
        <ele>405</ele>
        <time>2017-06-11T10:46:21Z</time>
      </trkpt>
      <trkpt lat="47.46704" lon="6.59737">
        <ele>405</ele>
        <time>2017-06-11T10:46:26Z</time>
      </trkpt>
      <trkpt lat="47.46704" lon="6.59735">
        <ele>405</ele>
        <time>2017-06-11T10:46:27Z</time>
      </trkpt>
      <trkpt lat="47.46699" lon="6.59733">
        <ele>405</ele>
        <time>2017-06-11T10:46:31Z</time>
      </trkpt>
      <trkpt lat="47.46699" lon="6.59732">
        <ele>405</ele>
        <time>2017-06-11T10:46:32Z</time>
      </trkpt>
      <trkpt lat="47.46692" lon="6.59731">
        <ele>405</ele>
        <time>2017-06-11T10:46:39Z</time>
      </trkpt>
      <trkpt lat="47.46692" lon="6.59732">
        <ele>405.399994</ele>
        <time>2017-06-11T10:46:41Z</time>
      </trkpt>
      <trkpt lat="47.46691" lon="6.59734">
        <ele>407</ele>
        <time>2017-06-11T10:46:54Z</time>
      </trkpt>
      <trkpt lat="47.4669" lon="6.59735">
        <ele>407</ele>
        <time>2017-06-11T10:46:55Z</time>
      </trkpt>
      <trkpt lat="47.46686" lon="6.59743">
        <ele>407</ele>
        <time>2017-06-11T10:46:59Z</time>
      </trkpt>
      <trkpt lat="47.46681" lon="6.59755">
        <ele>407</ele>
        <time>2017-06-11T10:47:04Z</time>
      </trkpt>
      <trkpt lat="47.46673" lon="6.59763">
        <ele>407.399994</ele>
        <time>2017-06-11T10:47:08Z</time>
      </trkpt>
      <trkpt lat="47.46672" lon="6.59767">
        <ele>408.200012</ele>
        <time>2017-06-11T10:47:09Z</time>
      </trkpt>
      <trkpt lat="47.46671" lon="6.59768">
        <ele>408.600006</ele>
        <time>2017-06-11T10:47:10Z</time>
      </trkpt>
      <trkpt lat="47.46669" lon="6.59772">
        <ele>409</ele>
        <time>2017-06-11T10:47:11Z</time>
      </trkpt>
      <trkpt lat="47.46665" lon="6.59775">
        <ele>409</ele>
        <time>2017-06-11T10:47:13Z</time>
      </trkpt>
      <trkpt lat="47.46653" lon="6.59776">
        <ele>409</ele>
        <time>2017-06-11T10:47:18Z</time>
      </trkpt>
      <trkpt lat="47.46639" lon="6.59775">
        <ele>409</ele>
        <time>2017-06-11T10:47:23Z</time>
      </trkpt>
      <trkpt lat="47.46622" lon="6.59777">
        <ele>409</ele>
        <time>2017-06-11T10:47:31Z</time>
      </trkpt>
      <trkpt lat="47.46614" lon="6.59783">
        <ele>409</ele>
        <time>2017-06-11T10:47:35Z</time>
      </trkpt>
      <trkpt lat="47.46609" lon="6.59787">
        <ele>409</ele>
        <time>2017-06-11T10:47:37Z</time>
      </trkpt>
      <trkpt lat="47.46606" lon="6.5979">
        <ele>408.600006</ele>
        <time>2017-06-11T10:47:39Z</time>
      </trkpt>
      <trkpt lat="47.46603" lon="6.5979">
        <ele>408.200012</ele>
        <time>2017-06-11T10:47:40Z</time>
      </trkpt>
      <trkpt lat="47.46591" lon="6.59793">
        <ele>407</ele>
        <time>2017-06-11T10:47:43Z</time>
      </trkpt>
      <trkpt lat="47.46575" lon="6.59798">
        <ele>407</ele>
        <time>2017-06-11T10:47:47Z</time>
      </trkpt>
      <trkpt lat="47.4657" lon="6.59799">
        <ele>406</ele>
        <time>2017-06-11T10:47:49Z</time>
      </trkpt>
      <trkpt lat="47.46568" lon="6.59802">
        <ele>405.600006</ele>
        <time>2017-06-11T10:47:50Z</time>
      </trkpt>
      <trkpt lat="47.46566" lon="6.59802">
        <ele>405.200012</ele>
        <time>2017-06-11T10:47:51Z</time>
      </trkpt>
      <trkpt lat="47.46562" lon="6.59802">
        <ele>404.799988</ele>
        <time>2017-06-11T10:47:52Z</time>
      </trkpt>
      <trkpt lat="47.46556" lon="6.5981">
        <ele>404.799988</ele>
        <time>2017-06-11T10:47:55Z</time>
      </trkpt>
      <trkpt lat="47.46551" lon="6.59815">
        <ele>404</ele>
        <time>2017-06-11T10:47:57Z</time>
      </trkpt>
      <trkpt lat="47.46546" lon="6.59817">
        <ele>402.600006</ele>
        <time>2017-06-11T10:47:59Z</time>
      </trkpt>
      <trkpt lat="47.46544" lon="6.59819">
        <ele>402.600006</ele>
        <time>2017-06-11T10:48:00Z</time>
      </trkpt>
      <trkpt lat="47.46535" lon="6.59824">
        <ele>402.200012</ele>
        <time>2017-06-11T10:48:03Z</time>
      </trkpt>
      <trkpt lat="47.46533" lon="6.59828">
        <ele>401.799988</ele>
        <time>2017-06-11T10:48:04Z</time>
      </trkpt>
      <trkpt lat="47.46529" lon="6.59832">
        <ele>401</ele>
        <time>2017-06-11T10:48:06Z</time>
      </trkpt>
      <trkpt lat="47.46525" lon="6.59837">
        <ele>400.600006</ele>
        <time>2017-06-11T10:48:08Z</time>
      </trkpt>
      <trkpt lat="47.46519" lon="6.59839">
        <ele>400.600006</ele>
        <time>2017-06-11T10:48:10Z</time>
      </trkpt>
      <trkpt lat="47.46515" lon="6.59839">
        <ele>400.600006</ele>
        <time>2017-06-11T10:48:12Z</time>
      </trkpt>
      <trkpt lat="47.46506" lon="6.59846">
        <ele>399.200012</ele>
        <time>2017-06-11T10:48:15Z</time>
      </trkpt>
      <trkpt lat="47.46504" lon="6.59849">
        <ele>398.799988</ele>
        <time>2017-06-11T10:48:16Z</time>
      </trkpt>
      <trkpt lat="47.46502" lon="6.59852">
        <ele>398.399994</ele>
        <time>2017-06-11T10:48:17Z</time>
      </trkpt>
      <trkpt lat="47.465" lon="6.59859">
        <ele>398.399994</ele>
        <time>2017-06-11T10:48:19Z</time>
      </trkpt>
      <trkpt lat="47.46494" lon="6.59863">
        <ele>398.399994</ele>
        <time>2017-06-11T10:48:21Z</time>
      </trkpt>
      <trkpt lat="47.4649" lon="6.59865">
        <ele>398</ele>
        <time>2017-06-11T10:48:22Z</time>
      </trkpt>
      <trkpt lat="47.46488" lon="6.59864">
        <ele>397</ele>
        <time>2017-06-11T10:48:23Z</time>
      </trkpt>
      <trkpt lat="47.46486" lon="6.59863">
        <ele>396.600006</ele>
        <time>2017-06-11T10:48:24Z</time>
      </trkpt>
      <trkpt lat="47.46485" lon="6.59863">
        <ele>396.200012</ele>
        <time>2017-06-11T10:48:25Z</time>
      </trkpt>
      <trkpt lat="47.46477" lon="6.59872">
        <ele>396.200012</ele>
        <time>2017-06-11T10:48:28Z</time>
      </trkpt>
      <trkpt lat="47.46475" lon="6.59874">
        <ele>395.799988</ele>
        <time>2017-06-11T10:48:29Z</time>
      </trkpt>
      <trkpt lat="47.46472" lon="6.59874">
        <ele>395.200012</ele>
        <time>2017-06-11T10:48:30Z</time>
      </trkpt>
      <trkpt lat="47.4647" lon="6.59876">
        <ele>394.799988</ele>
        <time>2017-06-11T10:48:31Z</time>
      </trkpt>
      <trkpt lat="47.46468" lon="6.59877">
        <ele>394.399994</ele>
        <time>2017-06-11T10:48:32Z</time>
      </trkpt>
      <trkpt lat="47.46467" lon="6.59878">
        <ele>394</ele>
        <time>2017-06-11T10:48:33Z</time>
      </trkpt>
      <trkpt lat="47.46465" lon="6.59877">
        <ele>394</ele>
        <time>2017-06-11T10:48:34Z</time>
      </trkpt>
      <trkpt lat="47.46461" lon="6.59881">
        <ele>393.600006</ele>
        <time>2017-06-11T10:48:36Z</time>
      </trkpt>
      <trkpt lat="47.46454" lon="6.59886">
        <ele>392.799988</ele>
        <time>2017-06-11T10:48:38Z</time>
      </trkpt>
      <trkpt lat="47.46447" lon="6.59891">
        <ele>391.799988</ele>
        <time>2017-06-11T10:48:40Z</time>
      </trkpt>
      <trkpt lat="47.46438" lon="6.59892">
        <ele>390.600006</ele>
        <time>2017-06-11T10:48:43Z</time>
      </trkpt>
      <trkpt lat="47.46436" lon="6.59893">
        <ele>390.200012</ele>
        <time>2017-06-11T10:48:44Z</time>
      </trkpt>
      <trkpt lat="47.46433" lon="6.59895">
        <ele>389.799988</ele>
        <time>2017-06-11T10:48:45Z</time>
      </trkpt>
      <trkpt lat="47.46426" lon="6.59903">
        <ele>389</ele>
        <time>2017-06-11T10:48:48Z</time>
      </trkpt>
      <trkpt lat="47.46425" lon="6.59905">
        <ele>388.600006</ele>
        <time>2017-06-11T10:48:49Z</time>
      </trkpt>
      <trkpt lat="47.46424" lon="6.59908">
        <ele>388.200012</ele>
        <time>2017-06-11T10:48:50Z</time>
      </trkpt>
      <trkpt lat="47.46423" lon="6.59912">
        <ele>387.799988</ele>
        <time>2017-06-11T10:48:51Z</time>
      </trkpt>
      <trkpt lat="47.46417" lon="6.59913">
        <ele>386.799988</ele>
        <time>2017-06-11T10:48:54Z</time>
      </trkpt>
      <trkpt lat="47.46414" lon="6.59917">
        <ele>386</ele>
        <time>2017-06-11T10:48:56Z</time>
      </trkpt>
      <trkpt lat="47.46411" lon="6.59919">
        <ele>385.600006</ele>
        <time>2017-06-11T10:48:57Z</time>
      </trkpt>
      <trkpt lat="47.46408" lon="6.59922">
        <ele>385.600006</ele>
        <time>2017-06-11T10:48:58Z</time>
      </trkpt>
      <trkpt lat="47.46406" lon="6.59922">
        <ele>385.600006</ele>
        <time>2017-06-11T10:48:59Z</time>
      </trkpt>
      <trkpt lat="47.46395" lon="6.59925">
        <ele>385.600006</ele>
        <time>2017-06-11T10:49:06Z</time>
      </trkpt>
      <trkpt lat="47.46391" lon="6.59932">
        <ele>385.600006</ele>
        <time>2017-06-11T10:50:53Z</time>
      </trkpt>
      <trkpt lat="47.46389" lon="6.5994">
        <ele>385.600006</ele>
        <time>2017-06-11T10:50:55Z</time>
      </trkpt>
      <trkpt lat="47.46384" lon="6.59946">
        <ele>385.600006</ele>
        <time>2017-06-11T10:50:58Z</time>
      </trkpt>
      <trkpt lat="47.46377" lon="6.59953">
        <ele>384.200012</ele>
        <time>2017-06-11T10:51:01Z</time>
      </trkpt>
      <trkpt lat="47.46377" lon="6.59956">
        <ele>383.799988</ele>
        <time>2017-06-11T10:51:02Z</time>
      </trkpt>
      <trkpt lat="47.46375" lon="6.59958">
        <ele>383.200012</ele>
        <time>2017-06-11T10:51:03Z</time>
      </trkpt>
      <trkpt lat="47.46371" lon="6.59957">
        <ele>383.200012</ele>
        <time>2017-06-11T10:51:04Z</time>
      </trkpt>
      <trkpt lat="47.46364" lon="6.59961">
        <ele>383.200012</ele>
        <time>2017-06-11T10:51:08Z</time>
      </trkpt>
      <trkpt lat="47.46359" lon="6.59964">
        <ele>382.399994</ele>
        <time>2017-06-11T10:51:10Z</time>
      </trkpt>
      <trkpt lat="47.46355" lon="6.59965">
        <ele>381.399994</ele>
        <time>2017-06-11T10:51:12Z</time>
      </trkpt>
      <trkpt lat="47.46341" lon="6.59972">
        <ele>380.600006</ele>
        <time>2017-06-11T10:51:16Z</time>
      </trkpt>
      <trkpt lat="47.46335" lon="6.59974">
        <ele>379.200012</ele>
        <time>2017-06-11T10:51:18Z</time>
      </trkpt>
      <trkpt lat="47.46333" lon="6.59975">
        <ele>378.600006</ele>
        <time>2017-06-11T10:51:19Z</time>
      </trkpt>
      <trkpt lat="47.4633" lon="6.59976">
        <ele>378.200012</ele>
        <time>2017-06-11T10:51:20Z</time>
      </trkpt>
      <trkpt lat="47.46316" lon="6.59985">
        <ele>376</ele>
        <time>2017-06-11T10:51:24Z</time>
      </trkpt>
      <trkpt lat="47.46313" lon="6.59986">
        <ele>375.399994</ele>
        <time>2017-06-11T10:51:25Z</time>
      </trkpt>
      <trkpt lat="47.46309" lon="6.59987">
        <ele>374.200012</ele>
        <time>2017-06-11T10:51:27Z</time>
      </trkpt>
      <trkpt lat="47.46296" lon="6.59995">
        <ele>373</ele>
        <time>2017-06-11T10:51:32Z</time>
      </trkpt>
      <trkpt lat="47.46293" lon="6.59997">
        <ele>372.399994</ele>
        <time>2017-06-11T10:51:33Z</time>
      </trkpt>
      <trkpt lat="47.46283" lon="6.60003">
        <ele>371.600006</ele>
        <time>2017-06-11T10:51:36Z</time>
      </trkpt>
      <trkpt lat="47.46276" lon="6.6001">
        <ele>370.399994</ele>
        <time>2017-06-11T10:51:39Z</time>
      </trkpt>
      <trkpt lat="47.46267" lon="6.60016">
        <ele>369.600006</ele>
        <time>2017-06-11T10:51:42Z</time>
      </trkpt>
      <trkpt lat="47.46259" lon="6.60017">
        <ele>367.600006</ele>
        <time>2017-06-11T10:51:45Z</time>
      </trkpt>
      <trkpt lat="47.46253" lon="6.6002">
        <ele>366.600006</ele>
        <time>2017-06-11T10:51:47Z</time>
      </trkpt>
      <trkpt lat="47.46247" lon="6.60023">
        <ele>365.600006</ele>
        <time>2017-06-11T10:51:50Z</time>
      </trkpt>
      <trkpt lat="47.46241" lon="6.60027">
        <ele>364.600006</ele>
        <time>2017-06-11T10:51:52Z</time>
      </trkpt>
      <trkpt lat="47.46235" lon="6.6003">
        <ele>363.600006</ele>
        <time>2017-06-11T10:51:54Z</time>
      </trkpt>
      <trkpt lat="47.46231" lon="6.60032">
        <ele>363</ele>
        <time>2017-06-11T10:51:55Z</time>
      </trkpt>
      <trkpt lat="47.46214" lon="6.60041">
        <ele>360.399994</ele>
        <time>2017-06-11T10:52:00Z</time>
      </trkpt>
      <trkpt lat="47.46206" lon="6.60044">
        <ele>359.200012</ele>
        <time>2017-06-11T10:52:02Z</time>
      </trkpt>
      <trkpt lat="47.46199" lon="6.60047">
        <ele>357.799988</ele>
        <time>2017-06-11T10:52:04Z</time>
      </trkpt>
      <trkpt lat="47.46195" lon="6.60049">
        <ele>357.200012</ele>
        <time>2017-06-11T10:52:05Z</time>
      </trkpt>
      <trkpt lat="47.46185" lon="6.60056">
        <ele>354.600006</ele>
        <time>2017-06-11T10:52:08Z</time>
      </trkpt>
      <trkpt lat="47.46182" lon="6.60058">
        <ele>354</ele>
        <time>2017-06-11T10:52:09Z</time>
      </trkpt>
      <trkpt lat="47.46177" lon="6.60058">
        <ele>352.799988</ele>
        <time>2017-06-11T10:52:11Z</time>
      </trkpt>
      <trkpt lat="47.46176" lon="6.60058">
        <ele>352</ele>
        <time>2017-06-11T10:52:12Z</time>
      </trkpt>
      <trkpt lat="47.46174" lon="6.60054">
        <ele>351.399994</ele>
        <time>2017-06-11T10:52:14Z</time>
      </trkpt>
      <trkpt lat="47.46173" lon="6.60052">
        <ele>351.399994</ele>
        <time>2017-06-11T10:52:15Z</time>
      </trkpt>
      <trkpt lat="47.46172" lon="6.60045">
        <ele>351.399994</ele>
        <time>2017-06-11T10:52:18Z</time>
      </trkpt>
      <trkpt lat="47.4617" lon="6.60039">
        <ele>351.399994</ele>
        <time>2017-06-11T10:52:20Z</time>
      </trkpt>
      <trkpt lat="47.46168" lon="6.60029">
        <ele>351.399994</ele>
        <time>2017-06-11T10:52:23Z</time>
      </trkpt>
      <trkpt lat="47.46166" lon="6.60009">
        <ele>351.399994</ele>
        <time>2017-06-11T10:52:30Z</time>
      </trkpt>
      <trkpt lat="47.46162" lon="6.59989">
        <ele>351.399994</ele>
        <time>2017-06-11T10:52:36Z</time>
      </trkpt>
      <trkpt lat="47.46153" lon="6.59973">
        <ele>351.399994</ele>
        <time>2017-06-11T10:52:42Z</time>
      </trkpt>
      <trkpt lat="47.4615" lon="6.59958">
        <ele>351</ele>
        <time>2017-06-11T10:52:46Z</time>
      </trkpt>
      <trkpt lat="47.46148" lon="6.59954">
        <ele>350.200012</ele>
        <time>2017-06-11T10:52:48Z</time>
      </trkpt>
      <trkpt lat="47.46147" lon="6.59953">
        <ele>349.799988</ele>
        <time>2017-06-11T10:52:49Z</time>
      </trkpt>
      <trkpt lat="47.46144" lon="6.59951">
        <ele>349.399994</ele>
        <time>2017-06-11T10:52:51Z</time>
      </trkpt>
      <trkpt lat="47.46141" lon="6.59946">
        <ele>349.399994</ele>
        <time>2017-06-11T10:52:54Z</time>
      </trkpt>
      <trkpt lat="47.46141" lon="6.59944">
        <ele>349</ele>
        <time>2017-06-11T10:52:55Z</time>
      </trkpt>
      <trkpt lat="47.46142" lon="6.59941">
        <ele>347.799988</ele>
        <time>2017-06-11T10:52:57Z</time>
      </trkpt>
      <trkpt lat="47.46146" lon="6.59916">
        <ele>347.200012</ele>
        <time>2017-06-11T10:53:08Z</time>
      </trkpt>
      <trkpt lat="47.46146" lon="6.59908">
        <ele>347.600006</ele>
        <time>2017-06-11T10:53:11Z</time>
      </trkpt>
      <trkpt lat="47.46145" lon="6.59903">
        <ele>348.600006</ele>
        <time>2017-06-11T10:53:13Z</time>
      </trkpt>
      <trkpt lat="47.46145" lon="6.59902">
        <ele>349.399994</ele>
        <time>2017-06-11T10:53:15Z</time>
      </trkpt>
      <trkpt lat="47.46145" lon="6.59879">
        <ele>349.399994</ele>
        <time>2017-06-11T10:53:25Z</time>
      </trkpt>
      <trkpt lat="47.46146" lon="6.59875">
        <ele>349.399994</ele>
        <time>2017-06-11T10:53:26Z</time>
      </trkpt>
      <trkpt lat="47.4615" lon="6.59867">
        <ele>349.399994</ele>
        <time>2017-06-11T10:53:30Z</time>
      </trkpt>
      <trkpt lat="47.46154" lon="6.59856">
        <ele>349.399994</ele>
        <time>2017-06-11T10:53:35Z</time>
      </trkpt>
      <trkpt lat="47.46154" lon="6.59848">
        <ele>348.799988</ele>
        <time>2017-06-11T10:53:37Z</time>
      </trkpt>
      <trkpt lat="47.46151" lon="6.59838">
        <ele>347</ele>
        <time>2017-06-11T10:53:40Z</time>
      </trkpt>
      <trkpt lat="47.46151" lon="6.59835">
        <ele>346.399994</ele>
        <time>2017-06-11T10:53:41Z</time>
      </trkpt>
      <trkpt lat="47.46147" lon="6.59827">
        <ele>344.200012</ele>
        <time>2017-06-11T10:53:44Z</time>
      </trkpt>
      <trkpt lat="47.46145" lon="6.59825">
        <ele>343.600006</ele>
        <time>2017-06-11T10:53:45Z</time>
      </trkpt>
      <trkpt lat="47.46141" lon="6.59819">
        <ele>341.399994</ele>
        <time>2017-06-11T10:53:48Z</time>
      </trkpt>
      <trkpt lat="47.46137" lon="6.59812">
        <ele>340</ele>
        <time>2017-06-11T10:53:51Z</time>
      </trkpt>
      <trkpt lat="47.46133" lon="6.59806">
        <ele>338.399994</ele>
        <time>2017-06-11T10:53:54Z</time>
      </trkpt>
      <trkpt lat="47.46121" lon="6.59795">
        <ele>336.399994</ele>
        <time>2017-06-11T10:54:02Z</time>
      </trkpt>
      <trkpt lat="47.4612" lon="6.59793">
        <ele>335.799988</ele>
        <time>2017-06-11T10:54:03Z</time>
      </trkpt>
      <trkpt lat="47.4612" lon="6.59791">
        <ele>335.399994</ele>
        <time>2017-06-11T10:54:04Z</time>
      </trkpt>
      <trkpt lat="47.46119" lon="6.59788">
        <ele>335</ele>
        <time>2017-06-11T10:54:05Z</time>
      </trkpt>
      <trkpt lat="47.4612" lon="6.59784">
        <ele>335</ele>
        <time>2017-06-11T10:54:07Z</time>
      </trkpt>
      <trkpt lat="47.46119" lon="6.59749">
        <ele>335</ele>
        <time>2017-06-11T10:56:33Z</time>
      </trkpt>
      <trkpt lat="47.46118" lon="6.59742">
        <ele>335</ele>
        <time>2017-06-11T10:56:37Z</time>
      </trkpt>
      <trkpt lat="47.46119" lon="6.59734">
        <ele>335.399994</ele>
        <time>2017-06-11T10:56:41Z</time>
      </trkpt>
      <trkpt lat="47.4612" lon="6.59731">
        <ele>336.200012</ele>
        <time>2017-06-11T10:56:43Z</time>
      </trkpt>
      <trkpt lat="47.4612" lon="6.59727">
        <ele>337</ele>
        <time>2017-06-11T10:56:45Z</time>
      </trkpt>
      <trkpt lat="47.46121" lon="6.59714">
        <ele>337</ele>
        <time>2017-06-11T10:56:50Z</time>
      </trkpt>
      <trkpt lat="47.46122" lon="6.59698">
        <ele>337.799988</ele>
        <time>2017-06-11T10:56:56Z</time>
      </trkpt>
      <trkpt lat="47.46122" lon="6.59696">
        <ele>338.200012</ele>
        <time>2017-06-11T10:56:57Z</time>
      </trkpt>
      <trkpt lat="47.46122" lon="6.59693">
        <ele>338.600006</ele>
        <time>2017-06-11T10:56:58Z</time>
      </trkpt>
      <trkpt lat="47.46122" lon="6.59671">
        <ele>339.399994</ele>
        <time>2017-06-11T10:57:06Z</time>
      </trkpt>
      <trkpt lat="47.46121" lon="6.59669">
        <ele>340</ele>
        <time>2017-06-11T10:57:07Z</time>
      </trkpt>
      <trkpt lat="47.4612" lon="6.59664">
        <ele>340.799988</ele>
        <time>2017-06-11T10:57:09Z</time>
      </trkpt>
      <trkpt lat="47.46119" lon="6.59658">
        <ele>341.200012</ele>
        <time>2017-06-11T10:57:11Z</time>
      </trkpt>
      <trkpt lat="47.46118" lon="6.59645">
        <ele>341.200012</ele>
        <time>2017-06-11T10:57:16Z</time>
      </trkpt>
      <trkpt lat="47.46115" lon="6.59635">
        <ele>341.600006</ele>
        <time>2017-06-11T10:57:20Z</time>
      </trkpt>
      <trkpt lat="47.46114" lon="6.59629">
        <ele>342.399994</ele>
        <time>2017-06-11T10:57:22Z</time>
      </trkpt>
      <trkpt lat="47.46113" lon="6.59619">
        <ele>343.399994</ele>
        <time>2017-06-11T10:57:26Z</time>
      </trkpt>
      <trkpt lat="47.46113" lon="6.59599">
        <ele>343.799988</ele>
        <time>2017-06-11T10:57:33Z</time>
      </trkpt>
      <trkpt lat="47.46113" lon="6.59596">
        <ele>344.200012</ele>
        <time>2017-06-11T10:57:34Z</time>
      </trkpt>
      <trkpt lat="47.46112" lon="6.59594">
        <ele>344.600006</ele>
        <time>2017-06-11T10:57:35Z</time>
      </trkpt>
      <trkpt lat="47.4611" lon="6.59589">
        <ele>345.399994</ele>
        <time>2017-06-11T10:57:37Z</time>
      </trkpt>
      <trkpt lat="47.46108" lon="6.5958">
        <ele>345.399994</ele>
        <time>2017-06-11T10:57:40Z</time>
      </trkpt>
      <trkpt lat="47.46102" lon="6.59567">
        <ele>345.399994</ele>
        <time>2017-06-11T10:57:44Z</time>
      </trkpt>
      <trkpt lat="47.46097" lon="6.59559">
        <ele>345.799988</ele>
        <time>2017-06-11T10:57:47Z</time>
      </trkpt>
      <trkpt lat="47.46095" lon="6.59556">
        <ele>346.200012</ele>
        <time>2017-06-11T10:57:48Z</time>
      </trkpt>
      <trkpt lat="47.46094" lon="6.59553">
        <ele>346.600006</ele>
        <time>2017-06-11T10:57:49Z</time>
      </trkpt>
      <trkpt lat="47.4609" lon="6.59548">
        <ele>347.600006</ele>
        <time>2017-06-11T10:57:51Z</time>
      </trkpt>
      <trkpt lat="47.46079" lon="6.59538">
        <ele>347.600006</ele>
        <time>2017-06-11T10:57:57Z</time>
      </trkpt>
      <trkpt lat="47.46069" lon="6.59527">
        <ele>349.200012</ele>
        <time>2017-06-11T10:58:04Z</time>
      </trkpt>
      <trkpt lat="47.46068" lon="6.59525">
        <ele>349.600006</ele>
        <time>2017-06-11T10:58:05Z</time>
      </trkpt>
      <trkpt lat="47.46066" lon="6.59517">
        <ele>349.600006</ele>
        <time>2017-06-11T10:58:08Z</time>
      </trkpt>
      <trkpt lat="47.46065" lon="6.59503">
        <ele>349.600006</ele>
        <time>2017-06-11T10:58:14Z</time>
      </trkpt>
      <trkpt lat="47.46065" lon="6.59495">
        <ele>350.399994</ele>
        <time>2017-06-11T10:58:16Z</time>
      </trkpt>
      <trkpt lat="47.46065" lon="6.59491">
        <ele>351</ele>
        <time>2017-06-11T10:58:17Z</time>
      </trkpt>
      <trkpt lat="47.46066" lon="6.59488">
        <ele>351.399994</ele>
        <time>2017-06-11T10:58:18Z</time>
      </trkpt>
      <trkpt lat="47.46067" lon="6.59485">
        <ele>351.799988</ele>
        <time>2017-06-11T10:58:19Z</time>
      </trkpt>
      <trkpt lat="47.46068" lon="6.59481">
        <ele>351.799988</ele>
        <time>2017-06-11T10:58:20Z</time>
      </trkpt>
      <trkpt lat="47.46083" lon="6.59455">
        <ele>352.200012</ele>
        <time>2017-06-11T10:58:31Z</time>
      </trkpt>
      <trkpt lat="47.46085" lon="6.59453">
        <ele>352.600006</ele>
        <time>2017-06-11T10:58:32Z</time>
      </trkpt>
      <trkpt lat="47.4609" lon="6.59452">
        <ele>354</ele>
        <time>2017-06-11T10:58:35Z</time>
      </trkpt>
      <trkpt lat="47.46092" lon="6.59439">
        <ele>354</ele>
        <time>2017-06-11T10:58:39Z</time>
      </trkpt>
      <trkpt lat="47.46092" lon="6.59434">
        <ele>354</ele>
        <time>2017-06-11T10:58:40Z</time>
      </trkpt>
      <trkpt lat="47.46089" lon="6.59422">
        <ele>354</ele>
        <time>2017-06-11T10:58:43Z</time>
      </trkpt>
      <trkpt lat="47.46087" lon="6.59405">
        <ele>354.399994</ele>
        <time>2017-06-11T10:58:47Z</time>
      </trkpt>
      <trkpt lat="47.46087" lon="6.59398">
        <ele>355.200012</ele>
        <time>2017-06-11T10:58:49Z</time>
      </trkpt>
      <trkpt lat="47.46085" lon="6.59392">
        <ele>356</ele>
        <time>2017-06-11T10:58:51Z</time>
      </trkpt>
      <trkpt lat="47.46085" lon="6.59385">
        <ele>356</ele>
        <time>2017-06-11T10:58:53Z</time>
      </trkpt>
      <trkpt lat="47.46083" lon="6.59373">
        <ele>356</ele>
        <time>2017-06-11T10:58:56Z</time>
      </trkpt>
      <trkpt lat="47.46083" lon="6.59363">
        <ele>356</ele>
        <time>2017-06-11T10:58:58Z</time>
      </trkpt>
      <trkpt lat="47.46083" lon="6.59355">
        <ele>356.399994</ele>
        <time>2017-06-11T10:59:00Z</time>
      </trkpt>
      <trkpt lat="47.46084" lon="6.59348">
        <ele>357.200012</ele>
        <time>2017-06-11T10:59:02Z</time>
      </trkpt>
      <trkpt lat="47.46083" lon="6.59337">
        <ele>358</ele>
        <time>2017-06-11T10:59:04Z</time>
      </trkpt>
      <trkpt lat="47.46082" lon="6.59328">
        <ele>358</ele>
        <time>2017-06-11T10:59:06Z</time>
      </trkpt>
      <trkpt lat="47.46073" lon="6.5929">
        <ele>358</ele>
        <time>2017-06-11T10:59:15Z</time>
      </trkpt>
      <trkpt lat="47.46073" lon="6.59287">
        <ele>358.600006</ele>
        <time>2017-06-11T10:59:16Z</time>
      </trkpt>
      <trkpt lat="47.46072" lon="6.59284">
        <ele>359</ele>
        <time>2017-06-11T10:59:17Z</time>
      </trkpt>
      <trkpt lat="47.46072" lon="6.59277">
        <ele>359.799988</ele>
        <time>2017-06-11T10:59:19Z</time>
      </trkpt>
      <trkpt lat="47.46073" lon="6.59272">
        <ele>360.200012</ele>
        <time>2017-06-11T10:59:20Z</time>
      </trkpt>
      <trkpt lat="47.46073" lon="6.59268">
        <ele>360.200012</ele>
        <time>2017-06-11T10:59:21Z</time>
      </trkpt>
      <trkpt lat="47.4607" lon="6.59242">
        <ele>360.200012</ele>
        <time>2017-06-11T10:59:27Z</time>
      </trkpt>
      <trkpt lat="47.46069" lon="6.59238">
        <ele>360.200012</ele>
        <time>2017-06-11T10:59:28Z</time>
      </trkpt>
      <trkpt lat="47.46064" lon="6.59227">
        <ele>360.200012</ele>
        <time>2017-06-11T10:59:31Z</time>
      </trkpt>
      <trkpt lat="47.46062" lon="6.59219">
        <ele>361.399994</ele>
        <time>2017-06-11T10:59:33Z</time>
      </trkpt>
      <trkpt lat="47.46062" lon="6.59214">
        <ele>361.799988</ele>
        <time>2017-06-11T10:59:34Z</time>
      </trkpt>
      <trkpt lat="47.46061" lon="6.59209">
        <ele>362.399994</ele>
        <time>2017-06-11T10:59:35Z</time>
      </trkpt>
      <trkpt lat="47.46053" lon="6.59181">
        <ele>362.399994</ele>
        <time>2017-06-11T10:59:41Z</time>
      </trkpt>
      <trkpt lat="47.46048" lon="6.5916">
        <ele>361.399994</ele>
        <time>2017-06-11T10:59:45Z</time>
      </trkpt>
      <trkpt lat="47.46044" lon="6.59149">
        <ele>360.600006</ele>
        <time>2017-06-11T10:59:47Z</time>
      </trkpt>
      <trkpt lat="47.46016" lon="6.59075">
        <ele>360.200012</ele>
        <time>2017-06-11T10:59:59Z</time>
      </trkpt>
      <trkpt lat="47.46003" lon="6.59038">
        <ele>360.200012</ele>
        <time>2017-06-11T11:00:04Z</time>
      </trkpt>
      <trkpt lat="47.45998" lon="6.59023">
        <ele>360.200012</ele>
        <time>2017-06-11T11:00:06Z</time>
      </trkpt>
      <trkpt lat="47.45989" lon="6.59">
        <ele>360.200012</ele>
        <time>2017-06-11T11:00:09Z</time>
      </trkpt>
      <trkpt lat="47.45975" lon="6.58962">
        <ele>358.399994</ele>
        <time>2017-06-11T11:00:14Z</time>
      </trkpt>
      <trkpt lat="47.45968" lon="6.58947">
        <ele>358</ele>
        <time>2017-06-11T11:00:16Z</time>
      </trkpt>
      <trkpt lat="47.45965" lon="6.58942">
        <ele>358</ele>
        <time>2017-06-11T11:00:17Z</time>
      </trkpt>
      <trkpt lat="47.45955" lon="6.58934">
        <ele>358</ele>
        <time>2017-06-11T11:00:19Z</time>
      </trkpt>
      <trkpt lat="47.45928" lon="6.58913">
        <ele>358</ele>
        <time>2017-06-11T11:00:25Z</time>
      </trkpt>
      <trkpt lat="47.45924" lon="6.58908">
        <ele>357.600006</ele>
        <time>2017-06-11T11:00:26Z</time>
      </trkpt>
      <trkpt lat="47.4592" lon="6.58902">
        <ele>357</ele>
        <time>2017-06-11T11:00:27Z</time>
      </trkpt>
      <trkpt lat="47.45917" lon="6.58895">
        <ele>356.600006</ele>
        <time>2017-06-11T11:00:28Z</time>
      </trkpt>
      <trkpt lat="47.45915" lon="6.58888">
        <ele>356.200012</ele>
        <time>2017-06-11T11:00:29Z</time>
      </trkpt>
      <trkpt lat="47.45912" lon="6.5888">
        <ele>355.799988</ele>
        <time>2017-06-11T11:00:30Z</time>
      </trkpt>
      <trkpt lat="47.45905" lon="6.58867">
        <ele>355.799988</ele>
        <time>2017-06-11T11:00:32Z</time>
      </trkpt>
      <trkpt lat="47.45899" lon="6.58852">
        <ele>355.399994</ele>
        <time>2017-06-11T11:00:34Z</time>
      </trkpt>
      <trkpt lat="47.45896" lon="6.58845">
        <ele>355</ele>
        <time>2017-06-11T11:00:35Z</time>
      </trkpt>
      <trkpt lat="47.45894" lon="6.58835">
        <ele>354.600006</ele>
        <time>2017-06-11T11:00:36Z</time>
      </trkpt>
      <trkpt lat="47.45888" lon="6.58816">
        <ele>353.799988</ele>
        <time>2017-06-11T11:00:38Z</time>
      </trkpt>
      <trkpt lat="47.45874" lon="6.58772">
        <ele>352.799988</ele>
        <time>2017-06-11T11:00:43Z</time>
      </trkpt>
      <trkpt lat="47.45872" lon="6.58763">
        <ele>352.399994</ele>
        <time>2017-06-11T11:00:44Z</time>
      </trkpt>
      <trkpt lat="47.4587" lon="6.58754">
        <ele>352</ele>
        <time>2017-06-11T11:00:45Z</time>
      </trkpt>
      <trkpt lat="47.4587" lon="6.58745">
        <ele>351.600006</ele>
        <time>2017-06-11T11:00:46Z</time>
      </trkpt>
      <trkpt lat="47.45869" lon="6.58729">
        <ele>351.600006</ele>
        <time>2017-06-11T11:00:48Z</time>
      </trkpt>
      <trkpt lat="47.45871" lon="6.58702">
        <ele>351.600006</ele>
        <time>2017-06-11T11:00:52Z</time>
      </trkpt>
      <trkpt lat="47.45871" lon="6.58695">
        <ele>351.600006</ele>
        <time>2017-06-11T11:00:53Z</time>
      </trkpt>
      <trkpt lat="47.45865" lon="6.58668">
        <ele>351.600006</ele>
        <time>2017-06-11T11:00:58Z</time>
      </trkpt>
      <trkpt lat="47.45849" lon="6.58632">
        <ele>351.600006</ele>
        <time>2017-06-11T11:01:05Z</time>
      </trkpt>
      <trkpt lat="47.4583" lon="6.58603">
        <ele>351.600006</ele>
        <time>2017-06-11T11:01:12Z</time>
      </trkpt>
      <trkpt lat="47.45814" lon="6.58581">
        <ele>351.600006</ele>
        <time>2017-06-11T11:01:18Z</time>
      </trkpt>
      <trkpt lat="47.45802" lon="6.58565">
        <ele>351.600006</ele>
        <time>2017-06-11T11:01:23Z</time>
      </trkpt>
      <trkpt lat="47.45794" lon="6.58549">
        <ele>351.600006</ele>
        <time>2017-06-11T11:01:28Z</time>
      </trkpt>
      <trkpt lat="47.45784" lon="6.58531">
        <ele>351.600006</ele>
        <time>2017-06-11T11:01:33Z</time>
      </trkpt>
      <trkpt lat="47.45771" lon="6.58501">
        <ele>351.600006</ele>
        <time>2017-06-11T11:01:38Z</time>
      </trkpt>
      <trkpt lat="47.45762" lon="6.58481">
        <ele>350.799988</ele>
        <time>2017-06-11T11:01:41Z</time>
      </trkpt>
      <trkpt lat="47.4576" lon="6.58475">
        <ele>350.399994</ele>
        <time>2017-06-11T11:01:42Z</time>
      </trkpt>
      <trkpt lat="47.45755" lon="6.58462">
        <ele>349.600006</ele>
        <time>2017-06-11T11:01:44Z</time>
      </trkpt>
      <trkpt lat="47.45754" lon="6.58458">
        <ele>349.600006</ele>
        <time>2017-06-11T11:01:45Z</time>
      </trkpt>
      <trkpt lat="47.45754" lon="6.58454">
        <ele>349.600006</ele>
        <time>2017-06-11T11:01:47Z</time>
      </trkpt>
      <trkpt lat="47.45745" lon="6.58439">
        <ele>348.600006</ele>
        <time>2017-06-11T11:02:02Z</time>
      </trkpt>
      <trkpt lat="47.45742" lon="6.58435">
        <ele>348.200012</ele>
        <time>2017-06-11T11:02:03Z</time>
      </trkpt>
      <trkpt lat="47.45737" lon="6.58425">
        <ele>347.399994</ele>
        <time>2017-06-11T11:02:05Z</time>
      </trkpt>
      <trkpt lat="47.45715" lon="6.58391">
        <ele>347</ele>
        <time>2017-06-11T11:02:11Z</time>
      </trkpt>
      <trkpt lat="47.45706" lon="6.58378">
        <ele>346.200012</ele>
        <time>2017-06-11T11:02:13Z</time>
      </trkpt>
      <trkpt lat="47.45676" lon="6.58333">
        <ele>345</ele>
        <time>2017-06-11T11:02:20Z</time>
      </trkpt>
      <trkpt lat="47.45663" lon="6.58314">
        <ele>343.600006</ele>
        <time>2017-06-11T11:02:23Z</time>
      </trkpt>
      <trkpt lat="47.45659" lon="6.58308">
        <ele>343.200012</ele>
        <time>2017-06-11T11:02:24Z</time>
      </trkpt>
      <trkpt lat="47.45649" lon="6.58294">
        <ele>343.200012</ele>
        <time>2017-06-11T11:02:26Z</time>
      </trkpt>
      <trkpt lat="47.45621" lon="6.58255">
        <ele>342.799988</ele>
        <time>2017-06-11T11:02:32Z</time>
      </trkpt>
      <trkpt lat="47.45615" lon="6.58251">
        <ele>342.399994</ele>
        <time>2017-06-11T11:02:33Z</time>
      </trkpt>
      <trkpt lat="47.45609" lon="6.58248">
        <ele>342</ele>
        <time>2017-06-11T11:02:34Z</time>
      </trkpt>
      <trkpt lat="47.45597" lon="6.58244">
        <ele>341</ele>
        <time>2017-06-11T11:02:36Z</time>
      </trkpt>
      <trkpt lat="47.45591" lon="6.58241">
        <ele>341</ele>
        <time>2017-06-11T11:02:37Z</time>
      </trkpt>
      <trkpt lat="47.45577" lon="6.58225">
        <ele>341</ele>
        <time>2017-06-11T11:02:40Z</time>
      </trkpt>
      <trkpt lat="47.45573" lon="6.58218">
        <ele>341</ele>
        <time>2017-06-11T11:02:41Z</time>
      </trkpt>
      <trkpt lat="47.45529" lon="6.58138">
        <ele>340.600006</ele>
        <time>2017-06-11T11:02:53Z</time>
      </trkpt>
      <trkpt lat="47.45516" lon="6.58118">
        <ele>339.399994</ele>
        <time>2017-06-11T11:02:56Z</time>
      </trkpt>
      <trkpt lat="47.45505" lon="6.58098">
        <ele>339</ele>
        <time>2017-06-11T11:02:59Z</time>
      </trkpt>
      <trkpt lat="47.45475" lon="6.58043">
        <ele>339</ele>
        <time>2017-06-11T11:03:07Z</time>
      </trkpt>
      <trkpt lat="47.45447" lon="6.57993">
        <ele>339</ele>
        <time>2017-06-11T11:03:15Z</time>
      </trkpt>
      <trkpt lat="47.45421" lon="6.57949">
        <ele>339</ele>
        <time>2017-06-11T11:03:22Z</time>
      </trkpt>
      <trkpt lat="47.45409" lon="6.5793">
        <ele>338.600006</ele>
        <time>2017-06-11T11:03:25Z</time>
      </trkpt>
      <trkpt lat="47.45401" lon="6.57917">
        <ele>337.799988</ele>
        <time>2017-06-11T11:03:27Z</time>
      </trkpt>
      <trkpt lat="47.45393" lon="6.57904">
        <ele>337</ele>
        <time>2017-06-11T11:03:29Z</time>
      </trkpt>
      <trkpt lat="47.45359" lon="6.57851">
        <ele>337</ele>
        <time>2017-06-11T11:03:37Z</time>
      </trkpt>
      <trkpt lat="47.45334" lon="6.57811">
        <ele>335.200012</ele>
        <time>2017-06-11T11:03:43Z</time>
      </trkpt>
      <trkpt lat="47.45322" lon="6.5779">
        <ele>334.799988</ele>
        <time>2017-06-11T11:03:46Z</time>
      </trkpt>
      <trkpt lat="47.45308" lon="6.5777">
        <ele>334.799988</ele>
        <time>2017-06-11T11:03:49Z</time>
      </trkpt>
      <trkpt lat="47.45291" lon="6.57742">
        <ele>333.600006</ele>
        <time>2017-06-11T11:03:53Z</time>
      </trkpt>
      <trkpt lat="47.45283" lon="6.57731">
        <ele>332.799988</ele>
        <time>2017-06-11T11:03:55Z</time>
      </trkpt>
      <trkpt lat="47.4528" lon="6.57728">
        <ele>332.799988</ele>
        <time>2017-06-11T11:03:56Z</time>
      </trkpt>
      <trkpt lat="47.45277" lon="6.57727">
        <ele>332.799988</ele>
        <time>2017-06-11T11:03:57Z</time>
      </trkpt>
      <trkpt lat="47.45271" lon="6.57733">
        <ele>332.799988</ele>
        <time>2017-06-11T11:03:59Z</time>
      </trkpt>
      <trkpt lat="47.45261" lon="6.57753">
        <ele>332.799988</ele>
        <time>2017-06-11T11:04:03Z</time>
      </trkpt>
      <trkpt lat="47.45259" lon="6.5776">
        <ele>332.799988</ele>
        <time>2017-06-11T11:04:04Z</time>
      </trkpt>
      <trkpt lat="47.45257" lon="6.57767">
        <ele>332.200012</ele>
        <time>2017-06-11T11:04:05Z</time>
      </trkpt>
      <trkpt lat="47.45256" lon="6.57776">
        <ele>331.799988</ele>
        <time>2017-06-11T11:04:06Z</time>
      </trkpt>
      <trkpt lat="47.45257" lon="6.57785">
        <ele>331.399994</ele>
        <time>2017-06-11T11:04:07Z</time>
      </trkpt>
      <trkpt lat="47.45259" lon="6.57794">
        <ele>331</ele>
        <time>2017-06-11T11:04:08Z</time>
      </trkpt>
      <trkpt lat="47.45263" lon="6.57802">
        <ele>330.600006</ele>
        <time>2017-06-11T11:04:09Z</time>
      </trkpt>
      <trkpt lat="47.45267" lon="6.5781">
        <ele>330.600006</ele>
        <time>2017-06-11T11:04:10Z</time>
      </trkpt>
      <trkpt lat="47.45288" lon="6.57845">
        <ele>328.799988</ele>
        <time>2017-06-11T11:04:14Z</time>
      </trkpt>
      <trkpt lat="47.45301" lon="6.57863">
        <ele>327.799988</ele>
        <time>2017-06-11T11:04:16Z</time>
      </trkpt>
      <trkpt lat="47.45307" lon="6.57873">
        <ele>327.200012</ele>
        <time>2017-06-11T11:04:17Z</time>
      </trkpt>
      <trkpt lat="47.45313" lon="6.57882">
        <ele>326.600006</ele>
        <time>2017-06-11T11:04:18Z</time>
      </trkpt>
      <trkpt lat="47.45341" lon="6.57922">
        <ele>324.399994</ele>
        <time>2017-06-11T11:04:22Z</time>
      </trkpt>
      <trkpt lat="47.45356" lon="6.57942">
        <ele>323.200012</ele>
        <time>2017-06-11T11:04:24Z</time>
      </trkpt>
      <trkpt lat="47.45363" lon="6.57954">
        <ele>322.600006</ele>
        <time>2017-06-11T11:04:25Z</time>
      </trkpt>
      <trkpt lat="47.45376" lon="6.57981">
        <ele>321.200012</ele>
        <time>2017-06-11T11:04:27Z</time>
      </trkpt>
      <trkpt lat="47.45408" lon="6.58047">
        <ele>316.600006</ele>
        <time>2017-06-11T11:04:32Z</time>
      </trkpt>
      <trkpt lat="47.4542" lon="6.58076">
        <ele>315</ele>
        <time>2017-06-11T11:04:34Z</time>
      </trkpt>
      <trkpt lat="47.4544" lon="6.58117">
        <ele>312.799988</ele>
        <time>2017-06-11T11:04:37Z</time>
      </trkpt>
      <trkpt lat="47.45447" lon="6.58131">
        <ele>312</ele>
        <time>2017-06-11T11:04:38Z</time>
      </trkpt>
      <trkpt lat="47.45453" lon="6.58144">
        <ele>311.200012</ele>
        <time>2017-06-11T11:04:39Z</time>
      </trkpt>
      <trkpt lat="47.4546" lon="6.58156">
        <ele>310.399994</ele>
        <time>2017-06-11T11:04:40Z</time>
      </trkpt>
      <trkpt lat="47.45467" lon="6.58168">
        <ele>309.600006</ele>
        <time>2017-06-11T11:04:41Z</time>
      </trkpt>
      <trkpt lat="47.45478" lon="6.58188">
        <ele>308.200012</ele>
        <time>2017-06-11T11:04:43Z</time>
      </trkpt>
      <trkpt lat="47.45481" lon="6.58198">
        <ele>307.600006</ele>
        <time>2017-06-11T11:04:44Z</time>
      </trkpt>
      <trkpt lat="47.45484" lon="6.58208">
        <ele>307</ele>
        <time>2017-06-11T11:04:45Z</time>
      </trkpt>
      <trkpt lat="47.45483" lon="6.58215">
        <ele>306.399994</ele>
        <time>2017-06-11T11:04:46Z</time>
      </trkpt>
      <trkpt lat="47.4548" lon="6.58217">
        <ele>305.799988</ele>
        <time>2017-06-11T11:04:47Z</time>
      </trkpt>
      <trkpt lat="47.45475" lon="6.58212">
        <ele>305.200012</ele>
        <time>2017-06-11T11:04:48Z</time>
      </trkpt>
      <trkpt lat="47.45473" lon="6.58204">
        <ele>304.399994</ele>
        <time>2017-06-11T11:04:49Z</time>
      </trkpt>
      <trkpt lat="47.45471" lon="6.58196">
        <ele>303.799988</ele>
        <time>2017-06-11T11:04:50Z</time>
      </trkpt>
      <trkpt lat="47.45465" lon="6.58187">
        <ele>303.200012</ele>
        <time>2017-06-11T11:04:51Z</time>
      </trkpt>
      <trkpt lat="47.45454" lon="6.58177">
        <ele>302</ele>
        <time>2017-06-11T11:04:52Z</time>
      </trkpt>
      <trkpt lat="47.45446" lon="6.58166">
        <ele>301.399994</ele>
        <time>2017-06-11T11:04:53Z</time>
      </trkpt>
      <trkpt lat="47.45438" lon="6.58156">
        <ele>301</ele>
        <time>2017-06-11T11:04:54Z</time>
      </trkpt>
      <trkpt lat="47.45424" lon="6.58136">
        <ele>299.799988</ele>
        <time>2017-06-11T11:04:56Z</time>
      </trkpt>
      <trkpt lat="47.45417" lon="6.58126">
        <ele>299.399994</ele>
        <time>2017-06-11T11:04:57Z</time>
      </trkpt>
      <trkpt lat="47.4541" lon="6.58117">
        <ele>299.399994</ele>
        <time>2017-06-11T11:04:58Z</time>
      </trkpt>
      <trkpt lat="47.45396" lon="6.581">
        <ele>298.399994</ele>
        <time>2017-06-11T11:05:00Z</time>
      </trkpt>
      <trkpt lat="47.4539" lon="6.58091">
        <ele>298</ele>
        <time>2017-06-11T11:05:01Z</time>
      </trkpt>
      <trkpt lat="47.45384" lon="6.58081">
        <ele>297.399994</ele>
        <time>2017-06-11T11:05:02Z</time>
      </trkpt>
      <trkpt lat="47.45361" lon="6.58034">
        <ele>297</ele>
        <time>2017-06-11T11:05:07Z</time>
      </trkpt>
      <trkpt lat="47.45351" lon="6.58019">
        <ele>297</ele>
        <time>2017-06-11T11:05:09Z</time>
      </trkpt>
      <trkpt lat="47.45339" lon="6.58006">
        <ele>296.600006</ele>
        <time>2017-06-11T11:05:11Z</time>
      </trkpt>
      <trkpt lat="47.45333" lon="6.58">
        <ele>296.200012</ele>
        <time>2017-06-11T11:05:12Z</time>
      </trkpt>
      <trkpt lat="47.45328" lon="6.57994">
        <ele>295.799988</ele>
        <time>2017-06-11T11:05:13Z</time>
      </trkpt>
      <trkpt lat="47.45317" lon="6.57981">
        <ele>295</ele>
        <time>2017-06-11T11:05:15Z</time>
      </trkpt>
      <trkpt lat="47.453" lon="6.57963">
        <ele>295</ele>
        <time>2017-06-11T11:05:18Z</time>
      </trkpt>
      <trkpt lat="47.45229" lon="6.5788">
        <ele>295</ele>
        <time>2017-06-11T11:05:32Z</time>
      </trkpt>
      <trkpt lat="47.45187" lon="6.57835">
        <ele>295</ele>
        <time>2017-06-11T11:05:41Z</time>
      </trkpt>
      <trkpt lat="47.45164" lon="6.57814">
        <ele>295</ele>
        <time>2017-06-11T11:05:46Z</time>
      </trkpt>
      <trkpt lat="47.45148" lon="6.57813">
        <ele>295</ele>
        <time>2017-06-11T11:05:49Z</time>
      </trkpt>
      <trkpt lat="47.45137" lon="6.57829">
        <ele>295</ele>
        <time>2017-06-11T11:05:52Z</time>
      </trkpt>
      <trkpt lat="47.4512" lon="6.57862">
        <ele>295</ele>
        <time>2017-06-11T11:05:57Z</time>
      </trkpt>
      <trkpt lat="47.45115" lon="6.57868">
        <ele>295</ele>
        <time>2017-06-11T11:05:58Z</time>
      </trkpt>
      <trkpt lat="47.4507" lon="6.57955">
        <ele>295</ele>
        <time>2017-06-11T11:06:11Z</time>
      </trkpt>
      <trkpt lat="47.45041" lon="6.58011">
        <ele>295</ele>
        <time>2017-06-11T11:06:20Z</time>
      </trkpt>
      <trkpt lat="47.4503" lon="6.58025">
        <ele>295</ele>
        <time>2017-06-11T11:06:23Z</time>
      </trkpt>
      <trkpt lat="47.45021" lon="6.58028">
        <ele>295</ele>
        <time>2017-06-11T11:06:25Z</time>
      </trkpt>
      <trkpt lat="47.45013" lon="6.58025">
        <ele>295</ele>
        <time>2017-06-11T11:06:28Z</time>
      </trkpt>
      <trkpt lat="47.45012" lon="6.58024">
        <ele>295</ele>
        <time>2017-06-11T11:06:31Z</time>
      </trkpt>
    </trkseg>
  </trk>
</gpx>